ECMWFFLT1_250_spd_000.txt.gz
Wind_Speed
24 26 28 28 28 27 27 28 29 30 31 31 32 33 33 33 33 32 32 33 33 33 35 38 41 42 42 43 43 42 41 42 42 42 43 44 45 47 49 51 53 55 55 51 48 52 59 66 70 68 63 58 59 61 64 69 73 74 73 71 70 68 66
25 27 29 31 31 31 30 30 31 32 32 33 34 35 35 36 36 35 35 34 35 36 38 41 43 44 44 45 45 44 43 44 44 44 45 46 47 49 51 53 54 57 57 53 50 53 60 68 70 67 62 60 61 62 65 70 73 75 75 73 71 70 70
27 29 31 32 34 34 34 33 33 34 35 35 37 38 38 39 39 39 39 38 38 39 41 43 44 45 46 46 46 45 44 45 46 47 48 48 49 51 53 54 56 58 58 54 53 56 61 68 70 66 62 62 63 64 67 71 74 76 77 76 73 72 71
32 32 33 34 36 37 37 36 36 36 37 37 39 41 41 42 43 43 43 43 43 44 45 46 46 47 47 47 46 45 45 46 47 49 52 52 52 53 55 56 57 60 59 55 56 59 63 68 70 67 64 64 65 66 67 71 74 76 77 78 76 73 72
36 36 36 37 39 41 41 39 39 39 38 39 41 42 44 46 47 46 46 47 47 48 49 49 49 48 47 46 45 43 44 47 48 51 54 56 56 56 58 59 59 61 60 57 58 62 65 68 71 69 67 66 66 66 68 71 75 76 78 78 77 74 73
39 39 39 38 40 43 44 43 43 41 40 41 42 44 46 48 49 50 50 50 50 50 51 50 49 47 46 45 43 41 43 46 48 53 57 58 59 60 61 61 61 62 61 58 61 65 66 68 71 71 69 67 67 68 69 72 75 77 77 77 77 75 74
41 41 41 41 41 43 45 46 45 44 43 43 44 46 47 49 50 51 51 51 51 51 50 48 47 45 44 42 40 39 42 46 50 54 58 60 61 62 63 64 63 63 62 61 65 68 66 67 71 71 69 68 67 69 72 74 77 79 77 76 76 76 75
44 44 44 44 44 45 47 47 47 47 46 46 46 47 47 49 50 51 52 52 52 50 49 46 44 43 41 38 37 38 42 48 53 56 59 61 63 64 65 65 63 63 64 66 70 68 65 68 72 71 70 70 70 72 75 77 79 79 77 76 76 76 76
46 46 46 46 46 46 47 47 48 48 48 48 48 48 48 49 50 50 51 51 51 49 47 44 42 40 38 37 37 39 43 50 56 58 61 63 65 67 67 65 63 65 68 71 73 70 67 69 73 71 71 72 72 74 77 78 78 78 78 78 78 78 78
48 49 48 48 47 47 48 48 49 49 49 49 49 50 50 50 50 51 51 51 50 48 45 43 41 38 38 39 41 43 47 53 58 60 62 65 66 69 69 65 65 69 72 74 75 72 69 71 73 72 72 74 74 75 77 78 79 80 80 80 80 80 81
52 52 51 49 49 50 50 50 50 51 50 50 50 51 51 52 52 51 51 51 50 48 45 43 41 41 42 44 47 51 53 57 62 64 65 67 69 72 71 68 70 73 75 77 78 74 70 72 74 72 73 75 75 76 78 79 81 83 83 82 81 83 84
54 55 54 52 51 51 53 53 52 52 52 51 51 51 52 53 54 53 53 52 52 51 48 46 46 46 47 50 54 58 60 65 69 69 67 68 73 78 74 70 71 73 76 80 79 73 70 73 74 73 74 76 77 77 79 82 84 84 85 83 83 86 86
55 56 57 56 53 52 53 54 54 54 54 54 53 53 54 55 55 55 55 55 54 53 52 51 51 52 53 56 61 65 69 71 69 66 67 71 78 82 75 68 70 74 76 78 74 69 69 74 76 75 77 79 79 79 81 84 85 85 86 84 85 87 85
55 57 59 58 55 53 53 54 55 55 55 55 54 54 55 56 56 57 57 57 57 56 56 56 56 58 60 62 66 70 73 69 63 66 72 76 81 81 72 67 72 75 75 72 68 67 71 75 77 78 80 80 80 81 84 86 86 85 85 84 87 90 86
55 58 59 58 57 55 55 56 56 55 55 56 55 55 55 56 57 58 59 59 59 60 60 60 61 63 64 67 71 72 71 68 68 74 77 77 79 75 68 68 74 75 72 68 67 71 74 76 79 81 82 82 82 84 86 87 86 86 85 86 91 93 88
57 59 58 58 57 57 57 57 57 56 56 57 57 58 57 58 58 59 60 61 62 63 64 64 65 66 68 71 71 69 69 69 71 76 75 72 70 66 64 70 76 75 72 70 71 75 76 77 81 84 85 85 84 86 88 87 87 87 87 91 95 94 90
61 61 59 58 58 57 57 58 57 57 56 56 57 58 59 60 61 61 62 62 64 66 67 68 68 68 69 70 67 67 70 70 69 73 71 63 60 61 65 73 77 76 73 72 74 77 78 81 85 88 88 86 85 88 89 87 87 88 91 94 95 92 91
64 65 63 61 60 59 59 58 58 58 57 56 56 57 58 60 61 62 63 64 65 67 68 68 68 67 68 69 66 65 67 66 65 65 61 56 58 63 69 74 76 74 71 72 76 79 83 87 89 89 88 86 86 89 89 89 91 94 96 96 95 93 93
67 68 67 65 64 63 62 61 60 59 59 58 58 58 59 60 61 63 63 63 64 65 66 67 67 67 68 69 66 63 61 60 59 58 56 59 64 68 72 75 73 70 70 73 79 84 88 89 88 88 87 86 88 90 92 94 98 100 98 97 97 96 94
70 70 69 68 67 67 66 65 64 62 61 61 62 61 62 63 64 64 63 63 63 63 65 66 67 67 67 65 63 60 54 51 52 54 58 63 68 71 75 75 71 69 73 78 84 88 90 88 87 87 87 88 90 93 96 99 101 100 98 98 99 97 93
73 72 71 70 69 69 68 68 67 66 65 65 64 65 66 67 67 65 63 63 64 65 67 67 65 64 61 58 54 49 44 44 51 60 65 68 72 75 76 74 72 73 77 82 88 90 89 87 86 87 88 89 91 95 100 102 101 99 98 99 98 95 91
74 73 72 72 72 72 72 71 71 70 68 67 67 68 68 67 67 65 65 66 68 69 69 65 62 59 55 49 44 41 42 48 57 65 70 72 75 76 76 75 76 78 82 87 90 90 88 87 86 88 89 89 91 95 100 101 100 99 99 99 97 93 88
75 74 75 76 76 75 74 73 73 72 71 71 72 72 70 68 66 66 68 70 70 70 68 65 61 56 47 40 39 42 48 57 64 70 73 75 77 78 78 78 80 83 87 90 90 89 87 87 88 90 91 91 93 97 100 100 100 100 100 100 97 93 88
76 77 78 78 77 75 74 74 74 73 73 73 73 73 71 70 69 69 71 71 68 67 65 60 55 51 43 38 41 45 52 62 69 73 74 75 77 78 79 80 84 88 91 90 89 88 87 89 91 93 94 95 97 100 101 101 101 101 101 100 98 93 89
78 78 77 77 76 75 74 74 74 74 74 72 70 68 68 68 71 72 71 70 67 64 61 53 48 47 45 45 47 51 58 65 69 70 72 74 77 78 80 83 88 91 90 89 88 88 89 92 95 96 97 98 100 101 102 102 101 102 101 100 97 93 88
77 77 76 76 76 76 75 75 75 75 74 71 70 70 70 72 74 74 72 70 66 63 60 54 51 53 55 56 57 59 63 67 70 73 76 78 80 82 85 88 90 91 89 87 88 89 92 94 97 98 99 99 101 102 102 102 102 102 101 99 95 91 88
76 76 76 77 77 75 74 73 72 72 71 71 72 73 73 73 74 73 71 68 66 64 60 55 55 59 60 58 59 63 67 72 77 81 82 82 83 86 89 90 90 89 88 88 89 92 94 96 98 100 100 100 102 102 103 103 103 103 102 99 95 91 90
77 76 76 76 76 75 73 71 70 70 71 72 73 74 73 72 71 69 67 64 63 63 61 58 59 63 63 61 63 68 72 76 79 80 80 82 87 90 91 90 89 89 88 89 90 92 95 98 99 99 99 101 103 104 105 105 105 104 103 99 94 92 92
76 75 76 76 76 75 73 71 71 71 71 72 73 73 73 71 68 66 65 63 62 62 62 63 66 68 68 67 68 70 71 72 74 77 81 87 92 94 93 92 90 89 88 88 90 94 97 98 97 97 101 104 105 106 106 105 105 105 101 97 94 94 95
75 75 75 75 75 75 73 71 70 70 70 70 71 71 70 68 67 65 64 64 64 64 64 66 69 71 71 69 68 71 74 75 77 81 86 91 93 93 93 93 91 88 88 90 93 95 96 96 97 100 104 107 107 107 106 106 106 104 99 95 95 96 97
73 72 72 72 72 71 71 71 71 70 70 70 70 69 69 67 65 63 61 61 62 63 65 67 68 70 71 68 68 73 79 82 84 86 88 89 90 91 93 94 91 90 91 93 94 95 95 97 101 105 107 107 107 106 107 107 106 101 97 95 97 98 99
70 70 70 71 70 70 71 72 72 72 72 72 72 71 68 65 60 58 58 57 54 55 59 62 62 65 66 66 69 74 78 82 84 86 87 88 89 91 94 95 94 93 93 93 94 96 99 101 104 106 106 106 107 107 108 108 104 98 96 97 99 100 99
68 69 71 73 74 74 74 74 74 74 74 74 71 68 64 61 57 56 57 55 49 47 49 52 56 61 64 66 70 73 76 80 83 86 87 88 88 91 95 97 95 92 91 93 96 99 101 102 103 103 104 107 108 108 109 107 101 96 97 101 102 101 99
68 70 72 73 73 73 73 73 73 73 73 70 68 65 62 59 56 56 57 56 53 53 56 60 63 67 70 72 75 77 79 81 84 85 86 85 86 89 93 94 93 91 93 96 99 100 100 100 101 103 106 108 109 109 109 104 98 96 101 104 103 102 98
69 69 69 69 69 69 70 70 71 71 71 69 66 63 61 58 56 57 58 58 58 61 65 68 68 68 69 72 74 75 76 77 76 76 77 79 82 86 88 90 92 95 98 100 99 98 98 100 102 105 108 109 110 110 105 99 96 99 103 105 104 101 96
68 67 67 67 68 69 70 71 72 72 70 67 64 62 60 58 56 57 58 60 62 64 65 66 66 67 67 67 67 68 70 71 71 72 74 78 82 84 85 89 95 99 100 100 99 98 100 102 105 108 110 111 111 106 100 96 97 101 104 104 103 100 93
72 71 70 70 71 73 74 74 74 72 70 68 66 64 62 60 59 58 59 62 64 65 64 66 69 70 68 66 65 65 67 70 74 77 78 81 84 84 86 92 98 100 100 99 99 101 103 106 108 111 112 111 106 100 96 96 99 102 103 104 101 96 91
71 72 73 74 76 77 77 75 74 73 72 71 70 68 66 65 64 63 63 66 69 70 71 73 75 76 75 76 75 74 74 76 80 83 85 86 87 88 92 98 101 101 100 101 102 104 107 109 112 113 111 105 99 96 96 99 101 102 102 101 97 93 89

ECMWFFLT1_250_spd_003.txt.gz
Wind_Speed
29 28 28 27 27 28 29 30 30 30 30 30 29 29 30 31 31 32 32 33 35 36 37 38 40 41 42 44 45 46 46 46 46 46 45 43 42 41 41 40 42 45 48 50 53 55 55 56 56 55 54 56 59 62 64 63 59 58 59 60 61 64 66
31 31 32 32 32 32 33 33 33 33 33 33 33 33 33 34 34 35 35 35 36 38 39 39 40 41 42 44 46 47 47 47 46 46 45 44 42 40 39 40 43 46 49 52 54 57 58 58 58 58 58 59 62 65 67 65 58 58 61 61 63 65 67
34 34 35 35 36 36 35 36 36 35 35 35 36 36 36 36 37 38 38 38 38 39 41 41 42 42 43 44 46 47 47 47 46 45 44 43 42 40 39 41 43 47 50 53 56 58 60 59 59 61 62 62 63 66 67 64 58 58 62 64 65 68 69
36 37 38 38 39 39 38 38 38 37 37 37 38 38 39 39 39 40 40 40 40 41 42 43 43 43 44 44 46 47 47 46 44 43 43 42 41 40 41 43 45 49 52 55 57 60 61 60 60 64 64 62 62 66 66 61 58 60 65 67 68 71 72
38 39 40 41 42 42 41 40 40 40 39 39 39 40 40 41 41 42 42 42 42 42 43 44 44 44 44 45 46 47 47 45 43 41 42 42 42 43 44 46 49 52 56 58 59 62 62 60 62 67 65 60 62 66 64 60 61 64 67 68 70 74 74
40 41 42 42 44 44 43 43 43 42 41 41 42 42 43 44 44 44 44 44 44 44 45 45 45 46 46 47 47 47 47 45 43 42 42 43 45 46 48 50 53 56 59 60 61 62 61 61 66 69 65 59 62 66 64 62 63 66 68 69 73 76 75
42 43 43 43 44 45 45 45 44 43 43 43 44 44 45 46 46 46 46 46 45 46 46 47 47 48 48 49 48 48 48 46 45 45 44 46 48 49 52 55 57 59 62 62 63 64 62 63 68 69 63 59 62 66 65 63 64 66 68 71 75 76 75
44 45 45 45 45 46 46 46 45 45 45 45 45 46 46 47 47 48 48 48 48 48 48 49 49 49 50 50 50 50 49 48 48 49 50 51 53 55 57 59 61 63 64 66 67 65 63 65 68 68 61 57 61 66 65 63 64 66 69 73 76 75 74
46 47 48 47 47 47 47 47 47 46 47 47 47 48 48 48 49 50 50 50 50 50 50 50 51 52 52 53 53 53 52 52 52 53 55 56 57 59 60 61 64 67 68 68 67 64 63 66 68 66 58 56 61 65 64 63 65 68 72 74 76 76 75
49 50 50 48 48 49 49 50 49 48 49 49 49 50 50 51 52 52 52 51 52 52 52 52 52 53 54 55 55 55 56 56 56 58 59 60 62 63 63 65 68 71 72 70 67 64 66 68 67 60 54 56 62 65 64 65 66 70 74 76 77 77 76
50 52 51 50 50 50 51 51 51 51 51 52 52 52 53 54 54 53 53 53 53 53 53 53 54 55 55 56 56 57 58 59 60 61 63 64 65 65 66 69 72 73 72 70 68 68 69 68 62 54 52 58 62 64 65 67 69 73 76 78 79 78 77
50 52 52 52 52 53 53 52 52 53 53 54 54 54 54 55 54 55 54 54 54 54 55 55 55 55 56 56 56 57 59 60 61 62 64 65 66 66 68 71 72 73 71 70 70 71 70 66 57 51 53 59 62 65 68 70 73 76 79 81 80 79 78
49 52 53 53 55 55 54 53 53 54 55 55 55 54 54 54 54 55 56 55 55 55 56 56 56 56 56 56 56 57 59 60 61 61 63 65 67 69 71 72 72 71 70 70 70 69 67 62 54 52 57 62 65 67 69 71 76 79 81 83 82 80 81
48 52 54 55 57 56 54 52 53 54 55 55 55 55 54 53 54 55 55 55 55 55 56 57 57 56 56 57 57 58 60 61 60 61 65 68 70 72 71 70 69 69 68 67 68 68 64 57 54 56 61 65 68 69 70 74 78 81 83 85 84 82 84
50 53 54 56 58 56 54 54 53 54 55 56 56 55 54 54 55 55 55 55 55 56 57 57 57 58 58 59 59 61 63 62 61 63 68 71 72 70 68 65 65 66 66 65 66 65 59 56 57 60 65 69 70 71 72 77 81 83 85 86 86 86 88
54 55 55 57 59 58 57 57 56 56 56 57 57 57 56 56 56 56 57 57 58 58 59 59 59 60 61 61 62 63 64 63 63 67 71 71 68 64 63 62 62 65 63 61 60 59 57 58 60 63 68 72 73 73 76 80 83 85 86 88 89 89 91
56 57 58 60 60 60 60 60 60 60 60 59 59 58 57 58 58 58 58 60 61 62 61 61 61 62 63 63 63 63 64 64 65 67 67 66 64 63 62 61 65 68 62 55 54 55 56 58 61 67 72 75 76 78 80 83 85 86 87 89 90 91 92
60 61 62 63 63 63 63 64 64 64 63 62 60 60 61 61 61 60 61 62 62 61 59 60 63 64 64 64 64 65 64 62 62 60 57 57 63 66 65 66 73 73 61 51 49 51 54 60 65 71 74 76 78 81 83 85 86 87 88 89 91 93 95
63 64 65 65 66 66 67 67 67 66 65 63 63 64 65 64 64 64 63 63 62 60 60 63 66 67 66 66 64 60 55 53 55 55 52 54 60 64 66 70 73 67 57 51 52 56 61 68 72 74 76 78 80 83 84 85 86 87 90 91 93 96 96
65 66 66 66 67 69 70 69 68 68 66 66 66 67 67 67 67 66 65 64 64 64 64 67 68 68 68 65 60 53 50 51 52 52 52 57 61 61 61 62 61 57 56 57 60 64 69 73 75 76 77 80 83 84 85 87 89 91 93 94 96 98 98
66 66 66 66 67 70 70 70 70 69 68 68 69 69 68 68 68 68 67 67 67 67 68 69 69 69 67 63 57 54 53 49 47 48 51 56 58 57 54 55 57 60 62 63 65 68 72 75 76 77 79 82 85 86 89 92 94 95 96 98 100 100 98
65 65 65 66 67 69 69 70 70 70 70 70 70 69 68 67 67 68 68 69 69 69 69 69 68 66 63 60 56 53 49 44 44 49 52 54 56 56 55 57 63 66 68 69 72 76 79 82 82 81 82 85 87 90 94 97 99 100 100 101 100 98 97
65 65 65 65 67 68 69 69 69 69 70 70 70 68 67 67 67 67 67 68 68 68 67 66 65 63 59 57 53 47 43 41 44 50 53 54 57 59 60 64 68 69 71 75 78 80 82 84 84 84 86 89 93 96 98 100 102 102 100 98 97 96 97
66 65 64 65 67 68 68 68 68 68 69 69 69 68 66 65 65 65 66 66 66 66 65 63 62 59 56 54 48 41 39 41 44 49 50 50 55 61 63 66 69 72 76 81 83 84 85 84 84 85 89 93 97 99 99 99 100 99 97 96 97 97 99
68 66 65 66 68 69 68 68 68 69 69 70 69 68 66 65 65 65 65 65 65 64 63 62 60 57 53 51 44 37 37 41 47 52 51 50 56 63 65 67 70 74 77 81 82 83 84 85 86 89 94 98 100 100 99 99 99 98 97 97 98 99 100
71 70 68 69 70 71 71 71 70 70 71 71 70 68 67 67 67 66 65 65 64 64 63 61 58 54 49 45 39 34 36 44 51 55 55 57 62 66 67 69 71 70 73 79 82 82 85 88 91 95 97 98 98 98 99 98 98 99 99 99 100 101 102
71 71 72 72 73 74 74 73 73 73 74 73 72 71 70 70 69 69 67 66 65 64 62 59 54 49 41 36 33 32 37 45 51 52 55 60 66 70 73 74 75 76 80 86 89 90 92 94 95 96 95 94 95 98 99 99 100 101 101 102 103 104 105
73 73 74 74 75 76 75 75 75 75 75 74 74 73 73 72 72 71 69 68 67 65 62 57 52 43 34 29 29 32 38 44 51 54 58 63 67 71 74 75 78 82 85 88 90 92 94 95 95 94 93 95 99 101 101 100 101 102 102 104 106 107 105
76 76 76 76 77 77 76 75 76 76 75 75 74 74 74 73 72 72 70 70 69 67 64 60 53 42 32 28 29 32 35 42 49 56 61 66 69 73 77 80 84 88 89 89 89 88 89 91 93 94 95 98 100 100 100 101 102 103 105 107 107 105 101
78 78 78 78 78 77 76 76 76 76 75 75 74 73 71 70 70 70 70 70 70 69 65 62 55 42 34 35 38 38 36 40 48 55 60 64 69 74 78 83 88 90 90 88 86 84 85 89 93 97 100 101 101 101 101 103 104 105 106 105 102 98 97
76 76 76 77 76 75 73 73 73 73 73 73 72 70 69 68 68 68 67 68 69 68 65 61 55 45 38 41 47 47 45 47 53 57 58 60 64 68 70 74 77 79 80 81 82 85 89 93 97 101 104 104 103 102 103 104 105 104 103 101 99 99 101
75 75 75 75 73 70 69 68 69 70 71 70 70 69 68 69 69 68 68 69 67 65 63 61 55 50 46 45 48 52 54 56 58 59 58 58 61 64 67 69 73 76 80 83 86 90 93 97 100 103 104 103 102 101 101 101 101 100 100 100 101 103 105
74 73 71 70 69 69 68 67 67 68 69 69 69 70 71 72 73 71 70 69 68 66 64 60 55 53 52 49 49 51 56 59 60 61 62 63 65 67 71 75 78 82 86 89 90 92 96 99 102 103 102 100 99 98 98 97 97 97 99 101 103 104 107
67 66 66 67 68 68 67 65 64 64 66 68 69 71 72 73 73 71 70 70 71 69 65 60 57 56 55 53 51 52 55 57 59 61 63 66 68 69 73 77 80 84 88 91 93 95 98 100 100 100 99 98 98 97 96 96 96 98 100 103 105 107 111
63 61 61 61 61 60 60 61 61 62 66 69 71 72 73 73 72 72 72 72 72 72 68 64 61 61 60 57 55 54 54 57 58 59 59 61 64 67 72 77 82 85 90 94 97 99 100 99 98 99 100 99 98 96 96 96 99 101 104 106 108 112 115
58 56 57 57 58 60 63 64 65 66 69 71 72 74 74 74 73 72 71 70 71 72 71 68 66 66 65 63 58 55 55 57 58 57 55 57 63 70 76 82 87 91 95 98 100 101 100 99 99 99 99 98 98 98 99 102 104 107 109 111 113 115 117
56 58 61 63 65 66 67 68 69 71 72 73 75 75 75 73 71 69 67 67 69 69 70 71 73 74 72 67 61 57 57 58 60 61 62 65 72 78 83 87 91 95 98 99 100 100 101 101 101 101 101 102 103 104 105 106 109 111 113 114 116 117 118
64 65 66 67 69 69 70 71 73 74 73 73 73 72 71 69 67 65 65 66 67 68 70 74 78 78 76 73 69 66 65 66 67 69 72 75 79 82 86 91 96 99 100 101 101 102 103 103 103 104 105 106 107 107 108 110 112 114 115 116 117 118 119

ECMWFFLT1_250_spd_006.txt.gz
Wind_Speed
25 25 25 25 26 28 30 30 30 30 31 31 31 31 32 32 33 34 34 35 36 36 36 37 37 37 37 37 38 38 39 40 41 41 41 41 41 41 41 41 41 41 41 41 41 41 43 45 47 50 54 56 58 59 58 55 52 51 54 54 49 46 47
29 28 28 28 29 31 32 33 33 33 34 34 34 34 34 35 36 36 37 37 37 38 37 38 38 39 39 39 40 40 41 42 43 44 44 44 44 43 42 41 41 41 42 43 44 45 46 48 51 54 57 59 60 59 58 55 51 52 54 55 50 47 48
32 32 32 32 33 33 34 35 35 36 36 36 36 36 36 37 37 38 38 38 38 39 39 39 40 40 41 42 42 42 43 45 46 46 47 47 47 46 45 44 43 43 45 46 47 48 50 51 54 57 58 59 60 59 57 53 51 52 55 55 50 46 48
35 35 35 35 36 35 35 36 37 38 38 39 38 38 38 39 39 40 40 39 39 40 40 41 41 42 43 43 44 45 46 47 48 49 49 50 49 49 48 47 46 46 47 48 49 50 51 53 55 56 58 59 59 58 56 54 52 53 55 53 49 47 49
37 38 38 39 39 38 38 37 38 39 40 40 40 40 40 41 41 41 41 41 41 42 42 43 43 44 44 45 46 46 47 47 48 49 50 51 51 50 50 49 48 48 48 50 51 51 53 54 56 57 58 59 58 57 56 55 54 55 55 52 49 49 50
39 40 41 41 41 41 40 40 40 41 41 42 42 42 42 42 43 43 43 44 44 44 45 45 45 46 46 47 47 47 47 47 48 48 49 51 52 51 51 50 50 51 52 52 53 53 55 57 58 59 58 57 56 56 56 55 55 56 56 53 51 51 52
42 43 43 44 44 43 43 43 43 43 44 43 43 43 44 45 45 46 46 46 46 47 47 47 48 48 48 48 48 47 48 48 48 48 49 50 51 52 53 53 54 55 56 55 54 54 57 59 60 59 56 54 54 56 56 56 57 57 57 55 53 53 55
45 46 46 46 46 45 45 46 46 46 46 45 45 45 46 47 47 48 48 48 48 48 48 48 49 49 49 49 49 49 48 48 49 50 50 51 52 54 55 56 57 59 59 58 55 56 58 59 57 56 54 53 55 58 59 58 58 59 59 56 55 56 58
47 48 49 48 47 47 48 48 49 49 48 47 47 48 48 49 49 49 50 50 50 49 49 49 49 50 50 49 49 50 49 49 51 52 53 53 54 55 57 59 60 61 61 58 56 56 56 54 54 55 55 56 58 61 63 61 59 59 58 56 56 58 61
49 50 50 49 48 49 49 50 51 50 50 49 49 49 50 50 51 51 51 50 50 50 49 49 49 49 49 50 50 50 50 51 52 55 56 56 56 58 59 62 63 63 61 57 55 55 52 50 54 57 57 59 61 63 64 63 61 59 57 56 58 61 63
50 50 51 50 49 49 51 52 52 52 51 50 50 50 51 52 52 52 52 51 51 51 50 50 50 50 50 51 51 51 52 52 54 58 59 58 57 59 62 65 64 60 57 54 54 53 49 51 59 61 60 61 62 64 66 64 61 59 57 58 61 63 65
50 50 51 51 50 50 52 53 52 52 52 51 51 52 52 53 53 53 52 52 51 51 51 51 51 52 53 53 53 53 54 54 56 60 60 58 58 61 65 66 62 58 53 51 52 52 50 56 64 65 63 62 61 64 66 63 60 59 60 60 62 64 67
50 50 51 52 52 51 52 53 53 54 54 53 53 53 54 54 54 54 54 53 52 53 53 53 53 55 56 55 55 55 55 57 58 57 55 55 58 62 63 59 57 57 55 51 52 54 56 60 65 66 64 61 59 62 63 60 58 59 59 61 63 67 72
51 51 52 54 53 52 53 54 55 56 56 55 55 55 56 56 56 56 55 54 55 55 56 56 56 57 58 57 56 56 57 59 57 52 51 56 61 60 56 53 55 58 58 57 57 58 60 61 62 63 62 57 56 57 57 56 57 59 62 65 70 74 78
53 53 53 54 55 54 55 56 57 58 59 58 57 57 58 59 58 58 57 57 57 58 59 59 59 60 60 59 59 58 58 56 52 50 54 59 61 57 54 56 60 61 61 60 59 59 61 62 62 62 59 56 54 55 56 58 61 66 69 72 75 76 77
55 55 55 55 55 55 57 59 60 61 61 60 59 59 59 60 60 60 60 60 60 60 61 62 62 62 62 62 61 58 54 51 48 52 56 57 58 58 59 62 65 66 64 61 60 61 62 64 66 64 61 60 57 56 60 64 67 70 72 74 75 76 78
57 57 56 55 55 56 58 60 62 62 62 62 62 62 61 62 62 62 63 63 62 62 63 64 64 64 64 63 61 57 53 49 49 52 53 52 55 57 57 59 62 64 64 62 61 62 63 65 67 65 64 63 59 59 63 66 68 71 73 75 77 79 81
60 60 58 56 57 58 60 61 62 63 63 64 64 64 64 64 64 64 65 65 65 64 64 64 63 63 64 63 61 58 54 50 49 49 48 48 49 50 50 53 57 61 63 62 61 61 62 64 64 63 63 61 59 62 65 68 70 73 75 78 80 81 81
63 62 60 58 59 61 62 63 63 64 65 66 67 67 67 66 65 66 66 66 64 63 63 63 62 61 61 60 59 57 54 50 48 45 42 41 44 49 52 54 57 60 62 61 61 61 62 63 62 61 61 62 62 65 68 71 74 76 79 82 82 80 82
66 64 62 61 62 64 65 64 65 66 67 68 68 68 67 67 66 66 66 65 63 61 61 61 61 60 59 59 59 57 54 50 47 42 38 38 44 51 54 56 57 58 58 59 60 60 61 62 63 63 66 67 67 67 69 73 77 80 83 83 81 82 87
68 66 64 64 64 66 66 66 66 67 68 68 68 68 67 66 65 65 65 64 62 61 60 60 60 60 60 60 60 58 55 51 46 40 35 38 46 50 52 56 58 57 57 58 59 58 59 62 66 69 71 70 69 69 72 76 81 84 85 84 84 87 91
69 68 66 65 66 66 66 66 67 67 67 67 67 67 66 65 64 64 65 64 62 62 62 62 62 61 61 62 61 60 57 53 49 43 38 40 47 51 52 56 59 58 56 57 58 58 60 63 66 71 73 72 71 74 79 83 86 88 88 87 88 90 92
69 68 67 66 66 66 66 66 66 66 66 66 66 65 64 63 64 64 64 64 63 64 64 64 64 64 64 64 62 61 59 55 52 48 43 42 46 51 51 52 54 53 53 55 58 61 63 64 67 71 74 76 78 82 85 88 89 90 90 89 89 90 92
69 68 67 66 65 65 65 66 65 65 65 65 65 64 63 63 65 66 65 65 66 67 67 66 65 65 65 65 64 62 61 58 52 48 44 41 41 45 46 46 47 49 50 53 59 62 63 64 67 71 75 78 82 85 88 89 89 89 90 90 89 89 89
69 67 66 65 64 64 65 66 65 64 64 65 64 64 64 65 67 67 67 68 69 70 69 68 67 67 67 66 65 63 62 58 51 46 42 38 36 37 38 39 43 48 51 54 59 61 62 63 67 71 76 80 83 84 85 85 85 85 85 84 83 84 86
68 66 64 64 63 64 66 66 65 65 65 66 65 66 67 68 69 69 69 70 71 71 71 70 69 69 69 68 66 65 62 57 51 45 42 38 36 35 35 36 40 46 52 58 62 63 65 69 72 75 78 79 79 80 80 79 78 78 78 79 81 85 88
66 65 64 64 64 66 67 67 67 67 68 68 68 69 70 70 70 70 71 72 73 73 73 72 71 70 70 68 67 65 61 56 51 47 42 40 39 39 39 42 46 50 54 60 65 68 71 73 75 77 78 76 76 78 79 79 79 80 82 85 88 91 92
67 65 65 66 67 68 69 70 70 71 71 71 71 71 71 72 72 72 72 73 74 74 74 73 72 71 70 68 66 64 60 56 52 49 46 45 44 44 46 51 55 57 59 63 68 71 74 75 77 79 79 79 80 82 83 84 86 88 90 92 94 95 96
67 67 67 68 70 70 71 72 73 73 73 73 73 73 73 74 74 74 74 74 75 75 74 74 72 71 70 68 66 63 60 57 53 48 46 48 50 50 52 55 59 61 63 66 70 72 75 77 78 79 80 82 85 88 89 90 91 92 93 94 96 98 101
69 70 71 72 73 74 74 74 73 73 73 73 74 74 74 75 75 75 75 75 74 74 74 74 72 71 70 67 64 62 61 60 56 50 46 48 53 57 58 59 61 64 67 69 72 73 75 78 79 79 80 82 86 91 93 94 94 94 94 96 99 101 103
72 73 73 74 75 75 75 75 74 73 73 74 75 76 75 76 76 75 74 74 73 74 75 73 71 69 67 65 64 63 63 63 60 56 51 49 52 57 61 62 63 65 69 72 74 74 75 76 77 78 81 83 86 90 92 93 94 96 97 98 100 101 104
68 70 70 70 72 73 74 74 75 75 75 76 76 75 75 75 75 74 74 74 74 73 71 70 68 68 68 67 66 66 66 65 63 61 58 54 52 54 58 61 63 64 66 69 73 75 74 71 70 72 75 77 80 84 88 91 94 96 97 98 100 103 106
69 71 72 73 74 74 75 75 76 75 75 74 74 73 73 73 73 73 73 72 70 68 67 68 70 71 71 70 69 69 69 68 66 64 62 59 56 53 54 58 59 59 60 63 68 72 75 75 75 75 76 77 80 84 88 91 93 95 97 100 104 107 110
74 75 76 75 74 73 73 74 74 72 71 71 72 72 71 69 68 68 69 68 68 69 70 72 72 72 70 70 71 71 71 69 67 65 63 62 60 58 57 58 59 58 58 59 62 67 71 75 78 80 81 83 85 88 90 92 94 97 101 105 109 112 112
78 78 77 75 73 71 70 70 70 70 70 71 70 68 65 62 62 65 67 68 70 72 73 74 74 73 72 72 71 70 68 66 64 63 62 62 63 64 65 67 69 68 65 62 62 64 67 71 74 78 81 84 86 89 92 95 98 102 106 108 110 109 107
77 77 76 75 73 72 71 70 71 72 72 71 67 64 64 65 67 69 71 72 73 74 74 75 75 74 72 70 68 66 64 62 61 62 63 65 68 71 73 75 76 76 74 71 67 67 69 72 74 77 81 84 88 92 95 99 103 105 105 104 102 100 98
74 74 74 75 75 75 74 74 75 76 74 70 67 66 68 69 71 72 73 73 73 73 74 74 73 71 69 67 66 65 64 63 63 64 66 69 71 74 75 76 77 77 77 77 76 76 77 78 80 83 87 91 94 97 101 103 103 101 98 96 96 95 95
75 75 77 77 77 77 77 77 78 78 75 72 70 70 70 70 70 72 72 72 72 72 73 73 72 72 71 69 67 65 64 63 64 66 68 69 71 72 73 74 74 74 75 76 78 80 82 85 88 92 95 98 100 103 105 104 99 95 94 94 93 92 93

ECMWFFLT1_250_spd_009.txt.gz
Wind_Speed
22 22 22 22 23 24 24 24 25 27 27 27 27 28 28 29 30 30 31 31 32 32 32 32 32 33 34 34 35 35 36 37 37 37 37 37 37 37 37 37 37 37 38 39 40 41 42 43 44 45 46 47 47 45 44 45 45 43 42 42 44 46 47
26 25 25 25 26 27 28 28 29 29 29 29 29 30 31 31 32 32 32 32 32 33 33 33 34 35 35 36 37 38 38 39 39 39 39 38 38 38 38 38 39 39 40 41 42 43 44 45 46 47 47 48 47 45 45 44 42 41 43 45 48 50 49
29 28 28 28 29 30 31 31 32 31 31 31 31 32 32 33 33 33 33 34 34 34 34 35 36 36 37 38 39 40 40 41 41 41 40 39 39 39 40 41 42 42 43 44 45 46 46 46 48 48 46 45 44 44 44 41 40 43 47 49 52 52 49
31 31 31 31 31 32 33 33 33 33 32 32 33 33 34 34 35 35 35 35 36 36 36 37 38 38 39 40 41 42 42 42 42 42 42 41 41 42 42 43 45 45 46 47 48 48 47 48 50 48 43 41 41 42 43 40 41 46 49 51 54 52 50
34 34 34 34 33 33 34 35 35 35 35 35 35 36 36 36 36 36 37 37 38 38 38 39 40 40 41 42 42 43 43 43 43 43 43 43 44 45 45 47 47 48 49 48 47 48 49 50 50 46 41 41 43 44 45 43 44 48 51 54 56 53 51
36 36 36 36 35 35 35 36 37 38 38 38 38 38 39 39 39 39 39 39 39 40 40 40 41 41 42 43 44 44 44 44 44 44 44 45 46 47 47 49 50 50 50 47 45 48 50 50 48 44 43 45 47 47 47 47 50 52 55 57 57 53 51
38 38 38 38 37 37 38 39 39 40 40 40 41 41 42 42 42 41 41 41 41 41 41 42 42 42 43 44 45 45 45 44 45 46 46 46 48 49 50 51 51 51 50 47 46 48 49 48 45 44 45 47 49 50 51 52 55 56 57 57 55 52 50
41 40 40 40 40 39 40 41 42 42 42 42 43 44 44 44 44 44 43 42 42 42 42 42 43 43 44 45 45 46 45 45 46 47 48 50 51 52 52 51 51 51 50 48 49 51 51 47 44 44 46 48 50 53 54 56 57 57 56 55 53 51 50
43 43 43 43 42 42 42 43 44 44 44 44 45 45 46 46 46 45 45 44 43 43 43 43 44 44 45 45 46 47 47 47 48 49 51 53 52 51 51 51 53 54 51 49 52 56 56 50 44 46 48 50 52 52 53 55 56 55 55 53 52 52 52
46 46 45 45 45 44 45 45 46 46 46 46 47 47 48 48 47 47 46 46 44 44 44 44 45 46 46 47 47 47 48 48 50 51 53 53 53 54 53 53 55 55 51 51 57 60 57 51 47 48 49 51 52 50 50 52 53 54 54 52 52 53 54
50 49 47 47 47 47 48 48 48 48 48 48 48 49 49 49 49 48 48 47 46 45 45 45 46 48 48 48 48 49 49 49 50 50 51 52 54 55 53 53 55 54 52 56 60 57 52 49 47 47 48 51 53 50 49 50 52 54 55 54 54 54 55
52 50 49 49 49 49 50 50 50 50 50 51 51 51 51 51 50 50 50 49 48 47 47 47 48 50 50 50 50 50 50 50 51 51 50 51 53 53 52 53 55 54 55 59 59 53 49 49 47 47 49 52 53 50 49 50 53 56 57 57 56 56 59
52 51 50 51 51 51 51 51 51 51 51 52 52 53 53 52 52 52 52 51 50 50 49 49 50 51 52 52 52 52 51 51 51 49 48 50 51 51 52 54 54 54 56 56 54 51 50 50 50 50 52 52 50 47 47 50 53 56 59 60 59 61 64
52 51 51 52 53 53 52 52 52 52 52 53 54 54 54 55 55 55 54 54 53 52 51 51 52 53 54 54 53 52 51 51 49 45 44 47 50 52 54 55 54 55 55 54 53 52 51 53 54 53 51 50 47 47 49 52 54 56 59 60 60 64 68
53 52 52 54 55 55 54 53 53 54 54 55 55 56 56 57 58 57 57 56 55 54 53 53 54 55 55 55 53 51 50 48 46 42 39 40 45 52 55 54 53 54 55 55 55 54 54 57 56 53 51 49 48 50 53 55 56 58 60 61 63 67 70
54 54 54 55 56 56 56 55 55 56 56 57 58 58 59 59 60 59 59 58 57 57 56 56 56 57 56 56 53 51 50 47 44 39 33 31 37 48 53 54 55 57 58 57 56 56 58 59 56 53 52 51 50 52 54 55 56 58 61 63 66 69 70
56 56 56 57 57 57 57 56 55 56 57 58 60 60 61 62 62 62 62 61 60 60 59 58 58 58 57 56 54 52 51 48 44 39 32 28 31 40 47 53 58 60 59 57 55 56 59 59 54 50 50 50 50 51 53 54 56 60 63 65 67 69 70
57 57 58 58 58 58 57 56 56 56 58 60 61 62 63 64 65 66 66 65 64 63 62 61 60 59 58 56 54 52 51 49 46 41 35 30 31 39 48 56 61 62 60 58 57 59 61 58 52 48 48 51 52 52 53 53 57 63 66 66 68 70 71
58 58 59 59 60 58 57 56 56 56 58 61 63 63 64 65 67 68 69 69 68 67 65 64 62 60 58 56 53 52 50 49 48 45 41 38 39 45 51 55 59 61 61 60 61 63 63 60 56 53 52 54 54 53 55 57 61 66 68 68 70 72 72
59 60 61 62 62 60 58 57 57 57 60 63 64 64 65 67 69 69 70 70 70 69 68 66 64 61 58 56 54 52 50 50 51 50 49 47 47 49 51 53 56 57 58 60 61 63 63 63 61 56 53 55 56 57 60 62 64 66 67 67 69 70 72
62 62 63 64 63 60 59 58 59 60 63 65 65 65 67 69 70 70 70 70 70 70 68 67 65 62 59 57 55 54 53 53 54 54 55 54 54 54 54 54 55 57 57 58 58 59 59 59 57 52 50 54 58 61 64 66 65 66 66 66 68 71 74
64 64 66 65 63 61 61 62 62 63 64 65 66 68 70 71 71 70 70 70 69 68 67 65 64 62 60 59 58 56 56 57 57 58 59 60 60 59 57 56 56 57 58 57 55 55 54 52 52 53 54 57 61 64 68 71 71 70 69 68 70 75 79
67 67 68 66 64 64 65 65 65 65 66 67 69 71 72 71 71 70 70 69 68 67 65 64 63 62 61 61 61 60 59 60 60 61 62 63 63 61 59 58 57 57 57 55 51 49 49 49 52 56 59 61 64 68 71 74 76 75 73 73 76 81 86
70 70 69 68 67 67 68 68 67 67 68 69 70 72 73 71 71 70 69 68 67 65 64 63 63 62 63 64 64 64 63 63 63 64 65 65 64 63 61 59 58 56 53 49 47 48 50 51 54 60 66 68 70 72 73 74 76 76 78 80 82 86 89
72 72 71 70 69 69 69 70 70 69 69 70 72 73 72 71 70 69 68 67 66 65 65 64 63 64 65 67 68 67 66 66 66 67 67 67 66 64 62 60 58 55 52 51 53 55 55 56 58 62 66 68 71 74 74 75 75 77 78 80 82 85 87
73 73 72 71 71 71 71 71 71 71 71 72 72 72 72 71 70 68 67 66 66 65 65 65 65 67 68 70 71 71 69 69 69 68 68 68 66 64 63 60 57 54 52 53 57 59 60 61 64 66 68 70 72 73 75 77 78 79 80 81 83 86 89
73 73 73 73 72 71 71 71 72 72 72 72 72 72 71 70 69 68 67 66 66 66 66 67 68 70 71 73 73 73 72 72 71 70 69 68 67 67 64 59 55 52 51 52 56 61 64 66 68 69 71 73 75 76 77 78 80 81 83 83 83 85 87
73 74 74 73 72 72 72 72 72 72 71 72 72 72 71 70 69 68 67 67 67 67 69 70 71 72 73 74 74 75 74 73 71 70 70 70 69 66 61 57 54 53 53 55 57 61 65 69 71 73 74 75 76 78 79 80 81 83 84 83 84 85 87
73 74 74 74 73 73 72 72 72 71 71 71 71 71 70 70 69 68 68 68 69 70 71 71 72 73 74 75 76 75 73 72 71 72 72 70 66 62 60 60 60 58 57 58 59 60 62 66 70 74 76 78 79 79 80 81 82 81 81 82 84 86 88
74 75 75 75 75 73 72 70 69 66 67 70 71 70 70 71 71 71 70 71 71 71 72 73 74 74 75 75 74 73 71 72 72 72 70 66 63 63 64 65 64 63 62 61 61 60 60 61 65 70 74 77 79 80 80 79 78 78 78 80 82 84 86
75 76 76 75 75 73 71 70 67 63 63 66 69 69 70 71 72 73 72 71 72 72 73 74 74 74 73 73 72 72 72 73 73 72 69 67 66 66 67 66 66 66 66 65 63 60 56 55 57 62 66 70 74 76 77 78 78 78 79 80 81 83 84
75 75 75 74 74 72 70 69 68 67 67 68 70 72 73 73 73 73 72 72 73 74 73 73 72 72 71 71 72 73 74 74 73 72 70 68 68 68 68 67 67 67 65 64 63 61 58 55 55 57 60 62 65 67 69 72 74 76 78 79 80 81 81
74 74 74 73 73 71 70 69 70 71 71 72 73 75 74 73 73 73 72 73 74 74 73 72 72 72 72 73 74 74 73 72 71 71 70 68 68 68 67 67 67 66 65 65 65 64 63 62 61 60 60 61 63 64 66 68 70 73 76 77 78 80 82
73 73 73 73 73 72 72 72 73 72 72 74 75 76 75 74 74 73 73 73 75 75 74 74 74 74 75 76 76 75 73 71 71 70 69 68 68 68 68 67 67 67 67 68 68 67 66 65 64 64 65 67 68 70 70 72 73 76 78 81 83 85 88
73 73 74 74 74 74 74 74 74 74 74 75 76 76 76 75 75 74 74 74 75 75 75 75 76 76 77 78 78 76 74 73 71 70 69 70 70 69 68 68 68 68 69 70 70 69 68 69 70 70 71 73 74 75 76 77 78 80 82 84 86 88 90
73 74 74 74 74 75 75 75 76 76 76 77 77 77 77 76 76 75 75 74 74 75 76 77 78 79 79 79 78 76 74 73 71 70 70 70 69 69 69 70 70 70 69 69 69 70 70 71 72 73 74 75 76 76 77 78 79 80 82 84 85 87 89
74 74 74 75 75 76 77 78 78 78 78 78 78 77 77 76 75 75 74 74 74 76 77 78 79 80 80 79 78 77 75 73 72 71 70 69 69 69 71 72 73 72 71 71 70 70 71 72 73 74 75 76 77 77 78 79 80 81 83 84 86 88 91
75 75 76 76 77 77 78 80 80 79 79 78 77 77 76 75 74 74 74 74 75 77 78 78 79 80 80 79 78 77 76 75 73 72 70 70 71 72 74 76 76 76 75 74 73 73 74 75 76 77 78 79 80 81 81 81 82 83 84 87 90 92 94

ECMWFFLT1_250_spd_012.txt.gz
Wind_Speed
24 22 21 21 21 21 20 20 20 19 19 20 21 22 23 24 25 26 26 26 26 27 28 29 29 30 30 30 30 30 31 32 33 34 35 35 36 36 36 36 37 37 38 39 41 42 42 41 39 36 36 38 40 43 42 38 36 37 39 40 41 42 43
26 25 24 23 23 23 23 23 23 22 23 23 23 24 25 26 27 27 28 28 28 28 29 30 31 31 32 32 32 32 32 33 34 35 35 36 37 37 37 37 39 39 40 42 43 43 41 40 40 38 37 39 43 46 45 40 38 39 40 41 42 44 46
28 28 27 26 26 26 26 26 26 25 26 25 25 26 27 28 29 29 30 30 30 30 31 31 32 33 33 33 33 33 33 34 35 36 37 37 38 38 38 39 40 42 42 42 42 42 40 40 41 40 40 41 44 48 46 41 40 41 41 42 44 46 46
31 30 30 29 29 28 28 28 28 27 27 27 28 28 29 30 31 31 31 31 32 32 32 33 34 34 34 34 34 34 34 35 36 37 38 38 39 40 40 41 42 44 44 42 41 40 39 40 42 42 42 43 45 47 45 41 40 41 42 43 45 46 46
33 32 32 31 31 31 30 30 29 29 29 29 30 30 31 32 32 32 33 33 34 34 34 35 35 35 35 35 35 35 35 36 37 38 39 40 41 41 42 43 44 45 44 42 41 39 38 40 42 43 43 44 46 46 43 39 38 40 42 43 45 46 46
35 35 35 34 34 33 33 33 32 31 31 32 32 32 33 34 34 34 35 35 36 36 36 37 37 37 36 36 36 36 37 38 39 39 41 42 43 43 44 45 46 46 45 43 40 39 39 41 43 45 45 45 46 44 40 38 39 40 41 42 43 45 45
38 38 38 37 36 35 35 35 34 34 33 33 34 34 34 35 35 36 36 37 38 38 38 38 38 38 38 38 37 37 38 39 40 41 43 43 44 44 46 47 48 48 46 43 40 40 40 41 44 47 48 47 45 42 39 40 41 41 41 42 43 43 43
41 40 40 39 38 37 36 36 36 36 35 35 35 36 36 37 37 38 38 39 40 40 40 40 39 39 38 38 38 39 40 41 42 43 43 44 45 46 48 49 50 49 47 43 42 41 40 41 44 47 48 46 43 41 40 41 43 43 43 43 43 42 42
44 43 41 40 39 39 38 38 38 38 37 37 38 38 38 39 39 40 41 42 42 42 42 41 40 40 39 39 39 40 41 43 44 44 44 44 45 47 50 51 51 51 47 43 40 38 38 41 44 47 47 43 41 42 43 43 45 46 45 44 43 42 43
46 44 43 42 41 41 40 40 40 40 39 40 40 40 41 41 42 42 43 44 44 44 44 43 42 41 41 40 41 42 43 44 45 45 45 45 47 49 51 52 52 48 43 39 37 37 40 45 47 48 47 45 43 44 45 47 49 49 45 43 43 43 44
47 46 45 44 44 43 42 42 42 42 41 41 42 42 43 43 44 45 46 46 46 46 45 45 44 44 43 42 43 43 44 45 45 45 45 47 49 50 50 50 48 41 36 36 38 40 45 49 50 49 48 47 46 46 48 49 49 47 43 42 43 43 44
48 48 47 46 45 45 44 44 44 44 43 43 44 44 45 45 46 47 48 48 48 48 47 47 46 46 45 44 45 45 45 45 46 46 45 47 48 48 48 49 46 39 36 39 42 46 49 50 50 50 49 49 48 50 50 50 48 44 40 40 41 41 43
50 49 48 47 47 46 46 46 46 45 45 44 45 46 46 47 48 49 49 50 50 50 49 49 49 48 47 47 47 47 47 47 47 46 45 45 47 49 51 50 47 43 43 45 47 48 50 49 49 50 50 50 51 52 52 51 48 43 39 39 41 41 44
52 51 50 49 49 49 49 49 47 46 46 46 46 47 48 48 50 51 52 52 52 52 52 52 52 50 49 49 49 49 49 48 49 47 45 43 43 47 50 48 46 46 47 46 47 47 48 50 53 54 55 56 57 57 56 53 48 44 42 43 45 47 48
54 53 52 52 52 51 50 50 48 47 47 47 48 49 49 50 52 53 54 55 55 55 55 54 54 52 50 50 50 50 50 50 50 48 46 43 40 43 50 53 51 51 51 50 51 51 52 55 57 57 58 60 61 61 61 60 57 54 52 53 55 56 54
55 55 55 55 54 53 52 51 49 48 49 50 51 51 51 53 54 55 56 57 58 58 57 57 55 53 52 51 52 52 52 52 52 49 48 46 41 42 50 56 56 55 54 54 54 54 56 58 59 59 58 59 60 62 63 64 64 63 62 64 65 62 56
57 56 56 56 56 54 53 52 51 50 50 52 52 53 54 56 57 57 58 59 60 60 59 58 56 54 53 53 53 53 53 53 53 51 49 48 46 45 48 52 54 55 55 56 56 57 57 60 61 61 60 60 61 62 62 63 64 64 63 64 63 60 57
59 57 57 57 56 55 55 54 53 52 52 53 54 55 57 59 60 60 60 61 62 62 61 59 58 56 55 54 55 55 54 54 53 51 50 49 49 48 48 49 51 53 54 56 58 58 59 60 63 64 63 64 64 64 64 63 63 62 60 59 57 57 58
60 59 58 58 57 57 58 56 55 54 54 55 57 58 60 62 63 63 62 62 63 63 63 62 61 59 57 57 57 57 56 55 53 52 51 50 50 50 50 51 52 53 55 57 58 59 60 62 64 65 65 66 66 65 65 64 63 62 61 58 56 56 58
62 60 59 58 58 59 60 58 57 57 56 57 58 60 62 64 64 64 64 64 65 65 64 65 64 63 62 61 60 59 58 57 55 53 52 52 52 52 52 53 54 56 58 60 61 62 63 64 66 66 66 67 67 65 64 64 63 62 60 59 57 57 59
63 62 60 59 59 61 62 60 59 58 58 58 59 61 64 65 65 65 66 66 66 66 66 67 67 67 66 65 64 63 62 60 58 56 55 54 54 54 54 56 57 59 61 63 64 65 66 68 69 67 65 65 64 63 63 64 64 62 61 61 61 61 63
64 63 62 60 60 62 63 62 60 59 59 59 59 62 65 66 67 67 67 67 68 67 67 68 69 69 69 68 67 66 65 63 61 59 58 56 56 55 56 58 59 61 63 65 66 67 68 69 69 66 64 62 62 62 62 62 63 64 65 65 65 65 67
65 64 64 62 62 63 66 65 62 61 61 61 62 63 66 67 68 68 69 69 69 69 69 70 70 70 70 69 68 67 65 64 63 62 61 59 58 58 59 60 61 63 65 67 68 68 68 67 66 65 64 62 61 61 62 63 64 66 68 68 67 68 70
67 67 66 65 64 66 68 68 65 64 65 65 65 66 67 68 69 69 70 70 70 70 71 71 71 71 71 70 68 67 66 64 64 63 63 62 61 61 61 63 64 66 68 69 69 67 66 65 65 64 63 61 59 60 61 63 66 69 71 72 72 73 73
70 70 69 69 68 69 71 71 69 67 68 68 68 68 69 69 70 70 71 72 72 72 72 72 72 72 71 70 68 67 66 65 64 64 64 64 64 64 64 66 67 69 70 70 68 65 64 65 65 64 62 60 60 60 62 63 66 68 71 74 76 77 78
73 72 71 71 71 72 73 74 72 70 70 71 71 71 71 71 71 71 71 73 73 74 74 74 74 73 72 70 69 67 66 66 65 64 64 65 66 67 68 68 68 68 68 67 67 66 66 66 65 63 62 61 62 63 65 66 67 68 70 73 76 79 81
74 73 73 73 74 74 74 75 74 72 72 72 72 73 73 72 71 71 72 73 74 74 75 75 74 73 72 71 69 68 67 66 65 65 66 68 69 70 70 70 69 68 68 68 68 68 68 67 66 65 64 65 67 68 67 66 65 66 67 69 72 76 79
76 75 75 76 76 76 75 75 75 75 74 74 74 74 74 73 72 72 72 73 74 74 75 75 75 73 72 71 69 68 67 66 65 66 68 70 71 71 71 71 71 70 70 70 70 70 70 71 70 70 70 70 71 71 70 69 67 66 65 66 67 70 73
78 77 77 78 77 77 76 76 77 77 76 75 75 74 74 73 72 72 72 73 74 74 75 75 74 72 70 68 67 67 67 66 66 67 70 71 72 72 73 73 73 72 72 73 73 73 73 73 73 73 74 73 73 72 72 72 72 70 69 68 67 68 69
79 79 79 79 78 78 78 78 78 78 78 77 76 76 75 74 73 72 72 73 72 71 72 72 72 71 69 67 68 69 69 68 68 69 71 72 73 74 74 74 74 73 73 74 74 74 74 74 74 75 75 75 74 74 74 74 73 73 72 71 70 69 69
80 80 80 79 79 79 79 79 79 79 79 78 78 76 73 71 70 68 67 69 70 69 69 69 68 68 69 70 70 71 70 69 70 71 73 74 74 75 74 74 74 74 75 75 75 76 76 77 76 76 77 77 76 76 75 74 73 74 74 73 72 71 70
80 80 80 80 80 80 79 79 79 79 79 79 76 73 69 67 66 66 67 70 71 71 70 70 68 68 71 71 71 70 70 70 72 73 74 75 75 75 74 74 75 75 76 77 77 78 79 79 79 79 79 78 77 76 75 74 74 74 72 70 70 70 70
80 80 80 79 79 79 79 78 78 79 79 79 78 76 74 72 72 72 73 74 73 73 73 73 73 73 73 72 71 70 71 72 73 74 75 75 75 75 75 75 76 77 77 79 80 81 81 81 81 81 80 79 77 76 76 76 75 72 69 68 70 71 72
80 79 79 79 78 78 77 76 77 78 79 80 79 79 77 76 75 75 75 75 74 74 74 74 75 75 74 73 73 73 74 74 75 75 75 75 74 75 76 77 78 78 79 81 82 82 82 82 83 83 81 79 79 78 77 75 72 70 71 73 75 75 75
79 79 78 78 78 77 76 76 77 79 79 79 79 79 78 77 76 75 75 74 73 74 75 75 75 75 75 75 75 75 76 76 75 75 74 74 74 75 76 78 79 80 82 83 84 84 84 84 85 83 82 81 80 77 74 72 72 74 78 80 80 80 80
79 79 78 78 78 77 77 77 77 78 78 79 79 79 78 77 75 75 73 71 72 74 76 76 76 76 76 76 76 76 76 75 75 75 74 74 75 76 78 79 81 83 84 85 85 85 85 85 84 83 82 80 79 78 76 76 78 81 82 83 83 83 84
78 78 78 78 78 78 78 77 77 77 78 79 79 79 78 77 76 76 74 72 73 76 77 77 77 77 77 77 77 76 75 75 75 76 75 76 76 78 79 81 83 84 85 86 86 86 85 85 84 83 82 80 80 80 81 81 82 83 83 84 85 84 84
77 77 78 78 78 78 77 77 77 78 79 79 79 79 79 78 78 78 77 76 76 77 78 78 78 78 78 77 76 76 76 76 77 77 77 77 79 80 81 83 84 85 85 86 86 86 85 85 84 83 82 82 82 83 83 83 83 84 84 84 84 83 82

ECMWFFLT1_250_spd_015.txt.gz
Wind_Speed
25 26 24 23 25 26 26 25 25 24 23 23 23 23 22 22 22 21 21 21 22 23 23 23 24 24 24 25 25 25 26 27 28 28 28 29 29 29 29 30 31 32 33 33 34 36 36 37 37 37 35 34 33 34 34 35 35 36 37 37 36 34 34
26 27 26 25 26 27 26 26 26 26 25 25 25 26 25 25 25 24 23 24 24 24 25 25 26 26 26 26 26 27 28 29 30 30 30 31 31 30 31 32 33 34 35 35 36 38 38 39 39 38 37 36 35 35 35 36 37 38 37 37 35 34 34
28 29 27 27 28 28 28 28 28 27 27 27 27 28 28 28 27 27 26 26 26 26 27 27 28 29 28 28 28 28 29 31 31 32 32 32 32 32 32 33 34 36 37 38 38 39 41 41 40 39 38 37 37 36 36 37 39 39 38 36 34 34 34
30 29 29 30 31 30 31 31 30 30 29 29 29 30 30 30 29 29 28 28 28 29 29 30 30 31 30 30 30 30 31 32 33 33 34 34 34 33 34 34 35 37 39 39 40 41 42 42 41 41 40 39 38 37 36 37 39 39 38 36 35 35 36
32 31 32 35 35 33 33 33 32 32 32 32 31 31 32 32 32 31 30 30 30 31 31 32 32 32 32 31 31 32 33 34 35 35 35 35 35 35 35 36 37 39 40 41 41 42 42 43 43 42 40 37 36 36 37 39 41 41 40 38 37 38 39
35 34 35 37 37 36 36 36 35 34 34 34 34 33 34 34 34 33 32 32 32 33 33 33 33 33 33 33 33 33 35 36 37 37 37 36 37 37 37 38 39 40 41 43 43 43 43 43 43 40 36 33 33 36 38 41 44 45 45 43 41 40 41
39 38 38 39 39 38 38 38 37 37 36 36 36 36 36 36 36 35 35 34 34 34 35 35 35 35 34 35 35 35 37 38 39 38 38 38 38 39 39 40 41 42 43 45 44 44 44 45 45 43 38 35 37 39 41 45 48 49 49 48 46 44 45
42 41 41 41 40 40 41 41 40 39 38 39 39 38 38 38 37 37 36 36 36 36 36 36 37 37 36 36 37 37 38 39 40 40 39 40 40 41 41 42 43 44 44 46 46 47 47 47 47 47 45 42 42 43 46 50 51 51 50 50 50 50 51
44 43 42 42 41 40 42 42 41 40 40 40 40 40 39 39 39 38 38 38 38 38 38 38 38 38 38 39 39 39 40 40 41 41 42 42 43 43 43 43 44 45 45 47 48 49 50 48 45 44 44 44 45 46 49 50 50 49 51 52 52 53 55
46 46 44 44 43 42 43 43 42 41 41 41 41 41 41 40 40 40 40 40 40 40 40 40 40 40 40 41 41 42 42 42 43 43 44 45 46 45 45 45 46 46 47 49 50 51 52 48 44 42 41 43 45 47 49 49 49 50 52 52 52 53 55
50 49 46 46 46 45 45 45 43 42 42 42 42 42 42 42 42 42 41 41 41 41 42 41 42 42 43 43 44 44 44 44 45 45 46 47 48 48 46 46 47 47 48 51 53 54 53 50 47 45 44 44 45 47 49 49 49 50 51 51 51 51 53
52 51 48 48 48 46 45 45 45 44 44 44 44 44 44 44 44 44 43 43 43 43 43 43 43 44 45 45 45 46 46 46 47 47 48 50 51 50 49 48 49 49 48 50 52 54 55 53 51 48 47 47 47 47 49 50 50 51 52 52 52 53 54
55 53 50 49 48 47 46 46 47 47 46 46 46 46 46 46 46 46 46 45 45 45 45 46 46 46 46 47 47 47 47 47 48 50 50 52 53 53 52 51 51 51 51 51 51 52 54 54 52 50 48 47 47 48 50 52 53 54 54 55 56 57 59
57 54 52 50 49 47 47 48 49 48 47 48 48 48 48 48 48 48 48 48 48 48 48 48 49 49 49 49 49 49 50 50 51 52 52 53 54 54 55 54 53 53 53 53 53 53 53 53 53 52 51 50 50 51 53 55 56 57 58 60 60 61 62
58 56 53 52 50 49 48 49 50 49 50 50 50 50 50 50 50 50 51 51 51 50 50 51 52 52 51 51 52 52 52 52 53 53 54 55 55 55 56 55 55 56 56 55 55 54 53 54 53 53 53 53 54 54 55 57 58 59 61 62 64 64 65
60 58 55 54 53 51 50 51 51 51 52 52 52 52 52 51 52 52 52 53 53 53 53 54 54 54 53 54 54 55 55 55 55 55 55 56 56 57 57 56 56 57 57 56 56 55 54 54 54 54 54 55 56 57 58 58 60 61 62 65 66 66 64
61 60 58 57 56 53 53 54 54 54 54 54 54 53 53 53 53 54 55 55 56 56 55 56 57 56 56 56 56 57 58 58 58 57 57 57 57 58 58 58 57 57 57 56 56 55 55 54 54 54 55 56 57 58 59 60 62 63 65 65 65 64 63
63 63 61 59 57 54 54 56 56 56 56 56 55 54 55 55 55 56 58 58 58 58 58 59 59 59 58 58 59 60 61 61 61 60 59 59 58 58 59 59 58 58 57 57 56 56 56 55 55 55 55 56 57 58 60 62 64 64 65 64 62 62 63
66 65 63 60 57 56 56 58 58 58 57 56 57 57 57 57 58 59 60 60 61 61 61 61 61 61 61 60 61 62 63 64 63 61 61 60 60 60 60 60 59 59 59 58 58 57 57 56 55 55 56 57 58 60 61 63 64 63 63 61 60 61 62
68 67 64 61 59 58 59 61 61 60 58 57 58 58 58 59 61 62 62 63 63 62 62 62 63 64 64 63 63 64 65 65 64 63 63 62 62 61 61 61 61 60 60 59 59 59 58 58 57 56 57 58 60 62 62 63 64 63 61 60 59 60 63
71 69 65 63 62 59 61 63 63 62 61 61 59 59 60 62 64 64 64 65 65 64 63 64 64 65 66 66 66 67 68 67 66 65 65 65 64 63 62 63 63 62 61 61 60 60 60 59 58 58 59 60 61 63 63 63 63 61 59 58 60 63 65
73 70 67 66 65 62 63 66 65 64 65 64 62 61 62 64 65 65 65 66 67 67 66 66 66 67 67 67 68 69 69 69 69 68 69 68 67 66 65 65 65 64 63 63 62 61 61 60 60 60 61 61 63 64 64 63 62 60 59 59 62 65 67
76 72 68 69 69 67 67 68 68 69 70 67 64 63 64 65 66 66 67 68 69 69 68 68 68 68 69 69 70 70 71 71 71 72 72 71 69 68 68 68 67 66 65 65 64 62 61 62 62 62 63 63 65 66 66 64 63 62 62 62 65 68 70
78 78 75 74 73 71 70 70 71 73 73 70 67 66 65 66 67 68 69 70 71 71 70 70 70 70 71 71 71 71 72 73 73 74 74 73 71 71 71 70 69 68 67 66 65 64 64 64 65 66 66 66 67 68 68 66 66 66 66 67 70 72 73
81 82 79 77 76 74 73 72 72 75 75 73 70 69 67 68 68 70 71 72 73 72 72 72 72 73 73 73 73 73 74 74 75 75 75 73 72 72 72 72 71 69 68 67 66 66 66 66 68 69 69 69 70 71 70 69 70 70 71 72 74 75 76
88 86 82 80 79 76 75 74 74 76 77 75 73 72 70 69 70 72 73 74 74 73 73 73 74 75 75 74 74 75 75 76 76 76 76 75 74 74 73 71 70 70 69 68 67 68 68 68 70 71 72 72 73 73 72 71 71 72 73 74 76 77 79
93 90 85 82 80 77 77 77 77 77 78 78 77 75 73 71 72 74 75 75 75 74 74 75 75 76 76 75 75 76 76 77 77 78 78 76 74 73 71 70 70 70 70 69 68 69 70 70 72 73 73 74 74 74 72 72 72 73 74 75 77 79 80
96 92 87 84 82 80 80 81 79 78 79 80 81 79 75 74 75 76 76 76 76 75 75 76 76 76 76 76 76 76 77 77 78 77 75 71 71 71 71 70 71 71 71 70 70 71 71 72 73 74 74 75 75 74 74 73 72 73 75 77 79 81 82
97 93 89 86 85 84 83 82 81 80 80 82 83 81 78 77 77 77 77 77 77 77 77 77 77 77 77 76 76 76 77 77 76 73 70 71 73 73 72 72 72 72 72 71 71 72 73 73 74 75 75 76 75 75 75 74 74 75 77 79 81 83 84
95 94 91 89 87 86 84 83 83 82 82 83 84 83 81 79 78 78 78 78 78 78 79 78 78 77 76 76 76 77 77 76 74 71 71 74 75 74 74 73 73 72 72 72 72 72 74 74 75 75 75 76 76 77 77 77 76 77 79 82 83 84 85
94 93 92 90 88 86 85 84 84 84 83 84 84 84 82 81 80 79 79 79 79 80 80 79 78 78 76 76 77 77 75 73 72 72 73 75 76 75 75 75 74 73 73 72 72 73 74 75 76 75 75 76 77 78 79 80 80 81 83 85 86 86 87
94 92 92 91 89 87 86 84 84 84 84 84 83 83 83 82 81 81 80 80 80 80 80 79 78 77 76 76 75 74 72 72 72 74 76 76 76 76 76 75 75 74 73 72 73 74 75 76 76 76 76 77 78 79 80 81 82 84 86 87 88 88 88
93 92 91 90 89 88 86 85 84 83 84 83 83 83 83 83 82 81 81 81 81 81 80 79 78 77 77 76 74 73 72 72 73 75 76 76 76 76 76 76 76 75 73 74 74 76 77 77 77 77 78 79 80 81 81 82 84 86 87 88 89 90 90
93 92 90 89 88 87 85 84 84 83 83 83 83 83 83 82 81 80 80 81 81 81 80 79 78 77 77 76 74 72 72 73 73 73 75 76 76 77 77 77 76 76 75 76 76 77 78 79 78 79 80 81 82 83 83 83 84 86 87 89 90 91 92
93 92 90 88 87 86 85 84 84 83 83 83 83 82 82 81 80 80 80 81 81 81 80 80 79 78 76 75 75 74 73 73 72 73 75 77 76 77 77 78 78 77 77 78 79 79 79 79 80 81 82 83 83 84 84 85 86 87 89 91 92 92 94
92 91 90 88 86 85 84 83 83 83 83 83 82 82 81 80 80 80 80 81 82 82 81 81 80 78 77 76 76 74 72 72 73 75 76 77 77 77 78 79 79 79 79 80 80 80 79 80 82 83 83 84 84 85 86 87 88 89 91 92 93 94 94
91 90 89 87 86 85 84 83 83 83 83 82 82 81 81 81 81 80 80 81 82 82 81 81 80 79 78 77 75 72 70 72 75 76 76 77 77 78 78 79 79 80 80 80 80 79 80 83 84 85 85 85 86 86 87 88 90 91 92 93 93 93 93
88 88 87 86 86 84 83 82 82 82 81 81 81 81 81 80 80 80 80 81 81 82 81 81 81 80 78 76 75 73 72 73 74 75 76 78 78 79 80 80 80 80 80 80 80 81 83 86 86 86 86 87 87 88 89 90 91 92 92 93 92 92 91

ECMWFFLT1_250_spd_018.txt.gz
Wind_Speed
31 31 30 29 29 27 26 24 25 25 23 21 20 21 22 22 22 21 22 22 23 24 25 25 25 26 25 25 25 24 25 24 24 24 24 24 24 25 26 27 29 30 31 32 32 33 34 35 37 38 39 38 38 39 38 38 38 36 33 32 32 35 38
33 32 30 30 30 28 27 26 27 28 26 22 21 22 24 24 24 23 24 24 25 26 27 27 28 28 28 27 27 26 26 26 25 25 25 25 25 26 27 28 30 31 33 33 34 35 35 36 38 40 40 39 40 40 40 40 39 36 34 34 35 37 39
33 32 30 30 29 28 27 28 29 29 27 23 22 24 26 26 26 25 26 26 27 28 29 29 29 30 30 29 28 28 27 27 26 26 26 26 26 27 28 30 31 32 33 34 35 36 36 37 39 41 42 42 42 41 41 41 39 37 37 38 39 40 40
33 33 31 31 30 29 30 30 30 30 28 26 25 26 28 28 28 28 28 29 29 30 31 31 31 32 32 31 30 29 29 29 28 28 27 28 28 29 30 31 33 33 34 35 36 37 37 38 39 41 43 44 44 44 43 42 40 38 37 38 40 42 42
34 33 33 33 32 30 31 32 31 31 31 29 28 28 30 31 30 31 31 31 32 32 32 33 33 34 34 32 31 30 30 31 31 30 29 29 30 31 32 34 34 35 35 36 37 38 38 39 40 41 43 44 45 46 45 44 43 41 38 37 40 43 43
36 36 36 35 34 33 33 34 33 34 35 34 31 31 32 33 33 33 33 33 34 34 35 35 35 35 34 33 33 32 32 33 33 32 31 32 32 33 34 36 36 37 37 37 38 39 40 41 42 43 44 45 46 47 47 46 45 44 42 41 42 44 45
38 39 39 36 36 36 35 35 36 36 36 36 35 33 34 35 35 35 35 35 36 36 37 37 36 36 35 35 35 34 34 34 34 34 33 34 35 36 37 37 38 39 39 39 40 41 41 42 43 44 46 47 47 48 48 48 47 46 45 44 44 44 45
41 41 43 40 38 39 38 38 39 38 36 36 35 34 35 36 37 37 37 37 37 38 38 37 37 37 36 37 36 36 36 36 36 35 35 37 38 38 38 39 40 41 41 41 42 43 43 44 44 46 47 48 48 49 49 50 49 48 46 46 44 44 44
43 43 45 43 40 40 41 40 40 39 38 37 36 36 37 38 39 39 39 38 39 39 38 38 39 38 38 38 38 38 38 38 38 38 39 40 40 40 41 41 42 42 43 43 43 44 45 45 46 47 48 49 49 49 50 50 50 49 49 48 47 45 45
45 44 46 46 42 42 43 42 41 41 41 40 40 40 41 41 41 40 40 40 40 40 39 40 40 41 40 40 40 40 40 40 40 41 42 43 43 43 43 44 44 44 44 45 46 46 47 48 48 48 49 50 50 50 51 51 51 50 50 50 49 48 48
49 47 47 46 44 44 45 44 43 44 43 43 43 42 43 43 43 42 42 42 42 41 41 41 42 43 42 42 42 42 42 42 43 44 45 45 45 45 46 46 46 46 46 47 47 48 49 49 50 50 50 51 52 52 52 51 51 51 51 50 50 50 51
54 49 48 49 47 46 47 46 46 46 46 46 45 44 44 44 45 45 45 44 43 43 43 44 45 45 45 44 44 44 45 45 46 47 48 47 47 48 48 48 49 49 48 48 49 50 51 51 51 52 52 53 54 54 53 52 52 52 51 50 50 52 53
57 51 50 52 50 48 48 48 48 48 48 48 47 46 46 46 46 47 47 46 46 46 46 47 47 48 47 46 46 47 47 48 49 50 50 50 49 49 50 50 51 51 51 50 50 51 52 52 53 53 54 55 55 55 55 54 53 53 52 51 50 52 54
58 54 53 54 52 48 48 49 50 51 51 50 49 49 48 49 48 48 48 48 48 49 49 49 49 50 49 48 49 49 50 50 52 53 53 52 51 51 52 52 52 53 53 53 52 52 52 53 55 56 56 56 57 57 56 56 55 54 53 52 51 53 55
59 56 55 57 56 52 50 51 51 53 54 53 52 51 50 51 51 50 51 51 51 51 51 52 51 51 51 51 51 52 52 53 54 55 55 55 54 53 53 54 54 54 55 56 55 54 54 54 56 58 59 58 57 58 58 57 57 56 55 53 52 53 55
61 58 58 59 58 57 55 54 54 56 56 55 54 53 52 53 53 52 53 54 54 53 53 54 54 53 53 53 54 54 54 55 57 57 58 57 56 56 55 55 55 55 56 57 58 57 57 56 57 58 60 59 59 59 59 59 59 58 57 55 54 55 56
64 63 62 60 59 58 58 57 57 58 57 56 55 54 54 55 55 54 55 55 55 55 55 55 56 56 56 55 56 56 56 57 59 59 60 60 59 58 57 57 56 56 57 58 58 59 59 59 58 58 59 60 60 60 60 60 59 58 57 56 56 56 57
68 68 67 64 61 59 59 60 59 59 58 57 57 56 57 57 57 56 57 57 58 58 57 57 59 59 58 57 57 58 58 59 60 61 62 62 61 60 59 59 58 58 59 59 59 60 60 60 60 60 59 59 60 61 61 60 59 59 59 58 57 57 58
70 70 69 68 66 64 63 63 61 59 58 58 58 58 58 58 58 58 59 59 60 60 60 60 61 61 60 60 59 59 61 61 62 62 63 63 63 62 61 61 60 61 61 61 61 61 61 61 62 62 61 60 60 60 59 59 60 61 61 60 58 58 59
72 72 71 71 72 70 67 66 64 62 61 60 59 59 59 59 59 60 61 62 62 62 63 63 63 64 63 61 60 60 62 63 63 64 64 64 64 64 63 63 63 64 64 64 64 64 64 64 64 64 63 62 60 58 58 59 59 60 61 62 61 60 60
76 75 74 75 76 72 69 70 69 65 64 63 61 61 61 61 62 63 63 64 64 65 66 65 65 66 65 62 61 62 64 65 65 65 65 66 66 65 66 66 66 67 67 68 68 68 67 67 66 66 65 62 60 59 61 62 61 61 62 63 64 63 62
80 79 77 78 79 75 70 72 72 69 67 65 64 63 63 64 65 66 66 66 66 68 68 67 67 68 67 64 63 64 66 67 67 67 67 67 67 67 68 68 69 70 70 71 71 71 71 70 69 68 65 62 62 63 64 65 65 65 65 66 66 66 65
81 81 80 82 83 78 74 74 75 72 70 67 66 66 67 68 68 68 69 68 69 71 71 69 69 69 67 66 65 66 67 69 69 69 68 68 68 69 70 71 71 72 73 74 74 74 74 73 72 70 67 65 65 66 67 67 68 68 69 69 69 69 68
85 85 86 88 86 81 78 78 75 73 73 71 69 69 70 72 72 71 71 70 71 73 72 71 71 70 68 68 68 68 70 71 71 70 69 69 70 71 72 73 73 74 75 76 77 78 78 76 73 70 68 67 67 68 69 70 70 70 71 71 71 70 70
90 88 89 91 88 83 81 80 76 75 76 74 71 71 73 74 74 73 73 73 73 75 74 73 73 72 71 72 71 71 72 72 72 72 71 71 72 72 73 74 75 76 77 78 79 79 77 75 72 69 68 68 69 70 71 71 71 71 71 71 71 71 71
93 91 90 92 91 86 82 80 77 77 79 78 75 74 75 76 76 75 75 74 74 75 75 74 74 74 74 74 73 73 74 74 73 73 73 73 74 74 75 76 76 77 78 79 80 79 76 73 71 69 69 70 71 71 72 72 72 72 72 71 72 72 73
94 93 91 92 94 88 81 80 81 81 82 82 79 77 77 78 77 76 75 75 74 73 74 74 74 75 76 76 76 76 76 76 75 75 75 75 75 76 77 77 78 78 79 79 80 79 76 74 73 72 72 72 72 72 73 73 73 72 72 73 73 74 75
96 94 91 94 97 90 81 81 84 85 87 87 82 79 80 80 79 77 77 78 77 77 77 76 77 77 77 77 78 78 78 77 77 77 77 77 78 78 78 79 79 79 79 79 79 79 78 77 75 75 74 74 74 73 73 73 73 73 73 74 75 76 77
96 95 94 96 97 90 81 81 83 86 90 90 86 82 80 78 77 77 77 78 79 79 79 79 79 79 78 79 80 80 80 79 79 79 79 80 80 80 80 80 81 80 79 79 79 79 79 78 77 76 75 75 75 74 74 74 74 74 75 76 77 78 79
96 95 96 97 97 92 86 84 85 85 86 86 84 82 79 78 78 78 75 74 75 77 79 80 80 79 80 81 81 81 81 81 81 81 81 82 82 81 81 80 80 79 78 77 77 77 76 76 75 76 76 76 76 75 75 75 75 76 77 78 78 80 81
94 95 97 99 98 95 91 90 90 89 88 87 85 81 78 78 79 79 76 75 75 77 79 80 80 81 82 82 82 82 82 83 83 83 82 82 82 81 81 80 79 78 77 75 75 75 74 74 75 77 77 77 77 76 76 77 78 78 79 80 80 82 83
89 93 96 98 98 97 96 96 97 95 92 89 87 84 80 80 81 82 83 82 81 81 81 81 81 82 83 84 84 84 84 84 84 83 83 82 81 80 80 79 79 77 75 73 73 75 75 76 78 78 78 79 78 78 78 79 79 80 80 81 82 83 84
82 84 86 91 97 101 102 102 101 99 96 92 89 88 87 87 87 89 90 88 86 85 83 83 83 84 84 85 85 85 85 85 84 83 82 81 80 80 80 79 77 76 75 74 75 76 77 78 79 79 79 79 79 79 80 80 80 81 81 82 83 84 85
69 72 76 84 91 96 101 103 102 99 97 95 92 90 89 88 88 89 89 89 89 88 86 85 85 85 86 86 86 86 86 85 85 83 81 81 81 80 78 76 74 73 74 75 75 75 77 78 78 79 79 80 80 81 81 81 81 81 82 83 85 86 86
57 62 74 86 89 89 93 98 99 97 97 97 95 92 90 90 89 88 88 88 89 89 88 87 87 86 86 86 85 86 86 85 84 82 81 81 80 78 76 75 73 71 73 75 75 76 77 78 78 79 80 81 82 82 82 82 82 82 83 84 86 87 89
54 59 71 83 90 91 91 90 91 92 93 95 95 94 93 92 91 89 87 87 88 88 88 88 87 86 85 85 85 85 85 84 82 81 81 80 79 77 76 75 74 74 75 76 76 77 78 78 78 79 80 81 82 82 82 81 82 82 84 86 88 89 91
53 57 64 71 78 85 89 88 88 88 88 89 91 92 92 91 90 88 86 86 86 87 87 86 85 84 84 84 84 84 84 83 82 82 82 81 79 77 76 74 73 74 75 75 76 77 78 78 79 80 80 81 81 81 80 81 82 84 86 88 89 91 91
57 61 66 70 73 78 82 85 87 88 88 87 87 87 88 89 89 88 86 85 84 85 85 85 84 83 83 82 83 83 83 82 82 82 82 81 79 77 75 73 72 73 75 76 76 77 77 78 78 79 80 80 79 79 80 82 84 86 88 89 90 91 92

ECMWFFLT1_250_spd_021.txt.gz
Wind_Speed
29 30 31 30 27 26 26 25 25 25 25 24 22 21 19 18 19 19 18 16 16 17 19 19 20 20 20 21 21 21 21 21 21 20 20 20 21 21 22 23 24 25 26 27 28 29 30 31 32 33 33 34 35 36 37 38 39 40 42 43 43 43 43
31 33 34 31 29 29 28 27 26 27 28 27 26 25 23 21 20 21 20 18 18 18 19 21 21 22 22 23 23 23 23 23 22 22 21 22 22 23 24 25 25 26 27 28 29 30 31 32 33 34 35 35 36 37 38 39 40 41 42 43 44 44 45
33 35 35 34 32 31 29 28 29 29 29 29 28 27 26 24 23 22 22 21 19 19 20 21 23 24 25 25 25 25 24 24 23 23 23 24 24 25 26 26 26 27 28 29 30 31 33 34 34 35 36 36 37 38 38 39 40 41 42 43 44 45 45
35 36 35 35 35 33 31 30 30 30 30 29 29 28 28 27 26 24 23 23 22 21 21 23 24 26 26 26 27 27 26 25 24 24 25 26 26 27 28 28 28 28 29 30 31 33 34 35 36 36 37 37 38 39 40 40 40 41 42 43 44 45 45
37 37 36 36 36 34 32 32 32 32 31 30 29 29 30 29 28 27 25 25 24 23 23 24 26 27 28 28 28 28 28 26 25 26 27 28 28 29 30 30 30 30 31 32 33 34 35 36 37 38 39 40 40 41 42 42 42 42 43 44 45 46 46
38 38 36 37 37 35 34 34 34 33 31 31 31 30 30 30 30 30 29 28 27 26 26 26 27 28 29 30 30 30 29 27 27 28 29 30 30 31 31 31 32 33 33 34 35 36 37 38 39 40 41 42 43 43 44 45 45 44 45 45 46 47 47
39 39 39 39 38 37 36 35 34 34 33 33 32 31 30 30 31 32 32 31 31 29 28 27 28 30 31 32 32 31 30 29 29 30 31 32 33 33 33 33 34 35 35 36 37 38 39 40 41 42 43 44 45 46 47 47 48 48 47 47 48 48 48
41 42 42 42 41 39 38 36 35 36 36 35 33 31 31 31 31 32 33 34 34 33 30 28 29 31 32 33 33 33 32 32 32 32 33 34 35 35 35 36 36 37 37 38 39 40 41 42 43 44 44 45 46 48 49 49 50 51 51 50 50 49 49
44 45 46 46 45 42 39 38 38 38 38 36 35 34 34 34 34 34 33 33 33 33 32 31 31 32 33 34 34 34 34 34 34 35 36 36 37 36 37 38 39 39 39 39 40 42 43 44 45 45 46 47 48 49 50 51 52 52 53 53 52 52 51
47 47 48 49 49 46 42 41 40 40 40 39 38 37 37 37 37 36 35 34 33 34 34 34 34 33 35 36 36 36 36 36 37 37 38 39 39 39 39 40 41 41 41 41 42 43 44 45 46 47 48 49 50 50 50 51 52 53 54 55 55 54 53
50 49 50 50 50 48 45 44 44 43 43 42 41 40 40 40 39 38 38 38 38 38 38 37 36 36 37 38 39 39 39 39 40 40 41 41 41 41 42 42 43 43 43 43 43 44 45 47 47 48 49 51 52 52 52 53 53 54 55 56 56 56 55
53 53 53 52 52 50 47 47 47 47 46 46 44 44 43 43 42 41 41 41 41 41 40 39 39 39 40 40 41 42 42 42 42 43 43 43 43 43 44 44 44 44 44 45 45 46 47 48 49 49 51 52 53 53 53 54 55 55 56 57 57 57 57
57 57 56 55 54 52 51 51 51 50 49 49 47 47 46 46 46 45 44 44 43 42 41 41 42 42 42 42 43 44 45 45 45 45 46 46 45 46 46 46 46 46 45 46 47 48 50 50 50 51 52 53 54 54 54 54 56 56 56 57 58 59 58
60 60 59 58 56 55 54 55 53 52 51 50 50 49 48 49 48 47 47 46 45 44 43 43 43 44 44 44 46 47 47 47 47 48 48 48 48 48 48 49 49 48 46 46 47 49 51 52 53 53 54 55 56 56 55 56 57 57 56 56 56 57 56
63 62 61 60 59 58 57 57 55 54 53 53 53 51 51 51 51 49 48 47 46 45 45 45 46 47 47 47 48 49 49 50 50 50 50 50 50 51 51 51 51 50 49 48 49 49 51 53 55 55 56 57 58 58 58 58 59 58 57 56 55 55 55
65 65 63 62 62 60 59 59 58 56 56 56 55 53 53 53 52 51 50 48 48 47 47 48 49 50 50 50 50 51 52 52 52 52 52 52 52 53 53 53 52 51 51 51 51 52 52 53 55 57 58 59 59 60 60 61 60 60 59 58 56 55 55
68 68 66 64 63 62 62 62 60 58 57 57 57 56 55 54 54 52 51 49 49 49 49 50 51 52 53 53 53 53 54 54 54 54 54 54 55 55 55 54 54 53 53 53 54 54 55 55 57 59 61 61 61 62 63 63 63 62 61 61 59 58 57
73 72 70 67 65 64 65 65 63 60 58 59 59 58 57 57 56 54 52 51 51 51 50 51 53 55 56 56 56 56 57 57 56 56 56 56 57 57 57 56 55 55 55 55 57 57 57 58 59 61 63 64 64 65 66 66 66 65 65 64 63 62 60
76 76 73 70 68 67 66 65 63 61 61 61 61 61 61 60 59 58 57 55 53 52 52 54 56 58 59 59 60 60 59 59 58 58 58 59 59 59 59 58 57 57 57 58 59 59 60 61 62 62 64 65 67 68 69 69 69 68 68 67 66 65 64
79 79 77 74 72 70 68 66 64 63 63 63 64 65 64 62 59 59 59 58 56 55 55 56 58 60 61 62 63 63 62 61 61 61 61 61 61 62 61 60 59 59 59 59 60 61 62 63 64 64 65 67 68 70 71 72 71 70 70 69 68 67 67
81 82 79 77 75 73 71 69 66 65 65 66 68 67 65 63 61 60 60 59 58 57 58 59 60 62 63 64 65 66 65 64 63 63 63 63 64 64 64 63 62 61 61 61 63 64 64 64 66 67 68 68 70 71 73 74 74 72 71 71 70 69 68
83 83 81 79 78 76 74 72 71 70 70 70 71 68 65 63 63 63 62 61 60 59 60 61 62 64 65 67 68 69 68 67 66 66 66 66 67 67 67 66 64 63 62 63 65 66 66 67 68 69 70 71 72 73 75 75 75 74 73 72 72 70 69
85 84 84 84 82 80 77 75 75 75 75 75 73 69 67 65 64 64 65 65 64 63 63 63 65 67 68 69 71 72 71 70 69 69 69 69 70 70 69 69 68 66 64 65 66 67 68 69 70 72 73 74 75 76 78 79 77 76 75 74 72 71 70
87 87 88 88 88 85 81 79 78 76 76 78 76 72 70 68 67 66 66 66 66 66 65 65 67 69 71 72 73 74 74 73 72 72 72 72 72 72 71 71 71 68 66 66 67 68 69 71 72 74 76 76 78 79 81 81 79 78 76 74 73 71 71
88 90 91 91 90 88 84 82 81 79 78 80 80 76 73 72 70 68 68 67 68 68 68 67 69 71 72 73 74 75 76 75 75 74 74 74 73 73 73 73 71 69 68 69 70 70 71 72 74 76 77 78 79 81 81 80 80 79 77 75 73 72 71
86 89 91 91 90 88 86 84 83 82 81 82 83 80 78 76 73 71 69 69 70 70 70 70 71 73 73 73 74 76 78 78 77 76 76 75 75 75 75 75 73 73 73 74 73 73 73 74 75 76 78 79 80 81 81 80 79 78 77 75 74 73 73
82 85 88 91 92 91 90 89 86 84 83 83 84 83 80 79 77 73 71 71 71 72 74 74 75 75 75 75 77 79 80 80 80 79 79 77 77 77 78 77 76 76 76 75 75 75 75 76 76 77 78 80 81 82 81 79 78 77 77 76 75 74 75
76 80 85 89 91 92 92 93 89 85 83 84 85 83 80 81 81 76 72 71 72 74 77 78 78 79 79 79 80 82 83 83 83 83 82 80 80 80 79 78 77 75 75 75 76 76 77 77 78 79 79 80 81 80 78 77 77 77 77 76 75 75 76
71 75 80 85 88 89 92 94 92 86 84 84 83 81 80 83 84 78 73 72 73 76 79 81 82 83 83 83 84 85 86 86 86 86 84 83 82 81 79 77 75 74 74 76 77 78 79 80 80 80 81 80 79 77 76 76 77 77 76 76 76 76 76
67 71 75 80 84 86 88 91 90 87 85 83 81 79 81 85 85 79 75 75 76 78 81 83 85 86 87 87 88 88 89 89 90 89 87 85 84 83 81 79 77 76 78 79 80 80 81 82 82 81 81 80 77 76 77 78 78 77 76 76 76 76 76
63 68 72 75 79 81 82 83 84 83 79 77 76 78 81 85 84 80 78 78 79 80 82 85 88 90 91 92 92 92 93 92 91 89 87 86 85 85 85 82 80 81 82 83 83 84 84 84 83 81 80 79 77 77 78 78 77 77 77 77 77 76 76
56 63 68 70 71 74 75 75 75 72 67 65 68 72 77 82 83 78 73 71 73 77 82 87 91 93 94 95 94 94 95 94 91 88 86 85 86 87 86 84 83 85 87 87 86 86 85 84 83 81 80 78 77 77 77 77 78 78 78 78 76 75 76
51 57 62 62 62 63 65 65 65 62 57 57 63 67 70 76 78 72 64 59 62 69 77 83 88 92 93 94 95 96 96 93 90 88 88 87 88 87 85 85 87 89 90 88 87 86 85 84 83 81 79 78 77 78 78 78 79 79 78 77 76 75 77
46 50 54 54 54 54 54 52 51 48 46 50 59 62 63 67 70 66 60 56 57 62 68 74 79 83 87 90 93 94 94 93 93 93 92 90 89 88 87 88 90 90 89 88 87 86 85 83 82 80 79 78 78 79 79 79 79 79 78 76 76 76 78
41 43 45 44 41 39 36 35 35 35 38 45 50 52 54 57 58 58 59 61 61 62 64 67 71 75 77 79 82 85 87 87 87 86 84 84 85 85 86 87 87 87 86 86 85 84 83 81 80 79 79 79 78 78 79 80 79 78 77 76 76 77 78
37 36 35 31 28 26 26 27 29 30 34 41 42 41 42 44 46 48 54 61 67 68 64 61 64 70 71 72 76 79 79 78 76 75 75 77 78 79 80 82 83 84 84 83 82 81 80 79 78 78 79 79 79 79 79 79 78 77 76 76 76 77 78
34 33 31 30 29 26 24 27 29 28 32 38 38 34 34 38 44 52 58 61 64 68 67 64 64 68 73 76 79 79 77 75 75 75 75 76 76 78 81 83 84 84 83 81 80 80 80 80 79 79 80 80 79 79 79 78 76 76 75 75 76 77 78
36 35 33 33 31 27 26 28 27 25 29 35 34 31 34 44 53 59 63 64 66 68 69 69 67 68 70 73 75 75 75 75 75 75 76 78 80 83 85 85 85 84 83 82 81 81 81 81 81 80 80 79 78 78 77 76 75 76 76 76 77 78 79

ECMWFFLT1_250_spd_024.txt.gz
Wind_Speed
29 29 28 29 28 27 25 23 22 21 20 19 19 19 19 18 17 16 16 16 17 18 18 17 17 16 15 14 15 15 15 15 17 19 20 21 22 21 21 20 20 19 20 21 22 23 24 25 26 28 29 30 31 32 33 34 35 35 35 35 35 35 36
31 32 32 32 32 30 28 26 25 24 23 23 23 24 23 22 21 20 19 18 18 18 19 18 18 17 17 17 17 16 16 16 18 20 21 22 23 23 22 21 21 21 22 23 23 24 25 27 28 29 30 31 32 34 35 36 37 37 37 37 36 37 37
33 34 34 35 35 33 31 30 29 28 27 26 27 28 27 25 24 23 23 21 20 19 20 20 19 18 19 19 19 18 17 17 19 21 23 23 24 24 23 23 22 22 24 24 25 25 27 28 29 30 31 32 33 34 35 37 38 38 39 39 39 39 39
36 36 36 37 36 34 34 33 32 30 30 29 30 30 28 26 25 26 25 25 23 22 21 21 21 20 21 21 21 20 19 19 20 23 24 24 25 25 25 25 25 25 26 26 26 27 28 30 31 32 33 34 34 35 36 37 38 39 40 41 40 40 41
38 38 38 38 37 36 36 35 33 31 31 31 31 30 29 28 28 28 27 27 26 25 24 24 23 22 22 23 23 22 22 21 22 24 25 26 26 26 26 27 27 27 28 29 28 29 30 31 33 34 35 35 36 36 37 37 38 39 40 41 42 42 42
41 39 39 39 38 37 37 36 34 33 33 32 32 31 30 30 30 29 28 28 28 28 27 26 25 24 24 25 25 24 24 24 24 25 26 27 28 28 28 29 29 30 31 31 31 31 32 33 34 35 36 37 37 37 38 38 38 39 39 41 42 43 43
42 41 41 41 40 39 39 38 36 35 35 34 33 32 32 32 30 30 30 30 30 29 29 28 28 27 27 27 27 27 26 26 26 26 27 28 29 29 30 31 31 32 33 33 33 33 34 35 35 36 38 39 39 39 39 39 39 40 40 41 41 42 44
45 45 44 43 42 42 41 40 38 37 36 35 35 35 35 33 31 32 32 32 31 30 30 30 30 30 29 30 30 30 29 28 28 29 28 29 30 30 32 33 33 34 35 35 35 36 36 37 38 38 40 40 41 42 42 42 42 42 42 42 43 43 44
48 48 47 46 45 44 42 41 40 39 38 37 37 37 36 34 33 34 34 33 32 32 31 31 32 32 32 31 31 31 31 32 31 31 31 31 32 33 34 35 36 37 37 37 37 38 38 39 40 41 42 43 43 44 45 45 44 45 45 45 45 45 46
50 50 50 50 48 46 44 43 41 40 40 39 39 39 38 36 34 35 35 35 35 35 34 34 34 34 33 32 32 32 33 34 34 34 34 34 34 35 36 37 38 39 39 39 39 40 40 41 42 43 44 45 46 46 47 47 47 48 48 48 48 48 49
53 52 53 53 52 50 48 45 44 44 43 42 42 42 41 38 36 36 37 38 38 38 37 36 37 36 35 35 35 34 35 36 37 37 37 36 36 37 38 39 40 41 41 41 41 41 42 43 44 45 46 48 49 49 49 50 50 51 51 51 51 51 51
56 56 55 55 55 54 52 49 48 48 47 46 45 44 43 40 39 39 40 40 41 41 39 38 39 38 38 38 38 38 37 38 39 39 39 38 38 39 40 41 42 43 44 43 43 44 45 46 46 47 49 50 51 51 52 53 53 54 54 54 54 53 52
59 58 57 57 57 57 56 54 52 51 49 49 49 47 45 43 42 42 43 43 43 42 41 40 41 41 40 40 40 40 40 40 41 41 41 41 41 41 43 43 44 45 46 45 45 46 47 48 48 49 51 52 53 54 55 55 55 56 57 57 57 56 55
62 60 59 58 59 59 59 57 56 54 52 53 52 50 48 46 46 45 46 45 44 43 43 42 43 43 43 42 42 42 42 42 42 43 43 43 43 44 44 45 46 47 47 47 47 49 50 50 51 52 53 54 55 56 56 56 56 58 60 60 60 59 58
64 63 61 60 61 61 61 60 59 57 56 56 55 53 51 50 49 49 48 47 46 45 45 44 45 46 45 45 45 45 44 44 44 45 45 45 45 46 46 47 48 49 49 49 49 51 52 52 53 54 55 56 57 58 58 58 59 61 62 62 62 62 61
68 66 64 63 63 62 62 61 60 59 58 57 56 55 54 53 52 51 50 50 48 48 47 47 48 48 48 47 48 47 46 46 47 48 48 47 47 47 48 49 50 51 51 51 51 52 53 55 56 57 58 59 59 60 61 62 62 63 64 64 65 65 64
71 71 68 67 65 63 63 63 62 61 60 59 59 58 57 55 54 52 52 51 51 50 50 49 49 50 51 50 49 48 48 50 50 50 49 49 49 49 50 51 52 53 54 53 53 54 55 57 58 59 60 61 61 62 63 64 64 64 65 66 68 68 68
74 73 72 70 68 66 66 65 64 62 62 62 62 61 59 57 56 55 54 54 54 53 51 50 50 52 53 52 50 49 50 51 52 51 51 51 51 51 52 53 54 55 55 55 55 56 57 58 60 60 61 62 63 64 65 66 65 64 66 69 71 71 71
75 74 74 74 72 71 70 68 66 65 64 65 64 63 61 60 59 58 58 57 57 55 53 52 52 53 54 53 51 50 51 52 53 53 53 53 53 53 53 55 56 57 57 58 58 58 59 60 61 62 62 63 64 65 67 67 67 67 69 72 74 73 73
74 76 77 76 75 75 74 72 70 68 68 67 66 65 63 61 60 60 60 60 59 57 55 55 54 54 55 55 53 52 52 53 55 56 55 54 54 54 55 56 57 58 60 61 61 61 61 62 63 63 63 64 65 67 68 69 69 71 73 75 75 75 74
68 74 77 77 78 78 77 76 74 72 71 69 68 66 64 61 61 62 63 62 60 58 57 57 56 55 55 56 55 53 52 53 54 55 55 54 54 55 56 58 60 61 62 63 64 64 64 65 65 65 65 66 67 69 70 71 72 73 74 75 75 75 75
61 66 71 75 78 80 80 79 77 75 74 73 71 69 66 63 63 64 64 62 61 59 59 59 58 57 56 56 56 55 53 53 54 55 56 56 56 58 59 61 63 64 65 66 67 67 67 68 67 67 67 68 69 70 71 72 74 74 74 73 74 75 76
59 61 65 69 74 79 81 81 79 77 76 76 76 74 70 69 68 67 65 63 62 60 60 59 58 57 57 57 57 57 56 56 56 57 58 59 60 62 63 64 65 66 67 69 69 70 70 70 70 69 69 70 71 72 72 73 74 74 72 72 74 77 78
59 61 63 65 69 75 79 81 81 80 80 79 79 78 75 74 73 71 67 65 63 62 60 58 57 58 58 58 59 59 59 58 58 60 61 63 64 66 67 67 68 69 70 71 71 72 73 72 72 71 71 72 73 73 73 73 74 74 72 73 76 79 81
58 61 62 63 65 69 74 78 81 82 81 80 79 77 76 75 76 75 71 67 66 64 61 58 58 59 60 60 60 60 60 61 62 63 66 67 68 70 70 71 72 72 73 73 74 75 75 75 74 73 73 74 75 75 75 74 75 75 75 76 79 81 82
60 61 61 61 61 62 66 71 77 80 81 81 81 80 79 78 79 78 74 71 69 66 61 59 60 61 62 62 62 62 62 64 67 68 70 72 73 73 73 74 75 75 75 75 75 76 77 77 76 75 75 76 77 78 78 77 77 77 78 79 81 81 83
62 62 61 60 58 59 61 65 70 76 79 81 82 84 84 83 82 81 78 75 72 67 63 62 62 63 64 64 64 65 66 69 71 73 74 76 76 76 76 77 77 77 76 76 77 78 79 78 78 77 77 78 79 80 79 78 77 77 79 80 80 82 82
62 63 61 60 58 59 60 62 64 69 74 78 81 83 85 86 84 82 81 79 74 69 66 66 67 67 67 67 68 69 72 74 75 76 78 79 79 80 79 79 78 78 78 78 79 80 81 80 79 79 79 79 79 78 77 76 76 78 79 79 80 81 81
61 63 62 61 60 59 60 61 63 65 68 71 75 79 82 85 85 84 83 81 76 72 71 71 71 71 71 72 72 74 76 77 77 78 80 80 82 83 82 81 80 80 80 80 81 83 83 82 82 81 79 78 76 75 75 76 78 79 79 78 78 79 80
61 63 63 62 61 60 60 61 63 64 64 65 67 70 75 79 82 83 84 82 79 76 75 74 73 73 74 75 76 77 78 78 78 79 80 81 83 84 84 83 82 81 81 82 84 86 86 84 81 78 75 72 73 75 77 79 79 78 76 75 76 78 80
61 63 63 62 61 61 62 62 63 64 62 61 61 62 65 70 75 79 81 82 80 79 77 76 76 76 76 77 78 78 77 78 79 80 81 83 85 84 83 83 83 83 84 83 83 83 81 76 71 68 68 70 73 75 76 75 73 72 73 75 77 79 80
62 63 63 63 62 62 61 62 62 62 61 58 57 58 59 62 66 71 74 76 77 78 79 79 78 77 78 80 80 77 76 78 80 81 83 85 84 82 82 82 81 78 73 65 62 63 63 60 60 63 66 68 69 69 68 69 69 71 75 78 79 78 78
62 62 63 63 62 61 60 60 61 61 60 57 55 55 56 57 60 63 66 69 71 75 79 80 78 77 78 80 79 76 74 75 78 80 82 83 81 81 82 79 70 58 48 43 46 51 54 56 62 65 64 63 64 65 67 69 72 75 77 77 77 76 75
61 61 62 61 59 58 58 58 59 59 59 57 55 54 53 54 56 59 61 64 68 73 78 77 73 72 72 71 72 72 70 70 73 75 77 79 79 80 80 72 58 48 45 48 52 57 61 65 67 65 62 63 66 68 71 73 75 77 77 76 75 74 74
61 62 61 59 57 56 55 55 55 54 54 55 54 53 52 52 53 55 58 62 67 71 71 67 63 63 63 61 65 70 71 69 71 73 75 76 74 69 65 62 56 50 51 55 59 62 66 70 69 67 67 69 71 72 75 76 77 77 76 75 74 73 74
60 60 59 57 56 55 54 53 52 51 50 51 50 49 49 49 48 50 55 62 67 67 63 56 53 53 51 49 54 63 68 69 71 73 73 71 67 61 57 58 59 57 57 62 66 68 71 73 72 71 72 73 74 77 79 79 78 78 77 76 75 74 74
57 57 56 55 55 54 53 52 50 47 45 46 46 46 45 43 44 49 54 58 59 57 51 46 44 45 43 39 43 54 64 67 68 68 66 63 63 60 57 60 63 62 61 64 68 71 74 76 76 76 76 77 79 81 81 80 79 78 77 77 75 75 74
55 55 54 54 54 53 53 51 46 42 42 43 43 42 40 40 44 48 49 48 46 43 40 38 38 42 43 43 45 53 63 65 64 63 62 61 61 61 60 61 64 64 65 67 71 74 78 80 80 79 80 81 83 83 81 79 79 79 78 77 75 74 73

ECMWFFLT1_250_spd_027.txt.gz
Wind_Speed
26 27 27 27 27 26 25 24 22 22 22 22 21 21 20 19 18 17 17 16 16 16 17 17 18 18 18 17 17 17 17 17 17 16 14 13 12 11 11 12 13 15 17 19 20 20 21 22 23 24 25 27 28 29 30 30 31 32 33 33 34 34 34
28 29 29 30 30 29 27 26 24 24 24 23 22 22 22 21 20 18 17 17 16 16 16 16 17 18 18 19 19 19 19 19 19 18 17 16 15 13 12 12 13 15 18 20 21 21 22 23 24 25 26 28 29 30 31 31 32 33 34 34 35 35 35
30 30 31 32 32 31 29 28 27 27 26 25 25 25 24 23 21 20 19 19 17 17 17 17 17 18 19 20 20 21 21 21 21 20 20 19 18 16 14 14 14 16 19 21 22 22 23 25 26 27 28 29 30 31 32 33 33 34 35 35 36 36 36
33 33 33 34 34 33 32 30 30 30 30 29 28 27 26 25 24 23 22 22 21 20 20 21 21 21 21 21 22 22 22 23 23 23 22 22 21 19 17 16 16 17 20 22 22 23 25 26 27 28 29 30 31 32 33 34 35 36 36 37 37 37 38
35 35 35 35 36 36 35 33 33 33 33 31 30 30 29 28 27 26 25 25 24 23 23 24 24 24 24 24 23 23 24 24 25 25 24 23 23 22 20 19 19 19 21 23 24 24 26 28 29 30 31 32 32 33 34 35 36 37 39 39 39 40 41
37 37 36 37 37 38 37 36 36 36 35 34 33 32 32 31 30 29 28 28 27 26 26 27 26 27 27 27 26 25 26 26 26 26 25 25 25 24 23 22 22 21 23 25 26 26 28 29 30 31 32 33 33 34 35 37 38 39 41 41 42 43 44
40 39 38 38 39 39 39 39 39 38 38 37 36 35 35 35 34 32 30 30 29 28 29 29 28 28 29 29 29 28 27 27 27 27 27 27 26 25 25 25 25 25 26 28 28 29 30 31 31 33 34 34 34 35 37 38 39 41 42 43 45 45 46
43 42 41 40 40 41 40 40 40 40 39 38 38 38 38 38 36 34 33 32 31 31 31 30 29 30 30 30 30 29 29 28 29 29 29 29 28 27 27 27 28 28 30 31 31 31 32 33 33 34 35 36 36 37 38 39 41 42 43 45 46 47 47
46 45 45 43 42 42 42 42 42 40 39 39 39 40 40 40 38 37 35 33 33 33 32 31 31 31 31 31 30 30 30 30 31 31 32 32 31 29 29 29 29 30 32 33 33 33 35 35 36 36 36 37 37 38 39 41 42 43 44 46 47 49 49
49 48 48 48 46 44 43 43 42 41 41 41 41 41 41 41 40 39 37 36 36 35 33 33 33 33 32 32 31 30 31 31 31 32 33 33 32 30 30 30 31 31 34 35 35 36 37 38 38 38 38 39 39 40 41 42 43 44 46 47 48 49 50
51 51 51 51 50 48 46 45 43 43 43 43 43 43 42 42 41 40 39 38 38 37 35 35 35 35 33 33 32 31 31 31 32 33 33 33 32 31 31 32 32 33 35 37 37 38 39 40 40 40 40 40 41 41 42 43 44 45 47 48 49 50 51
54 53 52 53 53 52 50 48 46 46 45 45 44 44 43 43 42 42 41 40 39 38 37 37 37 36 35 34 33 33 33 33 33 34 34 33 33 33 33 34 34 35 37 39 39 40 41 42 41 41 41 42 42 43 43 44 46 47 49 50 51 52 53
58 56 55 55 56 55 53 52 51 50 48 47 46 45 45 44 43 43 42 41 41 40 38 38 38 38 37 35 35 35 35 35 35 36 35 35 35 35 36 37 37 38 39 40 41 42 43 43 43 42 42 43 44 44 45 46 47 49 51 52 53 54 55
60 60 59 58 57 56 55 54 55 54 52 51 49 48 47 46 45 44 43 43 42 41 40 40 40 40 39 38 38 38 37 37 38 38 38 38 38 38 39 39 39 40 41 42 44 44 45 45 45 44 44 45 45 46 47 48 49 52 53 54 55 56 56
64 63 62 62 61 60 58 57 56 56 55 55 53 52 51 50 49 47 46 45 45 44 43 43 42 42 42 42 41 40 40 39 40 40 40 40 40 41 42 42 42 42 43 45 47 46 46 47 47 46 46 46 47 48 49 50 52 54 55 56 57 57 58
66 67 66 65 64 63 62 61 59 58 57 57 56 55 55 53 53 51 49 48 48 47 47 46 45 45 45 45 44 43 43 42 43 43 42 42 43 43 44 44 44 44 45 48 49 48 48 48 48 48 48 48 50 51 51 53 54 56 58 58 58 58 60
62 67 68 68 67 66 66 65 63 61 59 58 58 58 58 58 57 56 54 52 51 50 50 49 49 48 48 48 47 46 46 45 45 45 45 45 45 46 46 46 46 47 48 50 51 50 50 51 51 50 49 50 51 53 54 55 56 58 59 60 59 60 62
52 59 66 70 70 68 67 68 67 65 62 61 60 60 60 61 61 60 58 56 55 55 53 52 52 51 50 50 49 48 48 48 47 47 47 47 48 48 49 48 48 49 50 52 53 53 52 52 52 51 50 52 54 55 56 57 58 60 61 61 61 62 64
44 49 56 63 68 70 70 70 70 69 67 65 64 63 63 64 63 63 62 60 59 58 56 55 55 54 53 53 52 51 50 50 49 50 50 51 50 51 51 50 51 51 52 54 56 55 54 54 53 52 53 55 57 57 58 59 60 61 62 62 63 64 65
43 45 48 53 59 66 71 73 73 73 72 70 68 67 67 66 65 65 65 63 61 60 58 59 58 57 56 55 55 54 53 52 52 53 54 55 53 52 52 52 53 54 55 57 58 57 56 56 56 55 56 58 59 60 60 60 61 63 63 63 64 65 67
45 46 47 49 52 58 65 71 75 76 76 74 72 71 70 69 68 68 67 65 63 61 61 61 60 59 59 58 57 57 56 56 55 56 57 58 57 55 54 54 55 57 57 59 60 59 59 59 58 58 59 60 61 62 63 63 64 65 64 65 66 67 68
47 48 49 51 52 54 59 65 70 75 77 78 77 75 73 72 72 71 70 68 66 64 64 63 62 61 61 60 59 59 59 59 60 60 60 60 59 57 56 56 58 60 61 62 63 62 61 61 60 60 61 62 63 65 65 66 66 66 67 68 68 68 69
47 49 51 52 53 54 56 59 63 69 75 78 79 78 76 76 76 76 74 72 69 68 68 66 64 62 62 62 61 61 62 62 63 63 62 61 59 59 59 60 61 62 63 64 64 63 63 63 62 62 63 64 65 66 68 68 69 69 70 71 71 71 71
49 50 51 53 54 55 56 57 59 63 69 74 77 79 79 80 80 79 78 75 73 72 71 69 66 65 64 64 64 64 65 65 65 65 63 61 60 60 62 63 64 64 65 66 66 65 65 65 64 64 65 66 67 69 70 70 71 72 73 74 74 73 72
51 51 51 52 54 55 57 58 58 59 63 67 71 76 80 82 82 82 80 78 76 75 74 72 69 69 68 68 68 69 68 67 67 66 64 63 62 62 65 67 67 66 67 68 67 67 68 67 66 65 66 68 69 70 72 73 74 75 76 76 75 74 74
52 52 51 51 53 55 57 58 59 59 60 61 64 70 75 79 82 82 82 80 79 78 76 75 73 74 74 73 72 72 72 70 69 68 66 65 65 66 68 70 69 68 69 70 70 70 70 69 68 68 68 69 70 72 73 75 75 76 77 79 78 76 73
53 52 51 51 52 53 56 57 59 59 60 60 62 64 68 72 76 79 81 82 81 80 79 79 79 79 79 77 76 76 76 74 72 71 69 68 68 70 72 73 72 72 72 72 71 71 71 70 70 69 69 70 71 72 74 77 78 79 79 75 70 64 59
55 53 52 52 52 53 55 56 57 58 59 60 60 62 64 66 69 73 78 81 81 81 81 82 83 83 83 81 80 79 80 78 75 75 73 72 72 74 75 76 76 75 75 73 72 72 72 71 71 71 70 71 71 73 77 78 75 69 61 53 49 48 49
57 56 54 54 54 55 55 56 57 57 58 59 60 61 62 63 65 67 71 75 77 80 82 84 85 86 86 85 83 82 82 81 79 78 77 76 76 78 79 80 79 78 76 74 73 73 72 72 73 73 71 71 71 74 76 70 57 44 38 39 42 46 48
59 59 58 57 57 57 57 58 58 58 59 60 60 61 62 63 63 63 64 66 70 73 77 81 84 86 87 87 86 85 85 84 82 80 78 79 81 83 83 82 81 79 77 76 75 74 73 74 76 76 72 69 70 71 66 52 38 34 35 39 45 48 50
62 61 61 60 59 59 59 60 60 60 60 61 61 62 63 63 63 62 61 62 64 66 70 74 79 83 85 87 87 87 87 87 85 83 83 84 86 87 86 84 81 79 77 76 75 75 75 77 78 77 72 67 64 63 58 47 41 42 43 44 49 55 57
65 64 63 62 62 61 61 62 62 62 61 61 61 62 62 62 62 61 60 60 61 62 65 68 73 77 81 83 85 86 87 88 87 87 88 88 89 90 89 84 80 78 77 76 76 77 78 79 78 76 73 69 64 65 67 65 61 58 55 55 59 62 63
68 66 65 63 63 62 62 62 64 64 63 62 62 62 61 60 59 59 59 59 59 60 62 64 67 71 74 77 80 82 84 86 87 89 90 90 92 92 89 84 81 79 78 77 78 80 81 78 75 73 75 74 70 69 72 75 73 68 64 64 65 66 67
68 67 66 64 63 63 62 61 63 64 65 64 63 62 61 59 57 57 57 57 58 59 60 62 63 65 68 71 73 75 79 82 85 87 88 89 89 88 86 83 80 78 78 78 80 82 81 76 72 70 71 71 71 71 72 71 68 64 63 65 67 68 70
68 66 65 63 62 62 62 61 62 63 64 64 63 62 61 59 58 57 57 57 58 58 59 60 61 62 64 66 68 70 74 77 80 82 83 83 82 83 83 81 78 75 74 75 77 80 79 73 69 69 70 69 69 68 65 59 57 58 61 64 67 68 71
67 65 64 63 63 63 63 63 63 63 64 64 63 62 62 61 59 58 57 57 56 56 56 57 58 59 59 61 64 67 71 73 74 74 75 75 75 76 76 75 73 70 67 67 70 75 76 71 66 65 66 65 63 60 55 51 53 58 62 64 67 70 73
67 66 66 66 65 65 64 64 64 64 64 63 63 63 63 62 60 59 58 57 56 55 53 53 53 54 54 56 58 61 63 64 64 65 65 66 66 66 67 67 64 59 57 58 64 72 77 78 74 69 66 63 60 55 52 54 57 60 64 67 70 73 76
67 67 68 67 66 65 65 65 65 65 64 64 63 63 63 62 60 59 59 58 56 54 52 51 50 49 48 47 48 50 52 54 55 56 55 54 53 53 55 56 55 51 47 49 55 64 76 82 79 71 67 66 62 56 55 58 61 63 67 70 72 75 78

ECMWFFLT1_250_spd_030.txt.gz
Wind_Speed
23 24 25 26 26 27 27 27 27 27 28 28 28 27 27 27 26 25 22 21 20 19 19 18 17 17 16 16 16 16 16 15 14 13 13 11 10 10 10 10 11 13 14 14 13 12 11 12 12 13 14 16 17 17 17 18 19 20 22 23 25 26 27
25 25 26 27 28 28 27 27 27 27 27 27 28 28 28 27 26 25 23 22 22 21 20 18 18 17 17 17 18 18 17 17 17 16 16 14 13 12 12 12 13 15 17 17 17 16 15 15 15 15 16 17 18 18 18 19 20 21 22 24 25 26 27
27 27 27 28 29 29 28 27 27 27 27 27 28 29 28 27 26 24 23 22 21 20 19 18 18 19 19 19 19 19 19 19 19 19 18 17 16 15 14 13 14 16 18 19 20 19 18 18 19 19 19 19 19 19 20 20 21 22 23 24 25 27 28
29 29 28 29 30 30 30 29 29 28 28 28 29 28 27 26 25 24 23 22 21 20 19 19 20 19 19 19 19 19 19 19 20 20 20 19 18 17 16 15 16 18 20 21 22 22 21 21 23 23 22 21 21 21 21 22 22 23 24 25 27 28 29
31 31 29 30 31 31 31 31 31 30 29 29 29 28 27 25 25 25 24 23 22 22 21 21 21 20 20 21 20 20 20 20 20 21 21 21 21 20 18 17 17 19 21 22 24 25 24 24 26 26 25 24 23 23 23 23 24 25 26 27 28 29 31
34 33 32 32 32 32 33 33 32 31 31 31 30 29 28 27 28 27 26 25 25 24 24 24 23 23 23 23 23 23 23 23 22 23 23 23 23 23 20 19 20 21 22 24 26 27 26 26 27 27 27 26 26 25 25 25 26 27 28 29 30 31 32
36 34 34 34 33 33 34 34 34 33 32 32 32 31 30 30 30 29 28 28 28 27 27 26 26 26 26 26 26 26 26 26 26 26 26 26 26 25 23 21 22 23 24 26 28 29 29 29 29 29 29 28 28 27 27 27 28 29 30 31 33 33 34
38 37 36 36 35 35 35 35 35 35 34 34 33 33 33 33 32 31 31 31 31 31 30 29 28 28 28 29 29 29 29 29 29 29 29 28 28 27 25 24 25 26 28 29 30 30 31 30 31 31 31 30 29 29 29 29 30 31 32 34 35 36 36
40 39 39 38 37 36 36 36 37 37 36 36 35 35 35 35 35 35 34 34 34 34 33 32 32 31 32 32 31 31 31 32 32 31 31 31 30 29 28 26 27 29 31 32 31 32 32 32 33 33 33 32 32 31 31 31 32 33 35 36 37 38 38
44 42 41 40 39 39 38 38 38 38 38 37 38 38 38 38 38 38 37 37 37 38 36 35 35 35 35 34 33 33 33 33 33 33 33 32 31 31 30 28 28 30 32 32 33 34 34 34 34 35 35 34 34 34 34 34 34 35 37 38 40 40 40
47 45 44 43 43 42 41 40 40 39 39 39 39 40 40 40 40 40 40 40 41 40 39 38 38 37 37 36 36 35 35 35 35 35 34 34 33 32 31 30 31 31 33 34 35 36 36 35 36 38 37 36 37 37 37 37 37 37 39 40 42 42 42
50 48 47 47 46 45 45 44 43 42 42 41 41 40 41 41 41 41 41 41 42 42 41 40 40 39 39 39 38 37 37 37 37 36 36 35 35 34 33 32 33 34 35 35 37 38 38 37 38 40 39 39 40 41 40 40 40 40 41 43 44 44 44
53 51 50 50 49 48 48 47 46 46 45 44 43 43 42 42 42 42 42 42 42 41 41 41 41 41 41 41 40 40 39 38 38 38 38 37 36 36 35 35 36 36 37 37 38 40 40 40 40 42 42 42 43 43 43 43 43 43 44 46 46 46 46
55 54 54 54 53 53 52 50 49 49 49 48 47 46 45 45 44 44 43 43 42 42 42 42 42 43 43 42 42 41 40 40 39 39 39 39 39 38 38 38 38 39 39 39 40 41 43 43 42 43 44 45 45 45 45 46 46 45 47 48 47 47 48
54 56 57 58 57 56 56 54 53 52 52 52 51 50 49 48 47 47 46 45 45 44 45 44 44 44 44 44 43 42 41 40 40 41 41 41 41 41 41 41 41 41 41 42 42 43 45 46 45 46 47 48 47 46 47 48 48 48 49 48 48 50 51
46 52 56 60 60 59 59 58 57 56 55 54 53 53 53 52 51 51 50 49 48 47 47 47 46 46 45 46 46 44 42 42 42 43 44 44 44 44 43 44 44 44 44 45 45 45 48 50 49 49 50 50 49 48 49 50 50 50 50 50 51 53 54
36 41 48 54 58 60 61 61 60 59 58 57 57 56 55 55 55 55 54 53 52 52 51 50 50 49 49 50 50 47 45 45 46 46 47 47 47 47 46 47 47 47 47 48 47 48 50 52 52 52 53 52 51 51 52 52 52 52 52 52 54 55 57
32 34 38 43 48 53 58 61 63 63 62 62 61 60 59 59 58 58 57 57 57 57 55 53 53 52 52 53 53 51 49 49 50 50 50 50 50 50 50 50 50 50 51 51 50 50 51 54 55 55 54 54 53 54 55 54 54 55 55 55 56 57 59
31 32 34 36 38 42 47 53 59 64 66 66 65 64 64 64 62 61 60 60 60 60 59 57 56 56 55 56 56 55 54 54 54 54 54 54 53 53 53 53 53 54 54 53 53 52 53 55 57 57 57 56 56 56 57 57 57 57 57 57 57 59 60
32 33 34 35 36 37 40 44 49 56 62 67 69 68 68 67 66 65 64 63 62 62 61 60 59 59 59 58 58 59 58 58 58 58 57 57 56 56 55 56 57 57 57 56 55 54 55 57 59 59 59 59 59 58 59 59 59 59 59 58 59 60 61
35 35 35 37 38 37 39 42 44 47 53 59 65 69 70 70 70 69 68 67 66 65 64 63 62 61 61 61 61 62 62 62 62 62 61 60 59 58 58 59 60 60 60 59 57 57 57 59 60 61 62 62 61 61 61 61 62 61 60 60 60 61 63
38 38 38 39 39 39 40 42 43 46 48 51 55 60 65 70 72 73 71 70 69 69 68 66 64 64 64 64 64 65 65 66 66 65 64 63 61 61 62 63 64 64 63 61 60 59 60 61 63 63 63 63 63 63 63 64 64 63 62 62 62 62 64
40 40 40 41 41 41 41 42 44 46 47 48 50 52 57 62 67 71 72 72 72 71 71 69 68 67 67 67 67 68 69 69 68 68 67 65 63 63 65 66 66 66 66 64 62 61 61 63 64 65 64 65 65 65 65 65 65 64 64 64 63 64 65
41 41 42 43 44 44 44 45 46 47 48 49 50 51 53 56 59 62 66 69 71 73 73 73 72 72 72 71 72 72 73 72 70 69 68 67 67 67 67 67 68 68 67 66 64 62 62 64 65 66 66 67 67 66 66 66 66 66 66 66 65 65 66
43 43 43 43 44 45 46 47 49 50 50 51 52 53 53 53 53 54 57 61 65 68 71 72 74 75 76 76 76 76 76 75 73 71 71 71 71 70 70 69 69 69 68 66 65 65 64 65 66 67 68 68 69 67 67 67 67 68 69 68 67 67 67
47 46 46 46 46 46 47 48 50 51 51 53 54 54 53 53 54 53 54 56 58 60 63 67 71 75 78 80 79 78 78 78 76 75 75 74 74 74 74 73 73 71 69 67 67 67 67 67 69 69 70 70 70 69 69 69 69 70 72 70 69 70 70
50 49 49 49 48 48 48 49 50 51 52 53 54 54 54 55 55 55 55 55 55 55 58 62 66 71 75 77 78 79 80 80 79 78 78 77 77 77 77 78 77 75 73 70 70 70 71 71 72 73 73 72 72 71 71 71 72 74 74 72 71 72 72
53 52 52 51 51 50 50 51 51 51 51 53 54 54 54 55 56 57 57 56 55 56 58 61 63 65 68 71 73 76 79 80 80 81 81 80 80 80 81 81 80 80 77 74 72 73 73 74 76 77 77 75 74 74 75 75 76 77 76 73 73 75 74
57 56 55 55 54 54 54 54 53 52 52 53 54 54 54 55 55 57 57 57 58 59 60 60 61 63 64 66 67 70 73 75 78 80 81 81 82 83 83 83 83 82 81 78 76 76 76 77 79 81 80 78 76 75 77 78 79 79 76 74 75 76 75
60 60 59 59 58 57 57 57 56 54 54 54 54 54 55 55 56 56 57 58 60 61 61 61 61 62 63 64 65 67 69 70 72 74 76 78 81 82 83 84 84 84 82 81 79 78 79 80 82 83 82 79 77 76 77 79 80 79 77 76 77 78 76
62 62 62 62 61 61 61 60 60 58 56 56 56 55 56 57 57 58 59 60 61 62 62 62 61 61 62 63 64 66 67 68 69 69 69 71 75 77 79 81 82 83 83 82 81 81 81 82 83 83 81 80 80 79 79 79 80 79 79 79 80 78 77
65 64 64 64 64 64 64 64 64 63 61 59 58 58 57 58 58 59 60 61 62 63 63 63 62 62 62 63 63 64 66 66 67 67 67 67 68 70 73 75 78 80 81 81 81 81 81 82 83 81 80 80 81 80 79 80 80 81 81 81 80 78 76
68 67 67 67 67 67 67 68 68 67 65 64 63 61 60 59 59 59 60 61 62 64 64 64 63 62 62 62 63 64 64 64 65 66 67 67 67 67 69 71 73 75 77 78 78 78 79 80 81 79 77 77 77 77 77 78 79 80 80 80 79 76 71
72 71 71 70 70 70 70 71 71 70 69 68 66 65 63 62 61 60 60 61 62 63 65 65 64 63 62 61 61 62 62 62 64 65 66 66 66 66 67 67 69 71 73 74 75 74 74 75 75 74 73 73 71 71 72 74 75 76 78 77 74 67 59
74 75 75 74 73 74 74 74 74 74 72 71 70 68 66 65 63 62 62 62 62 63 65 65 64 63 62 61 61 61 61 62 63 64 65 66 65 65 65 65 66 67 69 71 71 70 69 68 68 66 64 64 65 67 69 71 73 73 73 69 63 57 53
77 78 78 77 77 77 77 77 77 77 76 74 72 70 69 67 66 65 64 64 64 65 66 66 65 63 62 62 61 61 61 62 62 63 64 64 64 65 65 65 65 67 67 67 67 65 63 61 60 57 54 53 58 65 68 70 73 73 70 64 61 58 58
79 81 81 81 80 80 79 79 79 79 79 77 75 73 71 69 68 67 66 66 66 66 67 67 65 63 62 61 60 61 61 61 61 62 62 62 63 64 64 65 67 66 65 63 62 60 57 54 51 48 44 42 48 59 65 67 68 68 66 65 65 65 65
72 77 81 83 82 81 80 81 82 81 80 78 77 75 73 71 70 69 68 67 67 67 67 67 66 63 61 60 60 60 61 61 60 60 59 59 60 61 62 64 66 64 62 58 53 49 46 44 41 39 36 36 45 58 65 64 63 61 57 57 61 66 67

ECMWFFLT1_250_spd_033.txt.gz
Wind_Speed
20 19 21 26 30 31 30 29 29 29 30 30 30 30 31 30 29 28 26 25 24 23 21 19 19 18 18 19 19 18 16 15 14 13 12 12 11 10 11 11 12 12 11 10 10 10 10 11 12 13 13 14 15 15 15 14 13 13 14 14 15 16 18
22 22 23 25 29 30 30 30 29 30 30 31 31 31 31 31 30 28 27 27 26 25 23 21 20 19 20 20 20 19 18 17 16 15 15 14 14 14 14 14 14 14 14 13 12 11 11 12 13 14 15 16 17 17 17 17 16 16 17 17 17 17 18
23 24 24 25 27 29 29 29 30 30 30 31 31 32 31 30 29 28 29 29 28 27 24 22 22 22 22 22 21 19 19 18 18 17 17 17 17 17 17 17 16 17 17 16 15 13 13 14 14 16 17 17 18 18 18 19 19 19 20 20 20 20 20
24 25 25 26 27 28 28 29 30 31 31 32 32 32 32 31 29 29 29 29 29 27 25 24 23 23 22 22 21 20 20 20 19 19 19 19 19 19 19 18 18 18 19 19 18 17 16 17 17 18 19 19 20 20 20 21 21 22 23 23 23 23 23
26 26 26 27 27 28 30 30 31 31 31 31 32 32 32 31 30 30 30 29 29 27 26 26 25 23 23 22 22 21 21 20 20 20 19 19 20 20 20 19 19 20 21 22 22 20 20 20 20 20 21 22 22 22 22 23 23 24 25 26 26 26 26
28 27 27 28 28 29 30 31 31 31 31 31 31 31 31 31 31 31 31 30 29 28 28 27 25 24 23 23 22 22 21 21 20 20 20 21 21 22 21 20 20 21 22 23 24 24 23 23 23 23 23 23 24 24 24 25 25 26 27 28 29 29 29
31 29 28 28 29 30 31 31 31 31 31 31 30 30 30 31 32 33 32 32 30 30 29 28 26 25 25 24 24 23 23 23 23 23 23 24 24 24 24 23 22 22 23 25 26 26 26 26 25 25 24 25 25 26 26 26 27 28 29 30 31 32 32
33 32 31 30 30 31 32 32 33 33 32 31 31 31 31 32 33 33 33 32 31 31 31 29 28 27 26 26 26 26 26 26 26 26 26 27 27 27 26 26 26 25 26 27 28 28 28 28 27 26 26 26 27 27 28 28 29 29 30 31 33 35 35
38 36 35 33 32 31 32 32 33 33 33 32 32 33 33 33 33 34 34 33 33 33 33 31 30 30 29 29 29 28 29 29 29 29 30 30 30 29 29 28 28 28 29 30 30 30 30 30 29 29 28 28 29 30 30 30 31 31 32 33 34 37 37
41 40 39 38 36 34 33 32 33 33 34 34 35 35 36 36 36 36 35 35 36 36 35 33 33 33 33 32 31 32 32 31 31 31 32 32 32 32 31 30 30 30 31 32 33 33 33 32 32 31 30 29 30 32 33 33 33 33 33 34 35 38 38
44 43 42 40 40 38 36 35 34 35 35 36 37 37 38 38 38 38 38 38 38 38 37 36 35 36 36 35 35 35 35 34 34 34 34 34 34 34 33 32 32 32 33 34 34 35 34 34 33 33 32 32 32 34 36 36 36 36 36 36 37 39 40
47 45 44 42 41 40 39 39 38 37 37 37 38 39 39 40 40 41 41 41 41 41 39 38 38 39 39 38 38 39 38 38 37 36 36 36 36 35 35 35 34 34 34 35 36 36 35 35 34 34 34 34 34 37 39 39 39 39 38 38 39 40 41
49 48 47 45 44 43 42 42 41 41 40 40 40 40 40 41 42 42 43 43 43 42 41 41 41 42 42 42 42 42 42 41 39 38 38 38 37 37 37 37 36 36 36 36 37 37 37 36 36 36 37 37 37 39 41 42 42 42 41 41 41 42 43
52 52 51 49 48 48 47 45 45 44 43 43 43 42 41 41 42 43 43 44 44 43 43 43 44 44 44 44 44 44 44 42 41 40 40 40 39 39 39 38 38 38 38 38 38 38 38 38 38 39 39 39 40 41 43 44 45 44 44 44 43 44 45
50 52 53 53 52 51 51 49 48 47 46 46 46 45 44 44 43 43 44 45 45 44 44 44 45 45 46 45 45 46 45 42 41 42 42 42 41 41 40 40 40 40 40 39 39 39 40 40 41 41 41 41 42 44 45 47 48 47 46 46 46 46 47
41 46 51 54 54 54 54 53 52 51 50 49 49 49 48 47 47 46 46 47 46 46 46 45 45 46 46 46 47 47 46 44 43 43 44 43 43 42 42 42 42 42 42 42 41 41 42 42 43 43 43 43 44 46 48 49 50 49 49 49 49 49 50
36 40 44 49 52 54 55 55 54 54 53 52 52 52 51 51 51 50 50 50 49 49 48 47 47 48 48 48 49 48 47 46 45 45 45 45 45 44 44 44 44 44 44 45 44 44 44 45 46 46 46 46 47 49 50 52 52 51 51 52 52 52 52
35 37 39 42 46 50 52 54 55 56 56 56 56 55 55 54 54 53 53 53 53 52 51 50 50 50 50 51 50 50 50 49 48 48 48 48 47 47 47 47 47 48 48 48 48 47 47 47 48 48 49 49 50 51 52 53 54 53 54 55 55 55 55
34 35 36 38 40 44 47 49 52 55 57 58 58 58 58 57 57 57 57 56 55 54 53 53 53 53 54 54 53 53 53 53 53 52 51 51 51 50 50 50 51 51 51 51 51 50 50 50 50 51 52 53 53 53 54 55 56 56 56 57 58 57 57
32 33 34 35 37 39 41 44 47 50 54 56 58 59 59 59 60 60 59 58 57 56 55 56 56 56 57 57 56 56 56 56 57 57 56 55 54 54 54 54 55 55 55 55 54 53 54 54 53 54 55 56 56 56 56 58 58 59 59 60 61 60 59
31 32 33 33 35 37 39 41 43 45 49 53 55 57 58 60 61 61 61 60 60 59 59 59 59 59 60 59 59 59 58 59 61 62 60 58 57 57 57 58 58 58 58 58 58 57 57 57 56 57 57 58 58 58 59 60 61 61 61 62 63 62 60
33 33 33 34 35 36 38 39 41 42 45 48 50 53 54 56 58 59 60 61 62 62 62 62 62 63 63 63 63 63 62 62 64 64 64 62 60 59 60 61 61 62 61 61 60 60 60 59 59 59 59 59 60 60 61 62 63 63 63 64 64 63 62
36 36 36 36 36 37 38 38 39 40 42 45 46 48 49 50 51 52 54 57 59 60 62 63 64 65 66 66 67 67 66 65 66 67 67 66 64 62 62 63 64 64 64 64 63 62 62 62 62 61 60 61 62 62 63 64 65 65 65 66 66 65 64
39 38 38 37 37 38 39 39 40 40 41 43 44 44 45 45 46 47 48 50 51 53 55 57 60 64 66 67 68 68 68 69 69 70 70 70 68 67 66 67 67 67 66 66 66 65 65 65 65 64 63 62 63 64 65 66 66 67 68 68 68 68 67
41 40 40 39 39 39 39 40 40 40 41 43 43 43 43 43 43 44 44 45 46 46 48 51 55 58 60 60 62 64 66 68 70 71 72 72 71 71 71 71 70 69 69 69 69 69 69 69 69 68 67 66 66 67 68 69 69 70 71 71 71 71 69
44 43 42 41 41 40 40 40 40 41 42 43 44 44 44 43 43 44 44 44 44 44 46 49 51 52 52 52 53 56 59 61 63 66 68 70 70 71 72 72 72 72 72 72 72 72 73 72 72 71 70 70 70 71 72 72 73 73 74 74 74 74 72
48 46 45 44 44 43 42 41 41 41 42 43 45 45 45 45 45 45 45 45 44 46 48 49 48 48 48 48 50 52 53 55 57 59 62 64 66 67 68 69 71 72 72 72 73 73 74 75 75 74 73 73 73 74 75 76 76 76 77 77 77 77 75
51 49 47 46 46 46 45 43 43 43 43 44 45 46 46 46 46 46 46 45 45 46 48 48 48 49 49 49 50 51 52 53 55 56 58 59 61 62 63 64 65 67 67 68 69 70 72 73 73 74 74 73 73 74 76 77 78 79 79 79 79 79 77
52 51 50 49 48 48 48 47 46 46 46 46 47 48 48 48 47 47 47 47 47 47 47 48 49 50 51 51 51 51 52 54 55 55 56 57 58 59 60 60 61 62 62 62 63 65 66 67 68 69 70 70 70 71 73 75 77 77 79 79 80 79 76
54 53 52 52 51 51 51 51 50 49 49 49 49 49 50 50 50 49 48 49 50 49 49 49 50 50 51 52 53 53 53 55 56 56 56 57 57 58 58 58 59 60 60 60 60 61 63 64 65 65 66 67 67 67 68 71 72 72 73 76 76 75 72
56 55 55 55 55 55 54 54 53 52 52 51 52 52 52 52 52 51 51 51 52 52 52 51 51 52 52 53 54 54 55 55 56 57 58 59 59 59 59 59 59 59 60 60 60 60 60 62 64 64 64 63 64 64 66 68 69 68 70 72 72 70 68
59 58 58 58 58 57 57 57 57 56 55 54 54 54 54 55 55 54 53 53 54 55 54 54 54 54 55 55 54 55 55 56 57 59 60 61 61 61 61 61 60 59 59 60 60 60 60 60 61 62 62 61 61 62 63 65 65 65 66 67 66 65 64
63 62 61 60 60 60 60 60 59 59 58 58 58 57 57 58 58 58 57 56 57 57 58 57 57 57 57 57 56 56 56 56 58 59 61 62 63 63 63 63 61 60 59 59 59 60 60 59 59 59 60 61 62 61 61 62 63 63 63 62 61 60 60
66 65 64 63 63 62 62 62 62 61 62 62 62 62 61 61 61 61 61 60 60 60 61 61 60 60 60 59 58 58 57 58 59 60 62 63 65 65 65 64 63 61 60 59 59 59 58 58 58 58 59 61 61 59 58 59 59 61 61 59 55 53 53
68 68 67 66 66 65 65 64 64 64 65 65 66 66 66 66 66 65 65 65 64 64 64 64 64 63 63 62 62 61 60 60 61 62 63 65 66 66 66 65 63 62 61 61 60 59 58 57 57 58 59 59 58 56 55 54 55 57 56 49 45 44 46
71 70 70 69 68 68 67 67 67 68 69 69 70 70 70 70 70 70 69 69 68 68 67 67 67 66 66 65 65 64 63 63 63 63 64 65 67 68 67 65 64 62 61 60 60 59 57 57 57 58 59 57 55 53 51 50 50 48 44 40 43 49 54
73 73 72 72 71 70 70 70 70 72 73 73 73 73 74 74 74 74 73 73 72 71 71 71 70 70 69 68 68 67 67 66 66 66 66 66 67 68 67 65 64 62 60 59 58 58 58 57 58 58 58 56 54 51 48 46 44 41 40 43 49 55 61
75 75 75 74 74 74 73 73 74 75 76 76 76 76 77 77 77 77 77 77 76 75 74 74 73 73 72 71 70 70 69 69 69 68 67 67 68 67 67 65 63 62 60 58 57 57 58 58 58 58 57 54 51 48 44 41 40 38 37 38 42 46 52

ECMWFFLT1_250_spd_036.txt.gz
Wind_Speed
16 14 15 21 26 29 33 37 37 36 34 34 34 34 35 34 32 30 28 27 27 26 25 24 23 22 21 20 20 19 18 16 14 14 12 11 11 10 10 10 9 7 6 6 5 5 6 6 7 7 8 8 10 11 12 13 14 14 15 16 16 16 17
19 17 16 21 26 29 33 37 38 37 36 35 35 35 35 35 33 31 28 26 26 25 25 24 23 22 22 22 21 21 20 18 17 16 15 13 13 13 13 13 12 11 10 9 9 9 9 9 9 10 11 12 13 14 15 15 16 16 17 17 18 18 18
22 20 19 20 24 28 33 36 37 38 37 37 36 36 35 35 33 31 29 27 27 26 25 24 23 22 21 22 22 22 21 20 20 19 17 16 16 16 16 16 15 14 14 13 12 12 12 12 12 13 14 15 16 17 17 18 18 18 18 19 20 19 19
24 23 21 20 23 27 33 36 37 37 38 38 37 36 35 34 32 31 30 29 29 28 27 25 24 24 23 23 22 22 22 21 21 20 19 19 18 18 18 18 17 17 17 16 16 15 14 15 15 16 16 17 19 19 19 20 20 20 20 21 22 22 21
27 25 24 23 23 27 33 37 37 37 38 38 38 37 36 34 33 33 32 31 30 29 27 26 26 27 26 24 22 22 22 22 21 21 20 20 20 20 20 19 19 18 18 19 19 18 18 18 18 19 19 19 20 21 21 21 21 21 21 23 24 24 24
29 26 26 26 26 28 32 35 36 36 36 36 36 36 35 35 35 35 34 33 32 30 29 29 29 28 27 24 23 23 23 23 23 22 22 22 22 22 20 19 18 19 19 20 20 21 21 21 21 22 22 22 22 23 23 23 23 23 23 24 26 26 26
31 29 28 28 28 29 31 33 35 34 34 33 33 33 33 34 35 35 34 34 33 32 32 31 31 30 28 26 25 25 24 24 24 23 23 22 22 21 19 19 19 19 20 22 23 23 23 24 24 25 26 26 26 26 26 25 25 25 25 26 27 28 28
33 32 30 29 30 31 31 32 33 32 31 31 30 31 32 34 35 35 35 35 34 33 33 33 32 31 29 29 28 26 25 25 25 24 23 22 22 21 21 21 21 22 23 24 25 26 26 27 27 28 29 29 29 28 28 28 27 27 28 28 29 30 30
37 35 34 32 31 32 33 33 33 32 31 29 29 30 31 33 35 35 36 36 35 35 35 33 32 31 31 31 30 28 27 27 26 25 24 24 23 23 23 24 24 25 26 27 28 28 29 29 29 30 30 31 31 30 30 29 29 29 30 30 31 31 32
42 40 38 36 35 34 34 34 34 33 32 31 31 31 32 34 35 36 37 36 37 37 36 35 34 33 33 33 31 30 30 30 28 27 27 26 26 26 26 26 27 27 28 29 29 30 30 30 31 31 31 32 31 31 31 31 31 31 31 32 33 33 34
45 44 42 41 39 37 36 35 35 35 35 35 34 34 35 36 37 37 37 37 38 38 37 36 36 35 36 35 33 33 33 32 31 30 29 29 29 29 29 29 29 29 30 30 30 31 32 32 32 32 32 32 32 32 33 33 33 33 33 34 35 35 35
48 47 45 43 41 40 39 38 37 37 37 37 37 37 38 39 39 39 39 39 39 38 37 37 37 37 37 36 36 36 36 35 34 33 32 32 32 32 32 32 32 32 32 32 33 33 33 33 33 33 33 33 33 33 34 35 35 36 36 36 37 37 37
51 49 47 45 43 42 41 40 39 38 38 38 39 40 40 39 39 39 40 40 40 39 37 37 38 38 38 39 39 39 39 38 37 35 34 35 35 36 35 35 35 35 35 35 35 35 35 35 35 35 35 34 34 34 35 36 38 38 38 38 39 39 39
52 50 48 47 45 43 42 42 42 41 40 39 40 41 41 40 40 40 41 41 41 40 39 39 40 40 40 41 41 42 42 41 39 38 37 38 38 39 39 38 38 38 38 38 37 37 37 37 37 37 37 36 36 36 36 38 40 41 41 41 41 42 42
52 51 50 49 47 46 45 45 45 43 42 41 41 41 41 41 41 41 42 42 42 41 41 42 42 42 42 43 44 45 44 42 41 41 40 41 41 42 42 41 41 41 40 39 39 39 38 38 39 39 39 38 38 38 38 39 42 43 43 43 43 44 45
50 51 52 51 51 50 49 48 47 46 45 45 44 43 43 42 43 43 44 44 43 43 43 43 44 44 44 46 47 47 46 45 45 44 43 44 44 44 44 43 43 42 42 41 41 40 40 40 40 40 40 40 39 39 40 41 43 45 45 45 46 47 48
46 49 51 52 52 52 52 51 49 49 48 47 47 46 46 45 45 44 44 44 44 45 44 44 45 46 46 48 49 47 47 47 47 46 46 46 45 45 45 44 44 43 43 43 43 42 42 42 42 41 41 41 41 42 42 44 45 47 47 48 48 50 51
41 44 47 50 52 53 53 53 52 51 50 49 49 48 48 48 47 46 45 45 46 46 45 45 46 46 47 49 49 48 48 48 48 48 48 47 46 46 46 45 45 45 45 45 44 44 44 44 44 44 44 44 44 45 45 46 48 49 50 50 51 52 53
36 38 41 44 48 51 53 54 53 53 53 53 52 52 51 51 50 49 49 49 49 48 47 48 48 48 49 49 49 49 50 49 49 49 49 48 47 47 47 47 47 47 48 47 46 46 47 47 46 47 48 48 48 48 48 49 51 52 52 53 53 54 55
33 35 37 39 42 45 48 51 53 53 54 55 55 55 54 54 53 53 52 51 51 50 50 51 51 51 51 51 52 52 52 51 51 51 51 50 50 49 50 50 50 51 51 50 50 50 50 50 50 50 51 51 52 52 52 53 54 54 55 55 56 56 57
35 35 36 37 39 40 43 45 48 50 52 53 54 54 55 55 55 55 54 54 54 53 54 54 54 54 54 54 55 55 54 54 54 53 54 54 53 53 53 53 54 54 54 53 53 53 53 53 53 53 53 54 54 55 55 56 56 57 57 58 58 58 59
39 39 38 39 39 39 40 41 42 44 46 48 49 51 52 53 53 53 54 54 55 56 56 56 57 57 57 57 57 57 57 56 56 56 56 56 56 56 57 57 57 57 56 56 55 56 56 56 57 57 56 56 56 57 58 59 59 60 61 60 60 60 61
40 40 40 40 39 39 39 39 39 40 40 41 43 45 46 47 47 49 49 50 52 53 54 56 57 57 58 59 59 59 59 59 59 59 59 59 60 61 61 61 60 60 59 59 59 59 60 60 60 60 59 59 60 60 61 62 63 64 64 64 64 64 64
40 39 38 38 37 37 37 37 37 37 38 38 39 40 41 41 42 43 45 46 47 48 49 51 53 53 54 56 56 57 58 58 58 58 59 60 61 63 63 63 63 63 62 62 63 63 64 64 63 63 63 63 64 64 64 65 66 67 68 68 68 67 67
41 40 38 37 36 35 35 35 35 35 36 36 37 38 38 38 39 40 41 42 43 43 45 46 47 47 48 49 50 50 51 52 52 53 54 55 56 58 59 60 60 61 60 61 61 62 63 63 63 62 63 63 64 64 65 65 66 68 69 70 70 69 69
43 43 41 39 38 37 37 37 36 36 36 36 36 37 37 37 37 38 39 39 39 40 41 42 42 42 43 44 44 44 45 46 47 48 48 49 50 51 52 53 54 54 54 55 55 56 57 57 57 57 58 58 59 59 60 61 62 63 65 66 66 67 67
46 46 45 43 41 40 40 40 39 39 38 38 38 37 38 38 38 38 38 38 39 40 40 40 40 40 41 42 42 42 42 43 45 46 46 46 47 48 48 48 49 49 50 51 50 50 51 52 53 53 54 55 55 55 56 57 57 58 60 61 61 62 61
49 49 48 47 45 44 43 43 42 40 40 40 39 39 39 39 39 39 40 40 41 42 42 41 41 42 42 42 42 42 42 43 44 44 45 45 45 46 47 47 47 48 48 49 48 48 49 49 49 50 51 52 53 54 54 55 56 56 57 58 59 58 58
52 52 51 50 49 47 46 45 44 43 42 42 42 42 42 42 42 42 42 42 43 44 44 44 43 43 43 43 43 43 44 44 44 45 45 45 45 45 46 46 47 47 48 49 49 49 49 49 49 49 50 50 51 52 53 54 54 54 55 57 57 57 57
55 55 54 53 52 51 50 49 48 47 46 45 45 45 44 45 45 44 44 45 45 45 46 46 46 46 46 46 46 46 46 46 46 46 47 47 47 47 47 47 48 48 49 49 50 50 50 50 50 49 49 50 50 51 52 52 53 53 54 56 57 56 56
58 57 57 56 55 55 53 52 51 50 49 49 49 48 48 48 48 48 48 47 47 47 48 48 49 49 49 49 49 49 49 48 48 49 49 49 49 49 50 49 50 50 51 51 51 51 51 51 51 49 49 49 50 51 52 52 52 52 53 56 58 57 56
62 60 59 59 58 57 57 55 54 53 53 52 52 51 50 50 50 51 51 50 50 50 51 51 51 52 52 52 52 52 52 52 51 51 51 51 51 52 52 52 52 52 53 54 54 54 54 53 53 52 51 51 51 52 52 52 52 53 53 56 58 57 56
65 63 62 61 61 60 59 58 57 56 55 54 54 53 52 52 52 53 53 53 53 53 54 54 54 55 55 55 55 55 55 55 55 54 54 54 54 54 54 55 54 55 55 56 57 57 57 57 56 56 55 54 53 52 52 52 53 55 55 56 57 57 57
67 66 65 63 63 62 61 61 60 59 58 57 56 55 55 55 55 55 55 56 57 57 57 58 58 58 58 58 58 58 58 58 58 57 57 57 57 57 57 57 57 57 57 58 59 59 59 60 60 59 59 57 54 53 53 53 54 56 57 57 56 57 57
69 68 67 66 65 64 63 63 62 61 60 60 59 59 59 58 58 58 58 59 59 60 60 60 60 61 61 61 61 61 61 61 61 60 60 60 61 60 60 60 60 60 60 60 61 61 61 62 62 63 63 59 56 53 52 51 53 56 57 56 56 57 57
70 70 69 68 67 66 65 64 64 63 63 63 62 62 62 62 61 61 61 61 61 62 62 63 63 63 63 63 63 63 63 63 63 63 63 64 64 64 64 63 63 63 63 63 63 63 63 64 64 66 66 63 59 56 53 51 52 55 56 54 54 56 57
72 71 71 70 69 68 68 67 66 65 65 65 65 65 65 65 65 65 64 64 64 64 64 65 65 65 65 65 64 65 65 65 65 66 67 67 67 67 67 67 66 66 66 67 67 67 67 67 67 68 69 67 63 58 54 51 51 54 55 54 54 54 55
74 73 72 72 72 71 71 70 69 68 68 67 67 67 67 67 68 68 68 68 68 67 67 67 67 67 67 67 67 68 68 68 68 69 69 70 70 70 70 69 69 69 69 69 70 70 69 69 69 69 70 71 66 59 53 51 52 54 55 56 56 55 54

ECMWFFLT1_250_spd_039.txt.gz
Wind_Speed
24 24 23 23 26 30 30 28 29 32 33 36 39 38 38 38 38 38 35 32 32 32 30 28 26 24 21 19 17 16 15 14 13 12 11 10 9 7 7 7 6 5 5 5 5 5 6 5 4 4 5 6 7 9 10 11 12 13 14 14 14 14 15
27 25 23 22 24 27 29 29 30 34 35 38 40 40 40 40 40 39 37 34 33 32 31 29 27 24 22 21 20 19 18 16 15 14 13 11 10 9 10 9 8 7 7 8 8 9 9 9 8 8 9 10 11 12 12 13 14 15 16 16 16 16 17
30 27 23 22 24 25 27 29 31 35 37 39 42 42 42 42 41 39 37 34 31 30 30 29 28 26 24 24 23 22 20 19 18 17 15 14 13 13 13 11 10 10 10 10 11 12 12 12 12 12 12 13 14 15 15 15 16 17 18 18 18 18 18
31 29 26 23 23 24 26 28 31 35 39 41 42 42 42 41 41 39 37 33 30 30 30 30 29 27 26 26 25 24 23 21 20 19 18 17 17 16 15 13 13 13 13 13 14 14 14 14 14 14 14 15 16 17 17 18 18 19 20 21 21 20 20
32 31 29 25 23 24 27 29 31 36 41 42 41 41 40 40 41 40 38 34 31 30 30 30 29 28 27 27 26 24 23 21 21 20 20 20 19 18 17 16 15 16 16 17 17 16 16 16 16 16 17 18 18 19 20 20 20 21 22 22 23 22 22
34 32 30 26 23 25 28 31 31 34 39 41 40 38 38 38 40 40 39 36 33 31 30 30 30 29 28 27 25 24 22 20 20 20 20 21 21 20 19 18 18 18 18 18 18 17 17 17 17 18 19 21 21 22 22 23 23 23 23 24 24 24 24
37 33 31 28 26 28 30 30 30 32 37 40 39 37 36 37 38 39 39 38 36 34 33 32 31 30 28 27 26 24 23 21 20 21 21 22 22 21 20 19 19 19 19 19 19 18 19 19 19 20 21 23 24 24 25 25 24 24 24 25 25 26 25
40 36 33 31 31 31 29 29 30 30 34 39 40 38 36 36 36 37 38 38 37 36 35 34 33 32 30 29 28 26 25 24 23 22 22 22 22 22 21 21 20 20 20 20 20 21 21 21 22 22 23 24 25 26 26 26 26 25 25 25 26 27 27
44 40 36 34 33 30 27 27 29 30 33 38 40 39 36 35 36 37 38 38 38 37 37 36 35 34 32 32 31 29 28 28 27 25 23 23 23 23 23 22 22 22 22 22 22 23 24 24 24 24 24 25 26 27 28 28 28 27 27 26 27 28 28
46 43 41 38 36 33 30 29 29 30 33 36 38 38 37 37 37 37 38 38 39 39 38 37 36 35 35 34 33 31 31 32 31 28 26 25 25 25 25 24 24 25 25 25 25 25 25 25 26 26 26 26 27 28 29 29 30 30 29 28 28 30 30
48 47 44 41 39 38 36 34 32 32 33 35 37 38 38 39 39 39 39 39 40 40 39 38 38 37 37 36 34 34 35 34 33 32 29 27 26 27 27 27 27 27 27 27 27 27 27 27 28 28 28 28 28 29 30 31 32 32 32 30 30 31 32
51 49 46 43 41 40 38 36 34 33 34 37 39 40 41 42 42 41 41 41 41 40 38 38 38 38 38 37 36 37 37 36 35 34 31 29 29 29 29 30 30 29 29 29 29 29 30 30 30 31 31 31 31 31 32 33 33 34 34 33 32 32 32
53 51 48 46 43 41 39 37 36 35 35 37 40 42 43 44 44 44 43 43 42 41 40 39 39 40 40 39 39 39 39 38 37 35 33 32 32 32 32 32 32 31 31 31 32 32 32 33 33 33 34 34 33 34 34 34 35 35 36 35 33 33 33
55 54 51 47 44 42 41 39 38 37 37 38 41 42 44 44 44 44 44 43 42 41 41 41 41 42 41 41 41 42 42 40 38 36 34 34 34 35 35 34 34 34 34 34 34 35 35 35 36 36 37 36 36 36 36 36 36 36 37 36 35 35 35
56 55 53 50 47 45 43 42 41 40 39 40 41 43 44 44 44 44 43 42 42 41 41 41 41 42 41 41 41 42 42 40 38 37 35 35 36 37 36 36 36 36 36 36 37 37 38 38 39 39 39 39 39 38 38 38 38 38 38 38 37 37 38
56 55 53 52 50 48 46 45 44 43 42 41 42 43 44 44 44 44 43 42 42 42 42 41 42 42 41 41 41 41 40 38 37 37 36 36 37 37 37 37 38 38 39 39 40 40 40 41 41 42 41 41 41 40 40 40 40 40 40 40 40 40 41
55 55 54 54 53 51 50 48 47 46 45 43 43 43 44 45 45 45 44 44 44 43 43 42 42 43 42 42 41 40 39 39 38 38 37 38 38 39 39 39 40 41 42 42 43 42 43 43 43 43 43 42 42 42 42 43 43 43 43 43 43 43 44
53 54 55 55 55 54 53 51 49 48 47 46 45 45 45 45 45 45 45 45 45 44 43 43 43 43 43 43 42 41 41 41 41 40 40 41 41 42 42 42 43 44 45 45 45 45 45 45 45 45 44 44 44 44 45 45 45 46 46 46 46 47 47
49 52 54 55 55 54 54 53 51 50 49 48 48 48 48 47 47 46 45 44 43 43 43 43 44 44 44 43 43 43 43 43 42 42 44 44 44 45 45 45 46 46 47 47 47 47 47 47 47 46 46 47 47 47 48 48 49 50 49 49 49 49 50
46 49 52 53 55 55 54 54 53 53 52 51 50 50 50 49 49 48 46 45 44 44 44 44 44 44 44 44 44 44 45 44 44 44 45 46 46 46 46 47 47 47 48 48 48 49 48 48 48 48 49 49 50 51 51 52 53 53 53 52 52 53 54
44 47 50 52 54 55 55 55 55 55 54 53 52 51 51 51 50 49 48 47 47 47 46 46 45 45 45 45 45 46 46 45 45 45 46 47 47 47 48 48 48 49 49 50 50 50 50 50 51 51 51 52 52 53 55 55 56 56 56 56 57 57 58
42 44 46 48 51 53 54 55 56 56 56 55 54 53 53 52 51 50 49 49 48 48 48 48 47 47 47 47 48 48 47 47 47 47 48 49 49 50 50 51 51 51 51 51 52 53 53 53 53 54 54 55 55 56 57 58 59 60 61 61 61 61 61
40 41 42 44 46 49 51 53 55 56 57 56 55 55 54 53 53 52 51 51 50 50 50 50 50 50 50 50 50 50 50 49 49 50 51 51 52 53 54 54 54 53 53 54 55 55 56 56 56 57 57 58 58 58 59 60 61 62 63 63 63 62 61
39 39 40 41 43 45 47 50 52 54 55 55 55 54 54 54 54 54 54 54 53 53 52 53 53 53 53 53 53 52 52 52 53 53 54 55 56 56 56 56 56 56 56 57 57 57 57 58 58 58 59 59 59 59 59 59 60 60 60 60 60 59 57
41 40 39 39 40 41 43 45 46 47 48 50 51 51 52 52 51 52 52 53 53 54 54 54 55 55 54 54 54 54 54 54 54 55 55 56 57 57 56 56 56 56 56 56 55 55 55 56 56 56 55 55 55 55 55 54 54 54 55 55 55 55 53
40 39 39 39 39 40 40 39 39 39 40 41 42 43 44 44 44 44 45 46 46 47 48 49 50 50 50 51 51 51 51 51 51 51 52 52 52 52 51 51 51 51 51 51 51 51 51 51 50 50 50 50 50 50 50 50 50 50 51 51 52 53 52
41 40 39 39 39 40 39 38 37 35 35 35 35 35 36 37 37 37 38 38 39 40 40 41 41 42 43 44 44 45 46 45 45 46 46 46 46 45 45 46 46 46 47 47 47 47 47 47 46 46 47 47 47 48 48 49 49 49 50 51 51 52 52
43 42 41 40 40 40 39 38 37 35 34 34 33 33 33 34 34 34 35 35 36 36 36 37 38 39 39 40 41 42 42 41 41 42 42 42 42 42 42 43 43 43 44 45 45 44 45 45 45 45 45 45 46 46 47 48 48 48 49 50 51 51 52
46 45 43 42 41 41 40 39 38 36 36 35 34 34 34 34 34 34 35 36 36 36 36 37 38 38 38 39 40 40 41 40 40 41 41 41 41 42 42 43 43 43 43 43 43 43 43 44 44 43 43 44 44 45 46 46 47 47 49 51 52 52 52
50 48 45 44 43 42 42 41 40 40 40 38 38 37 36 36 37 36 37 38 38 38 38 38 39 39 39 39 40 41 41 41 41 41 41 41 42 42 43 43 43 43 43 43 43 43 43 43 43 43 43 44 45 46 47 48 48 49 51 54 56 56 55
53 51 48 46 45 45 44 43 43 43 43 43 42 41 40 40 40 40 40 41 40 40 40 41 41 42 42 42 43 43 43 43 43 42 42 43 43 43 43 44 44 43 44 44 44 44 44 44 45 45 45 46 47 48 49 50 51 52 54 56 58 59 59
57 54 52 50 49 49 47 47 47 47 47 47 46 45 45 44 43 43 43 43 43 43 43 44 44 45 45 46 46 46 46 46 46 45 45 45 45 46 46 46 45 45 45 46 46 46 46 47 47 47 47 48 49 49 50 51 53 54 56 58 59 61 62
60 58 56 54 53 52 50 50 50 50 50 50 50 50 49 48 47 47 46 46 46 46 46 46 47 48 48 49 49 50 50 50 49 49 48 49 49 49 49 49 48 48 48 49 49 49 49 49 50 49 49 49 50 51 52 53 54 56 58 59 60 61 63
63 62 60 58 56 54 53 53 52 52 52 52 53 53 53 52 51 50 49 49 50 50 50 50 50 51 51 52 52 53 52 52 52 52 52 52 52 52 52 52 51 51 52 52 52 52 52 52 52 52 52 52 53 54 54 56 57 59 61 62 61 62 64
66 65 63 62 60 58 57 56 55 54 54 54 55 55 55 55 54 53 53 53 53 53 54 54 54 54 54 54 55 55 55 55 55 55 55 55 55 54 54 54 55 55 55 55 55 55 56 56 55 55 55 55 56 56 57 59 61 62 64 65 65 64 65
70 68 67 66 64 62 61 59 58 58 57 57 57 57 57 57 56 56 56 56 56 56 57 57 57 57 57 57 58 58 58 57 58 58 58 58 58 57 57 57 58 57 57 57 57 58 58 58 58 59 58 58 59 59 59 61 63 65 66 67 67 67 66
73 72 71 70 68 67 65 64 63 62 61 61 60 60 59 59 59 59 59 59 59 59 59 60 60 60 60 60 60 60 60 60 60 60 61 61 60 60 60 60 61 60 60 60 60 61 61 61 61 61 61 60 60 61 61 62 64 66 67 67 67 67 67
75 74 74 73 72 71 70 68 67 66 65 64 63 63 63 62 62 62 62 62 62 62 62 62 62 62 62 62 62 62 62 62 63 63 63 63 63 62 63 63 63 63 63 63 64 63 63 64 64 64 64 63 62 62 62 63 64 64 64 63 63 64 64

ECMWFFLT1_250_spd_042.txt.gz
Wind_Speed
26 24 23 22 22 22 23 23 23 24 24 23 23 24 26 31 35 37 37 36 33 32 30 28 27 25 23 22 20 20 19 17 16 15 13 13 11 10 9 9 8 7 6 6 5 4 4 4 3 2 3 3 4 6 7 7 8 10 11 13 14 14 14
29 27 25 24 23 23 23 24 25 25 24 24 25 25 26 31 36 39 39 37 35 33 32 30 29 27 25 23 22 21 19 18 18 16 15 14 12 11 11 10 8 7 6 5 5 5 5 4 4 5 6 7 8 8 9 10 11 12 13 14 15 16 16
32 29 27 26 25 25 23 23 25 25 24 25 28 28 27 31 37 40 41 39 37 35 34 33 32 30 28 26 24 22 21 20 19 18 16 15 14 13 12 10 9 8 7 7 7 8 7 7 8 8 8 9 10 11 11 12 13 14 14 15 16 17 18
36 32 29 28 27 25 23 23 25 25 25 27 31 31 28 30 37 40 41 40 39 37 37 36 34 31 29 27 25 23 22 21 19 18 17 16 16 15 13 12 11 10 10 10 10 10 10 10 10 10 10 11 11 11 12 13 14 15 16 16 16 17 18
39 36 31 29 29 27 24 25 25 25 25 28 32 31 28 30 37 41 42 41 40 39 38 36 34 31 29 28 26 25 24 23 21 20 19 18 18 17 16 15 14 14 14 13 13 13 12 12 12 12 12 12 12 12 13 14 15 16 17 17 17 17 18
42 39 34 32 32 30 27 26 26 25 25 26 30 31 28 30 38 42 42 42 42 40 38 36 35 33 32 31 30 29 27 25 23 22 21 21 20 20 19 18 18 18 17 16 16 15 15 14 13 12 12 13 14 15 15 16 17 18 18 18 19 19 20
43 41 38 35 34 33 29 26 26 25 24 26 29 30 28 31 38 42 42 42 42 41 39 37 37 36 35 34 33 31 28 27 25 24 23 23 23 23 22 21 21 20 19 19 18 18 17 16 14 13 13 14 16 18 18 19 19 19 19 20 20 21 22
45 43 41 38 35 34 31 28 27 25 23 26 29 30 30 33 38 42 41 40 41 41 40 38 38 38 37 37 35 32 30 29 28 27 26 25 25 24 23 22 22 22 22 22 21 20 19 17 15 15 16 17 18 19 20 21 21 22 22 21 22 24 25
47 45 44 40 36 35 32 30 28 25 23 26 29 30 32 34 38 41 40 39 40 42 41 39 38 38 38 38 36 34 32 31 30 29 28 27 26 24 23 23 24 25 25 24 23 22 21 19 17 18 18 19 20 20 21 22 23 24 25 25 25 26 27
50 48 46 42 38 36 34 32 29 26 25 27 30 31 33 35 38 40 40 41 41 42 42 41 39 38 38 38 37 35 33 32 31 30 29 28 26 24 23 24 25 26 26 25 25 24 22 21 20 20 21 20 21 21 22 24 25 26 28 28 28 28 29
51 49 47 43 41 40 38 36 33 30 28 29 32 33 34 37 40 41 42 43 44 43 43 43 41 39 38 38 37 36 35 34 32 31 30 29 27 26 26 26 26 27 27 27 26 25 24 24 24 24 23 22 22 23 24 25 27 28 30 31 31 30 31
52 51 49 46 45 44 42 39 37 35 32 31 33 35 36 39 42 43 43 44 45 44 44 44 43 40 39 38 38 37 36 35 34 33 31 30 29 29 29 29 28 28 28 28 28 27 27 27 27 27 26 25 25 26 26 28 29 31 32 33 33 33 33
55 56 53 50 47 45 44 42 39 37 34 33 34 37 39 42 44 45 45 45 45 45 45 45 44 42 40 39 39 39 38 37 36 34 33 32 31 32 32 32 31 29 29 30 30 30 30 30 30 30 29 29 29 29 30 31 32 33 34 35 35 35 35
58 58 55 51 48 46 46 45 42 39 36 34 35 38 42 45 47 48 47 47 46 46 46 46 45 44 42 41 41 41 40 39 37 36 35 34 34 34 34 34 33 32 32 32 32 32 32 32 32 32 32 32 32 33 33 34 34 35 36 37 37 38 38
59 58 56 53 51 50 48 47 45 42 39 36 35 38 42 45 48 50 49 48 47 46 46 46 46 46 44 43 43 43 42 41 39 39 37 36 36 36 35 34 34 34 34 34 34 34 34 34 34 34 35 35 35 36 37 37 37 38 39 39 40 40 41
57 57 57 56 54 52 51 49 46 43 42 41 38 37 40 43 47 49 50 49 47 47 46 46 46 46 46 46 45 45 44 42 41 40 39 38 38 37 36 36 36 36 36 36 36 35 35 36 36 36 37 37 38 39 39 40 40 41 41 42 42 42 43
55 56 58 57 55 54 52 51 49 46 45 45 42 40 40 41 44 46 48 49 49 48 47 46 47 47 47 47 46 45 44 43 43 42 40 40 40 39 39 38 38 38 38 38 37 37 37 38 38 38 38 39 40 41 42 42 43 43 43 43 44 44 45
53 55 56 57 57 56 55 55 54 51 49 47 45 44 42 41 42 44 46 48 48 47 47 47 48 48 47 47 45 45 45 44 43 43 42 42 41 41 40 40 40 40 40 39 39 39 39 39 39 40 40 41 42 42 43 43 44 44 44 45 45 46 47
50 53 55 57 58 59 59 58 55 53 51 50 48 46 44 43 43 43 44 45 46 46 47 48 48 47 47 46 45 45 45 44 44 44 43 43 42 41 41 41 41 41 40 39 39 39 40 40 41 41 41 42 43 44 44 45 45 46 46 47 48 49 50
46 50 53 56 58 59 59 58 56 55 55 53 51 49 47 46 45 44 44 45 45 46 46 47 47 47 47 46 46 46 46 45 45 44 44 43 42 41 41 41 41 40 40 40 40 41 42 42 42 43 43 43 44 45 46 46 47 48 49 50 51 51 53
43 45 50 55 59 60 60 59 58 57 57 55 53 51 50 49 48 47 46 45 46 46 46 46 46 46 47 46 46 46 46 45 44 44 44 43 43 42 42 42 41 41 41 42 42 42 43 43 43 43 44 44 45 47 48 49 50 51 52 53 54 54 56
41 43 46 51 54 58 61 60 59 58 57 56 55 54 52 51 50 49 48 47 46 45 45 45 45 46 47 47 47 46 45 45 44 44 43 43 43 43 43 43 42 42 42 42 43 43 43 43 44 45 46 47 48 49 50 52 53 55 56 56 57 57 57
38 39 39 42 48 55 60 61 60 60 58 57 56 55 54 53 51 51 49 49 48 47 45 45 45 45 46 46 46 45 44 44 43 43 43 43 43 43 43 43 42 42 42 42 44 44 45 45 46 47 49 50 51 52 53 55 56 58 58 58 57 55 53
38 36 35 40 46 52 55 58 61 61 60 59 58 57 55 54 53 52 51 51 50 49 47 47 47 46 46 45 45 44 43 43 43 43 43 44 44 44 44 43 43 43 43 44 46 47 47 48 49 50 52 53 54 55 55 56 56 56 55 53 51 48 46
38 36 38 42 44 46 50 54 58 60 60 60 59 59 58 56 55 53 52 52 51 50 50 49 49 48 47 46 46 45 45 45 45 45 45 45 46 46 45 46 46 47 47 47 48 50 50 51 52 53 54 54 54 54 53 52 50 49 48 46 45 43 41
38 40 42 41 41 43 46 49 52 55 58 59 59 59 59 58 57 55 54 54 53 52 52 51 51 50 49 48 48 48 47 47 47 47 47 47 48 48 48 49 49 50 50 51 51 51 52 53 53 53 52 51 50 48 47 45 44 43 42 42 41 41 40
41 42 43 42 42 43 43 44 47 50 53 55 57 58 57 57 57 56 56 55 54 54 54 53 52 52 51 51 50 50 49 49 49 49 49 49 50 50 50 50 51 51 51 51 51 50 50 50 49 48 46 45 44 42 41 40 40 40 40 40 40 40 40
42 42 43 44 44 42 41 42 44 45 47 50 52 53 54 55 55 55 55 55 55 55 54 54 54 53 53 52 52 51 51 50 50 49 49 49 49 49 49 49 49 48 48 48 47 46 45 44 43 42 41 40 39 39 39 39 38 39 41 41 42 42 42
45 44 44 45 44 43 43 42 42 42 43 45 46 47 48 49 50 50 51 51 51 52 51 51 52 51 51 51 50 49 49 48 48 47 46 46 46 46 46 45 45 44 44 43 42 41 40 40 39 38 38 38 38 38 39 39 39 40 42 44 44 45 45
48 47 46 45 45 45 45 43 43 43 42 43 43 42 42 42 43 43 43 43 43 43 43 43 44 44 45 44 44 44 44 44 44 43 42 42 42 42 42 42 41 40 40 39 38 37 37 37 36 36 37 37 38 39 39 40 41 42 44 46 47 48 48
49 49 48 46 46 47 47 45 45 45 44 44 43 41 40 40 40 39 39 39 39 39 39 38 38 39 40 40 40 40 40 40 41 40 40 40 40 40 39 39 38 37 37 36 36 36 36 36 37 37 38 38 39 40 41 42 43 44 45 47 49 50 51
51 50 50 49 49 49 48 47 46 46 46 45 44 43 42 41 40 39 40 40 40 40 39 38 39 39 39 39 39 38 38 39 40 39 38 38 39 39 39 38 37 37 37 37 37 37 38 38 39 39 39 40 40 42 43 44 45 45 46 47 49 52 53
54 52 52 52 52 51 49 48 47 47 46 46 45 44 43 41 41 41 41 41 40 40 40 40 40 40 40 39 39 38 38 39 40 39 39 40 40 40 40 39 39 39 40 40 40 41 41 41 41 41 41 42 43 44 45 46 47 47 47 48 50 53 55
59 55 54 54 55 54 52 50 49 49 48 47 47 45 44 43 42 42 42 42 42 41 41 41 41 41 40 40 40 40 40 40 41 41 41 42 42 41 41 41 42 42 42 43 44 44 44 44 44 44 44 44 45 46 47 48 49 50 50 50 52 54 56
62 59 57 56 57 56 55 53 52 51 50 49 48 47 45 45 44 44 44 44 44 43 43 43 43 43 42 42 41 42 43 43 44 44 44 45 44 43 43 44 45 45 46 47 47 47 47 47 47 47 47 48 49 49 50 51 52 53 54 54 54 55 56
65 62 60 59 59 59 58 56 55 54 53 52 50 49 48 47 47 47 46 46 46 46 46 46 46 46 46 46 45 46 46 47 47 48 48 48 47 46 47 48 49 49 49 50 50 51 51 50 50 51 51 51 52 53 54 55 56 57 57 57 57 58 58
67 65 64 63 62 61 60 59 58 57 57 55 53 52 51 50 50 50 49 49 49 49 49 49 49 48 49 50 50 50 50 50 50 51 52 51 50 50 51 53 53 52 52 53 54 54 54 54 54 54 54 55 55 56 57 58 59 60 60 60 60 60 60
69 68 67 66 65 64 63 63 62 61 60 59 57 56 55 54 54 53 53 52 52 52 51 51 51 51 53 53 54 54 54 53 54 55 55 54 53 53 55 57 56 56 56 56 57 57 57 57 57 57 57 58 58 59 60 61 62 62 63 63 63 62 62

ECMWFFLT1_250_spd_048.txt.gz
Wind_Speed
32 31 32 33 33 31 29 26 24 23 23 25 25 24 24 24 24 22 21 23 25 27 27 27 27 26 26 26 26 26 25 25 24 24 23 23 22 22 21 20 18 17 16 16 16 15 14 13 12 12 11 10 9 7 6 5 6 6 6 7 8 9 11
34 32 34 35 35 33 31 28 26 25 24 25 27 25 25 25 26 25 24 23 26 28 29 28 28 27 27 26 26 26 25 26 25 24 24 23 23 23 21 20 19 18 17 16 16 15 15 14 13 13 12 11 10 9 8 8 8 8 8 8 9 10 11
35 33 36 38 37 36 34 31 28 27 26 27 28 27 26 26 27 27 25 24 27 30 31 31 30 29 28 28 27 26 26 26 26 25 25 24 24 23 21 20 19 18 18 17 17 16 15 15 14 13 13 13 12 11 10 10 9 9 9 9 9 10 11
37 35 38 39 39 38 37 34 31 30 29 28 28 29 27 27 28 29 28 27 28 31 34 34 33 31 31 30 29 28 27 27 27 26 26 25 25 23 22 21 20 20 19 19 18 17 16 16 15 15 14 14 13 13 12 11 10 10 9 9 10 11 11
40 37 39 41 41 41 40 37 34 33 32 30 28 29 29 28 29 31 31 29 30 32 34 35 35 34 33 33 32 30 29 28 27 27 26 26 25 23 23 23 22 22 21 20 19 18 17 17 16 16 16 15 14 13 12 12 12 11 9 9 11 12 12
43 40 42 44 44 44 43 41 37 35 33 31 28 28 29 29 30 32 32 31 31 32 35 36 37 37 36 35 35 33 32 30 29 27 26 26 25 25 25 25 25 24 23 21 20 19 18 18 18 17 16 14 14 13 13 13 13 12 11 11 11 12 13
47 45 45 47 46 45 45 43 40 36 34 32 29 29 29 30 31 32 32 32 32 32 35 37 38 39 38 37 36 35 33 31 29 28 27 27 27 27 28 27 26 25 23 22 21 20 20 19 18 17 16 15 14 14 14 15 15 14 13 13 13 13 14
50 49 47 48 45 44 45 44 41 38 35 33 31 29 29 30 32 33 33 33 33 33 35 37 39 40 39 38 37 35 33 31 29 29 30 30 30 30 30 28 27 26 24 24 23 22 20 19 18 17 17 17 16 16 16 17 17 16 15 15 15 16 16
52 51 48 47 43 41 43 44 42 40 38 35 32 30 29 30 32 34 34 34 33 34 35 37 39 40 40 39 38 36 34 32 32 32 33 33 33 32 31 29 28 27 26 25 23 22 21 21 20 19 19 19 19 18 18 18 18 18 17 17 18 18 20
52 52 49 46 43 41 43 44 43 42 40 37 34 32 31 31 31 33 35 36 35 35 36 38 39 40 42 41 39 37 36 35 35 35 35 35 35 33 32 31 29 28 26 25 24 24 23 23 22 21 21 20 20 19 19 19 19 19 19 20 20 22 23
52 53 50 46 45 44 44 45 46 46 43 39 37 35 34 32 31 32 35 37 38 37 37 39 40 41 42 43 42 40 38 37 37 37 37 36 36 34 33 32 31 29 28 27 26 26 25 24 23 22 22 21 20 20 20 20 20 21 22 23 24 25 25
51 53 51 48 47 47 46 47 49 48 45 42 39 37 36 35 33 32 33 36 39 39 38 39 41 42 43 44 44 42 40 39 39 39 38 38 37 36 35 34 32 31 30 29 29 28 27 25 24 22 22 21 21 21 21 21 22 23 25 26 27 28 27
50 52 52 49 48 48 48 48 49 48 46 45 42 39 38 37 35 33 32 33 37 40 40 39 41 43 45 46 46 45 43 42 41 40 40 39 38 38 37 35 34 33 32 31 30 29 27 26 24 23 22 22 21 21 22 22 24 25 27 28 30 30 30
48 51 52 50 47 47 50 51 50 49 48 47 44 41 39 38 37 34 31 31 35 39 40 39 41 43 46 47 48 48 46 44 43 42 41 41 41 40 38 37 36 35 34 33 32 30 28 27 26 25 24 23 23 24 24 25 26 27 29 30 31 32 33
48 50 51 50 48 47 50 53 52 51 50 48 46 43 41 40 38 36 33 31 33 38 40 40 41 43 46 48 49 49 47 46 45 44 43 43 43 42 40 39 38 37 36 34 33 32 30 29 28 27 26 26 26 27 27 28 29 29 30 31 32 33 35
48 50 50 49 48 46 49 52 54 53 51 49 47 45 44 42 39 38 36 33 32 35 39 41 41 43 46 48 49 49 48 47 45 45 45 45 44 43 42 41 40 39 38 36 35 33 32 30 29 28 28 28 28 29 30 30 31 31 32 33 33 34 35
49 49 48 47 47 46 47 50 53 53 52 50 49 47 46 43 41 39 37 35 33 33 37 40 41 43 45 48 49 50 49 47 46 45 45 45 45 45 44 43 42 41 40 38 37 35 33 32 31 30 30 30 30 31 32 32 32 32 33 34 35 35 35
47 47 45 45 46 46 47 49 51 53 52 52 51 49 47 45 43 40 39 37 34 32 33 36 39 41 44 47 50 50 50 48 47 46 45 45 45 45 45 44 44 43 42 40 39 37 35 34 33 32 32 32 33 33 33 33 34 34 35 35 36 36 36
45 44 43 44 46 47 48 49 51 53 54 54 53 52 49 47 45 43 41 39 36 33 31 33 36 39 41 45 49 50 50 49 48 46 46 45 45 44 44 44 44 43 42 41 40 39 37 36 35 35 34 34 34 35 35 35 35 35 35 35 36 36 37
43 42 41 41 43 45 47 49 51 53 55 56 55 54 51 49 47 45 43 40 37 35 33 32 33 36 39 42 46 48 48 48 47 46 46 46 46 45 45 45 43 42 41 40 40 39 38 37 37 37 37 36 36 36 36 35 35 34 34 35 37 38 38
40 39 38 39 41 43 46 47 50 53 55 56 56 55 53 51 49 47 45 42 40 38 35 33 32 33 35 38 42 45 46 46 45 45 45 46 47 47 48 47 45 43 41 40 40 39 39 39 39 39 38 38 38 37 36 35 34 34 35 36 38 39 39
38 38 38 38 40 43 45 46 48 52 55 57 57 56 55 53 50 48 46 44 42 40 37 34 32 32 33 35 38 41 43 44 44 44 44 44 46 47 48 48 46 44 42 41 41 41 41 41 41 40 39 39 38 37 36 35 35 35 36 36 37 38 39
39 38 38 38 39 41 43 46 47 50 53 56 57 56 55 53 51 48 47 46 44 42 39 36 34 32 32 33 34 37 39 41 43 43 43 44 45 47 47 47 46 45 44 43 43 43 43 42 41 40 40 39 38 37 36 36 36 36 35 35 36 38 40
40 40 40 39 38 39 40 43 45 48 51 54 56 57 56 55 53 51 49 47 46 44 41 39 36 35 33 31 31 31 34 37 40 41 43 44 45 46 46 46 45 44 44 44 44 44 43 42 41 40 40 39 38 37 37 36 36 35 35 36 37 39 41
41 41 41 40 38 38 39 40 43 46 49 52 54 56 57 57 56 54 51 49 47 45 43 41 39 38 38 34 31 29 30 32 36 39 41 43 45 45 46 45 44 44 44 44 44 44 43 41 41 40 40 39 39 38 37 36 36 37 37 38 39 41 43
42 41 41 41 40 39 39 39 40 42 45 49 51 54 56 57 58 56 54 52 49 47 46 44 41 40 40 37 33 31 31 31 33 36 39 42 44 45 45 45 45 44 44 44 44 43 42 42 41 41 40 40 39 38 38 38 38 39 40 40 41 43 45
44 42 41 41 41 41 40 38 37 38 41 45 48 51 53 56 57 57 56 54 52 50 49 46 44 43 41 39 36 35 35 34 34 35 37 39 42 44 45 45 45 45 45 44 44 43 43 42 42 41 40 40 40 40 40 40 41 41 42 43 44 45 46
46 44 43 42 42 42 41 39 36 37 39 41 44 47 50 53 55 57 57 56 55 53 52 50 48 46 45 42 40 39 39 39 38 37 37 37 39 42 43 44 44 44 44 43 43 43 43 42 41 41 40 41 41 42 43 43 43 44 44 45 46 46 45
49 47 46 44 43 42 42 40 37 36 37 38 40 43 46 49 52 55 56 57 57 56 55 53 51 49 48 46 45 43 43 42 41 40 39 39 39 41 42 42 42 43 43 43 43 43 43 42 42 42 42 43 44 44 45 45 45 46 46 47 46 45 44
52 51 49 46 44 42 41 40 38 37 37 37 38 39 42 45 48 51 53 55 57 57 57 56 54 52 51 49 47 46 45 44 44 43 42 42 42 42 42 42 42 42 43 43 43 43 44 44 44 45 45 46 46 47 47 47 47 47 47 46 45 43 40
56 54 52 49 46 44 43 41 39 38 37 37 37 37 39 41 43 46 49 52 54 55 56 55 55 53 52 51 50 49 48 47 46 46 45 45 45 44 44 44 44 44 44 44 44 45 46 46 46 47 48 48 48 48 48 47 46 45 45 44 42 39 36
58 56 54 51 48 46 44 43 41 40 39 38 37 36 37 38 39 42 45 48 51 52 53 54 54 53 52 51 50 50 50 50 49 49 48 47 46 46 46 46 46 47 47 47 47 47 48 48 48 49 49 49 49 48 47 45 44 44 43 42 39 36 35
56 55 54 52 49 47 46 44 43 41 40 39 38 37 37 37 37 39 41 43 46 49 51 52 53 53 52 52 51 51 51 51 51 50 50 49 48 48 48 49 49 49 50 49 50 50 50 50 51 51 50 50 49 48 46 45 44 43 41 39 37 37 37
59 56 55 54 52 50 48 47 45 43 41 40 40 39 38 37 37 37 38 39 41 43 46 49 51 52 53 53 53 53 53 52 52 52 51 51 51 51 52 52 52 52 52 52 52 52 52 52 52 51 51 50 49 47 45 44 42 41 40 39 39 39 39
64 60 57 56 55 53 51 50 47 45 43 43 42 41 40 39 38 37 37 37 38 39 40 43 45 48 51 52 54 54 55 55 55 54 54 54 54 54 54 54 54 54 54 54 53 53 52 52 51 50 49 48 47 45 43 42 41 40 40 40 40 40 40
66 62 59 57 57 56 55 53 50 47 46 46 45 44 43 42 40 39 39 38 38 37 37 38 40 42 45 47 49 51 52 53 54 54 54 54 55 55 54 54 54 54 54 53 53 52 51 50 49 47 47 45 44 43 42 41 41 41 41 42 42 42 43
67 65 62 59 58 58 57 56 54 52 50 48 47 47 46 45 43 42 41 40 39 38 38 37 37 39 40 42 43 45 46 47 48 49 50 51 52 52 52 52 52 52 52 52 52 51 50 49 47 46 45 44 43 43 42 42 42 43 43 44 44 45 45
70 69 65 63 61 59 58 57 56 55 53 51 50 49 49 48 48 47 45 44 43 41 40 39 38 38 39 40 40 41 41 42 43 44 45 47 48 49 49 50 50 50 50 50 49 49 48 47 45 45 44 44 43 43 43 44 44 45 45 45 46 46 46

ECMWFFLT1_250_spd_051.txt.gz
Wind_Speed
30 31 31 30 29 28 26 24 24 24 23 23 24 25 25 25 25 25 24 22 22 24 27 27 26 26 25 25 26 26 26 25 24 23 22 21 21 20 20 19 18 17 16 16 16 15 15 14 14 13 13 12 11 10 8 6 6 5 6 7 8 8 9
32 33 33 32 30 29 28 27 26 26 26 25 25 26 27 28 27 27 26 25 23 24 27 28 28 28 27 26 26 26 26 25 24 24 23 21 21 20 20 19 19 19 18 17 17 17 16 16 15 15 14 13 12 11 10 8 8 8 8 8 8 8 8
34 34 34 32 31 30 29 29 28 28 28 28 27 27 28 29 29 28 28 27 25 24 26 29 30 29 29 29 28 27 26 26 25 24 23 21 21 20 21 20 20 20 19 19 19 18 17 17 17 16 15 14 13 12 11 11 11 10 10 10 9 9 9
35 34 33 32 32 31 31 31 31 30 31 30 29 28 29 31 31 30 29 29 28 27 27 29 30 30 31 31 30 29 28 27 26 25 24 23 23 22 22 21 21 20 20 20 20 19 19 18 17 17 15 14 13 13 12 12 12 13 12 12 11 10 9
36 35 33 32 33 32 32 34 34 33 33 33 31 30 31 32 33 32 32 32 31 30 28 28 29 30 32 32 32 31 30 29 27 26 26 25 25 24 22 22 22 21 22 22 21 21 19 18 18 17 16 15 14 14 14 14 14 14 14 14 13 12 11
39 37 35 34 35 35 35 36 36 35 35 35 34 32 32 33 34 34 33 33 33 31 30 30 31 33 34 34 34 33 32 31 30 29 28 27 26 25 24 24 23 23 23 23 22 22 20 19 18 17 16 15 15 15 15 15 15 15 15 15 15 14 14
41 39 37 37 37 38 38 37 37 37 37 37 35 34 33 33 35 35 34 33 33 33 32 33 34 34 34 34 34 34 34 33 32 31 30 29 27 26 26 26 26 25 25 25 24 23 22 21 19 18 17 17 16 16 16 15 15 15 15 15 15 15 15
44 42 40 39 40 40 40 39 38 38 38 38 38 36 35 34 34 35 35 33 33 35 35 35 35 34 33 34 35 35 35 34 33 32 31 29 29 28 28 28 28 28 27 26 25 24 23 22 21 20 19 18 17 17 16 16 15 15 15 16 16 16 16
47 45 42 42 42 42 42 40 39 39 40 40 40 38 36 35 34 34 35 34 34 37 38 37 36 35 34 34 35 36 36 35 34 33 32 31 31 31 31 30 30 29 28 27 26 25 25 24 23 21 20 19 18 18 18 17 17 17 17 17 17 18 18
49 47 45 43 44 44 43 41 40 40 41 42 42 39 37 37 35 34 34 35 36 37 39 38 37 36 35 35 35 36 37 36 35 34 33 32 33 34 33 32 32 30 29 28 27 26 26 25 24 22 21 20 20 19 19 19 19 20 20 20 20 20 21
50 48 47 45 44 43 42 41 41 41 42 44 44 41 39 39 37 35 35 36 37 38 39 40 39 38 37 36 36 37 38 39 38 36 35 34 35 35 35 34 33 31 31 30 29 28 27 27 25 24 23 22 22 21 21 21 21 21 21 21 21 22 22
50 49 48 45 43 41 40 40 42 43 44 45 45 43 41 40 39 37 35 35 37 39 40 41 41 40 39 38 37 38 40 40 40 38 37 36 36 36 36 35 34 32 32 31 30 30 29 28 27 25 25 24 24 23 23 22 22 22 22 22 22 22 23
50 49 48 45 43 41 40 41 43 44 46 47 47 46 43 42 41 39 37 36 38 40 41 42 42 41 40 39 39 39 40 42 41 40 38 38 38 37 37 36 35 34 33 32 32 31 31 30 28 27 26 26 26 25 24 23 23 22 23 23 23 23 24
49 48 46 44 41 39 39 41 42 45 47 48 48 47 45 43 42 41 39 38 38 39 41 42 42 42 41 41 40 40 41 42 42 41 40 40 40 40 39 38 37 35 35 34 33 33 32 31 30 29 28 27 27 26 25 25 24 24 25 25 25 25 25
49 47 44 42 40 39 39 40 42 44 46 47 49 49 47 46 44 42 41 40 39 39 39 41 42 42 42 42 41 41 42 42 42 43 43 43 43 42 41 39 38 37 36 36 35 34 33 33 32 30 30 29 28 27 27 26 26 26 26 26 26 26 27
49 46 43 41 39 39 40 41 43 44 45 46 49 50 49 48 47 45 43 41 40 39 38 39 40 42 43 42 41 41 41 42 43 44 45 45 45 43 41 40 39 38 38 37 36 36 35 34 33 32 31 30 29 28 28 28 28 28 28 28 28 29 29
48 45 42 40 39 40 40 41 43 45 45 46 49 50 51 50 49 47 45 42 41 40 38 37 37 39 41 42 42 41 42 43 45 45 46 46 45 44 43 42 40 40 39 38 38 38 37 36 34 33 32 31 30 30 30 30 30 30 30 30 31 31 32
49 45 42 40 39 40 41 42 44 45 45 47 50 50 51 51 50 48 46 44 42 41 40 37 35 36 38 40 42 43 43 44 45 46 47 47 46 46 45 43 42 42 41 40 39 39 38 37 35 34 34 33 33 32 32 32 32 32 32 32 33 33 34
50 46 42 40 40 40 41 44 46 46 47 49 51 52 52 52 51 49 48 47 45 43 41 39 37 35 34 37 42 44 44 44 45 46 47 47 47 47 47 46 45 44 43 42 40 40 39 38 37 36 36 35 35 35 34 34 34 34 34 34 34 35 35
50 45 42 40 40 40 41 43 46 47 49 50 51 52 53 52 52 51 49 47 46 44 43 41 39 36 34 35 40 43 44 44 44 46 47 47 47 47 48 48 48 46 45 43 42 42 41 39 38 38 38 37 37 37 36 36 36 36 36 36 36 36 36
50 45 42 40 40 41 41 43 46 48 49 49 50 51 52 53 53 52 50 48 47 46 44 42 40 37 35 35 37 40 42 43 43 44 45 46 47 48 49 49 49 48 47 45 45 43 41 40 39 39 38 38 38 38 38 38 38 38 38 38 38 38 37
50 46 42 41 42 42 42 43 45 47 48 49 49 51 53 54 54 52 52 50 49 47 46 44 42 39 36 35 35 36 39 40 40 41 42 45 47 49 50 50 50 50 48 47 46 44 42 40 40 39 38 38 39 39 39 39 39 39 39 39 40 40 39
52 48 44 42 42 43 43 44 46 47 48 49 49 51 53 55 54 54 53 52 51 49 48 46 44 40 38 36 35 34 35 36 37 39 40 43 46 49 50 51 51 50 49 48 47 45 43 41 40 40 39 40 41 41 41 40 40 40 40 40 41 41 40
53 49 45 42 43 44 45 45 46 47 48 49 50 51 53 55 56 56 55 54 53 51 49 47 46 43 40 38 36 34 33 34 35 36 38 40 44 47 49 51 51 51 51 50 49 47 45 44 43 43 43 44 44 44 42 41 41 42 41 40 41 42 41
54 50 46 43 44 45 45 45 45 46 47 49 49 50 51 53 54 56 56 56 54 53 51 49 47 45 42 40 38 35 33 32 33 34 35 37 41 44 47 50 51 51 51 51 50 48 47 45 44 45 45 46 46 45 44 42 42 42 41 40 41 42 42
54 51 47 46 46 46 45 44 44 44 45 46 47 48 48 49 51 53 55 55 54 53 52 49 47 45 44 42 41 38 35 32 32 33 34 36 39 42 45 48 49 50 51 51 49 47 46 45 45 46 46 47 47 46 44 43 42 42 41 41 41 42 42
53 51 48 47 46 46 45 44 43 42 42 42 44 45 46 46 47 49 51 53 54 53 52 50 48 46 45 44 43 40 38 35 33 33 34 35 37 40 43 46 47 48 48 48 47 46 45 45 46 46 46 46 46 45 44 43 42 42 42 41 41 42 42
53 51 49 48 46 45 44 43 42 41 40 39 40 41 43 44 45 47 48 50 52 53 53 53 51 49 47 46 45 43 41 39 36 34 33 34 36 38 41 43 44 44 45 46 45 45 45 45 46 46 46 46 45 45 44 43 43 42 42 42 41 41 42
53 52 50 48 47 45 44 43 42 40 39 38 37 38 39 41 43 45 47 49 51 53 54 54 53 52 50 48 47 46 45 43 41 38 36 35 35 37 38 40 41 42 43 44 45 45 46 46 46 46 46 46 45 45 45 44 43 43 43 43 42 42 43
54 53 51 50 48 46 45 44 43 41 39 37 36 36 36 38 40 42 45 47 49 51 53 54 54 54 53 51 50 49 48 47 45 43 41 40 38 38 39 39 39 40 41 43 44 45 46 46 46 46 46 46 46 46 45 44 43 44 44 44 44 44 44
55 54 52 51 49 48 47 46 45 43 40 38 37 36 35 36 38 39 42 44 47 49 52 53 54 55 54 53 52 51 51 50 48 47 46 44 42 41 41 40 40 40 41 42 43 44 45 45 45 45 46 46 45 45 44 44 44 45 45 45 46 46 46
56 55 53 52 51 50 49 48 47 45 43 40 38 36 36 36 37 38 39 41 44 46 49 51 53 54 55 55 54 53 52 51 50 49 48 46 45 44 43 42 42 42 42 43 43 44 44 44 44 45 45 45 45 44 44 45 45 47 47 48 48 48 48
58 57 55 54 53 52 50 49 48 47 45 42 40 38 37 36 36 37 38 39 41 44 46 48 50 52 54 55 55 54 53 52 52 51 50 50 48 47 46 45 45 45 45 45 45 45 46 45 45 46 46 46 46 45 46 47 48 49 50 50 49 49 49
59 59 58 56 55 54 52 50 49 48 47 44 42 40 39 38 37 37 37 38 39 41 43 45 47 49 51 53 54 54 54 54 53 52 52 53 52 51 50 49 49 49 49 48 48 48 48 48 48 48 49 49 48 48 49 50 51 52 52 51 51 51 51
62 61 60 59 57 56 54 52 50 49 48 45 44 43 41 40 39 39 38 38 38 38 40 42 43 45 48 50 52 53 54 54 54 54 54 54 54 53 53 53 52 52 52 51 51 51 51 51 51 52 52 52 51 51 52 52 53 53 53 53 53 52 52
64 62 61 60 59 58 55 53 52 51 50 48 46 45 44 42 41 40 39 39 37 37 37 38 39 41 43 45 47 49 51 52 53 54 55 55 55 55 55 55 55 55 55 54 54 54 54 54 55 55 55 54 54 54 54 54 54 54 54 54 54 53 53
65 63 61 61 61 60 57 56 55 54 53 52 50 48 46 45 44 42 41 40 39 38 37 36 37 38 39 41 42 44 46 48 50 52 53 54 55 56 56 57 57 57 57 57 56 56 56 57 57 56 56 55 55 55 55 55 55 55 55 55 54 53 52
67 65 63 61 61 61 60 58 57 56 56 55 53 51 49 48 46 45 43 42 42 40 39 38 37 37 38 38 39 40 42 44 46 49 51 52 54 55 55 56 56 57 57 57 57 57 57 57 57 57 57 57 56 56 56 57 57 56 55 54 53 52 51

ECMWFFLT1_250_spd_054.txt.gz
Wind_Speed
27 27 25 24 24 24 22 21 20 19 18 19 19 18 19 19 20 20 20 21 22 24 24 23 23 22 22 23 25 26 26 25 24 24 23 22 21 20 19 17 16 15 14 13 12 11 10 10 10 10 9 8 8 7 6 5 4 4 5 7 9 9 10
28 29 27 26 26 26 25 23 22 21 21 21 22 21 20 20 21 22 22 22 23 25 25 25 24 23 23 24 25 26 26 25 25 24 24 23 22 21 20 18 17 16 16 14 13 12 12 12 12 12 11 10 9 9 8 7 6 6 6 8 9 10 11
31 31 29 29 28 27 27 25 24 23 22 23 24 24 23 22 22 23 24 23 23 25 27 27 26 25 25 25 25 26 26 26 25 25 24 23 23 22 21 19 18 18 17 15 14 14 13 13 13 13 12 12 11 10 9 9 8 7 8 9 11 12 12
34 32 31 30 29 28 28 27 26 24 25 25 26 26 26 24 23 23 25 25 25 26 28 28 27 27 27 27 27 27 27 27 26 25 24 24 23 23 22 21 20 19 18 17 16 16 15 15 15 14 13 13 12 11 10 10 9 9 10 11 12 13 13
35 34 33 32 31 30 29 29 28 27 27 27 27 28 28 27 25 25 26 28 28 27 28 28 28 28 28 28 28 28 27 27 26 26 26 25 25 25 23 23 22 21 20 19 18 18 17 17 16 15 15 14 13 12 11 10 10 10 11 12 13 13 13
36 35 34 33 32 31 31 31 31 30 29 29 29 29 30 29 28 27 27 28 30 29 29 30 30 30 30 29 29 29 29 28 28 27 27 27 27 26 25 24 23 23 22 22 21 20 19 19 18 17 16 14 13 12 12 11 11 11 12 12 13 13 13
37 36 35 35 34 33 34 34 33 32 31 30 30 30 32 32 30 28 27 28 30 31 31 32 33 33 32 32 31 31 31 30 29 29 29 29 29 27 26 26 25 25 24 24 23 22 21 20 19 18 17 15 14 13 12 12 12 12 12 13 13 13 14
39 37 37 37 36 36 36 36 35 34 33 32 32 33 34 34 32 30 29 29 30 32 33 33 34 34 34 33 33 33 33 32 30 30 30 31 30 29 28 28 27 27 26 25 24 23 22 21 20 19 17 16 15 14 14 13 13 14 14 14 14 15 15
41 40 39 39 39 38 38 38 37 36 35 34 35 35 35 34 33 32 30 29 30 33 34 34 34 34 34 34 33 33 33 32 32 32 32 32 31 30 30 30 29 28 27 26 26 25 23 22 21 19 18 17 16 15 15 15 15 15 15 16 16 16 17
43 42 42 41 41 40 40 39 38 37 37 37 37 36 35 35 35 34 32 31 32 33 35 35 34 34 34 34 34 33 33 34 34 33 33 33 32 32 32 31 31 31 29 29 28 26 24 23 22 21 19 18 18 17 17 16 16 17 17 17 17 17 18
45 44 44 42 42 42 41 40 39 38 39 39 39 38 37 37 37 36 35 34 33 33 34 35 35 35 35 35 35 34 35 36 36 36 34 33 32 32 32 32 33 32 31 30 29 27 26 25 24 22 21 20 20 19 18 18 18 18 17 17 18 18 18
49 47 45 43 43 43 42 41 40 40 40 40 39 38 38 38 38 38 37 36 35 34 34 35 36 36 36 36 36 36 37 38 39 38 36 33 33 33 33 33 33 33 32 31 29 28 27 26 25 24 23 22 22 21 20 20 19 18 18 18 18 18 18
52 50 48 45 45 44 43 42 41 40 40 40 39 38 38 39 40 40 39 38 36 35 34 35 36 37 37 37 38 39 39 39 40 39 36 34 34 34 34 33 33 33 33 32 30 30 29 28 27 26 25 25 24 23 22 22 21 19 19 18 19 19 19
54 53 50 47 45 45 44 43 42 41 40 39 39 38 39 40 41 41 40 39 38 37 36 36 37 38 38 38 39 40 40 40 40 39 37 36 35 35 35 35 34 34 34 33 32 32 31 30 29 28 28 27 26 25 24 23 22 21 20 20 20 20 20
55 53 51 48 46 45 45 44 42 41 40 40 39 38 40 41 42 42 42 41 40 40 38 37 37 37 38 39 40 40 40 40 40 39 39 38 37 37 37 36 35 35 35 35 34 33 32 31 31 31 30 29 28 27 26 25 23 23 22 22 22 22 21
55 53 51 48 47 46 45 44 43 42 41 40 39 39 41 42 43 44 44 43 43 43 41 39 38 37 38 39 40 39 39 39 39 39 39 40 40 39 38 37 36 36 36 35 35 35 34 33 33 33 32 31 30 29 28 27 25 25 24 24 24 23 23
56 53 51 49 48 47 46 45 43 42 41 40 40 41 42 43 44 45 45 45 45 44 43 41 39 38 38 39 39 38 38 39 39 39 40 41 42 41 40 39 38 37 36 36 36 36 35 35 35 34 33 33 32 31 30 28 27 27 26 26 26 25 25
56 53 51 49 48 47 46 44 43 42 41 41 41 42 43 44 45 46 47 47 47 45 44 43 41 40 39 37 37 38 39 40 40 40 40 42 43 42 41 41 40 38 38 37 37 37 37 37 37 36 35 35 34 33 32 31 30 29 29 28 28 28 27
55 52 50 48 47 46 45 44 43 42 42 41 42 43 44 45 45 47 48 48 47 46 45 44 43 41 39 37 37 38 39 40 41 41 41 41 42 43 43 43 42 41 40 39 38 38 38 39 39 38 37 37 37 35 34 33 33 32 31 31 31 30 30
54 51 49 47 45 45 44 44 43 43 42 42 43 44 45 46 46 47 47 47 47 47 46 45 44 42 40 38 38 38 38 38 40 41 41 42 41 42 44 45 45 43 42 41 40 40 41 40 39 39 39 39 38 37 37 36 35 34 33 33 33 33 32
53 50 48 46 44 43 43 43 42 42 42 42 42 44 45 45 45 46 46 46 47 47 47 46 45 43 41 40 39 38 37 37 38 39 40 41 42 43 44 46 46 46 45 44 43 42 42 41 40 40 41 40 40 40 39 38 37 36 35 35 35 35 33
53 50 48 46 44 43 43 43 43 43 42 41 42 43 43 44 44 45 45 45 46 47 47 46 46 44 43 42 40 39 38 38 37 37 37 39 41 43 44 45 46 46 46 46 45 44 44 43 43 42 42 41 41 41 41 40 38 38 38 37 36 35 34
53 50 48 46 44 43 43 43 43 43 42 41 41 42 43 43 43 43 44 44 45 46 46 46 47 46 46 45 44 42 41 40 39 38 37 37 39 42 43 43 44 45 46 47 47 46 46 45 44 43 43 43 43 43 42 41 41 40 40 38 37 36 35
53 50 48 46 44 44 43 43 43 43 42 41 41 42 43 42 42 42 43 44 46 46 46 47 47 47 48 47 46 44 43 42 41 40 38 37 38 40 41 42 43 43 45 48 49 49 48 47 45 45 44 45 45 45 44 43 43 42 41 40 39 38 38
54 51 48 46 45 44 44 44 44 43 43 42 41 42 43 43 43 43 44 45 47 49 49 50 49 49 49 49 48 47 45 43 42 41 40 38 38 38 39 41 42 42 44 46 49 50 50 49 48 47 46 46 46 46 45 45 45 44 43 42 42 42 41
55 51 48 46 46 46 45 45 44 44 43 43 42 43 44 44 45 45 45 46 48 50 51 52 51 51 50 50 49 49 47 46 44 42 40 39 37 37 38 40 40 41 43 45 47 48 49 50 50 50 49 48 48 47 47 47 47 47 46 45 44 44 44
56 53 50 48 47 47 47 46 45 44 44 43 43 43 43 44 44 45 45 45 46 48 50 51 51 52 51 51 50 50 48 47 45 43 42 40 38 37 37 39 40 41 42 44 45 46 48 49 50 50 50 50 50 49 49 49 49 49 48 47 45 45 45
57 55 51 49 49 48 48 47 46 45 44 43 43 42 42 43 43 44 44 44 45 46 48 49 50 51 51 51 51 50 49 48 46 45 43 42 40 39 38 38 39 41 42 43 44 45 46 47 48 48 49 49 50 50 51 50 50 49 49 47 45 45 45
58 56 53 51 50 49 49 48 47 45 44 43 43 42 42 42 43 44 44 44 44 45 46 47 49 49 50 50 51 50 49 48 47 46 44 43 42 41 39 39 39 40 42 43 44 44 44 44 45 46 46 47 48 50 50 50 49 49 48 46 45 45 46
59 57 55 52 51 50 49 49 48 46 45 44 43 42 43 43 43 44 44 44 44 45 46 47 47 48 50 51 51 51 51 50 49 48 47 46 45 44 42 41 40 41 42 43 43 44 44 43 44 44 45 46 47 48 49 49 48 47 46 45 45 45 45
60 58 56 54 51 50 50 49 48 46 45 44 43 43 44 44 44 43 43 44 45 46 46 47 48 49 51 52 54 55 55 55 54 52 51 50 48 47 46 45 43 43 43 43 43 43 43 43 44 45 46 46 47 48 48 47 47 46 45 45 45 44 44
61 59 57 55 52 51 50 49 48 46 45 45 44 44 45 44 44 43 42 43 44 45 46 48 49 51 52 53 55 56 57 57 56 55 54 52 51 50 49 48 47 46 45 44 43 43 43 43 43 44 45 45 46 46 46 45 45 46 45 45 44 44 44
61 59 57 55 53 52 51 50 48 47 46 46 46 46 46 45 44 43 42 41 42 44 45 46 48 50 51 52 53 54 55 55 56 55 55 54 53 52 51 51 50 49 47 46 45 43 43 43 42 43 43 43 43 43 43 44 44 45 45 44 43 43 44
60 59 58 56 54 52 51 50 49 48 47 47 47 47 46 45 44 43 42 41 41 42 42 43 45 47 48 49 50 51 52 53 54 54 54 54 53 53 53 52 51 51 50 49 48 47 46 45 44 44 43 43 42 42 42 43 44 44 44 43 43 44 45
60 59 58 56 55 53 52 51 50 50 48 48 48 48 47 46 45 44 43 42 41 41 41 41 42 43 45 46 48 50 51 52 53 53 54 54 54 54 54 54 53 53 53 52 52 51 50 49 48 47 46 45 45 45 45 45 45 45 45 45 46 47 47
62 60 58 57 55 53 53 52 52 51 50 49 49 50 49 47 46 44 43 42 41 40 40 40 40 40 42 43 45 47 49 50 52 53 53 54 54 55 55 55 55 55 55 55 54 54 54 53 52 50 49 49 48 48 48 48 48 48 48 48 49 49 49
64 61 59 58 56 55 54 54 53 52 51 50 50 51 50 49 47 46 44 42 41 40 40 39 39 39 40 41 43 45 47 49 50 52 53 54 55 56 56 56 57 57 57 56 56 56 55 55 55 53 53 52 52 52 51 51 51 51 51 51 52 52 52
65 63 61 59 58 57 56 55 55 54 52 51 51 51 51 50 49 48 46 44 42 41 40 40 40 40 40 41 41 43 45 47 49 50 52 53 54 55 56 57 57 57 57 58 57 57 57 57 57 56 56 56 55 54 54 54 54 53 53 54 54 55 55

ECMWFFLT1_250_spd_057.txt.gz
Wind_Speed
24 22 21 21 20 19 17 16 15 13 13 13 13 13 13 12 11 12 14 15 16 16 17 19 18 18 20 23 25 25 26 26 26 25 24 23 22 20 18 17 16 15 13 13 12 10 9 8 7 6 5 4 4 3 3 3 3 3 4 6 8 9 9
27 26 25 25 24 22 19 18 17 15 15 15 15 15 14 14 13 13 14 15 16 18 18 18 19 18 18 21 24 25 25 25 25 25 25 24 23 21 20 19 18 16 16 15 13 12 11 10 8 7 7 6 5 5 4 4 4 4 4 6 7 9 9
31 29 28 27 27 25 22 21 20 17 16 16 16 16 15 15 15 14 14 15 16 19 19 19 20 20 20 20 22 24 25 25 25 25 25 24 23 22 21 20 19 18 17 16 14 13 13 11 10 9 8 8 7 6 6 6 6 5 5 6 7 8 9
33 32 31 29 28 26 23 23 22 19 18 18 17 17 16 17 17 16 17 16 17 19 21 21 20 20 22 22 22 23 24 25 25 25 24 24 24 24 23 21 21 20 19 17 17 16 15 14 12 11 10 9 9 8 8 7 7 7 6 6 7 8 9
36 35 33 31 29 28 26 25 24 22 21 20 19 18 18 18 19 19 19 19 19 20 21 21 20 21 23 24 23 23 24 24 24 24 25 25 25 25 24 23 22 21 20 20 19 18 17 16 14 13 12 11 10 9 9 9 8 8 7 6 7 7 8
39 37 35 33 31 30 29 28 25 24 22 21 20 19 19 20 20 21 21 21 21 21 22 23 23 24 25 26 25 25 24 24 24 25 26 26 26 25 24 24 24 23 23 22 21 20 19 18 16 15 13 12 11 11 10 10 9 9 8 7 7 8 9
40 38 36 35 33 31 30 29 27 25 24 23 22 21 21 21 22 22 23 24 24 23 23 25 26 26 26 27 27 27 27 27 25 25 26 27 27 26 25 26 25 25 25 24 23 21 21 19 18 17 15 13 13 12 12 11 10 10 9 8 8 9 10
40 39 37 36 34 33 31 30 28 27 25 24 24 24 24 23 23 24 25 26 26 26 25 26 28 29 28 28 29 29 29 29 27 26 26 27 27 27 27 27 27 27 26 25 24 23 22 21 20 18 17 15 14 14 13 13 12 11 10 9 10 11 12
41 39 38 37 36 34 32 31 29 27 26 26 26 26 25 24 24 25 26 27 28 28 28 27 28 29 30 29 29 30 30 30 30 29 28 28 28 27 28 27 27 28 27 27 26 25 24 23 21 20 18 17 16 16 16 15 14 12 11 11 11 12 14
42 40 39 38 37 35 33 31 30 28 28 29 28 28 27 26 26 26 26 28 29 30 30 29 28 28 30 31 30 30 31 32 32 31 30 29 28 28 28 28 28 28 28 27 27 26 25 25 23 21 20 19 18 18 18 17 15 14 13 12 12 13 14
43 41 40 39 38 36 34 32 31 30 31 31 30 29 29 28 28 27 28 29 31 31 31 31 29 29 30 32 31 30 31 33 34 33 32 31 30 29 29 29 29 29 28 28 28 27 27 26 25 23 22 21 21 21 20 19 18 16 15 14 14 15 15
44 42 41 40 39 38 36 34 33 33 33 33 32 31 31 30 29 29 29 30 31 32 32 32 32 30 31 32 32 32 32 33 35 35 34 32 31 30 30 30 30 29 29 29 29 28 28 28 26 24 23 23 23 23 22 21 20 18 17 16 16 16 16
46 44 42 41 40 38 37 36 36 36 36 35 33 33 32 31 30 30 31 31 32 33 33 34 34 33 32 32 33 34 34 35 36 36 35 33 32 32 32 31 31 30 30 30 29 29 29 28 27 26 25 26 26 25 24 23 22 21 20 19 18 18 17
45 43 42 42 41 40 39 38 38 37 37 36 35 34 33 32 31 31 32 32 32 33 35 35 35 35 34 33 34 35 36 36 36 36 35 34 33 33 33 33 32 31 30 31 31 30 29 28 28 27 28 28 28 27 26 25 24 23 22 21 21 20 19
45 44 44 43 42 41 40 40 39 38 38 37 35 34 34 33 32 33 33 33 34 35 36 36 36 36 35 34 35 36 37 36 35 35 35 34 34 34 35 35 35 33 32 32 32 31 30 29 29 29 30 30 29 29 28 27 26 25 25 24 24 23 21
46 46 45 44 43 42 42 41 40 40 39 38 36 36 35 34 34 34 35 35 36 36 37 38 38 38 37 37 37 36 36 35 35 34 34 35 36 36 37 37 37 36 35 34 32 31 30 30 30 31 31 31 31 31 30 29 28 28 27 26 26 25 24
48 47 46 45 43 43 42 42 42 41 40 39 38 38 37 36 36 36 36 37 38 38 38 39 40 40 40 39 38 36 35 35 35 34 34 35 36 38 38 38 38 38 37 35 34 33 32 31 32 32 31 32 32 32 31 31 30 30 29 29 28 28 26
50 49 48 47 45 44 44 44 43 42 41 40 39 39 38 38 37 37 38 39 40 40 40 41 41 42 41 39 37 36 35 35 35 35 35 35 36 37 39 40 39 39 39 38 37 35 34 34 33 32 32 33 34 34 33 32 32 32 31 31 31 30 29
52 52 51 49 47 46 45 45 44 43 42 41 40 40 40 39 38 39 40 41 41 42 42 42 42 42 42 40 38 37 36 36 35 35 36 36 35 36 38 40 40 40 40 40 39 38 37 36 35 34 34 34 35 34 34 34 34 34 33 33 33 32 31
54 53 52 50 48 47 46 46 46 45 44 43 42 42 41 40 39 40 40 40 40 42 43 43 42 42 42 41 40 39 38 37 36 36 36 36 36 36 37 39 40 41 41 40 40 40 40 39 37 36 36 36 36 35 35 36 36 36 35 35 35 34 34
55 54 52 51 49 48 47 46 46 45 44 43 43 41 41 40 39 38 39 39 39 41 42 43 42 42 42 42 41 40 40 39 38 37 36 36 36 37 38 39 39 40 39 39 40 41 41 40 40 39 39 38 37 37 37 37 37 37 37 37 37 37 36
56 54 53 51 49 48 47 47 46 46 44 43 42 42 41 40 39 39 39 39 39 41 42 42 42 42 42 42 42 42 41 41 40 39 38 37 36 37 38 38 38 38 38 39 39 40 41 42 42 42 41 41 40 39 39 38 38 39 39 39 39 39 39
57 55 54 52 50 48 47 47 47 46 45 44 43 42 42 40 40 40 40 40 40 41 41 42 42 42 42 43 44 43 43 43 42 41 40 39 38 38 37 37 36 36 37 38 39 40 41 42 43 43 43 44 43 43 42 41 40 40 40 40 41 41 40
58 56 55 52 51 49 48 47 47 46 46 45 45 43 42 41 41 41 40 40 41 41 41 42 42 42 43 44 44 45 45 45 44 43 41 40 39 38 37 37 36 35 36 37 39 40 41 41 42 43 45 46 46 46 45 44 43 42 42 42 43 43 42
58 57 55 54 52 50 49 48 47 47 47 47 46 44 43 43 42 41 40 41 41 41 42 43 43 43 43 44 45 46 46 46 45 44 43 42 41 39 38 37 36 35 35 36 37 39 40 41 42 44 45 46 48 48 47 46 46 45 45 44 45 44 43
60 58 56 54 52 50 49 48 47 47 48 48 46 44 43 43 42 41 41 41 42 42 42 43 43 43 44 44 45 46 46 47 47 46 45 44 42 40 39 38 37 37 37 37 37 38 40 42 43 44 45 46 47 48 48 48 47 47 47 46 47 47 46
60 59 56 54 52 51 49 48 47 48 49 48 45 44 43 42 41 40 41 42 42 43 43 43 43 43 44 44 45 46 47 48 49 49 48 46 44 42 41 40 39 39 39 39 39 39 40 42 43 43 44 45 46 47 47 47 47 48 48 48 48 48 48
62 60 57 55 53 51 49 48 48 49 48 47 45 44 43 42 41 41 41 42 43 44 44 43 43 43 45 45 46 47 48 49 49 50 49 48 46 44 43 41 41 40 40 40 40 41 41 41 42 42 43 43 44 45 46 46 46 47 49 49 49 50 50
63 61 59 56 53 51 50 49 49 49 48 47 46 45 43 42 42 42 42 43 43 43 42 42 42 42 43 44 45 45 47 48 49 49 50 49 48 46 44 43 43 43 42 42 42 41 42 42 42 42 43 43 44 44 44 45 45 46 47 49 50 51 51
64 63 60 57 54 52 51 50 50 50 49 48 47 45 43 43 43 43 43 42 41 41 41 42 42 41 41 42 43 44 45 47 48 49 50 50 49 47 46 45 45 46 46 45 44 44 43 43 43 43 43 44 44 45 45 44 45 45 46 47 48 49 50
64 63 61 57 55 53 52 51 50 50 50 49 48 46 44 44 44 43 42 41 41 41 41 41 42 42 41 41 42 43 44 45 46 47 49 49 50 50 49 48 48 49 49 48 48 47 46 45 44 44 43 43 43 44 43 44 44 45 45 46 46 47 48
64 64 61 58 55 54 53 52 51 51 51 50 48 46 46 45 44 43 42 42 42 41 41 42 43 43 43 43 43 44 45 45 46 47 47 49 51 51 52 52 52 52 52 51 51 50 49 48 46 45 44 43 42 42 42 43 44 45 45 45 46 46 47
64 64 62 59 57 55 54 53 51 51 52 51 49 47 47 45 44 43 43 43 42 42 42 43 43 43 43 44 44 45 46 47 47 47 48 49 51 52 54 55 55 55 55 54 53 52 51 49 48 47 46 44 43 42 42 43 44 44 44 44 44 45 45
64 64 63 60 58 57 55 53 52 51 51 50 49 48 47 46 44 44 44 43 43 43 43 43 43 43 44 43 43 44 46 47 48 49 50 50 52 53 55 56 57 57 56 55 54 53 52 50 49 48 47 45 44 43 43 43 43 43 42 42 42 43 43
65 64 63 61 60 58 57 55 53 52 51 50 49 49 47 46 45 44 44 43 43 43 43 43 43 43 43 43 43 43 44 45 47 49 50 51 53 54 55 56 57 57 56 56 55 54 53 52 51 50 49 47 47 46 45 45 44 43 42 41 42 42 43
66 64 63 62 61 59 58 56 54 53 52 51 50 49 48 47 46 45 44 44 43 43 43 43 43 42 42 41 42 42 42 43 46 47 49 50 52 53 54 55 56 57 57 57 56 56 55 54 52 51 50 50 49 49 48 48 47 45 44 44 45 45 45
67 66 64 63 62 61 59 57 56 55 54 52 52 51 50 48 47 45 44 44 43 43 44 43 43 42 41 41 41 41 41 42 45 47 48 50 52 53 54 55 55 56 56 56 57 57 56 55 54 53 52 51 51 51 50 49 49 48 48 48 48 48 49
68 67 66 65 64 62 60 59 58 57 55 54 53 52 51 49 47 46 45 44 44 44 44 44 44 43 42 42 41 41 41 42 43 45 46 49 51 52 53 54 54 55 55 55 56 56 56 55 55 54 53 53 53 53 52 51 51 51 51 51 51 52 52

ECMWFFLT1_250_spd_060.txt.gz
Wind_Speed
24 23 22 22 21 19 19 18 17 16 15 14 13 12 11 11 12 13 14 14 15 16 17 19 21 23 25 26 26 26 27 27 25 23 22 21 19 18 17 15 14 12 11 9 9 8 7 5 4 4 3 3 3 3 3 3 2 1 1 3 4 5 7
28 27 26 26 25 23 22 21 20 19 18 17 15 14 13 12 12 13 14 14 15 16 17 17 18 19 21 24 26 27 27 27 26 25 24 22 20 18 18 17 16 14 13 12 11 10 9 8 6 6 5 5 5 4 5 4 4 3 3 3 4 5 7
31 30 30 29 28 26 24 23 22 20 20 19 17 15 13 12 13 13 14 14 15 16 16 17 18 18 19 22 25 27 27 26 26 26 25 23 21 20 19 19 18 17 16 14 13 12 11 10 9 8 7 7 6 6 6 6 5 5 5 4 5 6 6
34 34 33 32 30 27 25 24 23 21 21 20 18 17 16 14 14 15 15 16 16 17 17 17 17 18 20 21 23 25 27 27 27 26 26 25 24 23 22 21 20 19 18 16 15 15 14 13 12 11 10 8 8 7 7 7 7 7 6 6 6 7 7
38 37 36 34 32 29 28 27 25 23 22 20 19 19 18 17 17 17 17 18 18 18 18 17 16 18 20 22 23 24 26 27 27 27 26 26 26 26 25 24 22 21 20 19 18 17 16 15 14 13 12 10 9 9 8 8 8 8 8 8 8 8 8
42 41 39 37 34 32 31 29 27 25 23 22 21 20 19 18 18 18 18 19 19 19 19 19 19 20 21 23 24 24 25 26 27 27 27 28 28 27 26 25 24 23 22 22 21 19 18 17 16 15 14 13 11 10 10 10 10 9 9 9 9 9 9
44 43 41 39 37 35 33 32 29 27 25 23 22 21 21 20 19 19 19 20 20 20 21 21 21 22 22 23 24 25 26 26 27 27 28 29 29 29 28 26 26 25 24 23 23 22 20 19 18 17 16 15 13 12 12 12 12 11 11 11 11 11 10
46 45 42 41 39 38 36 33 31 29 26 24 24 23 23 22 20 20 20 20 21 22 22 23 23 23 23 23 24 25 27 27 27 27 28 29 30 29 29 28 27 26 26 25 24 23 22 21 20 19 18 17 16 14 14 14 14 14 13 13 13 12 12
48 47 45 43 41 40 37 35 32 30 27 26 26 25 24 23 22 21 20 20 21 22 23 24 24 24 24 24 24 24 25 27 28 28 29 29 30 30 29 29 28 27 27 26 25 24 23 23 22 21 20 19 18 16 16 16 16 15 15 15 15 14 14
50 48 47 45 43 41 38 35 32 29 28 29 28 27 26 25 24 22 21 21 22 22 23 24 24 24 25 25 24 24 25 27 29 29 29 30 30 30 29 29 28 28 27 26 26 25 24 24 23 22 21 20 19 19 19 18 18 17 17 17 16 16 16
51 49 48 45 43 41 38 35 33 31 32 32 31 29 28 27 26 24 23 22 22 21 22 24 25 26 26 26 25 25 26 27 29 30 30 30 31 30 30 29 29 28 28 27 27 26 25 25 24 24 23 22 21 21 21 20 19 19 19 19 18 18 18
51 50 48 46 43 41 38 36 35 34 34 33 32 31 30 29 27 25 24 23 22 21 22 24 25 26 27 27 27 27 28 28 30 31 31 30 30 31 31 31 30 29 28 28 27 27 26 26 25 25 24 23 23 23 23 22 21 20 21 21 20 20 20
52 51 48 46 43 41 39 38 37 36 36 35 34 33 32 30 28 26 25 24 22 22 22 24 25 26 28 28 29 29 29 30 31 32 31 29 29 30 32 33 32 31 30 29 29 28 28 27 26 25 25 25 25 25 25 24 22 22 22 22 23 22 22
52 49 47 44 42 41 41 40 39 38 38 37 35 34 33 31 29 27 26 25 23 23 24 24 25 27 28 29 30 31 31 31 32 33 32 30 29 29 32 34 34 33 32 31 31 30 29 28 27 26 26 26 27 27 26 25 24 23 23 24 25 25 24
52 50 47 45 43 42 42 41 40 39 39 38 36 35 34 32 31 29 27 26 25 25 26 26 27 28 28 29 31 32 33 32 32 32 33 32 31 30 31 33 34 34 34 34 33 32 31 30 28 27 27 27 28 28 28 27 25 25 25 26 26 26 26
54 51 49 47 45 44 43 42 41 41 40 39 38 37 36 34 33 31 30 28 27 27 27 27 28 29 29 31 32 33 33 33 32 32 32 33 33 33 33 33 34 35 36 36 35 34 33 32 30 29 28 28 29 29 29 28 26 26 27 27 27 28 28
55 52 50 48 47 45 44 42 42 42 42 41 41 40 38 37 35 33 31 29 29 28 28 29 29 30 31 32 32 32 33 34 34 33 33 33 34 35 35 34 34 35 37 37 37 37 36 35 33 31 30 29 30 30 30 28 27 27 28 28 29 29 30
56 54 51 49 47 45 44 44 44 45 44 43 42 41 39 37 36 34 32 31 31 31 30 31 31 31 32 33 32 33 33 34 35 35 34 34 35 35 36 36 35 36 37 38 39 38 38 37 35 34 32 31 31 32 31 29 28 29 29 30 30 30 31
58 55 53 50 49 48 47 48 47 47 46 44 42 40 39 38 37 36 35 34 34 32 31 31 31 31 32 33 33 34 34 35 36 36 36 36 35 35 36 36 37 38 38 39 39 39 39 38 37 36 34 33 33 33 31 30 29 30 30 31 31 32 32
60 57 55 53 52 52 52 51 50 49 47 45 43 42 41 40 39 37 36 35 33 33 32 32 31 32 32 33 34 35 35 35 36 37 37 37 36 35 36 37 38 38 38 39 39 40 40 40 38 37 36 36 35 34 33 32 31 31 32 32 32 33 34
62 59 58 58 57 56 54 53 52 51 49 47 46 44 42 41 39 38 36 34 34 34 34 33 32 32 33 34 35 36 36 37 37 38 39 39 38 37 37 38 39 39 39 39 39 40 41 40 39 38 37 37 37 36 36 35 34 33 33 33 33 34 35
64 63 63 62 60 58 57 56 56 54 51 49 47 45 43 42 41 38 36 36 36 35 35 34 33 33 34 34 36 37 38 39 39 40 40 41 40 39 38 39 39 39 39 39 39 39 40 39 39 38 38 37 37 37 38 37 36 36 36 35 35 36 37
67 66 65 63 62 61 60 59 57 54 51 49 48 46 44 43 42 39 37 37 37 36 36 35 34 35 36 36 37 38 40 40 41 41 42 42 42 42 41 41 40 39 38 38 38 38 37 37 38 39 39 39 39 40 40 40 39 39 39 38 38 39 39
69 68 65 64 64 63 62 59 56 53 51 51 50 47 44 43 42 38 38 39 39 37 37 36 36 37 37 38 39 40 41 41 42 42 43 43 45 45 44 43 41 39 38 38 38 37 36 36 37 39 40 41 41 42 42 42 41 41 41 42 41 41 42
70 68 66 66 65 63 60 58 56 54 53 52 50 46 45 45 42 39 40 42 40 37 38 38 37 38 39 39 40 41 41 42 42 43 43 45 46 47 46 45 43 41 40 39 38 37 37 37 37 39 41 42 43 44 44 43 43 43 43 43 44 44 44
70 69 68 67 64 62 60 58 56 55 53 52 49 47 47 47 43 41 42 43 41 39 40 40 40 40 40 40 40 41 42 42 43 44 45 46 46 47 47 47 45 44 42 41 40 39 38 38 38 38 39 41 42 43 44 43 43 43 44 44 45 46 46
72 70 69 67 64 63 61 59 58 57 55 53 51 50 49 47 43 43 45 44 42 42 43 42 41 41 40 40 41 42 43 44 45 45 46 46 46 47 48 48 48 47 45 44 42 41 40 39 39 39 39 39 40 41 42 42 43 43 44 45 46 47 47
73 71 68 66 65 63 62 61 59 58 56 54 52 51 48 45 44 46 46 44 44 44 44 43 42 41 41 42 43 44 45 45 45 45 45 45 46 46 48 49 49 49 48 46 44 42 41 41 41 41 40 40 39 39 39 40 41 43 44 46 46 47 47
74 71 68 67 65 63 62 61 60 59 57 56 54 51 48 46 46 47 46 45 45 44 43 43 42 42 43 43 44 44 44 44 44 44 45 45 46 47 47 48 50 50 50 48 46 45 44 43 43 43 42 41 41 40 39 38 38 39 42 45 46 47 48
74 71 69 68 66 65 64 62 61 60 58 56 54 51 49 49 49 48 48 47 46 44 44 44 43 43 43 43 43 43 43 42 42 43 44 45 46 46 47 48 49 51 51 50 49 48 47 46 46 45 45 44 43 42 41 39 38 38 40 42 44 46 47
74 72 71 69 68 67 65 63 62 61 59 57 55 53 52 51 51 51 50 48 46 45 45 44 43 43 42 42 42 42 42 42 41 41 42 43 44 46 47 48 49 50 52 52 52 51 50 49 48 48 47 46 45 44 42 41 40 39 40 41 43 44 46
75 73 72 70 69 68 67 65 63 62 60 58 57 55 54 54 53 52 51 48 47 46 45 44 43 42 41 41 42 43 42 42 42 42 42 42 43 44 46 47 48 50 51 52 53 53 52 52 51 50 49 48 46 45 44 42 41 41 41 41 42 43 43
76 74 72 71 70 69 68 67 65 63 62 60 59 58 57 56 56 54 52 50 49 47 45 44 43 41 41 42 44 44 44 44 43 43 43 43 43 44 44 46 47 49 51 53 54 55 55 54 53 52 50 49 48 46 45 44 43 43 42 42 42 41 42
77 76 74 72 71 70 68 67 66 64 63 61 60 60 60 59 58 56 54 52 50 48 46 45 43 43 43 44 45 45 45 45 44 44 43 44 44 44 45 46 47 49 52 53 54 55 55 55 54 53 52 50 49 48 47 46 45 45 44 43 43 42 42
78 77 75 73 72 71 69 68 66 64 63 62 61 62 62 62 60 58 56 54 51 49 47 46 45 45 45 45 45 45 44 45 44 44 44 43 44 45 46 48 49 51 52 54 54 55 56 56 55 55 53 52 51 50 49 48 48 47 46 45 44 44 43
80 78 76 75 74 72 70 69 67 65 63 62 62 63 64 63 61 59 57 55 52 50 49 48 47 47 46 46 45 45 44 44 44 44 44 44 44 45 46 48 50 52 53 54 55 55 56 56 56 56 55 54 54 53 52 51 50 49 47 46 46 45 45
83 81 78 76 75 73 71 70 68 65 64 63 63 65 65 64 63 61 58 56 54 52 51 50 48 48 48 47 46 45 44 43 44 44 45 45 44 45 46 48 49 51 53 54 54 55 55 55 56 56 56 56 56 55 54 53 52 51 50 48 48 48 47
84 82 80 77 76 74 72 70 69 66 65 64 65 67 67 65 64 62 59 57 55 54 53 51 50 49 49 48 46 45 44 43 44 45 45 45 45 45 45 46 48 50 51 52 52 52 53 54 54 55 56 56 56 56 56 55 54 53 53 52 51 51 51

ECMWFFLT1_250_spd_063.txt.gz
Wind_Speed
28 27 27 26 25 23 20 19 20 21 21 20 17 16 17 18 18 18 17 17 17 17 19 22 24 24 23 23 23 23 23 22 21 19 18 17 15 14 12 11 10 9 7 6 5 4 4 4 3 3 2 2 2 3 3 3 4 5 5 4 5 7 8
29 30 30 29 28 26 23 22 24 24 23 21 19 17 16 17 18 18 18 18 19 19 18 19 21 22 21 22 23 24 24 24 22 21 19 18 17 15 14 13 12 11 10 8 7 7 6 6 6 5 5 4 4 4 4 4 5 6 6 6 6 7 8
33 33 33 31 31 29 26 26 28 26 23 22 20 18 16 16 18 18 18 18 19 20 20 20 20 20 20 22 23 25 25 25 24 23 21 20 18 17 17 16 15 14 12 11 10 9 8 8 8 8 7 6 5 5 5 6 7 7 8 8 8 8 8
38 37 35 34 33 31 28 29 30 26 24 23 21 19 18 17 18 19 20 20 20 21 21 21 20 20 20 21 23 25 26 26 26 25 23 22 20 20 19 19 17 16 14 13 13 12 11 10 10 10 9 8 7 6 7 7 8 9 10 9 9 9 9
42 40 38 37 35 32 30 31 30 27 25 24 22 21 20 19 18 19 21 22 23 22 21 21 20 20 20 21 22 25 26 27 26 26 25 24 24 23 22 21 19 18 16 15 16 15 14 13 13 12 11 10 9 8 8 8 9 11 11 11 11 10 10
45 43 41 39 36 34 34 35 34 31 27 25 23 22 20 20 19 19 20 22 24 24 23 21 21 22 23 23 23 24 25 26 26 26 26 26 26 25 24 23 22 20 19 18 18 18 17 16 15 15 14 12 11 11 10 10 11 12 12 12 12 12 12
48 46 43 41 38 37 38 38 37 34 29 26 25 23 22 21 21 20 20 21 23 25 25 24 24 24 24 24 25 25 26 27 26 26 27 27 27 27 26 26 25 24 22 21 21 20 19 18 17 17 16 15 14 13 12 12 12 13 14 14 13 13 13
51 48 45 42 38 37 38 38 37 35 32 29 27 27 25 24 22 22 21 20 21 24 25 26 26 25 25 25 26 26 27 27 27 27 27 28 28 28 28 28 27 26 25 24 23 22 21 20 20 19 18 17 16 15 14 14 14 14 14 15 15 15 15
53 51 48 45 41 39 39 40 39 37 34 31 30 30 28 25 24 22 21 20 21 22 24 25 26 26 25 25 25 26 27 27 27 27 28 29 29 29 29 29 28 28 27 26 25 24 23 22 21 21 20 19 18 16 16 16 16 16 16 16 16 16 16
56 53 50 48 45 43 42 42 41 38 35 34 33 32 30 28 26 24 22 22 22 21 22 23 24 25 25 26 25 25 26 27 28 27 28 29 30 30 30 30 30 29 29 28 27 26 25 24 23 23 22 20 19 18 18 18 18 18 17 17 17 18 18
58 55 53 51 48 46 44 43 41 39 38 37 36 34 33 31 29 26 25 24 23 21 21 22 23 24 25 26 25 25 25 27 28 29 29 29 29 30 30 30 30 30 30 29 28 27 26 25 25 24 23 22 21 21 20 20 20 19 19 19 19 19 19
59 56 54 52 48 45 44 43 40 39 40 39 38 36 35 33 31 29 27 25 23 22 21 22 23 23 24 24 25 26 26 27 28 29 30 28 28 29 29 30 30 30 30 29 29 28 27 26 26 25 24 23 23 23 22 22 21 21 20 20 20 20 20
60 57 56 53 49 45 44 44 42 40 42 41 39 37 36 35 33 31 29 26 24 23 22 22 22 22 23 24 25 26 28 29 29 30 30 29 28 28 29 30 30 29 29 29 29 29 28 28 27 26 25 24 24 24 24 24 23 22 22 22 22 22 22
61 61 60 57 53 48 46 48 47 43 43 43 40 38 37 35 34 32 30 27 25 24 24 23 23 23 23 24 25 27 28 30 30 30 30 30 29 28 29 31 31 31 30 30 29 29 29 29 28 27 26 26 26 26 26 25 24 23 23 23 24 24 23
63 62 61 58 56 54 50 50 49 45 44 43 41 39 38 36 35 33 32 30 28 27 26 26 25 24 24 24 26 27 27 28 29 30 31 32 31 30 30 30 31 31 31 31 31 31 30 30 29 28 28 27 28 28 27 27 26 25 25 25 25 26 25
66 65 64 60 57 57 55 53 50 47 46 44 42 40 39 38 37 35 35 33 31 30 29 28 27 26 26 26 27 27 26 27 28 29 31 32 33 33 32 32 31 31 32 32 32 32 32 32 31 31 30 29 29 29 29 29 28 27 27 27 27 27 26
67 65 63 59 57 55 54 53 51 48 47 45 43 43 42 41 39 38 37 35 34 32 31 31 30 28 27 27 27 26 26 27 28 29 30 32 33 34 34 33 33 32 33 34 33 33 33 33 33 33 32 31 31 31 31 31 30 29 29 29 29 28 27
69 66 62 59 59 58 56 54 52 50 48 46 46 46 45 44 43 42 40 38 37 35 34 34 32 31 29 28 27 27 27 27 28 29 30 32 33 34 35 35 34 34 35 35 35 35 34 34 34 34 33 33 33 33 33 32 31 31 30 30 30 29 29
66 65 65 63 60 58 57 56 55 53 51 50 49 48 47 47 46 45 44 42 40 37 36 35 33 32 30 29 29 29 28 28 29 30 30 32 33 34 35 36 36 36 36 36 36 37 36 36 36 35 35 35 35 35 35 33 32 32 32 32 31 31 30
65 60 61 60 58 59 59 57 56 55 54 54 53 51 51 51 50 48 46 43 39 37 35 35 34 32 32 31 31 31 29 29 30 31 32 32 33 34 35 37 38 39 38 37 37 38 39 39 38 37 36 36 37 37 36 35 34 34 34 34 33 32 32
69 62 57 56 58 60 61 60 57 57 57 57 55 54 54 54 53 50 47 43 39 37 36 36 35 34 34 34 33 32 31 30 31 32 33 33 34 34 35 37 39 40 40 39 39 39 38 39 39 40 39 38 38 38 37 36 36 36 35 35 35 35 35
72 68 64 62 62 62 62 61 59 59 59 59 58 57 57 57 55 52 48 44 41 39 38 38 37 36 35 35 35 34 32 32 32 33 34 34 35 35 36 38 40 41 41 41 41 41 39 38 38 38 38 38 39 39 38 38 38 38 37 38 38 38 38
75 72 69 67 67 65 62 61 60 59 60 61 61 60 60 60 57 53 48 44 42 41 40 39 38 38 38 37 37 36 34 34 34 35 36 36 36 37 37 39 40 41 42 42 42 42 42 41 39 38 36 36 37 38 39 39 39 39 39 39 41 41 41
79 76 71 67 67 67 65 62 61 60 62 63 63 63 62 61 57 53 48 45 43 43 42 41 41 41 40 39 39 37 36 36 36 37 37 37 38 39 39 40 41 42 42 43 43 43 43 42 41 40 38 36 35 37 39 40 40 41 41 42 43 43 43
81 78 74 70 68 67 65 64 63 63 65 66 65 64 62 60 56 52 48 47 46 46 44 43 43 43 43 42 40 39 38 37 38 38 38 39 40 40 41 41 42 42 42 43 43 44 44 43 41 40 40 38 36 37 39 39 41 42 43 44 45 45 45
82 79 76 73 70 68 66 65 66 66 68 68 67 64 62 58 55 52 50 49 48 47 46 45 45 46 45 42 41 41 39 38 39 40 39 40 41 42 42 42 42 42 42 43 44 45 45 44 43 42 40 39 38 39 39 40 41 44 45 45 46 47 47
82 79 77 74 71 68 68 67 68 69 70 69 67 64 61 57 54 53 52 51 50 48 48 48 48 47 45 43 43 43 41 40 41 41 41 41 42 42 43 43 42 42 43 43 44 45 46 46 45 44 42 41 40 41 41 41 41 43 44 45 46 47 48
82 80 78 76 72 70 69 69 70 72 72 69 67 64 60 57 55 54 54 53 51 51 50 50 49 48 45 45 46 45 42 42 43 43 42 42 43 43 43 43 43 42 43 43 44 45 46 47 47 46 45 44 44 44 44 43 42 42 42 42 42 44 45
83 81 79 77 74 72 71 71 73 73 72 69 67 64 60 58 57 57 57 55 53 52 51 51 51 48 46 47 48 46 43 44 45 44 43 42 43 43 43 43 43 42 43 43 44 45 46 47 47 48 48 47 47 46 46 45 44 44 44 42 42 42 42
83 82 80 77 75 73 73 74 75 74 72 69 66 64 61 60 60 60 59 57 54 51 52 53 52 49 47 48 48 46 45 45 46 44 43 42 42 42 43 43 43 43 44 44 44 45 46 46 47 48 49 50 49 49 48 47 46 46 46 45 44 43 42
84 82 80 78 76 75 75 76 75 73 71 68 66 65 63 62 62 62 60 57 54 53 54 55 52 50 49 50 49 47 46 46 45 44 42 42 42 42 43 43 43 43 43 43 44 45 45 46 47 48 50 51 51 51 50 49 48 47 47 46 46 45 45
86 84 81 78 77 77 76 76 74 72 69 68 68 67 66 64 63 63 61 57 56 56 56 55 52 51 51 50 49 48 47 46 45 44 43 43 42 42 43 43 43 43 43 43 43 44 45 46 47 48 49 51 52 53 52 52 50 49 49 48 48 47 47
87 84 82 80 79 78 77 76 74 72 70 70 70 69 67 66 65 64 61 59 58 58 57 56 54 54 52 51 50 48 47 46 45 44 44 43 43 44 44 45 45 44 44 44 44 44 44 45 46 48 49 50 52 53 53 53 53 52 51 51 50 49 48
87 84 82 81 80 79 77 75 73 73 72 71 70 70 69 68 66 65 63 61 60 59 58 58 56 55 53 52 51 49 47 46 45 45 45 46 46 46 46 46 46 45 45 45 44 44 44 45 46 47 49 50 51 52 53 54 54 54 53 53 52 50 49
86 85 83 81 80 78 77 75 74 73 73 72 72 71 70 69 67 65 64 63 61 61 60 59 57 56 55 54 52 49 48 47 48 48 49 49 48 47 46 46 46 46 46 45 45 45 46 46 46 47 49 50 50 51 52 53 54 54 54 54 53 52 50
86 85 84 82 81 79 77 76 75 74 74 74 73 72 71 69 68 67 66 65 63 63 62 60 58 57 56 55 52 50 50 50 51 51 51 50 48 47 47 47 47 46 46 45 45 46 47 47 47 49 50 50 50 50 51 52 53 54 54 54 53 52 52
88 86 84 83 81 80 78 77 76 75 75 75 74 73 71 70 69 68 67 66 65 64 63 61 59 59 57 55 54 53 53 53 54 53 52 50 49 48 48 48 47 47 46 46 46 46 47 47 48 49 50 50 50 51 52 53 53 54 54 54 54 54 53
87 88 86 83 81 80 79 78 77 77 76 75 74 73 72 71 70 69 68 67 66 65 64 62 61 60 58 57 56 56 56 56 55 54 53 52 50 49 49 49 48 47 47 47 47 47 47 47 48 49 50 49 50 51 53 54 54 55 55 55 55 55 55

ECMWFFLT1_250_spd_066.txt.gz
Wind_Speed
35 33 31 30 30 29 27 23 22 20 18 15 13 12 12 13 14 14 15 17 17 18 20 22 23 24 24 23 23 23 23 22 21 20 19 17 15 14 12 11 10 9 7 6 5 4 3 2 1 2 2 3 4 4 4 4 5 5 6 7 7 8 9
36 35 34 33 32 31 27 24 24 22 19 17 16 14 12 12 14 15 15 16 17 18 19 20 21 22 23 23 24 24 24 23 22 21 20 18 16 14 13 12 11 9 8 7 6 5 4 4 3 3 4 4 5 6 6 6 6 6 7 7 8 8 9
39 38 35 34 33 32 28 26 26 24 20 18 16 15 12 11 13 15 15 15 16 17 18 19 20 21 21 23 24 25 25 24 24 22 21 19 17 16 15 13 12 11 10 9 8 8 7 6 5 5 5 6 6 6 7 8 8 8 8 8 8 9 9
41 39 37 35 34 32 29 28 28 26 23 20 18 16 14 13 14 15 17 17 16 17 18 19 20 21 21 22 23 25 25 26 25 24 22 21 20 19 18 16 14 13 11 11 11 10 9 8 8 7 7 7 7 8 8 9 9 10 10 9 10 10 10
42 41 39 37 36 33 31 31 31 29 26 24 21 19 17 16 15 16 17 18 17 17 17 18 19 20 22 22 23 24 26 27 26 25 24 24 23 22 21 19 17 16 14 13 14 13 12 11 10 10 9 9 9 9 10 10 11 11 11 11 11 11 11
45 44 41 39 38 36 35 35 34 31 28 26 24 21 20 18 17 16 17 18 19 18 17 18 20 22 23 24 25 26 26 27 27 27 27 26 25 24 23 21 20 18 17 17 17 16 14 14 13 12 11 11 11 11 11 12 12 12 12 12 12 12 12
49 46 43 41 39 39 38 37 35 32 29 26 25 23 22 21 20 17 17 19 20 19 18 19 20 22 23 24 25 26 27 28 28 28 28 28 27 26 25 24 23 22 21 20 20 18 17 16 15 15 14 14 13 13 13 13 13 13 13 13 13 13 13
52 48 45 42 40 40 40 38 36 34 32 30 28 27 25 23 23 23 21 21 21 19 18 19 20 21 22 24 25 25 26 27 28 28 29 29 29 28 28 27 26 25 24 23 22 21 20 19 18 18 17 16 16 15 15 15 14 14 14 14 14 14 14
54 51 48 44 43 43 41 40 38 37 35 33 31 29 27 25 24 26 25 23 22 20 18 18 19 20 22 23 24 24 25 25 26 27 28 29 30 29 29 29 28 28 27 26 25 24 23 22 21 21 20 19 18 18 17 16 16 16 15 15 15 15 15
56 54 52 49 46 46 43 40 40 39 37 36 35 33 30 28 27 27 26 25 23 21 19 18 19 20 21 23 23 24 25 25 26 26 26 27 28 28 28 29 29 29 28 27 26 26 25 24 23 23 23 21 20 20 19 19 18 18 17 16 16 17 17
59 58 56 53 51 49 45 42 42 42 40 38 37 36 34 31 30 29 28 27 24 22 21 19 19 20 21 22 23 24 25 26 27 27 26 26 26 26 27 28 28 28 28 27 27 27 26 26 26 25 24 23 22 22 21 21 21 20 19 18 17 18 19
63 61 59 58 55 54 50 45 43 43 41 39 39 38 36 34 32 31 29 27 25 23 23 22 20 20 20 21 23 24 26 27 28 28 27 26 25 25 25 26 27 27 27 27 27 27 27 27 27 26 26 25 24 24 24 23 22 22 21 20 19 19 20
66 64 62 60 58 57 54 49 45 44 43 41 40 39 38 36 34 32 30 29 26 24 24 25 23 21 21 21 23 25 26 28 28 28 28 26 25 24 25 26 26 26 26 27 27 28 28 28 28 28 27 27 26 26 25 25 24 23 23 22 21 21 22
68 67 65 63 61 58 56 53 49 47 46 44 43 41 40 39 36 33 32 30 27 25 25 27 26 24 22 23 24 25 26 28 28 28 28 27 26 25 26 27 27 27 26 26 27 27 27 28 28 28 28 28 28 27 27 27 26 25 24 24 23 23 24
70 71 69 66 63 60 60 58 54 51 49 47 45 42 40 39 38 35 34 33 30 28 28 30 30 27 26 26 26 26 25 26 28 28 29 29 28 27 27 28 29 29 28 27 27 27 27 28 28 28 28 28 28 28 28 28 28 27 26 25 25 26 26
74 73 69 67 65 64 63 61 56 53 51 47 43 40 38 39 39 38 36 34 32 30 31 32 32 31 29 29 28 27 26 26 27 28 29 30 30 29 29 29 30 30 30 30 29 28 28 29 29 29 29 29 29 29 30 30 29 29 28 28 28 28 28
75 74 70 68 67 65 62 59 56 53 50 47 43 39 37 38 39 38 36 35 34 32 32 34 35 35 33 32 30 29 28 28 28 28 28 29 30 31 31 30 30 31 32 32 31 30 30 30 31 31 31 30 31 31 32 32 32 31 30 30 30 30 30
77 76 73 71 69 66 62 59 57 52 48 46 43 40 39 39 38 38 37 37 37 35 35 37 39 39 37 35 33 32 31 31 30 29 29 29 30 31 31 31 31 32 33 34 34 33 33 33 33 33 33 32 33 33 34 34 34 33 33 32 33 33 33
79 78 75 73 71 67 63 60 59 56 52 48 46 43 42 39 37 38 40 40 38 37 38 40 41 40 39 37 36 35 34 33 32 31 30 30 30 31 31 32 33 33 34 34 34 34 35 35 35 35 35 35 35 35 35 36 36 35 35 35 35 35 35
80 78 76 73 71 69 67 65 63 60 56 53 50 48 45 42 42 43 41 38 37 38 41 43 43 41 40 39 38 38 36 35 34 34 33 32 32 32 32 33 34 34 34 34 33 34 35 36 36 36 36 36 36 36 37 37 38 37 36 37 37 37 37
82 80 78 76 73 72 71 69 65 62 58 55 53 52 49 46 46 46 42 39 41 45 47 48 47 45 43 42 42 41 39 37 36 35 34 34 33 33 33 33 34 34 35 35 34 34 35 35 36 37 37 37 37 38 38 39 39 39 38 38 38 39 39
84 83 80 78 76 74 72 69 66 63 59 56 55 54 51 47 45 45 45 47 49 50 51 50 50 49 47 45 45 43 41 40 38 37 36 36 35 35 34 33 34 34 35 35 35 35 35 35 36 37 37 37 38 38 39 41 41 41 40 40 40 40 41
86 84 82 79 77 75 73 70 67 64 61 59 57 56 55 52 49 47 51 55 57 56 54 51 51 53 52 49 47 46 44 42 40 39 38 38 37 36 35 34 34 35 35 36 36 36 36 36 37 37 37 38 38 39 39 40 41 42 41 41 42 43 43
87 85 84 82 79 77 75 72 69 66 65 64 62 59 58 58 56 53 56 60 61 59 56 53 53 54 54 52 50 48 46 44 42 41 40 40 39 38 36 35 35 36 36 36 37 37 38 37 37 38 38 39 40 40 41 40 41 41 40 39 41 43 45
88 86 86 84 81 79 76 73 70 69 68 67 67 65 63 62 61 59 59 61 60 59 57 56 56 56 56 54 51 49 47 45 44 43 42 41 40 39 38 37 37 37 37 37 37 38 38 38 38 39 40 40 40 41 41 42 42 42 42 41 41 43 44
89 88 87 85 82 79 77 75 73 72 70 69 69 68 67 65 62 58 60 62 62 61 60 59 58 58 56 54 51 49 48 47 46 45 44 43 42 40 39 39 38 38 38 37 37 38 38 39 39 39 40 40 40 41 41 42 43 44 44 43 43 43 44
92 89 87 86 84 80 78 76 74 72 70 69 69 70 70 69 65 61 61 62 60 61 62 61 58 56 54 52 51 50 50 50 49 47 45 45 44 42 41 41 40 39 38 37 37 38 39 39 40 40 40 40 40 41 42 43 44 44 44 44 44 44 44
94 91 88 86 85 82 79 76 73 71 69 69 71 73 73 72 71 69 68 65 60 60 62 61 60 58 55 52 51 52 52 51 50 49 47 46 46 44 43 42 41 39 38 38 37 38 39 39 40 40 40 40 41 41 42 43 44 45 46 45 45 45 45
96 92 88 86 86 83 80 77 74 71 71 72 74 75 74 73 72 72 72 70 67 66 64 61 59 59 57 54 52 53 54 53 52 50 49 48 48 46 44 42 41 39 38 38 38 39 40 40 40 40 41 41 42 42 42 43 44 45 47 46 45 45 45
98 95 89 86 85 84 81 78 75 72 72 73 75 75 74 73 72 71 71 71 71 70 66 61 59 57 55 54 53 54 55 55 54 52 50 49 48 47 44 42 40 39 39 39 39 40 40 40 41 41 42 42 43 42 42 43 44 45 47 47 46 46 46
99 97 92 87 84 83 82 80 78 76 73 72 73 73 71 71 71 71 71 72 72 69 65 63 62 61 58 56 56 56 57 56 55 53 51 50 49 47 44 42 40 39 39 40 40 40 41 41 41 42 42 43 43 43 43 43 44 45 46 47 47 47 48
100 99 96 90 86 84 83 81 80 80 77 75 74 73 70 70 70 70 71 72 71 67 65 65 66 65 63 60 58 58 58 57 56 55 52 51 50 47 44 42 40 40 41 41 41 41 42 43 43 43 44 45 45 45 44 44 44 45 46 47 48 48 49
101 99 97 93 89 86 84 83 81 80 78 77 77 75 73 72 72 71 71 71 70 67 65 65 66 66 64 62 61 60 59 58 57 55 53 52 50 47 44 43 42 41 42 43 43 43 44 44 45 45 46 46 46 46 45 45 45 45 46 47 48 49 50
101 100 98 95 91 89 86 84 82 80 78 77 77 76 74 74 73 72 72 71 69 68 67 66 66 66 65 63 62 61 60 58 57 55 53 52 50 47 45 45 44 44 45 45 45 45 45 46 46 46 47 47 47 46 46 46 46 46 47 48 48 49 50
101 99 98 96 93 91 88 86 84 82 79 78 78 77 75 73 72 71 72 71 70 69 68 67 66 66 65 63 62 62 61 59 57 55 53 52 50 48 47 47 47 47 48 48 47 46 46 47 47 47 47 47 47 47 46 47 47 47 47 48 48 48 48
102 99 98 97 94 92 90 87 86 84 81 80 80 79 77 75 72 71 71 73 73 70 68 67 67 66 65 63 62 62 61 59 57 55 53 52 51 50 50 50 49 49 49 48 47 47 47 48 48 48 48 48 48 48 47 47 47 47 47 48 48 48 48
102 98 97 97 96 93 90 88 87 85 83 82 81 80 79 76 74 73 73 73 72 69 67 66 67 66 64 63 63 63 61 60 58 56 55 54 53 53 52 51 51 50 49 49 48 48 49 49 49 49 49 49 49 49 49 49 48 48 48 48 48 48 48
102 97 94 94 96 94 91 88 88 86 85 84 82 80 79 78 75 73 73 72 70 68 67 67 67 65 63 63 62 62 62 61 59 58 57 56 55 55 54 53 52 51 50 50 50 50 50 50 51 50 50 49 50 51 51 50 50 50 49 48 48 48 48

ECMWFFLT1_250_spd_069.txt.gz
Wind_Speed
43 43 39 37 35 34 33 30 25 24 24 22 19 16 14 12 12 13 16 19 22 23 24 24 23 22 21 21 21 22 24 25 24 23 21 19 17 15 14 13 11 10 8 7 6 5 3 2 1 1 1 2 3 4 5 6 7 7 8 9 9 9 9
43 43 40 38 37 36 35 31 27 26 25 23 20 17 14 12 11 11 13 17 21 23 24 25 24 22 21 21 22 23 24 24 24 23 21 20 18 16 15 13 12 11 9 8 7 5 4 3 2 2 2 3 4 4 5 6 7 7 8 9 9 9 9
43 43 41 39 38 38 36 32 28 27 25 23 20 18 15 14 13 12 12 15 18 21 23 25 25 24 23 23 23 24 24 24 24 23 22 20 19 18 16 15 13 12 11 9 8 7 6 5 4 4 4 5 5 6 6 6 7 8 8 9 9 9 9
45 44 43 41 40 39 36 32 30 29 28 25 23 21 19 17 16 16 16 15 16 19 21 23 25 26 26 25 24 25 25 25 24 23 22 21 20 19 18 17 15 14 12 11 10 9 8 7 7 6 6 6 7 7 8 8 8 8 9 9 10 10 9
47 46 44 43 42 40 37 34 33 32 31 28 26 23 22 21 19 18 17 16 15 16 17 20 23 26 27 27 26 26 26 26 25 24 23 22 21 20 19 17 16 15 14 13 12 11 11 10 10 9 8 8 8 9 9 9 9 9 9 10 10 10 10
49 48 46 45 43 40 38 37 36 35 34 30 27 24 23 23 21 19 18 17 16 15 16 17 19 23 27 29 30 29 29 28 28 27 26 25 23 22 20 19 18 17 16 15 14 14 13 13 12 12 11 11 11 11 11 11 11 11 11 11 11 11 11
52 50 49 46 43 41 40 39 38 37 34 31 28 26 25 25 23 21 20 19 18 17 16 15 16 19 23 27 30 31 31 31 30 29 28 27 26 24 22 21 20 19 19 18 18 17 16 16 15 15 14 14 14 14 14 14 14 13 13 13 13 13 13
54 52 50 48 45 43 42 41 40 37 34 32 30 28 27 27 25 23 22 21 20 19 16 15 14 15 18 22 26 29 31 32 31 31 30 29 29 27 26 25 23 22 22 21 20 20 19 19 18 18 17 16 16 16 16 16 16 16 16 15 15 15 15
56 53 51 49 46 45 44 42 39 37 35 33 32 29 29 29 28 26 25 23 22 21 19 15 14 14 15 19 22 25 28 30 31 31 31 31 30 30 29 27 26 25 24 23 22 22 22 22 21 20 20 19 19 19 19 19 19 19 19 18 18 18 17
59 55 53 51 48 46 45 42 39 37 36 35 34 32 31 31 29 27 26 24 22 22 20 17 15 15 16 16 18 22 25 27 29 29 30 30 31 30 30 29 28 27 26 25 25 24 24 24 24 23 22 22 21 21 21 22 22 21 21 20 20 20 20
60 57 54 53 51 48 46 44 41 40 39 38 37 34 33 32 30 27 26 23 21 22 22 19 16 15 15 16 16 19 22 24 26 26 26 27 28 29 29 29 29 28 27 27 26 26 27 27 26 26 25 24 24 24 24 24 24 24 23 23 23 23 22
62 59 56 55 54 51 48 46 44 43 42 40 38 36 35 33 30 28 26 24 23 23 22 20 18 16 15 16 17 18 20 23 24 25 24 23 23 25 26 27 27 27 27 27 27 27 28 28 28 27 27 26 26 27 27 27 27 26 26 25 25 24 25
63 59 57 57 57 54 50 48 46 45 44 42 40 38 36 35 32 29 27 26 25 24 23 22 21 19 17 17 18 18 19 21 23 24 23 21 21 22 23 24 25 25 25 25 25 26 27 28 28 28 28 28 28 28 29 29 29 28 27 27 26 26 27
63 60 58 59 60 58 54 51 48 47 45 43 40 39 38 37 34 31 29 28 27 26 25 25 23 22 21 20 19 19 20 20 22 23 23 22 21 21 22 23 24 24 23 23 24 25 25 26 27 28 28 29 29 29 30 31 30 29 29 28 27 28 29
65 62 61 61 61 58 53 51 50 48 46 44 41 41 40 39 37 34 31 30 29 28 28 26 25 24 24 22 20 19 20 20 21 23 24 23 22 22 22 23 23 24 24 24 24 24 24 25 26 27 28 29 29 30 31 31 31 31 30 29 29 29 30
67 66 64 62 61 58 55 54 52 50 47 44 42 41 40 39 37 35 33 32 31 30 28 28 27 26 25 24 24 23 22 22 22 23 24 25 24 23 22 22 23 24 25 25 25 25 25 25 26 28 28 29 29 30 31 32 32 31 30 30 31 31 31
70 69 66 62 61 61 59 58 55 52 48 46 43 40 38 38 36 34 33 32 31 31 30 29 28 27 26 26 27 27 26 24 24 24 25 26 25 25 24 23 23 24 25 26 26 26 26 26 27 28 29 30 30 31 32 33 32 32 32 31 32 32 33
74 72 69 64 61 62 63 59 56 53 50 47 45 41 38 37 36 35 34 34 34 34 32 31 29 28 27 28 29 31 31 28 26 26 26 27 27 27 26 25 25 25 26 26 26 27 27 27 28 28 29 31 32 33 34 34 34 34 33 33 33 34 35
79 77 75 71 67 65 66 62 57 55 52 47 44 43 42 41 40 39 38 37 36 36 35 33 30 28 28 29 32 34 35 33 30 28 28 28 28 28 28 27 27 27 26 26 25 26 28 29 29 29 30 31 32 34 35 35 36 35 35 35 35 36 37
84 82 80 77 74 69 65 60 56 55 53 46 43 45 48 48 46 42 39 39 37 37 38 37 35 32 29 30 34 37 39 38 35 32 30 30 30 30 30 29 29 28 27 26 25 26 27 29 30 30 31 31 32 34 35 36 36 36 36 36 36 37 38
89 86 82 81 79 71 63 57 54 56 56 50 44 45 49 53 52 45 42 43 42 41 41 40 40 38 34 33 35 38 40 39 37 35 33 32 32 32 31 30 29 28 28 28 27 26 26 27 29 30 32 32 33 34 35 36 36 36 36 36 37 38 39
92 89 85 83 83 77 70 63 58 60 62 56 49 49 52 55 56 51 48 48 46 45 44 44 45 43 40 39 39 38 38 38 38 38 36 34 34 34 33 32 30 29 28 28 29 28 27 27 28 30 31 33 33 34 35 36 37 37 37 36 36 38 39
94 92 88 86 85 84 81 75 67 65 66 60 53 55 60 60 58 55 53 51 49 48 47 47 47 46 45 45 45 44 42 42 42 42 39 37 36 35 34 33 31 30 29 29 30 30 29 28 28 29 30 32 34 35 36 36 37 38 38 38 38 39 40
96 95 91 88 87 86 86 84 78 73 70 65 59 58 59 60 59 57 56 54 52 52 50 48 49 49 48 49 51 50 48 45 45 45 43 39 38 37 35 35 33 32 31 30 30 31 30 30 29 30 31 31 33 35 36 36 37 38 39 39 39 40 41
98 98 95 91 89 88 87 87 85 81 77 74 71 66 62 59 59 58 58 56 54 53 52 51 51 51 51 52 53 52 49 44 43 44 44 42 39 37 36 35 35 34 33 33 32 32 31 31 31 31 32 32 32 34 35 36 37 38 38 39 40 40 41
99 100 98 94 91 90 89 87 86 84 82 80 79 76 70 65 62 61 60 57 54 53 53 54 55 54 53 53 53 51 49 44 40 41 41 40 38 37 36 36 36 36 36 35 34 34 33 33 32 32 32 33 33 33 35 36 37 37 38 38 39 40 41
101 101 100 97 93 91 90 88 87 86 84 82 81 78 74 70 67 65 64 61 57 55 57 58 58 57 54 54 55 53 50 46 42 40 39 38 38 37 38 38 38 38 38 37 37 36 35 34 34 34 34 34 34 34 35 36 37 37 37 38 39 40 41
102 102 102 100 96 93 90 89 88 87 86 84 82 79 76 73 70 68 67 64 61 61 62 62 60 58 56 56 57 56 53 51 49 46 44 43 41 41 41 40 40 39 39 39 39 38 37 36 35 35 35 35 36 36 36 36 37 38 38 38 38 40 41
104 104 105 103 98 94 91 90 90 89 88 86 83 80 78 75 71 69 67 66 66 66 66 64 62 59 57 57 59 59 57 55 53 50 46 45 43 42 42 43 42 41 41 41 41 40 38 38 37 37 37 37 38 38 38 38 38 38 38 38 38 39 41
106 106 106 104 99 96 94 92 92 91 90 87 85 82 79 76 73 72 70 69 70 71 68 66 64 61 59 59 60 60 57 54 52 50 49 47 45 43 44 44 44 43 43 42 42 41 40 39 39 39 39 40 40 41 41 40 39 38 38 39 39 40 41
107 106 106 104 101 98 96 95 94 93 91 88 85 82 80 77 75 75 74 73 73 73 71 69 67 65 64 62 61 60 56 52 49 50 50 49 47 44 44 45 45 44 43 43 43 42 42 42 42 41 42 42 43 42 42 41 41 40 39 38 39 40 41
108 106 106 106 103 100 98 96 95 93 92 89 86 83 81 79 77 76 77 77 76 75 73 70 69 68 67 65 62 60 58 53 50 50 51 51 49 48 47 48 48 45 43 44 44 44 44 44 44 45 45 45 45 43 42 42 42 41 40 40 41 42 42
111 109 109 107 105 102 100 97 95 94 92 90 87 84 82 81 79 78 79 79 78 77 75 73 71 69 68 66 64 62 58 54 51 50 51 51 51 51 51 51 49 46 45 46 46 46 46 47 47 47 48 47 46 44 43 42 42 43 42 42 42 42 42
114 112 110 108 106 104 102 99 96 94 93 91 89 85 83 82 80 80 80 80 80 78 76 75 73 72 69 67 65 63 60 55 52 51 51 52 52 52 52 52 51 49 49 49 48 48 49 49 50 50 50 48 46 44 43 43 44 44 44 43 42 43 43
117 114 111 108 106 105 103 100 97 94 92 92 90 87 85 83 82 80 80 81 80 78 76 75 74 72 71 69 67 65 62 60 58 57 56 55 55 55 54 54 54 53 52 52 51 51 52 52 52 52 50 48 46 45 45 45 45 45 45 44 43 44 44
119 116 111 107 106 105 103 100 97 94 93 92 90 88 86 85 84 82 82 81 80 78 76 75 74 71 69 68 67 65 64 62 61 60 59 58 57 56 56 56 56 56 55 55 55 54 53 53 53 53 50 48 46 46 46 45 45 46 45 45 44 44 44
120 117 112 107 106 105 104 101 99 95 93 92 91 88 87 86 85 84 83 82 81 79 78 76 74 72 69 67 66 66 65 64 62 60 59 56 55 55 56 57 58 58 58 58 58 56 55 54 54 53 50 48 47 46 46 46 45 45 45 45 45 45 45
120 117 113 109 107 107 106 103 100 97 94 92 91 88 87 86 85 84 83 82 81 79 78 77 74 72 70 68 67 66 65 62 58 55 52 52 53 55 58 59 61 61 61 61 60 59 57 56 55 53 51 49 48 47 47 46 45 45 45 46 47 45 44

ECMWFFLT1_250_spd_072.txt.gz
Wind_Speed
35 36 38 37 37 36 35 34 34 31 28 26 23 20 17 15 16 17 17 19 21 23 22 22 22 22 23 22 20 19 19 20 21 21 20 18 17 16 15 14 13 12 11 10 9 8 7 6 5 4 3 2 2 2 3 4 5 6 7 7 8 8 8
37 37 39 39 39 38 36 35 36 33 30 27 25 23 19 17 16 17 17 19 21 23 23 23 23 22 22 22 21 19 19 21 22 22 21 19 18 17 16 15 14 13 12 11 9 8 7 6 5 4 3 2 1 0 1 2 3 4 5 6 7 7 8
40 40 40 40 40 40 38 37 37 35 31 29 27 24 21 19 17 17 18 19 20 23 24 25 24 24 24 23 22 20 20 22 23 23 22 20 19 18 17 16 15 14 13 12 11 10 8 7 6 5 4 4 3 2 2 3 3 4 4 5 6 7 8
43 42 41 41 41 41 40 38 38 37 33 30 28 26 24 22 20 19 20 20 21 23 24 25 25 25 25 24 23 22 22 22 24 24 23 22 21 19 18 17 16 16 15 14 13 11 10 10 8 7 6 6 5 5 4 4 5 5 5 6 6 7 7
46 44 43 42 41 42 42 40 39 38 35 31 30 29 27 24 22 21 21 21 21 22 23 25 27 27 27 26 26 25 24 23 24 25 24 23 22 21 19 18 17 17 17 16 15 14 13 12 11 10 9 8 8 7 7 7 7 7 7 7 7 8 8
49 46 45 44 43 42 42 41 40 38 35 32 32 30 28 25 23 22 22 21 20 21 23 26 28 28 29 29 29 28 27 26 26 26 26 25 24 22 21 19 19 19 18 18 17 16 15 14 13 12 11 11 11 10 10 10 9 9 9 9 10 10 10
50 49 47 46 45 44 43 42 40 38 36 34 33 31 29 27 25 24 22 22 22 22 23 24 26 27 28 29 30 30 30 29 29 28 27 26 25 23 22 21 20 20 20 19 18 18 17 16 15 15 14 14 13 13 13 13 12 12 12 12 12 12 12
49 51 50 47 45 44 44 43 42 40 38 36 35 33 31 29 27 25 24 23 23 23 23 23 25 26 28 29 29 30 31 31 31 30 29 28 27 26 25 24 22 22 21 21 20 19 19 19 18 17 17 16 16 16 16 15 15 15 14 14 15 15 15
48 53 53 49 46 44 44 45 44 41 39 38 36 34 32 30 29 27 26 25 24 24 23 23 24 25 27 29 30 30 30 30 31 31 31 30 29 28 27 26 25 24 23 23 22 21 21 21 20 20 19 18 18 18 18 18 18 17 17 17 17 17 17
47 52 55 52 49 45 45 46 44 41 40 39 38 36 34 32 30 29 28 26 25 24 23 22 22 23 25 27 29 30 32 32 32 31 31 31 30 29 28 28 27 26 25 25 24 24 23 23 22 21 21 20 20 21 21 21 21 20 19 19 19 19 20
49 52 55 55 54 49 47 47 46 43 42 41 39 38 36 34 32 31 29 27 25 25 24 22 22 22 22 23 25 28 31 33 33 32 31 30 30 29 29 29 29 28 27 27 27 26 26 26 25 23 22 22 23 23 24 24 23 23 22 21 21 21 22
57 55 55 57 58 55 50 50 49 46 44 43 41 39 38 36 34 32 31 29 27 26 25 24 22 21 21 22 23 26 28 30 32 32 30 29 28 28 29 29 29 29 29 29 29 29 28 28 27 26 25 25 25 25 25 26 25 25 23 22 22 23 23
62 57 56 59 61 58 54 52 51 48 45 44 43 41 39 37 36 34 32 31 30 28 27 25 24 22 21 22 23 25 26 27 28 28 27 25 25 26 27 28 28 28 28 29 29 29 29 29 28 27 26 26 25 25 26 26 26 25 24 24 23 24 25
62 55 52 55 58 56 53 51 50 48 46 44 43 41 40 39 38 36 34 33 32 31 29 28 26 24 23 22 23 24 25 26 25 25 24 23 23 23 24 25 24 24 25 26 27 28 28 27 27 26 26 25 25 25 25 25 25 25 25 24 24 24 25
65 57 51 52 55 55 53 51 50 48 46 44 42 41 41 41 40 38 36 36 35 33 32 30 28 27 26 24 22 22 23 24 24 24 24 23 23 23 23 22 21 21 21 22 23 24 24 25 25 25 25 24 24 24 25 24 24 24 24 24 24 24 25
68 64 57 54 55 57 55 53 52 49 46 44 43 42 42 41 41 39 38 37 35 33 32 30 29 28 27 25 23 21 21 22 23 24 24 23 23 23 23 22 21 20 20 20 20 21 22 23 24 24 24 24 24 24 24 24 23 23 23 24 24 25 26
71 68 62 58 57 59 59 57 55 52 49 47 46 45 44 42 41 39 38 37 35 33 32 31 30 30 28 26 24 23 22 22 22 22 23 23 22 21 21 22 22 21 21 21 20 21 21 22 23 24 24 24 24 25 24 24 23 23 23 24 25 25 26
74 71 67 63 60 61 62 61 58 55 53 52 50 48 46 44 42 40 38 37 36 34 33 32 31 31 29 27 26 25 25 24 23 23 23 24 23 22 21 21 21 22 22 22 21 21 21 22 23 23 24 24 25 25 24 24 23 24 24 25 25 25 26
76 74 71 68 64 61 62 63 61 58 57 55 53 50 46 43 43 43 41 40 40 38 36 35 34 33 31 30 31 30 28 27 27 26 25 25 25 25 24 24 23 22 22 21 21 21 22 22 22 23 23 24 24 24 24 24 24 25 25 25 26 26 27
79 77 74 70 65 61 62 64 63 61 59 58 55 53 48 43 43 46 46 45 44 42 41 40 39 38 37 36 35 33 30 29 28 28 27 26 26 27 27 27 26 24 22 20 20 21 21 21 22 22 23 23 23 24 24 24 24 25 25 26 27 27 28
83 80 77 73 65 58 58 61 64 63 61 60 58 56 51 46 45 50 52 49 47 46 45 44 43 42 40 39 37 34 32 31 31 30 29 28 27 27 27 28 28 26 23 21 20 19 19 19 20 21 21 22 22 23 23 24 24 24 25 26 26 27 28
86 84 82 79 72 63 57 57 61 63 61 62 62 61 57 52 49 53 54 51 48 47 47 46 45 43 42 41 39 36 34 34 33 33 33 32 31 29 28 28 28 27 25 23 21 20 20 20 20 20 20 21 21 22 23 23 23 24 24 25 26 27 27
90 89 86 85 81 74 65 60 60 61 61 62 63 63 62 59 55 54 54 53 50 48 48 47 46 45 44 43 41 39 38 38 37 35 35 35 34 33 31 29 28 26 25 23 22 22 22 22 22 22 21 21 21 22 23 22 22 23 23 24 25 26 27
93 93 91 89 86 82 75 67 64 65 66 66 65 63 64 63 60 58 56 55 53 51 49 49 49 48 46 44 43 42 41 41 39 37 36 36 35 34 33 31 29 27 25 23 22 22 23 24 24 24 24 24 23 23 23 23 23 23 23 23 24 26 27
95 95 94 92 90 89 85 77 70 67 69 69 65 65 68 66 63 63 60 58 57 56 54 53 51 48 47 47 46 44 43 43 41 38 37 36 35 34 33 30 29 29 28 26 24 23 23 24 26 26 27 27 26 25 25 25 24 24 24 24 24 26 27
96 97 97 95 93 92 90 86 78 72 71 69 65 67 72 70 65 64 63 62 61 59 58 57 53 50 49 49 47 45 44 44 43 41 39 37 36 35 33 30 29 30 31 29 26 25 25 25 27 28 29 29 29 28 27 26 26 25 25 25 25 26 27
97 99 99 98 96 94 92 90 86 80 76 74 69 68 71 71 68 65 63 62 62 62 61 60 58 55 53 50 48 46 46 45 45 43 41 39 37 37 36 34 31 30 30 30 28 27 27 27 28 29 30 31 31 30 28 28 27 27 27 27 27 27 27
99 100 101 99 98 97 95 93 91 87 83 80 77 73 70 69 68 66 63 60 59 62 64 63 62 60 57 53 49 48 47 47 46 45 43 42 41 40 41 39 33 28 28 28 28 28 29 29 30 31 32 32 32 31 31 30 30 30 29 29 28 28 28
101 101 102 102 100 100 99 96 95 93 89 85 83 79 74 71 71 70 68 64 61 60 60 60 59 57 55 54 51 49 49 49 48 47 45 44 43 42 42 40 34 28 27 28 28 29 31 31 33 34 34 33 33 33 33 33 33 33 32 30 29 28 28
104 103 103 104 104 103 103 101 99 97 94 91 87 83 78 75 74 73 73 73 71 66 63 60 56 53 52 53 53 51 50 50 50 49 48 47 45 42 40 39 36 32 30 31 32 32 33 34 35 36 36 35 34 34 35 35 35 35 35 33 31 29 28
107 105 103 105 106 107 107 106 103 101 98 95 92 88 83 79 77 76 76 77 77 73 69 65 60 56 54 54 53 53 52 52 52 51 50 49 47 44 42 42 41 39 38 38 38 38 37 37 37 37 37 37 37 37 37 36 36 37 37 35 33 30 29
110 107 105 105 108 110 110 109 107 105 102 99 96 93 90 85 82 81 81 81 80 77 73 68 64 61 58 56 55 54 54 53 52 53 53 51 49 47 46 44 44 44 44 43 43 43 42 41 39 39 39 40 41 40 39 37 38 39 39 37 34 32 30
113 111 108 108 109 111 112 112 111 109 106 103 100 97 95 92 88 86 85 84 84 82 76 70 66 62 59 57 56 56 56 55 54 54 54 52 51 49 48 47 46 46 46 46 46 46 44 43 42 41 42 43 44 42 40 40 40 41 41 38 35 33 32
117 114 112 111 111 112 113 114 114 112 109 106 103 100 98 96 93 92 89 87 86 85 80 73 68 64 60 58 57 58 59 58 58 57 56 54 53 52 51 50 49 49 48 48 47 45 44 45 45 44 45 46 46 45 43 43 44 45 43 39 36 34 34
121 118 115 114 113 113 114 115 115 113 110 108 106 103 102 100 98 96 93 89 87 86 82 77 73 70 67 64 62 62 62 62 63 62 60 58 57 56 55 54 52 52 51 50 48 46 45 45 46 47 49 49 48 47 46 47 48 48 45 41 38 37 35
123 121 119 117 116 115 114 115 116 114 111 110 108 106 105 103 102 101 97 93 90 88 85 82 79 77 75 72 69 68 67 66 66 66 64 62 61 60 59 58 56 55 54 51 49 48 46 46 48 51 52 52 50 49 50 52 51 50 47 45 42 39 37
124 123 122 120 118 117 116 115 115 114 112 111 110 109 107 106 105 104 102 99 96 94 91 89 86 83 81 78 75 73 71 69 68 67 66 65 64 62 62 61 60 59 57 53 51 49 48 50 54 55 55 54 53 53 55 55 54 52 51 48 45 42 38
125 125 124 122 120 119 117 116 114 113 113 112 112 110 109 108 106 105 103 102 101 98 96 93 90 86 84 81 77 75 74 71 69 68 67 66 65 63 63 63 62 60 57 54 52 52 53 56 57 57 56 56 55 55 57 58 57 56 54 52 49 44 41

ECMWFFLT1_250_spd_075.txt.gz
Wind_Speed
34 33 33 34 36 37 36 36 34 33 32 30 28 27 24 20 18 17 17 17 20 22 21 22 22 22 24 25 24 23 22 20 19 18 17 16 14 13 12 12 12 11 11 10 9 8 8 7 6 5 4 4 3 3 3 4 5 6 7 8 9 10 10
34 32 32 32 34 36 36 36 36 35 34 32 30 29 26 22 19 18 17 18 20 22 22 23 24 23 24 25 25 24 23 21 20 20 19 18 16 14 14 13 13 12 11 10 10 9 8 8 7 5 4 3 2 1 1 2 3 5 6 7 8 9 10
34 33 32 32 33 35 36 36 36 36 35 33 31 29 26 23 21 20 19 19 20 22 24 25 26 26 25 26 26 25 24 22 22 21 20 19 17 15 15 14 14 13 12 11 11 10 9 8 7 6 5 4 3 2 1 2 3 4 6 7 8 9 9
35 34 32 31 33 36 37 37 37 38 36 34 31 29 28 25 23 22 21 20 21 23 24 26 27 28 28 27 26 25 24 23 22 21 22 21 20 18 17 16 14 13 13 12 11 11 10 9 8 8 7 6 5 4 3 3 4 5 6 7 8 9 10
36 34 33 33 33 37 39 39 39 39 38 35 32 31 30 28 26 24 23 22 21 22 24 26 28 30 30 29 28 26 24 22 21 22 23 23 22 20 18 17 15 14 14 13 12 12 11 11 10 9 9 8 7 7 6 6 6 7 7 8 9 10 11
38 36 35 35 35 36 40 40 39 39 38 35 33 32 31 30 28 25 24 23 21 21 23 27 30 32 32 31 29 28 25 23 22 23 24 25 24 22 20 18 17 16 15 14 14 14 13 13 12 11 11 10 10 9 9 8 8 9 9 10 11 12 12
42 39 38 37 37 37 39 40 40 40 39 36 33 33 33 32 30 27 25 24 23 22 24 27 29 30 31 31 31 30 28 26 25 25 25 26 25 23 22 20 19 18 17 16 16 16 15 15 14 13 13 13 12 12 12 11 11 11 12 12 13 13 13
45 44 41 39 39 39 39 40 40 40 40 38 36 36 35 34 32 29 27 26 25 24 24 25 26 28 29 30 30 30 29 28 27 27 27 27 27 26 24 22 21 20 19 18 17 17 17 16 15 15 15 15 15 14 14 14 14 13 14 14 15 15 14
49 48 45 42 42 42 41 40 41 41 41 41 39 37 36 35 34 31 29 27 27 27 25 25 25 26 28 29 30 30 29 29 29 28 28 28 28 28 27 25 23 22 21 19 19 18 18 17 17 16 16 17 17 17 17 16 16 16 16 16 16 16 16
54 51 48 44 43 44 43 42 41 42 43 43 41 38 37 37 35 33 31 30 29 28 26 25 25 26 28 29 30 31 30 31 30 30 29 28 28 28 28 27 26 24 23 22 21 20 19 19 19 18 18 18 19 19 19 19 19 19 19 18 18 18 17
57 53 50 46 44 44 44 43 43 44 44 45 43 39 38 38 37 36 34 32 30 29 27 26 26 26 26 28 29 30 32 32 31 31 30 28 27 27 27 27 27 26 25 24 23 22 21 21 21 20 20 20 21 21 22 22 22 21 21 20 19 19 18
59 54 50 48 45 43 44 45 44 44 44 45 43 40 38 40 39 37 35 33 31 30 28 26 26 26 25 25 26 28 31 31 31 31 30 28 27 27 26 27 27 26 26 25 24 24 24 24 23 22 22 22 23 24 24 24 23 22 21 20 20 19 19
61 56 52 49 47 45 46 48 46 45 45 44 42 39 38 40 40 37 35 34 32 31 29 27 26 25 25 24 24 26 27 29 30 29 27 27 27 27 27 27 27 27 27 27 26 26 26 26 25 24 24 24 24 24 24 24 23 22 20 20 19 19 19
64 60 55 52 50 48 49 51 50 48 46 44 43 40 39 40 39 37 35 34 33 32 30 28 26 25 25 25 25 26 26 26 26 25 24 24 25 26 27 27 27 27 27 27 28 28 27 26 26 25 24 24 23 23 23 23 22 21 19 19 19 19 19
66 64 61 57 54 51 50 52 54 51 47 45 44 43 42 42 41 39 36 34 33 33 31 28 26 25 25 26 26 26 25 24 24 23 22 22 23 25 27 27 26 25 25 27 27 27 26 25 24 24 23 22 21 21 21 20 20 19 18 18 18 19 19
68 66 65 61 57 54 52 53 55 55 51 46 45 45 45 45 44 41 39 36 35 33 31 29 28 26 26 26 26 25 24 24 24 23 23 23 24 25 26 25 24 23 23 25 25 24 24 23 23 23 21 20 19 19 19 19 18 18 18 19 19 20 20
70 69 67 66 61 57 55 54 55 57 55 50 47 48 48 48 46 44 42 40 37 35 32 30 28 28 27 26 25 24 25 26 26 26 25 25 25 26 26 25 24 24 24 23 23 24 23 23 22 22 20 18 18 18 18 17 17 17 19 19 19 20 20
73 71 70 69 66 61 58 56 56 58 58 54 50 50 51 50 48 47 45 43 40 37 33 31 30 29 29 28 27 27 28 28 28 27 26 25 25 25 25 25 25 25 25 24 24 24 24 23 23 21 20 18 17 16 15 15 16 17 18 18 19 19 19
75 74 73 72 70 67 61 58 57 58 60 58 54 52 53 52 50 48 46 44 42 39 35 31 30 31 32 32 32 33 32 31 29 28 27 26 25 25 25 25 26 26 25 24 23 23 23 23 21 20 18 17 15 13 12 12 13 15 16 17 17 18 18
78 77 76 75 72 71 67 61 58 58 59 60 58 55 54 53 52 50 48 46 44 41 37 33 32 34 36 36 37 37 36 35 32 30 29 27 26 25 25 25 26 25 23 22 22 22 21 19 18 17 16 15 13 12 11 10 10 12 13 14 15 16 17
80 79 79 77 73 72 72 66 61 61 61 61 60 58 56 55 54 52 50 49 48 45 43 40 39 39 40 41 43 41 39 38 36 33 31 29 28 27 27 26 25 24 21 20 20 19 17 16 16 16 15 14 13 12 12 10 10 10 11 12 14 15 17
83 81 81 82 78 74 74 71 66 64 63 62 60 58 56 54 54 54 54 52 50 48 47 46 45 44 44 45 46 45 42 40 38 35 33 31 31 31 30 28 26 24 21 19 18 17 16 16 16 16 15 14 14 14 13 11 10 11 12 12 13 15 17
84 83 83 84 83 80 78 76 71 66 64 63 59 55 53 53 53 56 58 56 52 50 49 50 50 48 48 48 48 47 45 42 39 37 35 34 34 34 33 31 29 26 22 21 20 18 17 17 17 17 17 17 17 16 14 11 11 12 13 13 14 15 17
85 85 84 85 86 85 82 80 77 71 67 66 62 57 56 56 55 57 60 58 55 53 53 54 54 53 51 50 49 48 46 43 41 39 37 36 36 35 34 33 32 29 25 23 21 20 19 19 19 19 19 19 19 17 14 13 13 13 14 14 14 16 18
86 86 87 87 88 87 86 84 81 76 70 68 67 63 60 58 56 58 62 61 57 57 57 57 57 56 53 51 49 47 47 45 43 41 40 39 38 36 34 33 32 31 29 27 24 22 22 22 21 22 21 20 19 18 16 14 14 14 15 15 15 17 19
89 89 89 89 90 90 89 87 86 81 73 70 71 70 66 62 58 58 62 64 63 61 60 59 59 58 55 52 49 48 48 47 46 44 43 41 39 37 35 34 33 32 31 30 27 24 24 25 25 24 23 22 21 20 19 17 15 15 16 16 17 19 20
92 92 92 90 90 93 93 91 89 86 79 75 75 75 73 70 66 63 63 65 66 65 63 62 62 60 55 51 50 49 50 50 49 48 46 44 40 38 37 36 35 33 32 30 27 25 25 27 27 27 25 24 23 22 21 19 17 17 17 17 19 20 22
95 96 95 91 89 92 95 95 93 90 87 83 79 78 77 75 71 69 69 68 67 67 65 64 64 62 57 53 52 52 51 52 52 51 49 46 43 40 39 39 37 36 33 30 27 26 26 27 28 29 28 26 24 23 21 19 19 19 18 18 20 21 23
99 98 98 96 92 90 93 97 96 93 91 88 82 79 80 79 75 72 73 73 71 70 68 67 66 65 61 57 55 55 54 55 54 53 51 48 45 43 42 41 40 39 36 33 31 30 29 28 29 30 30 28 25 22 21 20 20 20 20 19 20 22 24
103 101 100 100 98 94 93 97 99 97 95 93 89 83 81 81 80 77 75 74 75 73 72 71 70 68 65 62 59 56 56 56 55 53 52 50 47 45 44 43 42 41 40 37 35 34 33 32 32 32 31 29 26 24 23 22 22 22 21 20 21 22 24
107 105 103 102 102 98 95 96 99 99 97 96 94 88 83 81 83 83 78 76 76 76 75 75 73 70 67 63 60 59 58 57 56 54 52 50 49 48 47 45 43 42 42 41 38 37 36 35 34 33 32 30 29 29 27 26 25 24 23 21 21 24 26
110 109 107 105 104 102 99 98 99 101 100 99 96 93 87 83 83 85 83 80 78 78 79 79 77 75 70 65 61 61 60 59 58 56 53 52 51 51 50 48 46 44 44 43 41 40 39 37 36 36 36 35 35 34 31 29 28 27 26 23 23 25 27
113 112 111 109 106 104 102 101 100 101 103 102 99 96 91 85 82 83 84 84 82 81 81 81 80 78 75 69 64 63 63 62 61 59 58 56 55 54 53 51 49 47 45 45 44 43 42 40 39 40 40 40 39 36 31 30 30 31 31 28 24 25 27
116 115 114 113 110 107 105 103 101 101 103 104 103 100 95 88 83 82 83 85 85 84 83 82 81 79 77 73 69 66 66 66 64 63 61 60 59 58 57 54 52 50 48 47 47 46 44 42 41 42 42 42 40 36 32 31 32 35 36 31 25 25 28
117 118 118 116 114 111 109 107 104 101 102 104 104 103 99 93 88 85 85 86 86 85 84 84 82 79 77 75 72 69 69 69 67 66 64 63 61 61 60 58 56 53 51 49 48 47 46 44 43 43 43 42 39 36 32 33 35 38 38 32 25 27 32
119 119 119 119 117 115 112 110 109 106 103 103 104 103 101 98 94 90 88 87 87 86 85 85 83 80 78 77 74 72 71 70 68 65 64 63 62 61 61 61 59 56 53 51 50 48 47 46 45 45 44 42 39 37 34 35 37 39 38 35 31 33 36
121 120 121 121 120 119 116 113 112 111 108 105 103 103 103 103 100 96 92 89 89 88 86 85 84 81 80 79 77 75 73 70 67 63 60 60 60 59 60 61 60 58 56 53 51 50 48 48 48 47 45 42 40 39 38 39 40 41 40 40 39 39 39
122 122 122 122 122 121 120 117 114 113 112 109 106 105 105 106 105 102 98 94 92 90 88 87 86 84 82 82 81 79 76 73 69 65 62 61 62 60 59 60 61 60 58 55 53 51 51 50 50 48 46 45 43 43 43 44 44 44 43 43 42 40 38

ECMWFFLT1_250_spd_078.txt.gz
Wind_Speed
30 29 28 28 29 29 29 30 30 29 29 28 28 27 26 24 22 20 19 18 17 15 14 15 15 16 17 19 20 22 21 20 19 17 15 15 14 12 11 11 11 11 10 9 8 7 6 5 4 4 4 5 6 7 8 9 10 11 12 12 13 14 15
31 29 28 28 28 28 29 30 30 30 30 30 30 29 28 25 23 20 19 19 18 16 14 15 16 17 17 18 20 21 21 21 20 18 17 16 15 13 12 12 12 12 11 10 9 8 7 5 4 3 3 3 4 5 7 8 9 10 11 11 12 13 14
32 31 29 28 28 27 28 29 30 30 29 31 32 31 28 26 23 21 20 20 19 17 15 15 17 18 19 19 20 21 21 21 20 19 17 16 15 14 13 12 12 12 11 10 9 8 7 6 4 3 1 2 3 4 6 7 8 9 10 11 12 13 13
35 33 31 29 28 28 28 29 30 30 30 32 33 31 29 27 25 23 22 21 20 18 16 15 17 20 20 20 21 22 22 21 20 19 18 17 17 16 15 14 13 12 12 12 10 9 8 6 5 3 2 1 2 4 6 7 8 9 10 11 12 12 13
38 36 33 32 31 29 29 29 30 30 30 32 33 33 30 29 28 26 24 23 22 20 17 16 18 21 22 22 22 23 23 22 20 19 19 19 19 18 17 15 13 13 13 12 11 10 8 7 6 5 3 2 3 4 6 7 8 9 10 11 12 12 13
42 39 37 35 33 31 29 28 28 29 30 31 33 33 32 31 30 28 25 24 22 21 19 18 20 23 24 23 23 24 24 23 22 21 21 20 20 19 18 16 15 14 13 12 12 10 9 8 7 6 5 4 4 5 6 7 8 9 10 11 12 12 13
45 43 41 38 35 32 30 28 27 27 30 32 33 33 33 33 32 29 26 25 24 23 21 20 21 23 24 24 24 24 25 24 24 23 22 22 21 20 20 18 17 16 14 13 12 11 10 9 8 7 6 5 5 5 6 7 8 9 10 11 12 13 14
49 46 44 41 37 33 31 29 27 27 30 32 33 34 35 35 33 31 29 27 26 25 23 21 20 22 24 25 25 25 25 25 25 25 24 23 22 21 21 20 19 17 15 14 13 12 11 10 10 9 8 6 6 6 7 8 9 10 11 12 13 14 14
52 49 46 43 40 35 32 30 28 27 30 33 34 35 37 36 35 32 30 28 27 27 25 22 21 20 22 25 26 26 25 25 26 26 25 25 24 23 23 22 21 19 17 16 15 14 13 12 11 10 9 8 8 8 8 9 10 11 12 13 14 15 15
55 52 49 46 43 39 35 33 30 28 31 35 36 37 38 38 36 34 31 30 29 28 26 23 22 21 22 25 27 27 27 28 27 27 26 25 24 24 24 24 23 21 19 18 17 16 15 13 12 11 11 11 11 11 11 12 12 13 14 15 15 15 15
58 55 52 50 47 43 39 36 33 31 33 37 38 38 38 38 37 34 32 31 30 29 27 25 23 22 22 24 26 29 30 30 30 29 28 26 25 24 24 24 24 23 21 19 18 17 16 15 14 13 13 13 14 14 15 15 15 15 15 15 15 15 14
61 58 55 53 50 47 42 39 36 34 35 37 39 39 38 37 36 34 32 30 29 29 29 26 24 23 23 23 25 28 30 31 31 31 29 27 26 24 24 23 23 23 22 21 19 18 18 17 16 15 15 16 17 17 17 18 17 16 15 15 14 14 13
64 61 59 56 53 50 46 42 40 38 37 38 39 40 39 38 37 35 32 30 29 30 30 29 25 23 23 23 24 26 29 31 31 30 29 27 26 25 24 24 23 23 23 22 21 21 20 19 18 17 17 18 19 19 19 19 18 16 15 13 13 12 12
66 64 61 59 56 53 49 46 43 41 40 41 40 40 41 39 38 37 34 31 30 31 32 31 28 25 23 23 24 25 27 28 28 27 26 26 26 25 25 25 24 24 23 23 23 23 22 21 20 19 20 20 20 20 19 18 17 15 13 12 12 12 12
68 67 64 62 59 56 53 50 47 43 42 43 42 42 42 41 40 39 37 34 33 34 34 33 31 28 25 24 25 25 26 26 26 24 23 23 25 26 27 26 26 25 24 25 25 24 23 22 21 20 20 20 20 19 19 17 15 13 12 11 11 11 11
70 69 68 65 62 59 56 54 51 47 45 45 45 44 43 43 42 41 40 37 36 37 37 35 33 31 28 26 25 25 24 24 24 23 21 22 24 26 26 26 26 25 25 26 25 24 23 22 21 20 20 19 19 18 18 16 13 12 12 11 11 11 10
72 71 70 68 65 62 60 57 55 52 48 47 47 47 46 44 43 43 42 40 39 39 39 37 35 33 30 27 25 24 23 23 24 23 22 22 23 25 26 26 25 25 25 26 25 24 23 22 21 20 19 18 17 17 16 14 12 11 11 11 10 10 9
74 73 72 71 68 66 63 60 58 56 52 49 48 49 48 46 45 44 44 41 40 40 40 38 36 34 32 28 25 23 23 24 24 24 24 23 23 24 25 25 25 25 25 25 24 23 22 21 20 18 17 17 16 15 13 11 10 11 11 10 9 9 9
75 75 74 73 71 69 66 64 61 59 56 52 50 51 50 49 46 45 45 42 40 40 41 40 38 36 34 31 28 26 27 27 26 26 26 24 23 23 23 24 24 24 23 23 22 21 21 20 18 16 15 15 15 13 11 9 9 10 10 10 9 9 9
78 77 76 75 74 72 70 67 64 62 59 55 52 52 53 52 49 47 46 44 41 40 41 40 39 37 35 34 32 31 31 30 29 28 28 26 25 23 23 23 24 23 22 21 20 20 20 18 16 14 13 13 13 12 11 9 9 10 10 10 9 9 9
80 79 78 76 76 74 73 70 67 64 62 59 55 54 54 55 52 48 46 45 42 40 40 40 39 37 36 35 34 34 32 31 30 29 28 28 27 25 24 24 24 22 21 20 19 18 17 15 14 14 13 13 12 11 11 10 9 11 11 11 10 10 10
81 81 80 79 77 77 75 73 70 66 64 63 59 56 55 56 55 51 47 43 40 38 37 38 37 36 36 36 36 35 33 32 31 31 30 29 28 27 27 26 25 23 22 21 20 18 16 15 14 13 12 12 12 12 12 11 10 12 13 12 11 12 11
82 82 82 81 80 79 78 76 73 70 67 66 63 59 57 57 57 53 47 41 39 39 39 40 38 36 36 37 37 37 37 36 35 34 33 32 32 31 30 28 26 25 23 23 22 21 20 18 16 13 13 13 14 15 15 13 12 13 15 14 14 13 13
84 83 83 83 82 81 80 78 76 74 70 68 66 62 59 59 60 57 49 44 46 48 48 47 44 40 38 38 39 41 41 40 40 39 36 35 35 35 33 30 28 26 25 25 24 23 22 21 19 17 17 17 17 17 17 15 14 15 16 16 15 15 15
86 84 83 84 84 83 82 81 79 77 75 72 69 66 63 61 62 62 56 52 53 53 48 47 48 45 43 41 40 43 45 44 44 43 40 38 37 37 36 34 31 29 28 27 27 25 24 23 22 21 21 21 20 19 18 17 16 17 18 17 16 17 17
89 87 85 84 85 85 84 83 82 81 79 76 72 69 66 63 64 66 63 58 56 54 50 50 51 48 45 43 42 44 47 48 47 46 44 42 39 37 37 36 34 33 32 31 30 28 26 25 24 24 24 24 23 22 21 20 18 19 19 18 17 18 18
92 89 87 85 86 86 86 86 85 84 82 80 76 72 69 67 66 68 68 63 57 55 53 53 54 50 46 44 42 42 44 46 48 49 48 46 41 39 38 38 37 36 35 35 34 32 30 29 28 27 26 26 26 25 25 23 21 20 20 19 18 18 18
95 92 89 87 87 87 88 88 88 87 85 83 80 75 72 71 70 70 71 69 62 57 55 56 57 54 49 45 45 45 45 47 49 51 52 50 46 43 42 40 39 38 37 37 37 36 34 33 33 32 30 29 29 29 28 26 23 21 21 21 20 19 19
99 96 93 90 89 89 89 90 90 89 87 86 84 80 74 73 72 72 73 73 68 62 59 59 59 55 47 44 49 52 50 49 51 54 56 56 52 48 46 43 41 40 40 39 39 39 37 36 35 35 34 32 31 30 28 26 25 23 22 22 21 20 20
103 100 96 94 92 91 91 92 91 91 90 88 87 84 78 74 74 74 74 75 73 68 64 64 62 56 47 46 53 57 51 47 51 57 60 61 59 54 50 47 46 44 43 42 41 41 40 39 37 37 36 35 34 32 29 26 26 25 24 22 22 21 20
107 104 100 98 96 94 93 93 93 93 92 90 89 88 84 79 77 77 76 77 77 73 70 68 66 61 54 52 57 60 55 49 52 57 61 64 63 57 52 50 50 48 46 45 44 43 42 42 41 40 39 38 36 35 31 27 26 27 26 24 23 22 22
110 107 104 101 99 98 96 95 94 94 94 93 91 90 88 85 82 80 81 81 81 79 78 75 71 66 62 60 63 64 59 55 55 58 63 66 64 58 53 51 50 48 46 45 46 46 45 44 43 43 42 41 40 39 35 30 27 28 29 27 26 26 25
112 111 108 105 103 102 99 97 96 96 95 95 94 93 92 91 88 85 84 85 86 85 85 83 79 72 67 66 68 68 64 61 60 61 64 66 63 58 55 51 47 43 42 44 48 50 48 46 45 45 44 44 42 40 37 32 30 31 32 32 31 30 28
114 113 111 108 107 105 103 100 98 98 97 97 97 96 95 94 94 91 88 87 88 88 88 87 84 77 72 71 72 71 68 66 65 65 65 64 63 60 57 53 49 47 46 47 50 51 50 48 46 45 45 45 43 40 38 35 33 35 36 35 34 32 30
117 115 113 111 110 108 107 104 102 100 100 99 99 99 98 97 97 97 94 91 89 90 90 90 86 81 77 74 75 76 75 72 70 68 66 65 65 62 58 56 55 54 51 49 49 50 51 50 48 47 46 45 43 41 39 38 38 40 38 35 34 34 33
119 117 115 113 112 111 110 108 106 103 102 102 101 101 101 100 100 99 99 96 93 92 92 91 89 86 82 79 78 79 79 78 75 73 71 69 67 65 64 64 62 58 53 51 51 52 53 52 50 49 48 46 44 43 41 41 43 43 39 36 35 36 35
120 119 117 115 114 113 113 112 110 107 105 104 104 104 103 103 102 101 101 100 97 95 94 94 93 91 89 85 82 81 81 80 79 78 77 75 73 70 69 68 66 61 58 56 55 55 54 53 52 52 50 48 46 45 44 44 46 44 40 38 37 37 36
121 120 119 117 115 114 115 115 114 111 109 107 107 106 106 105 104 103 103 102 101 99 97 96 96 96 95 90 86 84 83 83 83 83 82 81 79 77 74 71 67 64 62 60 59 58 57 55 54 53 51 50 49 48 47 47 48 46 43 40 38 37 38

ECMWFFLT1_250_spd_081.txt.gz
Wind_Speed
31 29 26 24 23 22 21 21 22 24 25 26 27 28 29 29 27 26 25 23 20 16 13 12 14 17 19 20 21 22 23 24 23 21 18 15 14 13 11 9 8 7 6 5 3 3 4 4 5 7 7 8 9 10 11 12 13 14 15 15 16 16 16
31 27 25 24 23 21 20 20 21 23 25 26 28 29 30 29 28 27 26 24 21 18 15 13 13 17 19 18 18 18 18 20 21 20 18 17 15 13 12 10 10 8 7 5 4 3 3 3 4 5 6 7 8 9 10 11 12 13 14 14 15 15 15
32 29 26 24 23 22 21 21 21 22 24 26 29 30 30 30 28 27 26 25 23 20 17 14 13 16 18 18 17 16 16 18 19 18 18 17 16 14 14 12 10 9 8 7 5 4 3 3 3 3 4 5 6 7 9 10 11 12 13 13 14 14 15
34 32 29 27 26 25 24 24 23 23 24 26 29 29 29 30 29 28 28 27 25 22 18 15 14 15 17 18 17 17 17 17 18 18 19 18 17 16 15 13 10 9 9 9 7 5 4 4 3 2 2 4 5 6 7 8 9 10 11 12 13 13 14
38 35 33 31 29 27 26 24 23 22 22 24 26 28 29 30 31 31 30 29 27 24 20 17 17 17 17 18 18 18 18 18 19 20 20 19 18 16 16 14 11 10 10 9 8 7 5 4 3 2 1 2 3 4 6 7 8 9 10 11 12 13 14
41 39 37 35 32 29 26 24 22 21 21 21 23 26 28 30 31 32 31 29 27 25 22 20 19 18 17 18 19 19 20 20 21 21 21 20 18 17 16 15 13 12 10 9 9 7 6 5 4 3 1 1 2 3 4 5 7 8 9 10 11 13 14
45 43 41 38 35 32 28 25 22 21 21 21 21 24 28 29 30 32 31 29 27 26 23 21 19 18 17 18 19 20 21 22 23 23 22 21 19 17 16 16 15 13 11 9 9 8 7 6 5 4 3 2 1 0 2 3 5 7 8 10 11 12 13
48 47 44 41 38 35 31 28 26 24 23 22 21 23 26 29 30 32 32 29 28 27 24 21 19 17 16 17 19 20 20 21 23 24 24 22 20 19 18 16 16 14 12 10 9 8 8 7 7 6 5 4 3 1 1 3 4 6 8 10 11 13 13
52 50 47 44 41 38 35 32 30 27 26 24 23 23 25 29 31 33 33 29 27 27 24 21 19 17 16 17 18 19 20 20 22 23 24 24 22 21 19 17 17 16 14 12 11 10 9 8 8 7 6 5 4 4 3 4 6 7 9 11 12 13 14
55 53 51 48 45 42 38 36 33 31 28 27 25 25 26 30 32 34 33 30 28 26 24 21 19 18 17 17 17 18 20 21 21 22 23 23 22 21 20 19 19 18 16 15 14 13 11 10 9 8 7 7 6 6 6 7 8 9 10 12 12 13 14
58 56 53 51 48 45 42 39 37 34 31 29 28 27 28 31 34 35 35 33 29 26 24 22 20 19 18 18 17 19 21 22 22 22 22 21 20 20 19 19 19 19 18 17 16 15 14 12 11 10 9 8 8 8 9 9 10 11 12 13 13 13 13
61 58 56 54 51 48 45 43 40 37 35 32 30 29 29 31 34 36 36 34 30 27 25 24 22 20 19 19 19 20 21 22 23 23 22 21 20 19 19 18 19 19 18 18 17 17 16 14 13 12 11 11 11 11 11 12 13 13 14 14 14 13 13
63 61 59 56 54 51 48 46 44 41 38 35 33 31 30 31 34 36 36 35 32 28 27 26 24 22 21 20 21 21 22 23 24 24 22 21 21 20 20 19 19 19 18 18 18 18 17 16 14 13 13 14 14 14 14 14 14 14 14 14 14 14 13
65 63 61 59 57 55 52 49 47 44 41 38 36 33 32 32 34 36 37 36 33 30 28 27 26 24 22 21 22 23 23 23 23 23 22 22 22 22 22 21 20 19 18 18 19 18 18 17 16 15 16 17 17 16 16 15 14 14 14 14 14 14 13
67 66 64 62 59 57 55 53 50 48 44 41 39 36 34 33 34 36 37 37 36 34 31 29 29 27 25 23 23 24 23 22 21 20 21 21 22 23 24 23 22 20 20 20 20 19 18 18 17 17 18 18 18 18 17 16 15 14 14 14 14 14 14
70 68 66 64 62 60 58 56 54 51 48 45 42 40 37 35 36 37 38 38 38 37 35 32 30 30 28 26 26 25 24 22 21 20 20 21 23 24 24 24 23 23 23 23 22 21 20 19 19 19 19 18 19 19 18 17 15 14 14 14 14 14 13
72 70 69 67 65 63 61 59 57 55 51 48 45 43 40 38 37 39 40 40 39 38 37 34 32 32 32 30 28 27 25 24 23 22 22 23 24 24 25 25 25 25 25 25 24 23 22 21 21 20 19 19 18 18 18 16 14 13 14 14 13 13 13
74 73 71 69 67 65 63 62 60 58 55 52 49 46 44 41 39 41 42 41 41 40 39 37 35 34 34 33 31 29 28 27 27 26 25 26 26 26 27 26 26 26 26 27 26 25 24 23 23 21 20 19 18 18 17 15 14 13 14 13 13 13 13
77 75 73 72 70 68 66 64 63 61 58 55 52 50 47 44 42 42 43 43 42 42 41 40 38 36 35 34 32 31 30 29 28 27 27 27 27 27 27 27 27 27 27 27 26 25 25 24 23 22 20 19 18 17 15 14 13 13 13 13 13 13 13
79 77 75 74 72 70 68 66 65 63 61 59 56 53 50 48 46 45 45 45 43 43 43 42 39 37 35 34 33 31 29 28 27 26 25 24 23 23 23 24 24 24 23 23 23 24 24 24 23 22 21 19 18 16 15 14 12 12 13 13 13 13 14
82 80 78 76 74 72 70 69 67 66 64 62 59 56 54 52 49 47 47 47 45 43 43 42 40 37 35 35 34 33 30 28 28 27 25 22 19 19 20 21 21 20 19 18 19 20 21 21 21 21 21 19 17 16 16 14 13 13 14 14 14 14 16
84 82 80 78 76 75 73 71 69 68 66 65 62 59 57 55 52 50 49 49 48 44 42 41 40 37 35 35 35 35 33 32 31 29 26 23 20 19 19 20 20 20 19 18 18 19 19 20 21 21 20 18 17 17 18 16 14 14 15 15 15 16 17
85 84 82 81 79 77 75 73 72 70 69 67 66 63 60 58 56 53 51 51 51 47 44 44 44 41 39 38 38 38 38 36 33 31 30 28 26 24 21 19 18 18 19 19 20 20 21 21 21 20 19 19 19 20 20 18 17 17 17 18 17 18 18
86 85 84 83 81 79 78 76 74 73 71 69 68 67 64 61 58 56 54 54 54 52 49 50 50 49 47 45 44 43 42 40 37 34 31 30 30 29 25 22 21 20 19 20 21 22 23 23 22 22 22 22 22 22 22 21 20 20 20 20 19 19 18
88 87 86 85 83 82 80 79 77 75 73 72 70 69 67 64 61 59 58 56 55 55 55 54 53 52 51 48 47 46 44 41 40 37 34 32 32 32 31 29 26 23 22 22 23 24 25 26 26 25 25 25 25 25 24 23 22 22 22 21 20 20 19
91 89 88 86 85 84 82 81 80 78 77 75 73 71 70 67 65 63 61 59 57 58 60 59 55 54 53 52 50 49 46 44 43 41 38 37 36 34 34 34 32 28 26 26 27 28 29 29 29 28 28 28 28 27 27 25 24 23 23 22 22 22 21
94 92 90 88 87 86 85 83 82 81 79 78 76 74 72 70 68 66 64 63 61 60 62 63 58 55 55 54 52 51 49 47 47 46 43 41 40 39 38 38 37 35 33 32 31 32 34 33 32 32 32 31 30 30 29 27 25 24 24 23 23 23 22
98 96 93 91 90 89 87 86 84 83 82 81 79 77 75 73 72 70 67 67 66 64 63 64 62 58 56 56 54 53 52 50 49 49 47 45 44 45 44 43 41 41 40 40 40 39 39 38 37 36 35 34 33 32 31 29 26 25 24 24 24 23 23
102 100 97 95 93 91 90 88 87 85 84 83 82 80 78 76 75 73 71 70 70 69 66 66 65 62 59 58 56 54 54 53 52 52 51 49 48 48 47 46 45 44 44 45 45 45 43 40 40 41 39 36 35 35 33 31 28 27 26 26 26 26 25
106 104 102 99 97 95 93 91 89 88 87 86 85 83 81 79 77 77 75 73 73 73 71 69 69 67 62 60 59 56 54 55 55 55 54 53 52 51 49 47 46 46 46 47 46 45 43 41 43 45 43 40 39 38 37 35 33 31 30 28 28 29 29
109 108 106 104 101 98 96 94 92 90 89 88 87 86 84 83 80 79 79 77 76 76 74 72 72 71 66 63 63 60 57 56 57 57 58 57 56 55 52 50 48 48 47 47 45 43 43 45 48 49 47 45 43 42 40 39 37 36 34 33 31 31 31
112 111 110 108 105 102 100 98 95 93 91 90 90 89 87 86 84 82 81 81 79 79 77 75 75 75 71 65 65 65 63 61 58 58 60 60 59 58 56 53 52 51 50 48 46 46 47 48 50 50 50 49 47 45 43 40 38 37 37 36 35 33 32
114 114 113 111 109 106 104 102 99 97 94 93 92 91 90 88 87 85 84 83 82 81 80 78 77 78 76 69 67 69 69 65 62 61 62 63 62 60 58 56 56 55 54 52 50 50 51 52 51 52 52 52 50 48 45 42 40 39 38 37 37 36 33
117 116 115 114 113 110 107 105 103 101 98 96 94 93 92 91 90 88 86 85 84 84 83 82 79 80 79 74 71 71 71 69 67 66 65 65 64 61 59 58 59 59 59 56 52 52 54 55 54 54 55 55 53 50 48 45 43 42 41 39 37 37 36
119 118 118 117 116 114 111 109 107 105 102 99 97 96 95 94 93 91 90 87 86 86 86 85 83 82 81 79 76 75 74 72 71 70 69 68 66 63 60 59 60 62 62 59 54 52 54 56 56 56 57 56 54 52 50 48 47 46 43 39 37 38 40
121 120 119 119 118 117 114 112 110 108 106 104 100 98 97 97 95 94 93 91 89 88 88 88 86 84 83 84 83 80 78 76 75 74 73 71 69 66 63 61 62 63 64 62 60 58 58 59 59 58 57 56 56 55 54 53 51 48 44 42 41 42 42
122 121 121 120 120 119 117 115 113 112 109 108 105 102 100 99 98 96 95 94 92 90 90 90 90 87 85 87 88 86 82 79 78 78 77 75 73 70 67 65 65 66 66 65 63 61 62 63 62 60 57 56 57 58 58 58 56 51 47 45 44 43 43
123 123 122 121 121 120 119 118 116 114 113 111 109 105 103 102 101 99 98 97 95 93 92 92 92 91 89 88 91 91 87 83 81 80 80 78 76 74 71 69 69 68 67 67 66 63 61 62 63 61 58 56 56 56 56 58 58 55 50 46 44 43 43

ECMWFFLT1_250_spd_084.txt.gz
Wind_Speed
37 36 35 34 33 31 28 28 29 30 29 28 28 28 28 28 28 28 27 26 24 23 22 20 17 17 19 24 27 28 26 25 23 21 20 18 15 13 10 8 6 4 4 4 4 6 7 8 9 10 11 12 13 13 14 14 14 14 14 15 15 16 16
36 34 34 33 32 31 29 27 27 27 28 29 29 29 29 29 29 28 27 26 25 24 24 22 19 18 19 22 26 28 28 27 26 24 22 19 16 14 12 10 7 6 6 5 5 6 7 8 8 8 9 10 11 12 12 12 12 12 12 13 14 14 15
36 34 33 32 31 30 29 28 28 27 27 28 29 28 28 28 29 28 26 25 25 25 25 23 21 19 19 21 24 26 27 26 25 23 20 18 16 15 14 12 9 8 7 7 6 6 7 8 7 7 8 8 8 9 10 10 10 10 11 11 12 13 13
37 35 33 32 30 29 28 27 27 27 27 28 28 28 27 27 27 27 26 26 26 26 26 24 22 21 20 20 22 24 25 24 22 20 18 18 18 17 15 14 11 9 8 8 7 6 7 7 7 7 7 6 6 6 7 8 8 8 9 10 11 11 12
40 37 35 33 31 30 29 27 25 25 26 27 27 28 27 27 27 27 27 27 28 27 26 25 24 22 20 19 21 23 23 23 21 19 19 19 19 18 17 15 13 11 10 9 8 7 6 7 7 7 6 6 5 5 5 6 6 7 7 8 9 10 11
43 40 37 35 33 32 29 27 25 25 25 25 27 28 27 27 27 27 27 28 29 28 27 26 25 23 21 20 21 22 23 23 22 20 20 21 20 19 17 16 14 13 11 10 9 8 6 6 6 6 6 6 4 4 3 3 4 4 5 7 8 9 10
46 43 40 38 35 33 30 29 27 26 24 24 26 28 29 29 28 28 27 29 30 30 28 27 25 23 21 20 21 21 22 23 22 22 22 22 21 20 18 17 16 15 13 11 10 9 8 7 7 7 7 6 5 4 2 1 2 3 5 7 9 10 11
49 47 44 41 38 35 33 31 30 28 26 26 27 28 28 29 29 29 30 30 31 31 30 28 26 24 22 20 20 21 21 22 23 23 24 23 23 22 20 18 17 16 14 12 11 10 9 8 8 7 7 6 5 4 3 1 1 4 6 8 10 11 12
52 50 47 44 41 39 37 35 33 31 30 29 28 27 27 27 28 29 30 31 32 32 32 30 26 24 22 21 21 21 21 22 23 24 25 25 24 24 22 20 18 17 16 14 13 12 11 10 9 8 7 7 6 5 4 3 3 4 6 8 10 12 12
54 52 50 47 45 42 40 38 36 34 33 31 30 28 27 27 27 29 31 33 34 33 32 30 28 25 24 23 22 22 23 23 23 24 25 25 25 25 24 22 21 19 17 16 15 13 12 12 10 9 8 7 7 6 5 4 4 5 7 9 10 11 12
57 55 53 51 48 46 43 41 39 38 36 34 32 30 29 28 28 29 31 34 36 34 31 30 30 28 26 24 23 23 25 25 25 25 25 24 24 25 24 23 23 21 19 19 17 16 14 13 12 10 9 8 8 7 6 5 6 7 8 9 10 11 12
60 58 56 54 51 49 47 44 42 40 38 37 35 33 30 29 28 29 31 34 37 35 30 30 31 29 27 26 25 25 26 27 27 27 26 25 24 24 24 23 23 22 21 20 19 18 17 16 14 12 10 9 9 8 8 7 7 8 8 9 10 10 11
63 61 59 56 54 53 50 48 46 43 41 39 37 36 33 31 29 29 30 34 38 38 33 30 31 31 30 28 27 27 28 29 29 29 27 26 25 25 24 24 23 22 21 21 21 20 20 18 17 15 13 12 11 10 10 10 9 9 9 9 9 10 11
66 64 62 59 57 55 53 51 49 46 44 42 40 39 36 34 31 30 30 33 38 41 38 33 32 32 31 31 30 30 30 30 31 31 30 28 27 27 27 26 25 24 23 22 22 22 21 20 19 17 16 15 13 12 12 11 11 10 10 9 9 9 10
68 67 65 62 60 58 56 54 52 50 48 45 44 41 39 37 34 32 31 32 37 42 41 36 33 32 31 32 32 32 31 31 32 32 32 31 30 30 30 29 27 26 24 24 23 22 22 22 21 20 19 18 16 15 15 14 13 11 10 9 8 9 10
71 70 68 66 63 61 59 57 55 53 51 49 47 45 43 41 38 35 33 32 35 41 43 39 35 33 32 32 34 33 32 31 32 33 34 34 34 33 32 31 30 28 27 26 24 24 23 22 22 22 21 20 19 18 17 16 14 12 11 9 8 8 9
75 73 72 70 67 64 61 59 58 56 54 52 50 48 46 44 42 39 36 34 36 41 44 42 39 36 34 34 35 34 33 32 32 33 34 35 36 35 35 34 32 31 30 29 27 26 25 25 24 24 23 22 21 21 19 18 15 13 11 10 9 9 9
78 76 75 73 70 67 64 62 60 59 57 55 53 51 49 47 45 42 39 37 37 41 45 45 42 39 38 36 35 34 34 34 32 31 33 35 36 37 37 36 35 33 32 31 30 29 28 27 27 26 24 23 23 22 21 19 16 14 13 12 11 10 10
81 79 78 76 74 71 68 65 63 61 59 58 56 54 52 50 48 45 42 40 40 42 45 46 45 42 41 39 36 36 35 35 33 32 32 34 35 37 37 37 36 35 34 33 32 31 30 29 29 27 25 24 24 23 22 20 17 16 15 14 13 12 12
85 83 81 79 77 74 71 69 66 64 62 60 58 57 55 53 51 49 46 44 42 43 46 47 46 44 44 41 38 37 36 35 35 34 33 33 34 36 38 38 39 38 37 35 33 32 32 31 29 28 26 24 24 23 22 21 19 18 17 16 15 14 14
88 86 84 82 79 77 74 71 69 67 65 63 61 60 58 56 54 52 49 47 45 45 47 48 46 45 45 43 41 39 37 37 37 36 34 33 33 35 36 38 39 39 39 37 36 35 34 32 30 29 27 25 24 23 23 22 20 19 18 18 17 16 16
90 88 86 84 82 79 77 74 72 70 68 66 65 63 62 60 57 55 53 51 49 47 48 50 49 46 44 43 42 41 39 38 39 38 36 34 34 34 35 37 38 38 37 37 37 36 35 34 32 31 28 26 24 23 23 23 21 21 21 20 19 18 18
92 90 88 86 84 82 80 77 75 73 71 70 68 66 64 63 61 58 56 54 53 50 49 52 51 46 41 42 44 44 43 42 43 42 40 38 37 36 36 37 38 37 36 36 36 36 35 35 34 32 29 27 25 25 25 24 23 22 22 22 21 21 21
93 91 90 88 86 84 82 80 78 75 74 73 71 69 68 67 65 63 60 58 56 54 52 53 52 47 44 46 48 48 47 47 45 44 43 42 40 38 37 37 37 36 35 34 34 34 33 33 32 31 29 27 27 27 26 25 24 24 24 24 23 23 21
95 93 91 90 88 86 84 82 80 78 77 75 74 73 71 69 67 66 63 60 59 57 55 54 55 53 52 53 52 50 49 48 47 45 45 44 42 40 37 37 37 37 36 34 33 31 30 29 29 28 27 27 27 27 27 26 26 25 25 25 24 23 21
97 95 93 91 90 88 86 85 83 81 79 78 77 76 74 72 70 69 66 64 62 61 59 57 58 59 58 57 55 53 51 51 49 47 47 47 45 42 39 38 39 39 38 35 32 30 29 28 27 27 26 26 27 27 27 27 27 26 26 25 24 24 22
99 98 96 94 92 90 88 87 85 83 82 81 80 78 76 74 73 72 70 67 65 64 63 61 61 62 62 60 58 56 55 55 54 52 50 48 46 44 42 41 41 41 39 36 33 31 30 29 28 27 26 25 25 25 26 27 27 26 26 25 24 24 22
102 101 99 97 95 93 92 90 88 86 84 83 82 81 79 77 76 74 73 70 69 68 67 67 65 65 65 64 62 59 57 57 57 55 53 51 49 47 45 44 44 43 42 40 38 35 33 32 30 29 28 27 26 26 27 27 26 25 25 24 24 24 23
105 104 103 101 99 97 95 93 91 89 87 86 84 83 81 79 78 77 75 74 72 71 71 71 69 67 68 68 65 62 60 60 59 57 55 54 53 51 50 49 47 46 46 45 43 40 37 36 34 33 31 31 30 29 29 28 27 26 25 25 24 24 24
108 107 106 105 103 100 98 96 95 92 90 89 87 85 84 82 81 79 78 77 75 73 73 73 72 71 70 70 70 68 65 64 63 60 58 58 56 53 53 52 50 48 48 47 45 44 42 40 38 37 35 34 34 33 32 30 29 28 26 26 25 24 25
112 110 109 108 107 104 101 100 98 96 94 91 89 88 87 85 83 82 81 80 78 76 76 76 76 74 73 72 74 74 70 66 65 64 63 61 59 56 55 55 53 50 49 48 47 47 45 43 42 41 40 39 38 36 35 33 31 29 28 27 26 25 26
115 114 113 111 110 108 106 103 101 100 97 95 93 91 89 88 86 85 83 82 81 79 79 78 78 78 76 75 76 77 74 69 68 67 66 64 62 59 57 57 56 54 52 51 51 49 48 46 45 44 44 43 42 41 40 36 33 32 31 29 28 27 27
117 117 116 115 113 112 110 107 105 103 101 99 96 94 92 90 89 87 86 85 84 82 81 80 80 81 80 78 78 78 77 74 71 69 67 67 66 63 61 60 59 58 56 55 55 53 51 50 49 48 46 45 45 45 43 40 38 35 33 32 31 28 28
118 118 118 117 116 115 113 111 109 107 105 103 100 98 95 93 91 90 89 87 86 85 84 83 83 83 83 82 80 79 79 78 75 71 69 68 68 67 65 63 62 61 61 60 58 57 55 53 52 51 50 48 46 46 45 45 43 39 34 34 33 30 30
120 120 119 119 119 118 117 115 113 111 109 106 104 102 99 97 95 93 92 90 89 88 87 85 85 85 85 85 84 82 81 81 79 75 71 70 70 68 67 66 65 63 63 63 62 60 57 55 54 54 53 50 49 48 48 48 46 42 39 38 34 30 31
122 121 121 121 120 120 120 119 117 115 113 111 108 106 103 101 98 96 94 93 92 90 89 88 87 87 87 87 87 85 83 82 81 79 76 73 72 70 69 69 68 66 65 66 65 63 60 58 57 57 56 53 52 52 51 50 48 46 44 41 35 32 33
123 123 123 122 122 122 122 122 121 119 117 115 113 110 107 105 102 100 98 96 95 93 92 91 90 89 89 89 89 89 86 83 83 84 82 78 75 75 74 73 72 69 68 68 67 66 64 62 61 60 59 57 56 56 55 53 53 52 49 45 41 38 38
123 124 124 124 124 124 124 124 124 123 121 119 117 114 111 108 106 104 102 100 98 96 95 93 92 92 91 91 91 91 90 87 85 86 86 83 79 78 77 76 75 74 73 71 70 69 67 65 64 63 62 60 59 59 58 57 56 55 53 51 49 47 46

ECMWFFLT1_250_spd_087.txt.gz
Wind_Speed
44 34 31 32 34 37 38 38 36 35 32 27 28 31 31 30 29 27 27 27 26 27 26 24 21 18 18 19 19 21 21 21 20 18 16 12 10 8 6 5 4 4 5 5 5 7 7 7 8 9 9 9 9 9 10 11 12 12 12 13 13 12 13
51 46 43 42 44 46 44 40 36 34 29 25 26 29 29 29 29 28 27 27 27 27 27 25 22 19 20 21 21 22 23 23 22 21 19 15 13 12 9 7 6 6 6 6 6 7 8 8 8 8 8 8 7 7 7 8 9 10 10 10 10 10 10
54 53 50 48 47 46 42 37 34 32 28 26 29 29 27 27 28 28 27 27 27 28 28 27 23 21 22 23 23 23 24 24 24 23 21 18 17 15 12 9 9 9 8 8 8 9 9 9 8 8 8 7 7 6 5 6 6 7 9 9 9 9 8
54 53 52 49 45 40 35 34 33 29 27 28 30 28 26 27 28 27 26 26 29 30 29 27 24 22 23 24 24 24 24 25 24 24 23 21 20 17 14 12 11 11 10 10 10 10 10 10 9 8 8 7 6 5 4 3 4 5 7 8 9 8 8
53 52 51 50 47 41 35 30 28 27 26 26 27 26 26 28 29 28 27 28 30 30 28 26 25 25 25 25 25 25 24 24 25 25 25 24 22 19 16 14 13 14 12 11 11 11 11 11 10 9 8 7 6 4 3 2 2 4 6 8 9 9 8
52 50 50 49 47 44 39 29 25 27 26 22 24 25 25 28 29 29 29 29 27 27 28 29 28 27 27 26 26 25 24 24 25 25 25 25 23 20 18 16 16 16 14 13 13 12 12 12 11 10 9 8 6 5 3 2 1 3 6 7 8 9 9
51 50 48 47 46 45 44 40 35 33 28 21 23 27 27 29 30 29 29 27 24 25 28 30 30 29 28 28 27 26 25 24 24 24 25 25 24 22 20 18 18 18 16 14 14 14 13 13 12 12 11 10 8 6 5 3 0 3 5 6 7 8 8
52 50 47 46 45 44 44 43 42 41 37 29 24 27 29 29 29 29 28 25 22 23 25 27 30 31 30 29 28 27 26 24 23 24 25 25 25 23 22 20 20 20 18 16 15 15 14 14 13 13 12 11 9 8 7 5 2 1 4 5 6 7 7
53 51 48 46 45 45 43 42 43 44 43 36 30 31 32 32 32 30 27 23 18 17 20 27 33 33 32 31 30 28 27 26 25 24 24 26 26 25 24 22 22 21 20 18 16 16 15 15 14 14 13 12 10 9 8 6 4 1 2 4 5 6 6
55 53 50 48 46 45 44 43 44 46 46 42 40 40 38 37 36 31 26 22 15 13 19 29 35 34 33 33 31 30 29 27 26 25 25 26 27 26 25 24 23 22 21 20 18 17 16 16 15 14 13 12 11 11 10 8 6 3 2 3 5 6 6
58 56 53 50 48 46 45 45 45 47 48 46 42 40 39 38 35 31 28 25 19 17 22 31 38 35 33 34 33 32 31 29 27 26 25 26 26 27 26 25 25 23 22 21 20 19 18 17 16 15 14 13 13 13 12 10 7 5 4 3 4 5 6
61 59 56 54 51 48 47 46 46 48 49 47 43 40 39 36 33 30 29 28 25 24 29 34 39 36 32 34 35 35 33 31 28 27 26 26 26 27 27 27 26 25 23 23 22 21 20 19 18 17 16 15 14 14 13 11 9 7 6 5 5 5 5
64 62 60 57 54 52 49 48 48 49 49 47 45 43 43 39 34 31 30 28 26 29 34 36 37 36 34 34 36 36 34 32 30 28 27 27 26 26 27 27 27 26 25 24 24 23 22 21 20 19 18 17 16 15 15 13 11 9 7 7 7 7 7
67 65 62 60 58 55 53 50 49 50 50 48 46 46 48 44 37 31 30 29 29 32 37 38 37 38 38 36 35 36 35 33 31 28 27 28 28 28 28 28 28 27 26 26 25 25 24 23 22 21 20 19 18 17 16 15 13 11 9 9 8 8 8
70 67 66 63 61 59 56 53 51 51 51 51 49 49 51 49 41 34 32 34 36 38 41 43 44 44 42 37 34 33 33 33 31 29 28 28 29 29 30 30 29 29 28 27 26 25 25 25 24 23 22 22 20 19 18 16 14 12 11 10 10 10 10
73 71 69 67 64 62 60 57 55 52 52 52 52 51 52 52 48 43 41 39 40 42 44 45 46 45 41 38 34 31 30 31 31 30 28 28 28 30 30 30 31 30 29 29 27 26 25 25 25 24 24 23 22 21 19 18 16 14 13 12 12 12 12
76 75 73 70 68 66 64 61 58 56 54 54 54 53 53 53 51 50 49 45 41 42 45 45 44 43 41 39 36 33 30 29 30 30 29 27 27 29 31 31 32 32 32 31 30 28 27 27 26 26 25 25 24 23 22 20 19 17 15 15 14 14 14
80 78 76 74 72 70 68 65 62 60 57 55 55 55 55 55 54 53 53 50 44 42 43 44 43 44 43 40 38 35 31 28 28 29 28 27 27 27 29 31 32 33 33 33 33 31 30 29 29 28 27 27 26 26 25 23 22 20 18 17 17 16 16
83 82 80 78 76 74 71 69 66 64 61 58 57 57 57 57 56 55 54 53 50 46 43 43 44 46 45 40 37 36 33 29 29 30 28 27 27 26 27 30 33 34 35 35 34 34 33 33 32 31 30 29 29 29 27 26 25 23 21 20 19 19 18
86 85 83 81 80 77 75 73 70 67 65 62 60 59 59 59 58 58 56 55 53 50 47 46 46 46 45 41 38 38 35 32 33 33 29 27 28 26 26 29 32 35 36 36 35 36 37 36 35 34 33 32 32 32 30 29 28 26 24 22 22 21 21
89 88 86 85 83 81 78 76 73 71 68 66 63 61 61 60 60 60 59 57 55 53 50 48 47 47 49 47 44 41 37 34 33 34 32 30 30 29 28 29 32 34 36 38 38 38 38 38 37 36 36 35 34 34 32 31 30 29 26 25 24 24 23
92 90 89 87 86 84 82 79 76 74 72 69 66 64 63 62 61 61 61 60 57 55 52 50 48 49 53 53 49 45 42 39 37 36 36 37 38 36 34 33 33 35 36 38 40 41 41 40 39 38 37 37 36 35 34 33 32 30 28 26 26 25 25
94 93 91 90 88 86 84 82 80 77 75 72 70 67 65 64 63 62 62 62 60 57 55 52 49 49 52 53 52 50 48 45 43 42 41 42 44 44 42 41 38 37 36 38 40 42 44 44 43 41 40 39 38 37 36 34 33 32 30 28 27 27 27
96 95 94 92 91 89 87 86 83 80 78 76 73 71 68 66 65 64 64 63 62 60 57 55 52 50 51 52 52 54 54 50 48 47 44 44 47 48 47 46 43 41 38 37 40 42 45 46 46 45 43 42 41 40 38 36 35 34 32 30 29 29 29
98 97 96 95 93 92 91 89 87 84 82 79 77 74 71 69 67 66 65 65 64 63 60 58 56 54 53 52 52 56 58 54 52 51 48 46 47 48 48 47 45 42 39 38 39 41 43 46 47 46 45 44 43 41 40 39 37 35 34 32 31 31 30
100 99 99 98 97 95 94 92 90 88 85 83 80 78 75 72 70 69 68 67 66 65 63 61 59 58 56 54 54 55 56 56 54 53 51 49 47 47 48 48 46 42 39 38 39 40 43 46 47 46 46 45 43 41 40 40 37 36 35 34 32 31 30
101 101 100 99 99 98 97 95 93 91 89 86 84 81 79 76 74 71 70 69 68 67 66 64 63 62 59 59 59 56 55 57 58 55 54 53 50 48 48 48 48 46 43 41 42 44 47 49 48 47 46 45 43 41 41 40 38 36 35 34 32 31 30
103 102 101 100 100 99 98 97 96 94 92 89 87 85 82 80 77 75 73 72 71 70 69 67 66 65 63 63 63 60 56 57 57 56 57 56 54 51 48 47 48 49 46 45 47 50 51 50 49 49 48 46 45 43 42 41 39 37 36 35 33 32 31
105 105 104 103 102 101 99 99 98 96 94 92 90 87 85 83 81 78 76 75 73 72 72 70 69 68 68 67 65 62 60 59 56 54 56 56 54 53 50 47 48 48 48 50 51 52 50 50 50 51 49 48 47 45 44 42 39 37 36 35 34 33 32
108 107 106 105 104 102 101 101 99 98 97 95 92 90 88 85 83 81 79 77 76 75 74 73 72 71 71 71 69 65 65 65 61 55 55 57 56 54 53 53 51 50 52 53 52 50 49 51 52 52 50 49 47 46 44 42 39 36 35 35 34 33 32
111 110 109 108 107 105 104 103 101 100 99 97 95 93 91 88 86 84 82 80 79 78 77 76 75 74 73 74 74 70 68 70 68 62 58 60 62 61 61 61 59 56 54 54 52 50 50 52 53 53 51 50 48 46 44 41 37 35 34 34 33 32 32
114 113 112 111 109 108 107 106 104 102 101 99 98 96 94 91 89 87 85 83 82 81 80 79 78 77 76 76 77 76 72 73 74 71 65 63 65 66 66 66 66 63 58 53 51 51 51 53 54 53 51 50 48 45 42 40 36 34 33 32 32 33 33
118 117 115 114 112 111 110 109 107 105 104 102 101 99 97 94 92 91 88 86 85 83 82 82 81 80 79 78 79 79 78 77 77 76 72 68 66 67 68 68 69 70 66 59 55 55 54 55 55 54 52 51 49 45 42 39 35 31 30 32 34 34 32
120 120 119 117 116 114 113 112 110 109 107 106 104 102 100 98 96 94 92 90 88 86 85 85 84 83 82 81 81 82 82 81 80 79 78 74 69 68 70 72 72 71 70 68 64 61 59 57 57 57 56 54 51 47 43 40 36 34 36 41 44 42 38
122 122 122 121 119 118 116 115 114 112 111 109 107 105 104 102 100 97 95 93 91 90 88 87 87 86 85 84 84 84 84 84 83 82 82 81 76 72 72 73 73 72 73 71 68 65 63 61 59 59 58 57 55 53 49 46 46 49 52 54 54 50 45
123 123 123 123 122 121 119 118 117 116 114 113 111 109 107 105 103 101 99 97 95 93 92 90 90 89 88 87 86 86 86 87 87 85 84 85 84 81 77 74 73 74 76 74 70 67 66 65 63 61 60 60 59 58 55 53 55 58 59 58 55 52 48
124 124 124 124 124 123 123 121 120 119 118 117 115 113 111 109 107 105 103 101 99 97 95 94 93 92 91 90 89 89 88 89 89 89 87 86 87 87 84 80 77 76 77 76 73 70 68 67 66 64 62 62 62 61 59 58 58 58 58 57 56 53 51
126 125 125 124 124 124 124 124 123 122 122 120 119 117 115 113 111 109 108 106 104 101 99 98 96 95 94 93 92 91 91 91 91 91 91 90 89 88 88 86 83 81 79 78 77 74 71 70 69 68 66 65 65 64 63 61 61 60 59 57 56 55 54

ECMWFFLT1_250_spd_093.txt.gz
Wind_Speed
48 47 45 41 37 34 31 29 27 23 20 21 22 20 18 18 18 16 16 15 15 16 17 18 18 16 14 14 14 15 14 12 10 11 11 10 8 6 3 1 1 1 1 1 0 1 2 2 3 3 4 5 7 9 11 12 14 15 15 15 15 14 14
52 50 48 45 42 38 35 31 27 25 24 23 23 23 21 22 21 18 18 17 17 18 18 18 18 17 15 14 15 16 17 15 12 12 13 13 12 10 7 4 2 1 1 2 2 2 2 2 2 2 2 3 5 7 9 10 12 13 14 14 14 14 13
57 55 53 50 47 41 36 32 29 27 26 25 24 24 24 24 22 19 18 18 18 20 19 18 18 17 14 13 14 16 19 18 14 13 14 15 15 14 11 8 6 4 3 3 3 4 4 4 3 2 1 1 3 5 6 8 10 11 12 12 13 13 13
60 58 55 52 49 44 38 35 32 28 25 24 24 25 25 23 21 20 18 18 19 20 20 19 18 16 12 11 13 15 18 19 17 15 15 16 17 16 14 12 10 8 6 5 5 6 6 6 6 4 3 1 1 2 4 5 7 8 10 11 12 12 13
63 60 58 55 51 47 43 39 35 28 25 27 29 28 24 21 21 21 19 18 19 21 22 22 19 15 12 10 11 13 16 20 19 17 16 16 17 18 17 15 13 12 10 8 7 8 8 8 8 7 6 4 3 1 1 2 4 6 7 9 10 11 12
65 62 61 58 54 49 45 40 36 32 31 31 31 26 21 21 21 18 16 16 17 20 22 23 20 17 15 13 12 12 15 18 20 19 18 17 17 18 19 18 16 15 14 12 11 10 11 11 10 10 9 8 6 4 2 1 1 3 5 7 8 9 10
65 63 60 58 56 51 44 38 37 39 38 32 28 24 21 20 18 16 15 16 17 20 22 23 21 20 18 16 15 15 16 17 20 21 20 18 18 19 20 20 19 18 16 15 14 13 13 14 13 12 12 11 9 8 6 4 3 1 2 4 6 7 8
66 65 62 59 57 52 48 44 41 42 41 34 30 29 26 22 20 19 20 19 19 21 23 23 23 22 21 18 18 18 16 16 18 20 21 20 19 19 19 20 20 20 19 18 18 17 16 16 15 15 14 13 12 10 9 7 6 4 2 2 3 5 6
64 64 62 61 58 54 52 51 48 46 44 40 38 37 35 31 29 28 28 26 24 24 25 24 24 26 25 22 21 21 19 17 18 20 22 22 21 19 18 18 19 21 21 20 20 20 19 18 17 17 16 15 14 12 11 9 8 7 5 4 3 4 5
62 62 60 59 59 56 55 54 54 52 50 48 46 45 43 39 36 34 31 29 28 28 29 29 27 28 28 25 23 24 23 22 20 20 22 24 23 20 18 16 17 19 21 22 22 23 22 20 19 18 18 17 16 14 13 11 10 9 8 7 6 6 6
66 65 63 60 59 58 58 57 57 58 57 56 54 51 50 47 43 40 35 31 32 33 35 35 32 29 28 25 24 25 24 22 22 22 22 23 24 22 19 16 14 16 19 21 22 24 25 23 21 20 20 19 18 16 15 13 12 11 10 9 8 8 8
70 68 68 66 64 63 62 61 61 60 60 60 58 56 54 51 48 47 43 36 36 38 38 37 35 31 28 27 26 26 23 20 20 22 23 24 24 23 21 17 14 14 16 19 21 23 25 26 24 22 22 22 20 19 17 15 14 14 13 12 10 10 10
68 68 68 68 68 66 65 65 64 64 63 62 60 58 56 53 50 50 47 41 38 40 39 38 36 34 32 30 28 26 24 21 22 24 27 27 25 23 22 19 15 14 15 18 21 23 25 27 26 24 23 23 23 21 19 18 16 15 14 13 13 12 11
66 66 66 66 67 66 65 65 65 64 64 63 60 58 56 54 52 50 48 44 40 40 39 38 39 38 35 33 30 28 27 26 27 29 32 32 27 23 23 22 17 15 14 16 20 23 25 27 28 27 25 25 25 24 22 20 18 17 15 14 14 14 13
68 67 66 64 64 64 65 65 65 65 64 62 61 60 59 59 58 56 53 49 46 45 43 41 41 40 37 35 34 32 29 27 29 31 33 34 31 26 24 23 20 17 15 15 18 22 26 28 29 29 28 27 26 26 25 23 20 18 16 15 15 15 15
72 70 69 66 63 62 61 62 63 64 64 62 62 62 63 63 63 61 57 52 49 49 47 44 42 40 37 35 36 37 34 32 33 35 35 35 33 30 26 24 21 19 18 17 18 20 23 27 30 31 30 29 28 27 26 25 23 20 18 16 16 16 16
76 74 71 70 67 65 62 61 61 61 62 61 60 61 62 62 62 60 56 52 51 51 49 46 43 41 39 39 38 39 39 38 39 39 37 36 36 34 31 28 25 22 21 20 19 19 21 24 27 30 31 31 30 29 28 26 24 22 20 18 17 17 17
80 77 75 73 71 69 67 66 64 62 62 60 59 59 59 59 58 57 55 54 54 52 50 47 43 40 40 41 41 42 42 41 40 39 38 38 37 36 35 33 29 26 25 23 22 22 22 24 25 27 29 30 30 30 29 27 26 24 22 20 18 18 18
82 80 78 76 74 72 71 70 68 66 64 61 59 58 57 57 57 57 57 57 55 52 50 49 45 41 38 36 38 43 42 40 40 40 39 40 39 38 38 37 32 29 28 26 24 24 25 25 25 26 27 29 30 30 29 28 27 26 24 22 21 21 20
86 83 80 79 77 76 74 73 72 70 67 64 61 58 56 56 57 57 59 61 59 53 53 53 52 51 48 43 41 42 42 42 43 42 41 41 40 38 39 38 36 33 31 29 27 28 27 26 25 26 28 29 30 30 31 30 29 28 26 24 23 23 22
91 88 84 82 80 78 77 75 74 73 70 67 65 62 59 57 57 58 60 63 62 58 56 56 56 56 56 54 51 48 46 46 45 43 42 41 40 40 40 39 38 37 34 32 31 31 30 27 26 25 26 28 30 30 31 31 30 29 28 26 25 24 24
93 92 89 86 83 81 79 78 77 75 73 71 68 66 64 61 59 59 61 62 62 60 58 58 57 56 55 54 53 52 52 51 48 45 43 42 41 42 42 41 40 39 36 34 33 34 33 31 29 27 25 25 27 29 30 30 30 30 30 28 26 26 25
95 94 92 90 87 84 82 80 79 77 76 74 72 69 67 65 63 62 62 63 63 62 59 58 57 56 54 54 53 53 54 55 53 49 46 44 43 43 43 43 41 39 38 36 35 35 35 35 34 31 28 26 26 28 29 29 29 30 30 29 28 27 27
96 95 94 93 91 88 85 83 81 80 78 77 75 73 71 69 66 64 64 65 66 65 63 60 58 56 54 53 53 54 55 55 55 52 50 48 47 47 46 45 43 40 39 38 37 37 37 37 36 36 34 32 30 29 29 29 29 28 29 29 28 28 28
98 96 95 94 93 91 89 86 84 83 81 80 78 77 75 72 70 68 66 66 68 69 69 66 63 61 58 55 54 55 55 56 56 55 53 52 51 51 50 49 47 45 43 41 40 39 39 39 39 39 38 36 34 32 32 31 29 27 27 27 27 26 27
100 98 97 96 95 93 92 91 89 86 84 83 81 80 78 76 73 71 70 69 69 71 73 73 72 70 68 65 61 59 58 58 58 58 57 56 56 55 54 53 51 48 46 45 43 42 41 41 42 42 41 40 38 36 36 35 31 27 27 27 27 27 29
102 101 100 99 96 94 94 94 92 90 88 86 84 83 81 80 78 76 74 72 72 72 74 76 77 77 75 73 70 67 64 61 60 60 60 59 58 58 57 57 55 52 50 48 47 46 45 44 45 45 45 44 42 39 38 36 32 29 29 31 31 31 32
105 104 103 101 98 96 96 96 95 93 92 89 88 87 85 84 82 80 78 77 75 75 75 76 77 78 78 75 73 72 71 69 66 63 61 59 58 57 58 58 58 56 54 52 51 50 49 48 48 48 47 46 44 42 40 37 35 35 36 36 35 33 32
107 106 104 102 100 99 98 97 96 96 95 93 92 91 89 88 86 84 83 81 80 78 77 77 78 78 79 77 75 74 74 75 74 71 67 63 59 57 57 57 57 57 57 57 56 54 53 52 51 51 50 48 45 43 42 40 40 42 43 41 37 35 35
108 108 107 104 102 102 101 99 98 97 97 97 97 96 94 92 90 88 87 86 84 82 81 80 80 80 79 78 77 75 76 77 78 78 75 71 67 63 61 59 57 56 57 59 60 58 56 55 54 54 53 51 48 45 44 43 44 45 45 43 39 37 38
110 110 109 106 105 104 104 103 100 99 99 99 100 99 98 96 94 93 91 89 88 87 85 84 82 82 81 80 79 78 77 78 79 80 79 78 75 72 69 66 63 59 57 58 61 62 60 58 57 57 56 54 51 47 46 46 47 46 44 44 43 41 40
112 112 112 110 108 108 107 106 103 101 100 100 100 101 100 99 98 97 95 94 92 91 89 88 86 84 83 82 81 80 79 79 80 81 81 80 78 76 75 73 71 67 63 60 61 63 64 62 60 59 57 56 54 51 48 49 49 47 45 44 45 46 45
114 114 115 114 112 110 109 109 107 105 104 102 102 101 101 101 100 100 98 97 96 95 93 92 90 88 87 85 84 82 81 81 81 81 82 81 79 77 76 76 75 74 71 67 64 64 65 65 64 62 60 58 57 54 52 51 51 49 47 46 47 48 47
117 116 117 117 115 113 112 112 111 109 108 106 105 103 102 102 102 102 101 100 100 98 97 96 94 93 91 89 87 86 84 83 83 83 83 82 81 80 78 77 77 77 76 74 71 69 67 67 67 66 63 60 57 56 55 54 54 52 50 48 48 49 49
119 118 118 118 118 117 116 115 114 113 111 109 108 107 105 104 104 103 103 102 102 101 100 99 98 97 95 93 91 90 88 86 85 85 85 84 84 83 81 79 79 79 79 78 76 75 72 70 69 69 67 63 59 58 58 57 56 55 54 51 50 51 52
120 119 119 120 120 120 119 117 116 115 114 113 112 111 109 108 107 106 105 104 103 103 102 101 101 100 99 97 95 93 91 90 89 88 88 87 86 85 84 83 81 81 81 80 80 79 77 75 73 72 70 67 64 61 61 60 60 59 58 56 54 53 55
121 121 121 121 121 121 120 119 119 118 118 117 116 114 113 112 110 109 108 106 105 104 104 103 103 102 102 100 99 97 95 94 92 91 90 90 89 88 87 86 85 83 82 82 82 81 80 79 77 75 74 72 69 66 64 63 63 62 61 60 58 57 57
122 123 122 122 122 122 122 122 121 121 121 120 119 118 116 115 114 112 111 110 108 107 106 106 105 105 104 103 102 101 99 97 96 94 94 93 92 92 91 90 89 87 86 85 84 84 84 82 81 79 78 77 75 72 69 66 65 64 64 63 63 62 60

ECMWFFLT1_250_spd_096.txt.gz
Wind_Speed
50 47 45 42 39 37 33 28 27 29 27 21 18 18 18 17 17 18 19 19 18 16 15 16 16 15 14 13 13 14 12 9 7 8 8 8 8 7 6 5 4 3 2 1 1 1 0 1 2 3 4 6 8 8 9 11 12 13 13 13 13 13 13
54 50 48 46 44 41 38 34 31 31 30 25 21 20 19 19 20 20 20 20 20 17 16 16 17 17 15 14 14 13 12 8 6 7 9 10 10 9 8 8 7 6 4 3 3 3 2 2 1 1 2 4 5 6 7 9 10 11 12 12 13 12 12
57 54 51 49 46 43 41 39 36 33 30 26 24 23 21 20 22 22 21 20 20 17 16 17 18 18 16 16 15 14 11 8 6 6 8 10 10 10 10 10 10 9 7 6 5 4 4 4 3 3 2 2 3 4 5 6 8 10 11 11 12 11 11
60 58 54 51 49 46 44 43 38 34 31 28 27 26 23 21 23 24 23 21 20 18 17 18 18 17 16 16 16 14 12 9 6 5 7 9 10 11 11 12 12 11 10 9 7 6 6 6 5 5 4 3 2 2 3 5 6 8 9 10 10 11 10
62 60 57 54 52 48 45 43 39 33 31 30 26 25 24 22 23 26 26 24 22 20 20 19 17 15 14 15 15 14 13 12 8 5 5 7 9 11 12 13 14 13 12 11 10 9 8 7 7 7 6 5 4 3 3 3 4 6 7 8 9 10 10
64 62 60 58 54 48 43 39 36 34 33 30 26 26 29 27 27 29 27 25 25 24 23 20 15 12 12 13 14 14 14 12 10 8 7 8 9 11 12 14 14 14 14 13 12 12 11 9 9 9 9 8 6 5 4 4 4 5 6 7 8 9 9
64 64 62 61 57 52 46 41 39 39 37 32 29 32 33 30 29 29 27 26 27 26 24 19 14 12 10 10 12 14 14 12 9 8 9 9 10 12 13 14 15 15 15 15 14 13 13 12 11 10 10 10 9 8 7 6 6 6 6 7 8 8 9
61 64 64 62 59 54 50 49 47 46 43 37 34 34 32 28 29 29 29 29 29 27 26 22 17 15 11 9 10 14 16 15 12 10 9 10 11 12 13 13 14 15 16 17 17 16 14 14 13 13 12 12 12 11 10 9 8 8 8 8 8 9 9
62 64 66 64 60 54 50 50 49 48 46 42 40 38 32 29 31 31 31 31 30 28 27 24 20 18 14 11 10 13 17 18 18 17 14 13 13 14 13 13 14 16 16 18 19 18 17 15 15 14 14 13 13 13 12 11 10 10 9 9 9 9 9
67 63 65 65 63 56 51 50 50 48 46 42 40 38 35 32 33 34 33 31 29 27 26 24 23 22 19 16 15 16 18 19 20 21 21 19 19 18 16 15 16 16 17 18 19 19 19 18 17 16 15 15 15 15 15 14 13 12 11 11 10 10 9
72 66 63 63 63 62 57 53 50 45 42 40 37 34 35 37 37 35 33 30 27 26 26 27 28 27 24 21 18 18 19 21 20 21 22 23 23 22 19 17 17 18 18 19 19 20 20 20 20 18 17 17 17 17 17 16 15 14 13 12 12 11 10
74 72 68 63 62 64 63 60 56 50 47 46 43 38 38 39 38 36 33 31 28 27 28 29 28 27 26 25 22 20 21 24 24 22 23 24 24 24 21 19 18 18 19 19 19 20 20 20 21 21 20 20 19 19 19 18 17 16 15 14 13 13 11
72 74 72 66 62 62 64 63 62 58 55 53 48 44 42 40 37 37 36 32 28 28 29 30 30 29 29 28 28 26 24 26 26 26 26 26 25 25 25 23 21 20 19 20 20 19 19 20 21 22 23 22 21 21 21 20 19 18 17 17 15 14 13
71 73 74 71 65 62 62 63 62 59 56 53 49 45 43 39 37 38 37 33 29 28 29 31 35 37 35 33 32 32 30 29 29 30 30 28 26 27 27 26 24 22 20 20 21 20 18 19 21 23 24 24 23 22 22 21 21 19 18 18 17 16 15
69 72 74 74 71 66 63 63 63 61 58 55 53 50 43 36 33 35 37 37 35 34 36 37 39 42 42 40 38 36 36 36 35 35 33 29 28 29 29 27 25 24 23 21 21 21 20 19 20 22 24 25 24 23 23 23 22 21 19 19 19 18 17
69 70 72 74 74 70 66 63 63 63 61 58 59 58 50 38 33 33 34 37 39 40 42 44 46 46 44 42 41 40 39 40 39 37 35 31 29 30 29 27 26 27 27 25 23 22 22 21 20 20 22 24 25 25 24 24 24 23 21 20 19 19 18
73 72 71 72 73 72 67 63 61 61 61 60 61 65 63 54 47 41 37 36 36 36 40 44 46 44 41 41 42 42 41 41 40 39 38 35 32 31 30 30 29 28 29 29 26 24 23 22 21 21 21 23 25 26 26 26 25 25 24 22 21 20 19
77 75 73 72 73 73 69 65 63 61 60 62 63 66 69 68 64 58 51 45 39 35 39 46 47 45 45 44 43 42 42 43 42 41 40 39 37 35 33 33 32 31 31 32 30 26 24 24 24 23 22 23 25 26 26 26 26 26 26 25 23 21 21
82 80 78 75 74 75 73 69 68 66 64 64 66 68 69 72 73 71 66 61 55 50 51 54 51 49 51 49 44 43 44 45 44 42 41 41 41 40 37 36 35 35 36 36 34 31 29 29 29 27 24 23 24 26 26 26 26 26 27 26 25 23 22
87 84 82 79 76 76 75 73 72 73 72 70 69 70 71 72 73 74 72 71 68 64 62 61 56 52 51 47 41 40 44 46 47 45 42 42 42 42 41 40 39 40 40 41 39 37 35 34 33 31 28 25 25 25 26 25 24 25 26 26 26 24 24
91 88 85 82 78 76 77 76 73 73 76 76 75 75 75 75 74 74 74 73 71 69 67 66 61 55 51 47 44 43 45 46 46 46 44 43 44 44 44 44 43 43 43 43 42 40 38 37 37 34 31 28 26 25 25 24 22 23 23 24 25 26 26
96 94 90 87 83 79 79 78 76 74 74 76 76 76 76 76 76 75 75 74 72 70 68 67 65 60 56 55 56 55 51 46 44 44 43 42 44 47 48 48 47 46 45 44 43 42 41 40 39 37 34 31 29 26 24 22 21 21 22 23 25 26 27
98 98 96 93 91 87 84 82 81 80 78 77 76 76 76 75 75 74 74 74 73 72 70 69 69 67 65 65 65 62 58 51 45 41 39 36 37 42 45 47 48 47 46 45 44 44 44 43 42 40 36 34 33 30 26 23 21 22 23 24 25 26 28
99 100 99 98 96 94 91 87 85 84 84 82 80 78 77 76 74 72 72 72 73 73 72 71 72 72 72 72 70 68 65 60 50 40 35 31 33 37 39 40 43 45 46 46 46 45 46 46 45 43 40 38 36 33 30 27 24 24 24 25 26 27 28
100 100 101 100 100 98 96 92 89 86 86 85 82 81 79 78 76 74 72 70 70 70 71 71 71 71 71 72 71 70 68 64 55 46 42 38 37 39 38 37 38 41 44 47 48 48 48 47 46 45 43 41 38 36 33 30 29 28 28 28 27 27 27
104 103 103 102 102 101 99 96 93 90 88 87 84 83 81 80 79 77 76 73 71 70 70 70 70 70 70 70 71 72 70 66 61 56 53 49 45 44 44 42 39 40 43 47 50 50 50 50 48 47 45 43 41 39 37 34 33 32 32 32 30 29 28
108 107 106 105 103 102 100 98 96 95 93 91 88 86 84 83 82 80 79 78 76 74 72 71 70 70 70 70 71 73 73 71 68 66 65 62 58 54 52 52 50 48 50 52 53 52 52 51 50 49 47 46 44 43 40 38 37 35 34 34 34 32 32
111 110 108 107 105 103 102 100 98 97 96 95 92 89 87 86 84 84 83 81 79 78 76 74 72 70 70 70 71 74 75 74 73 71 71 72 69 62 58 58 58 57 56 56 57 56 55 53 52 50 49 48 47 45 44 42 41 39 38 36 36 35 35
113 112 110 108 107 105 103 102 100 99 98 97 95 93 90 89 87 87 86 84 82 81 80 78 76 74 72 71 71 72 76 77 76 74 73 73 71 66 62 61 61 60 58 58 58 59 58 57 55 53 52 51 49 48 48 46 45 43 41 39 38 38 38
114 113 112 110 109 107 105 103 102 102 101 99 97 95 93 92 91 90 89 87 86 84 83 81 79 77 77 76 74 73 74 77 78 78 76 75 72 68 65 64 63 62 62 60 59 59 60 60 59 57 56 55 54 53 52 51 49 46 44 43 42 41 41
115 114 114 113 112 110 108 106 104 104 103 102 100 98 96 95 94 93 92 91 89 88 87 85 83 81 80 80 79 77 76 77 79 80 80 79 76 72 69 67 66 65 64 64 63 61 60 59 60 60 59 58 58 57 57 56 54 50 47 46 46 44 44
114 115 116 116 115 114 111 109 107 106 106 104 103 101 99 98 98 96 95 94 94 92 91 90 88 86 85 83 82 81 80 79 80 82 83 82 81 78 75 72 70 69 68 67 66 65 62 60 59 60 60 59 59 60 60 60 58 54 51 50 49 48 46
115 115 115 115 116 116 114 112 111 109 108 107 105 104 102 101 101 100 100 99 98 97 95 94 92 91 89 87 85 84 83 82 83 84 85 85 84 83 80 78 76 74 72 71 70 70 69 65 62 60 60 60 60 61 62 62 62 60 57 54 52 50 47
116 116 116 116 116 117 116 115 114 113 111 110 109 107 106 105 104 103 103 103 101 100 99 97 96 95 93 92 90 88 86 86 85 86 87 87 87 86 85 83 81 79 78 76 75 74 74 72 69 66 63 61 61 61 62 63 64 64 63 60 56 53 50
118 119 119 119 119 118 117 116 115 115 114 113 112 111 110 109 107 106 105 105 104 103 102 101 100 99 98 96 95 93 91 90 89 88 88 89 89 88 88 87 85 83 82 81 81 80 78 77 76 74 71 68 65 63 63 63 64 65 66 64 60 57 56
120 121 121 121 121 121 120 118 117 116 116 116 116 115 114 112 110 108 107 106 106 105 105 105 104 103 102 101 99 98 96 94 93 92 91 91 91 91 90 90 89 87 85 84 83 83 83 82 82 80 78 76 73 70 67 66 65 66 67 66 64 62 62
120 121 121 122 122 123 122 121 119 119 118 118 118 118 116 115 114 112 110 109 108 107 107 107 107 106 105 105 104 102 101 99 97 96 94 93 93 93 92 92 91 90 88 86 84 83 84 85 86 85 83 81 80 78 75 72 69 68 68 68 67 66 66
119 120 121 122 123 123 123 123 122 121 120 120 119 119 119 117 116 115 114 112 111 110 109 109 109 109 109 108 107 106 105 103 102 100 98 97 96 95 95 94 94 93 92 90 88 87 86 86 88 89 88 86 85 83 81 79 77 74 72 71 70 70 71

ECMWFFLT1_250_spd_102.txt.gz
Wind_Speed
37 35 34 32 30 30 30 29 26 25 24 22 20 18 17 15 13 12 11 10 11 12 13 15 15 15 16 17 17 16 15 13 11 10 9 9 9 9 10 11 12 12 13 14 14 15 15 16 16 17 18 18 18 18 19 21 22 23 22 21 20 20 20
40 38 38 36 33 31 30 30 29 27 25 23 21 19 18 16 15 13 12 11 12 13 14 14 15 15 15 16 17 16 15 13 11 9 8 7 7 7 8 9 10 11 11 12 12 13 14 14 15 15 16 18 18 18 18 19 20 22 22 22 21 20 19
45 42 41 41 39 35 32 31 32 30 27 25 25 22 19 16 14 14 14 14 14 14 14 15 15 14 13 14 15 16 14 12 10 9 8 6 6 7 7 8 8 9 10 11 11 12 12 13 14 14 15 16 18 18 18 18 19 20 21 21 21 20 19
50 47 45 43 41 38 35 34 34 32 29 29 28 24 20 16 15 16 16 17 16 15 15 16 16 15 12 12 15 15 13 11 9 8 7 5 5 6 7 7 8 8 9 10 11 11 12 12 13 13 14 15 16 17 18 18 18 19 20 20 20 20 19
54 51 48 46 45 42 40 37 36 35 33 32 31 27 23 22 22 23 22 21 20 19 17 17 17 17 13 11 14 15 14 13 9 5 6 5 4 7 8 8 9 9 9 9 10 11 11 12 12 13 14 14 15 16 17 17 18 18 18 19 20 19 19
57 55 53 50 46 44 43 41 39 40 38 36 35 33 32 31 30 29 27 26 25 23 20 19 18 18 14 11 13 14 13 13 11 5 5 3 4 7 9 9 10 10 10 9 10 11 12 12 13 13 14 14 15 16 16 16 16 17 17 18 18 19 19
59 58 56 52 47 45 45 45 44 43 41 39 39 38 38 36 35 33 31 29 28 26 23 20 19 18 15 11 11 12 12 13 11 7 5 4 5 8 9 10 11 11 11 10 10 11 12 13 13 14 14 14 15 15 16 15 15 15 15 15 16 17 18
62 60 59 56 52 49 47 47 46 43 42 42 43 41 39 38 36 35 33 31 30 27 23 20 19 19 17 14 12 13 13 14 12 9 8 7 8 8 9 10 10 11 11 11 11 11 12 13 13 14 14 14 14 14 15 15 14 13 13 13 14 14 15
64 63 61 60 58 55 53 51 49 46 45 45 44 42 41 39 38 37 34 32 30 27 23 21 21 20 19 17 16 16 16 17 15 13 12 12 12 11 9 8 9 10 11 10 11 11 12 12 13 13 14 14 14 14 13 14 13 12 11 11 11 12 12
66 65 64 63 61 59 57 55 52 50 50 49 46 42 39 38 38 37 34 31 30 27 25 24 24 24 22 20 19 18 18 18 18 16 15 16 16 14 10 8 8 9 10 10 10 11 12 12 12 12 13 13 14 14 13 12 12 11 10 9 9 9 10
68 67 66 65 64 62 59 56 54 54 53 51 49 44 39 38 40 40 37 33 31 30 27 26 26 25 24 22 22 21 20 19 20 19 18 19 18 15 11 9 8 8 10 10 9 11 12 12 12 12 12 12 13 13 13 12 11 10 8 7 7 7 7
70 69 68 67 65 64 61 59 57 57 54 51 52 50 46 44 43 42 40 36 33 31 29 27 27 27 26 24 23 23 22 22 22 20 19 21 20 15 12 12 11 10 10 10 10 10 11 12 13 13 12 11 11 12 13 13 12 9 7 6 5 5 5
72 71 70 68 67 65 63 61 60 58 54 50 52 55 56 52 47 43 40 37 35 34 31 30 29 29 29 27 25 24 24 24 23 22 22 23 22 18 16 15 14 13 11 11 12 12 10 10 12 14 15 13 11 10 11 12 12 11 8 6 3 3 3
74 73 72 71 70 67 64 63 61 59 55 51 51 55 58 55 46 40 40 40 40 38 36 35 33 33 33 30 27 29 28 27 27 27 27 25 24 22 20 18 18 17 14 12 13 14 12 10 11 14 16 16 14 12 10 10 11 11 10 8 5 3 1
75 74 73 73 72 70 67 65 63 58 55 54 53 55 58 56 49 42 41 42 41 39 38 38 36 35 35 33 31 33 33 31 31 31 30 27 26 24 23 21 20 19 16 14 14 16 16 14 13 13 15 16 16 15 12 10 9 10 10 10 9 6 4
75 74 73 73 73 72 70 68 65 61 57 57 57 56 58 60 55 48 44 43 42 38 37 39 38 35 36 35 35 37 35 34 34 33 30 28 26 25 24 23 22 21 19 18 17 18 19 18 16 16 15 15 16 16 15 12 10 9 10 11 12 11 8
76 74 73 73 73 73 72 70 69 66 61 60 60 56 55 59 57 51 46 45 45 42 39 40 39 37 37 37 37 38 38 38 37 34 31 29 28 28 27 26 25 23 22 21 20 20 20 20 19 18 18 18 17 17 16 14 12 12 11 11 12 14 13
77 75 74 74 73 73 73 72 71 70 66 64 64 59 54 55 55 53 50 49 49 47 44 41 40 39 39 39 39 38 38 39 38 35 34 32 30 30 29 28 26 24 24 24 24 23 22 21 21 20 20 21 21 19 18 16 15 15 14 13 13 14 15
80 78 76 75 74 73 73 73 73 73 71 69 69 67 61 58 56 55 53 52 52 53 52 48 45 43 41 40 41 41 39 37 36 34 35 34 32 31 31 31 29 26 25 25 27 28 24 22 25 26 26 25 24 23 21 18 17 17 16 16 15 14 16
82 81 80 78 77 75 75 75 76 76 76 74 73 75 73 68 64 60 57 55 55 56 56 53 50 47 43 42 44 44 40 36 34 34 36 35 34 32 31 31 31 30 29 28 31 32 29 27 29 30 30 28 26 26 25 22 20 19 19 18 17 16 17
85 85 83 82 81 79 78 78 78 78 78 77 76 78 79 77 72 67 63 61 58 55 54 55 54 51 46 45 48 49 46 42 39 38 38 37 35 34 34 34 34 34 34 33 34 34 32 32 32 30 30 30 28 28 28 26 24 22 21 21 20 19 19
89 88 87 86 85 84 82 82 81 79 78 79 78 79 80 81 78 73 69 67 64 60 57 56 57 55 51 50 53 55 54 51 47 43 40 38 38 38 37 36 36 36 36 36 35 34 33 34 34 32 32 33 31 30 31 29 27 26 24 24 23 23 22
92 92 91 90 89 88 86 85 83 81 80 81 80 79 79 81 82 79 76 73 72 69 66 64 63 60 57 57 59 59 58 55 49 44 41 40 41 41 39 38 39 40 39 38 38 37 36 36 36 35 35 36 34 32 33 32 31 29 27 27 27 27 27
95 95 95 95 93 91 90 88 86 84 83 84 84 80 77 78 80 81 80 77 75 74 73 72 72 69 63 62 63 61 58 56 51 46 44 44 45 43 40 40 42 43 42 41 41 40 40 40 40 39 39 39 36 33 32 32 31 30 29 29 29 30 30
96 97 97 97 96 95 93 92 90 88 87 88 89 85 79 76 76 78 79 78 76 74 73 75 77 75 68 66 66 62 58 57 53 50 50 51 51 48 44 42 44 46 44 41 40 40 42 44 44 43 42 40 36 34 33 32 30 29 29 30 30 30 31
96 97 98 98 97 97 96 95 94 92 90 90 92 92 88 83 78 76 77 78 77 74 73 74 77 76 71 69 69 65 60 58 57 56 56 56 57 56 54 51 49 47 42 36 35 35 38 43 47 47 46 43 40 38 37 34 32 31 31 32 33 32 32
98 98 99 99 99 98 98 98 96 95 93 92 92 93 93 90 85 79 76 77 78 77 74 74 76 76 73 73 73 70 63 59 59 60 61 61 62 62 60 57 56 51 43 38 38 39 41 44 48 49 49 48 45 43 41 38 36 34 34 34 36 36 35
100 101 101 101 100 100 99 99 98 97 96 95 94 94 93 92 90 85 79 76 76 77 76 75 76 77 76 76 76 74 69 64 62 64 66 67 68 67 63 61 60 58 52 48 47 47 48 48 49 50 51 50 48 46 44 42 40 38 37 37 39 41 40
102 103 103 103 102 102 101 100 100 99 98 98 97 96 95 93 93 91 87 81 78 77 76 76 77 79 80 80 80 79 77 73 69 69 71 72 72 71 68 65 64 64 62 60 58 56 53 51 49 49 51 50 48 47 46 44 43 43 42 41 41 43 44
105 105 105 105 104 104 104 103 103 102 101 100 99 98 97 96 95 95 94 91 87 84 82 80 79 79 80 81 82 82 81 79 76 76 76 76 76 76 73 70 68 68 69 69 67 64 60 56 53 51 51 50 50 50 49 48 48 48 48 47 46 46 47
107 107 108 108 107 107 106 106 105 105 104 103 102 100 100 99 99 98 98 98 96 93 91 90 88 86 84 82 81 81 81 81 81 82 82 80 79 79 79 75 72 72 72 72 71 69 66 63 60 58 56 54 54 54 54 54 54 54 54 52 49 49 49
110 109 110 110 110 109 108 107 107 106 105 104 104 103 102 102 101 101 101 101 100 99 97 96 95 94 92 89 86 84 82 82 83 86 87 86 83 82 82 81 79 77 76 74 73 71 69 67 65 63 62 60 61 61 62 62 60 59 58 55 52 51 50
112 113 113 112 112 112 111 110 109 108 107 106 105 105 105 105 104 103 102 102 102 102 101 99 97 96 95 93 91 87 86 85 86 88 89 90 90 88 86 85 84 82 80 78 75 73 72 70 69 68 68 68 68 69 69 68 67 65 63 62 60 59 56
110 112 114 115 114 114 114 113 112 111 109 108 107 107 107 107 106 106 105 104 103 103 102 101 100 98 96 95 92 90 88 88 89 91 92 93 94 95 93 91 88 87 86 84 81 79 77 76 75 74 74 73 72 71 70 70 70 69 69 68 68 66 64
108 109 111 113 115 116 116 116 115 113 111 110 109 108 108 108 108 108 107 106 105 105 104 102 101 100 98 97 95 94 92 91 91 93 95 96 97 97 98 97 95 92 90 88 86 85 84 82 81 80 79 77 75 74 73 72 72 72 72 72 71 69 67
112 110 109 111 113 114 116 117 117 115 114 114 113 111 109 109 109 109 109 108 107 107 106 105 103 102 101 100 99 98 97 96 94 94 96 99 101 101 101 100 100 98 95 93 92 91 90 89 88 87 86 84 82 80 79 77 76 75 73 71 71 70 69
114 113 112 112 113 113 113 114 115 116 117 117 116 114 112 111 110 110 110 110 110 109 109 108 107 106 105 104 102 101 100 99 98 96 96 99 102 104 105 104 104 102 100 98 96 96 95 95 94 93 92 91 90 89 87 84 82 80 78 75 72 70 68
114 114 114 114 115 115 114 113 114 115 117 119 118 116 114 113 113 113 112 111 111 111 111 111 110 110 109 108 107 106 104 102 100 99 98 99 101 104 107 108 108 108 107 105 103 102 101 101 100 99 98 97 96 95 94 91 88 87 85 83 80 78 75

ECMWFFLT1_250_spd_108.txt.gz
Wind_Speed
44 42 40 40 39 37 34 31 31 31 28 26 25 22 18 16 14 12 10 9 8 7 4 1 5 7 9 10 12 14 14 11 11 13 15 15 15 14 13 14 15 16 16 17 18 17 16 16 17 17 18 19 20 20 20 20 20 19 20 19 20 21 21
45 46 44 42 41 38 35 34 34 33 31 29 27 24 21 18 17 14 12 11 11 10 8 5 2 4 6 8 9 11 13 12 10 10 13 15 15 14 13 13 14 14 15 16 17 17 17 16 16 16 16 17 18 19 19 19 19 19 19 19 19 20 21
45 46 45 43 42 40 38 37 37 35 33 31 29 26 22 20 19 18 15 14 14 13 11 9 6 2 3 5 7 7 8 10 10 9 9 12 15 15 14 14 13 12 13 14 15 16 16 16 15 15 15 15 16 17 17 18 19 18 18 18 19 19 19
46 45 44 44 43 42 42 40 39 37 35 33 31 28 25 23 22 21 18 17 16 15 14 12 9 6 2 2 4 5 4 5 8 8 7 8 12 14 13 13 12 11 11 12 13 14 15 15 15 14 14 14 14 15 15 16 17 17 18 18 18 18 18
49 46 45 47 48 46 44 43 41 39 37 35 33 32 29 27 25 23 20 18 17 17 16 14 12 9 6 4 3 3 2 0 3 6 6 5 7 10 11 11 11 11 9 10 11 12 13 14 14 13 13 14 13 13 13 14 15 16 17 17 17 17 17
52 49 47 50 50 47 46 44 42 41 39 37 36 35 33 30 28 25 23 21 19 18 18 17 15 13 9 7 5 5 4 3 2 2 4 3 3 5 8 8 8 9 9 9 9 9 11 13 13 12 12 12 12 12 11 12 12 13 14 15 15 16 16
55 52 50 50 49 48 46 44 43 42 40 39 38 36 34 33 30 28 26 24 22 21 20 20 18 16 12 9 8 8 7 6 5 4 1 1 1 1 4 6 6 6 7 8 9 8 8 11 11 11 11 10 10 10 10 10 10 11 11 12 13 14 14
60 56 53 51 50 50 48 45 44 43 41 40 39 37 36 34 32 30 29 27 25 24 23 22 21 18 15 12 11 10 10 10 9 8 6 3 2 2 2 5 5 3 3 6 8 7 7 9 10 10 10 9 9 9 8 8 8 8 8 9 10 11 12
66 61 58 54 52 51 50 48 45 44 42 40 39 38 36 35 33 31 30 30 29 28 27 26 24 22 19 16 14 14 14 14 13 11 10 7 5 4 3 4 5 4 2 3 5 6 7 8 9 9 8 8 8 7 7 7 6 6 6 6 7 8 9
71 67 63 59 55 53 51 49 47 45 42 39 39 39 38 37 35 33 32 32 32 31 30 30 28 26 24 21 19 17 17 18 17 15 13 11 10 7 6 5 5 6 4 2 2 3 5 7 8 8 7 6 6 6 6 6 5 5 4 4 5 5 6
75 72 68 64 60 57 54 52 49 47 43 38 38 39 39 40 39 37 36 36 35 34 33 33 32 30 29 27 24 21 19 19 19 18 16 15 13 11 10 7 6 8 8 5 3 3 1 3 6 7 6 5 4 4 4 5 4 4 3 2 2 3 3
78 77 73 68 65 62 59 57 54 52 48 43 40 40 41 41 41 40 40 39 38 38 36 36 36 34 33 32 29 25 22 20 21 21 20 18 16 14 13 11 9 10 10 9 7 6 4 1 2 5 5 5 3 2 3 3 3 3 2 1 1 1 1
80 79 77 73 69 67 65 61 58 56 54 51 49 46 44 43 42 41 40 40 40 41 40 40 40 38 36 35 32 28 24 23 23 23 23 21 20 18 16 14 12 11 12 12 10 10 9 7 3 2 3 4 4 2 1 2 2 2 2 1 1 2 1
81 80 79 77 74 72 69 65 61 59 58 56 55 53 49 47 45 44 43 41 41 42 43 42 41 41 39 38 35 31 27 25 25 26 25 24 23 22 20 18 16 15 14 13 12 13 14 13 9 5 3 2 3 2 1 1 1 1 1 1 1 2 3
82 81 81 79 78 76 73 69 65 63 61 59 58 56 52 49 47 46 47 47 45 44 43 42 42 42 41 40 38 33 30 28 27 28 28 27 27 26 24 22 20 19 18 15 13 15 16 17 16 11 7 6 5 4 3 2 2 2 2 2 2 3 3
82 82 82 81 80 79 77 73 70 67 65 64 62 59 55 52 47 46 49 51 49 46 45 44 44 44 43 42 39 36 33 30 29 30 29 29 29 29 28 26 23 22 21 18 16 16 17 18 18 16 13 11 10 8 7 6 5 5 4 4 4 4 5
83 83 82 82 82 80 79 77 74 72 69 67 65 62 59 56 52 50 52 56 55 52 49 49 49 47 46 44 41 38 36 34 32 32 32 30 31 32 32 30 27 24 23 22 21 20 19 19 18 18 18 17 15 14 12 10 9 8 8 7 7 7 7
85 84 84 83 83 82 81 79 78 76 73 70 68 64 61 60 58 56 56 60 61 59 56 55 54 52 50 48 43 40 40 38 37 36 35 33 32 34 35 32 30 28 27 25 24 23 22 22 21 21 21 21 21 19 16 15 13 12 11 11 10 11 10
87 87 86 85 85 84 83 82 80 79 77 75 71 68 65 64 63 61 59 60 62 62 60 59 59 57 54 52 48 45 43 42 41 40 39 36 34 35 37 35 33 33 31 29 28 27 26 25 25 25 24 23 22 22 20 18 17 16 14 13 13 14 14
88 88 88 87 87 86 85 84 83 81 80 78 76 72 70 68 65 64 64 63 64 65 64 62 62 63 61 58 55 51 48 46 45 43 43 43 40 38 39 38 36 36 35 33 32 31 30 29 29 30 30 27 24 23 22 21 21 20 19 18 17 17 17
88 88 89 89 89 88 87 86 85 83 82 81 79 77 75 73 70 68 67 66 66 68 68 65 64 65 65 62 59 55 52 50 49 47 46 47 45 42 42 41 39 37 37 37 36 35 34 33 33 33 33 31 30 29 27 26 25 25 25 24 22 21 20
89 89 89 89 90 90 89 88 87 86 85 83 82 81 79 79 77 75 73 71 70 69 68 66 65 64 64 63 60 57 55 53 52 49 47 48 47 45 44 44 42 40 39 39 39 38 38 37 37 37 36 35 34 33 32 31 31 31 30 29 28 26 24
91 90 90 90 90 90 90 90 89 88 88 86 85 83 82 83 82 81 80 80 78 75 74 72 70 68 67 65 63 61 58 55 54 51 49 48 47 47 47 46 45 43 42 41 40 40 40 39 39 40 39 38 38 36 35 36 37 36 34 33 32 30 28
92 91 91 90 91 91 90 90 90 90 89 89 88 87 86 85 85 85 85 84 83 83 83 81 79 77 74 71 68 65 62 59 56 53 51 50 49 49 50 49 47 44 43 43 43 42 41 40 41 41 41 40 40 38 36 38 40 39 36 35 33 32 30
93 92 93 93 93 92 92 91 91 91 91 90 90 90 89 89 88 88 88 87 86 86 86 85 83 82 79 76 73 70 66 63 60 56 53 51 51 52 53 53 52 49 47 47 47 46 44 43 43 44 43 41 41 40 38 39 41 40 39 37 36 35 34
93 93 94 95 94 93 93 93 93 92 92 91 91 91 91 91 91 90 90 90 89 88 87 86 85 84 81 79 77 74 70 68 65 62 58 55 55 55 56 56 54 53 52 52 51 50 50 48 47 46 45 43 42 41 40 41 43 43 43 42 39 38 37
93 93 94 95 95 95 95 95 95 95 94 93 92 92 91 91 92 92 92 92 92 91 89 88 87 85 84 82 80 77 74 72 70 68 65 62 59 58 59 59 56 55 56 55 53 53 54 53 51 49 47 45 45 45 45 45 47 48 46 44 43 42 41
90 91 94 95 96 97 97 97 97 97 97 96 95 94 93 92 92 92 92 92 92 92 91 90 89 88 86 84 83 80 78 75 74 72 70 69 66 63 62 61 58 58 59 59 57 57 57 57 56 54 52 50 49 50 51 52 53 52 50 47 46 45 44
85 87 91 95 95 96 96 97 98 98 99 99 98 97 96 95 94 93 93 92 92 92 91 91 91 90 88 87 85 84 81 79 77 75 74 73 71 69 68 65 61 60 62 63 63 63 62 61 60 59 57 55 54 54 56 57 57 56 54 51 48 48 48
84 84 87 91 95 96 96 96 97 99 100 101 101 100 99 98 97 96 95 94 93 92 91 91 91 90 90 89 88 86 84 82 80 79 78 76 75 74 73 72 68 65 64 66 67 68 67 68 68 66 63 61 60 59 60 60 61 60 57 54 52 51 51
88 85 83 83 88 94 98 100 100 100 101 102 102 102 101 100 99 98 98 97 95 94 93 92 91 91 90 90 89 88 87 85 84 82 81 80 79 77 77 76 75 72 70 69 70 71 71 72 72 71 68 66 65 64 63 63 63 62 60 58 57 56 55
95 93 89 86 86 90 97 104 107 105 104 103 103 103 103 101 101 100 99 99 98 97 96 94 93 92 91 90 90 89 88 87 86 86 85 83 82 81 80 79 78 77 76 75 74 74 73 73 73 73 72 70 69 68 67 66 66 65 64 62 60 59 59
98 97 97 96 95 94 97 102 106 107 106 105 104 103 104 103 102 102 101 101 100 99 99 97 96 95 94 92 91 90 89 88 88 87 87 86 85 84 83 82 80 79 79 79 79 77 76 75 75 75 74 74 73 72 72 71 69 68 67 65 63 62 62
100 99 98 99 101 102 102 104 105 105 105 105 105 104 105 104 104 103 103 102 102 101 101 100 99 98 97 95 94 93 91 90 89 88 88 88 88 87 86 85 84 82 81 82 82 81 79 78 78 78 77 76 75 74 74 73 71 69 68 67 66 66 66
103 102 100 99 99 101 103 106 109 110 108 107 106 105 106 106 106 106 105 104 103 103 102 102 101 100 99 98 97 96 94 93 91 90 89 88 89 89 89 88 87 86 84 83 83 83 81 80 80 81 80 79 78 76 74 73 72 71 70 70 70 70 70
106 105 104 103 101 100 100 102 107 112 113 111 109 108 107 106 106 106 106 106 105 104 104 103 103 102 101 101 100 99 97 96 94 93 92 91 90 90 90 90 90 90 89 87 86 85 84 82 82 82 82 81 80 78 76 74 74 73 73 73 74 74 74
110 109 109 109 106 102 99 98 102 108 113 115 114 112 110 109 107 107 107 106 106 105 104 104 103 103 103 102 102 101 100 99 98 96 95 94 93 92 91 92 92 93 93 93 92 91 89 87 85 85 84 83 82 81 80 78 78 77 77 77 77 78 78
114 114 114 113 110 108 105 102 101 104 109 113 115 114 113 111 110 109 108 108 107 107 106 105 104 104 103 103 103 102 102 101 100 99 98 97 96 95 94 94 94 94 95 96 97 97 96 94 91 90 89 88 87 85 84 83 82 81 81 81 80 80 80

ECMWFFLT1_250_spd_111.txt.gz
Wind_Speed
44 42 41 39 37 34 32 30 28 27 25 22 22 21 19 16 15 13 11 9 6 4 3 1 3 5 6 8 11 13 13 11 12 14 14 14 13 12 12 13 13 13 14 14 14 13 14 15 16 17 18 19 19 19 19 20 20 21 22 22 21 20 21
45 43 41 40 37 34 32 31 32 31 28 24 23 24 23 20 19 17 15 13 10 8 7 4 2 1 3 4 7 11 13 11 11 12 14 14 13 12 11 11 11 11 12 13 12 11 12 12 13 15 16 17 18 18 18 18 19 20 21 22 21 21 22
45 42 39 39 37 34 33 34 36 35 30 26 25 25 26 25 23 22 19 16 14 12 10 8 6 4 2 2 3 5 9 12 11 10 12 12 11 11 10 10 10 10 10 11 10 10 10 11 11 12 13 14 16 16 17 18 17 18 20 21 21 22 22
45 44 41 39 39 38 38 39 40 38 32 29 28 28 29 29 27 26 22 19 17 16 14 12 10 8 6 3 3 3 5 9 10 9 9 9 9 10 9 9 9 8 9 9 9 10 9 9 9 10 11 12 13 14 15 16 16 17 19 20 21 22 22
49 48 47 44 43 43 42 43 44 40 35 33 32 31 32 32 30 28 25 22 20 19 17 15 13 12 10 7 4 3 3 4 6 7 6 4 6 8 8 7 7 7 7 7 7 8 8 8 7 7 8 9 11 12 13 13 14 15 18 19 18 19 20
53 52 51 48 47 46 45 46 46 42 40 38 36 33 34 34 33 31 28 25 24 22 19 17 16 14 13 10 7 5 4 4 3 2 3 3 2 4 6 6 6 6 6 5 5 6 6 7 7 7 7 7 8 9 10 12 13 14 15 17 17 16 18
52 53 54 52 48 47 47 48 47 46 44 42 38 36 35 35 34 33 31 29 26 24 22 20 18 17 15 14 11 7 5 5 5 4 2 1 1 0 3 4 5 5 4 4 5 5 5 5 7 7 7 7 7 8 9 10 11 12 13 14 15 15 16
51 50 54 55 52 51 51 49 47 48 47 45 41 39 37 36 36 36 34 31 29 27 24 22 21 19 18 17 15 11 8 7 7 7 6 3 2 3 1 2 3 3 3 3 5 6 5 5 5 7 8 8 8 8 9 9 10 11 12 12 13 13 13
55 51 52 54 54 55 54 52 50 49 50 47 44 43 40 39 39 39 37 34 32 31 28 26 24 22 20 20 19 16 11 9 8 8 9 8 6 5 4 2 2 2 1 1 3 5 6 5 5 6 8 10 10 10 10 10 10 11 11 11 11 11 11
55 54 53 52 54 57 58 57 54 52 52 49 46 45 44 44 43 42 40 37 35 34 32 29 27 25 23 22 22 20 16 12 10 10 11 11 10 9 8 6 5 4 4 3 1 2 4 5 5 5 6 9 10 11 11 10 10 11 11 11 11 10 10
58 57 54 49 51 56 57 57 56 54 54 52 50 49 48 47 46 44 42 40 38 37 35 33 31 29 27 25 24 23 20 16 13 12 12 13 13 12 10 10 9 7 7 6 4 2 2 3 4 4 5 7 9 10 10 10 11 11 11 11 10 9 9
67 64 61 56 54 53 54 56 56 54 54 55 54 54 52 49 48 47 45 42 41 40 38 36 34 32 31 28 26 25 24 22 18 15 13 14 15 15 13 12 11 10 8 8 8 7 5 4 4 4 3 4 6 8 8 9 10 11 11 11 10 9 9
76 72 69 65 60 56 55 58 58 54 54 56 56 55 54 52 50 50 47 45 43 41 40 39 37 35 34 32 30 28 27 27 24 20 17 16 17 18 17 15 14 13 12 11 10 10 9 8 7 6 4 2 3 4 6 7 8 10 10 10 10 9 9
84 80 75 68 64 61 58 57 60 59 55 56 57 55 55 54 53 51 48 46 44 43 42 41 39 38 37 35 33 32 31 30 29 26 22 20 19 20 20 19 17 16 15 14 12 11 10 10 11 11 9 6 4 3 4 6 7 9 10 9 9 8 8
87 86 84 79 75 71 64 56 58 61 58 56 56 56 56 55 54 52 49 46 46 46 45 44 43 42 40 38 36 34 33 31 31 30 27 23 22 22 22 22 21 19 19 18 16 14 12 12 13 13 12 11 8 5 5 7 8 9 10 10 10 9 8
88 87 88 87 84 82 78 69 62 61 61 58 56 56 57 56 54 51 47 45 46 49 50 49 47 46 44 42 40 37 35 33 32 32 30 27 25 24 24 24 24 23 22 21 20 18 17 17 17 16 15 14 13 10 8 9 10 11 12 12 11 10 10
90 89 89 89 88 86 86 83 75 69 66 63 60 58 57 56 54 51 47 46 45 48 52 52 51 51 49 47 44 41 38 37 35 34 33 31 28 26 26 26 27 26 26 25 24 22 21 21 20 19 17 17 16 15 13 13 13 13 14 14 14 12 12
91 90 90 89 89 88 87 87 83 78 73 68 65 63 61 60 57 54 52 51 50 51 54 54 52 51 50 48 46 43 41 39 37 35 34 33 32 30 28 28 29 29 29 28 27 26 24 24 22 22 21 21 19 17 17 18 18 16 15 16 17 16 15
93 92 91 89 89 89 89 88 86 83 79 74 68 63 63 63 60 58 58 57 56 57 57 55 53 52 51 48 46 43 41 40 38 36 35 36 35 34 32 30 30 30 30 30 30 29 28 27 26 25 24 25 24 21 19 18 20 20 19 19 20 20 19
94 93 92 91 90 89 89 89 88 86 84 82 78 72 69 67 64 64 63 61 60 61 60 57 54 53 52 51 48 46 44 42 39 38 37 38 38 37 36 34 33 33 33 31 32 32 31 30 30 29 28 27 27 27 25 22 21 21 22 23 24 24 23
95 95 94 93 91 90 89 89 89 88 87 86 84 82 79 76 73 70 68 65 64 64 63 60 56 53 53 53 51 49 46 43 42 41 40 39 39 38 39 39 38 37 35 33 32 33 33 31 31 32 33 31 30 30 30 29 28 27 25 25 27 27 27
94 95 95 94 93 91 90 89 89 90 89 88 87 85 83 82 79 76 73 70 69 67 65 64 60 55 53 54 54 53 51 48 46 43 42 41 39 37 39 42 42 39 36 35 34 35 36 35 33 34 35 36 35 34 32 32 35 36 32 30 31 32 32
94 95 95 94 94 93 92 91 90 90 90 89 89 88 86 84 82 80 77 75 73 71 69 67 65 61 57 56 57 59 58 57 53 47 43 43 43 40 41 44 43 40 38 38 38 38 39 39 38 37 36 37 38 38 37 36 38 39 38 36 36 37 37
95 95 94 94 93 93 93 93 92 91 91 91 90 89 89 88 86 83 81 78 76 75 73 72 71 68 65 61 60 63 64 64 61 56 53 52 53 51 49 47 45 42 41 40 41 41 43 43 43 42 41 39 38 40 42 43 41 42 42 39 38 39 40
96 95 93 93 92 92 93 94 94 94 93 92 92 91 91 91 89 87 85 82 80 78 77 77 76 74 71 67 65 65 66 66 66 66 64 62 62 62 61 59 56 51 46 43 42 42 42 44 47 47 46 43 42 42 45 46 45 45 45 43 41 41 41
96 95 94 93 93 93 93 93 93 95 96 95 94 93 93 92 92 90 89 86 84 82 80 80 80 78 75 72 70 69 68 66 67 69 69 66 65 66 67 66 63 59 54 49 46 43 42 45 48 49 47 45 46 46 46 47 47 46 46 45 44 43 42
95 95 95 95 94 94 95 94 93 94 95 96 96 96 95 95 94 93 92 90 88 86 84 83 82 82 80 78 75 74 73 71 70 71 72 71 68 68 69 70 68 64 59 54 51 48 48 49 50 50 48 48 50 50 49 49 48 46 44 45 45 44 43
96 95 94 95 96 96 95 96 96 96 95 95 96 96 97 97 97 96 95 94 92 90 89 88 86 86 85 84 81 79 78 77 77 76 77 77 74 70 69 70 70 67 61 56 53 53 53 53 54 53 50 51 53 54 54 54 53 49 47 46 45 45 46
96 96 94 93 94 97 98 98 98 98 98 98 97 97 98 98 99 98 98 98 97 95 93 92 91 90 89 88 87 85 84 82 81 81 81 81 79 76 73 71 70 68 64 59 58 58 58 58 59 59 57 56 57 57 58 59 58 56 53 51 49 49 49
97 96 95 93 93 93 95 98 100 100 100 100 100 99 99 99 100 100 99 100 100 99 98 96 95 94 93 91 91 90 89 88 86 84 84 82 80 79 79 78 76 74 71 68 65 63 62 61 61 63 64 64 64 64 65 65 64 63 61 60 57 55 54
97 96 95 96 97 93 89 91 96 100 102 102 102 102 102 101 101 101 101 100 101 101 101 101 100 98 97 96 95 94 93 93 92 91 90 88 86 84 84 84 84 82 80 78 74 70 67 66 64 63 65 67 69 70 72 73 72 70 68 67 64 62 60
95 95 93 92 94 96 94 91 92 95 100 104 105 105 104 104 104 104 103 102 101 101 102 103 103 102 101 100 99 98 98 96 96 96 96 95 94 93 93 93 92 91 88 84 80 76 73 72 70 68 67 68 70 73 75 77 76 74 71 69 67 66 66
94 95 94 91 88 91 95 97 96 96 98 103 106 107 107 106 106 106 106 105 103 103 103 103 103 103 103 103 102 102 101 100 99 98 98 98 98 97 97 97 96 94 91 88 85 82 78 76 75 74 73 72 72 74 77 78 78 76 74 71 70 69 70
98 95 95 94 91 89 90 94 98 99 100 102 105 107 108 109 109 109 109 108 107 106 106 106 105 105 104 104 104 103 103 103 102 101 101 100 99 99 98 98 97 95 94 91 88 85 83 80 79 79 79 78 77 77 77 78 79 78 77 75 73 73 73
104 101 97 95 95 94 92 91 92 96 99 101 103 104 105 108 111 111 111 110 110 111 110 110 109 108 107 105 105 104 103 103 103 103 103 102 101 101 100 99 99 97 96 94 92 89 86 84 83 82 82 82 83 82 81 80 80 80 79 78 77 75 75
107 107 105 101 99 97 96 94 92 92 94 97 100 101 103 106 110 112 113 113 114 114 114 113 112 111 109 108 106 106 105 104 103 103 103 102 102 102 101 101 100 99 98 96 95 93 90 88 87 86 85 85 86 86 85 84 83 81 80 81 81 79 78
105 107 108 109 107 103 100 98 97 95 94 94 95 97 99 104 108 112 114 115 115 115 115 115 114 113 112 110 109 108 107 106 105 104 103 102 102 101 101 100 100 100 99 98 96 95 93 91 90 89 88 88 89 89 89 89 88 85 82 82 84 84 82
105 106 108 111 112 110 107 104 103 102 100 98 96 96 97 100 104 108 112 114 114 114 115 116 115 114 113 112 111 111 110 109 108 106 105 104 103 102 101 101 100 99 99 98 97 96 95 93 92 91 91 90 91 92 91 92 92 91 88 85 85 85 83

ECMWFFLT1_250_spd_114.txt.gz
Wind_Speed
41 40 39 36 34 32 31 30 29 27 26 23 20 18 17 16 14 12 11 10 8 6 4 2 2 4 7 10 12 10 11 12 13 13 15 15 15 16 18 19 19 20 20 19 19 19 19 19 18 18 18 18 18 19 19 19 20 21 22 22 21 21 20
41 41 39 36 34 34 33 32 31 29 28 26 24 22 20 18 17 15 14 14 12 9 8 6 4 3 4 6 8 9 9 9 11 12 13 14 15 15 16 17 17 18 19 19 19 19 19 19 18 18 18 17 17 18 19 19 20 22 22 22 22 21 21
43 42 40 38 35 35 35 33 32 31 29 29 27 25 23 20 19 19 18 17 16 14 12 10 9 6 4 3 3 6 7 7 8 10 10 12 13 14 14 15 15 16 18 19 19 19 20 19 19 18 18 18 18 18 19 19 20 23 23 22 22 22 22
46 45 43 43 41 38 38 36 34 33 31 30 30 28 25 23 22 22 21 20 19 18 16 14 12 10 7 5 3 1 4 5 6 6 6 8 10 12 12 13 13 14 16 18 18 18 20 20 20 20 19 19 19 18 18 18 19 21 22 22 21 22 22
49 46 43 44 45 43 42 40 37 35 34 33 33 31 28 26 24 24 23 22 22 21 20 18 16 14 11 8 7 5 3 2 3 3 3 4 7 9 10 11 11 12 13 16 17 17 18 20 20 21 21 21 20 19 19 19 18 19 20 21 20 20 20
49 46 41 40 43 45 45 44 41 38 37 36 36 36 33 30 27 25 24 24 24 24 22 21 19 17 14 11 9 9 7 5 4 1 1 2 4 5 7 8 9 10 11 13 15 16 17 19 19 20 21 22 21 20 19 18 18 17 17 18 19 18 18
48 48 46 40 41 46 45 45 45 42 40 40 39 38 35 32 30 27 26 26 26 25 24 23 22 19 17 15 13 12 11 9 7 5 3 2 3 3 4 6 7 7 8 10 12 13 15 17 18 19 20 20 21 21 20 18 17 16 15 15 16 17 17
44 48 52 46 41 44 44 43 44 42 42 43 41 39 35 33 32 30 28 29 29 28 26 26 25 23 20 18 16 15 14 12 10 8 6 4 4 4 3 4 5 5 5 6 8 9 12 14 15 16 16 18 19 21 21 20 18 16 15 14 14 14 14
41 44 53 52 45 43 44 42 42 41 40 42 43 41 39 35 33 32 32 32 32 30 28 28 28 27 24 21 20 18 17 15 13 11 9 7 6 6 5 5 5 5 4 4 5 6 7 9 11 12 12 13 16 18 19 20 20 17 16 14 13 12 12
42 43 51 54 47 43 46 46 45 44 41 42 42 41 41 39 36 34 35 35 34 32 31 31 31 30 27 24 22 21 19 18 16 14 12 10 9 9 8 8 7 7 6 5 5 5 5 5 7 8 8 8 10 13 15 17 18 18 17 15 13 11 10
43 41 46 53 48 44 49 51 48 47 44 42 41 40 41 42 40 38 37 37 36 35 34 34 34 32 30 27 25 23 21 20 19 17 15 13 12 11 11 11 10 9 9 8 7 7 6 5 4 5 5 5 6 7 9 12 14 16 16 16 13 10 9
46 40 43 54 55 50 52 54 50 48 47 45 44 44 42 42 40 39 38 37 37 37 36 35 34 32 31 30 28 26 25 23 22 21 19 16 14 12 12 13 12 11 10 10 10 10 10 8 7 5 5 5 5 5 5 7 10 12 13 14 14 11 10
49 44 45 54 60 57 55 57 54 51 51 50 49 48 46 43 41 39 40 39 37 37 37 36 35 34 34 33 31 30 28 27 25 24 23 21 17 14 13 13 14 13 12 12 12 12 13 12 11 9 7 7 7 7 5 4 4 7 9 11 12 12 11
49 48 51 54 60 60 57 58 57 55 55 51 49 50 49 47 45 43 42 41 39 39 41 42 41 40 39 38 35 33 32 31 29 28 27 25 23 20 16 15 16 16 16 15 14 14 14 14 13 11 8 7 8 9 9 8 6 4 5 7 9 10 11
50 51 56 57 60 62 60 58 56 55 59 57 50 49 50 50 50 49 47 46 46 47 50 49 46 44 43 42 40 37 36 35 34 32 30 28 27 26 23 19 18 18 19 19 18 18 16 15 14 13 11 8 6 7 9 11 11 10 8 7 7 8 9
50 51 53 55 59 64 63 61 57 53 56 58 53 48 47 49 52 52 50 50 51 52 53 52 49 47 46 45 44 41 38 37 37 35 33 31 30 30 29 26 24 22 22 22 22 21 19 18 17 16 16 15 13 11 10 10 13 14 13 11 10 8 8
46 48 47 47 53 62 66 64 61 57 52 53 55 52 48 48 50 53 53 51 52 53 53 53 52 50 49 49 46 44 41 39 38 37 34 32 31 31 31 30 28 26 25 25 25 24 22 22 21 20 20 21 21 19 15 12 13 15 16 16 16 13 11
46 47 47 45 43 50 62 65 62 59 54 52 56 57 54 51 50 53 56 55 53 54 54 54 54 53 52 51 50 47 46 43 41 39 36 34 34 34 33 33 32 30 28 28 27 26 25 25 25 23 23 24 24 23 20 17 15 14 16 18 20 19 16
59 49 48 52 45 38 47 56 57 56 55 55 55 57 58 57 53 54 58 57 54 55 55 53 54 54 53 53 52 50 48 46 45 43 40 40 40 38 36 36 35 34 32 30 30 30 28 27 27 27 26 26 25 25 23 21 20 19 17 16 18 20 20
80 64 54 58 56 45 42 48 51 51 51 50 49 52 56 56 53 55 59 59 55 55 56 56 55 54 53 52 52 53 52 51 49 47 45 45 45 42 39 38 37 36 35 33 33 34 31 29 29 30 30 29 28 27 26 25 25 26 24 20 19 20 20
93 86 75 68 65 62 58 56 54 51 50 46 42 45 48 48 48 52 58 61 57 52 53 55 56 55 53 50 50 51 53 53 52 51 51 50 49 47 45 43 41 40 38 36 37 37 34 32 33 33 32 31 30 29 29 28 29 30 29 27 25 25 24
95 96 94 85 79 78 77 75 68 61 57 52 48 48 51 53 54 54 55 59 59 54 50 50 51 52 52 51 51 50 52 52 51 52 53 52 50 50 48 47 46 45 42 41 40 39 37 36 36 35 34 34 33 32 31 31 31 31 32 30 29 29 30
91 95 97 95 94 94 94 93 89 80 72 67 63 61 60 60 62 60 56 56 57 56 54 52 53 53 52 52 53 53 53 53 52 52 52 50 49 48 47 47 47 46 45 44 43 41 40 40 40 39 38 38 36 34 33 32 31 32 33 33 32 32 34
88 91 95 97 98 101 103 104 103 99 93 89 84 80 75 71 68 67 64 62 59 58 59 58 59 59 57 55 55 54 54 55 55 55 53 51 49 48 47 48 47 46 45 45 44 42 40 39 39 37 38 39 39 38 36 35 35 35 35 34 33 33 35
90 92 94 97 99 101 104 106 107 106 103 101 99 96 93 90 86 83 82 80 76 72 69 66 64 64 63 62 60 58 57 57 58 59 56 53 52 51 50 50 48 45 42 42 43 41 38 38 38 37 38 40 41 40 40 39 39 38 38 36 35 35 36
93 93 94 96 98 100 102 105 108 108 107 105 103 102 102 102 101 99 96 95 92 89 84 79 74 70 69 68 66 65 63 62 62 62 59 55 53 53 52 53 53 50 46 44 45 45 42 41 41 40 38 38 38 39 40 41 42 40 39 39 39 39 39
97 96 96 96 97 98 98 100 104 107 108 107 105 104 104 104 103 102 100 99 97 95 92 89 86 81 78 75 73 72 71 68 66 66 63 59 57 56 56 56 56 57 55 51 49 49 48 47 46 45 41 37 36 38 41 43 43 42 39 37 39 41 42
103 102 100 99 99 100 100 99 100 102 104 106 106 106 105 105 104 103 102 100 99 97 96 94 92 90 87 84 80 78 76 75 73 72 69 66 64 63 62 61 61 62 62 60 57 54 53 53 54 54 51 45 41 42 45 45 44 43 41 39 38 40 42
102 106 106 103 102 102 103 103 101 101 101 102 104 105 106 106 105 104 104 102 100 99 98 96 95 94 92 91 90 88 85 84 84 82 80 76 73 70 68 65 65 66 67 68 67 65 62 61 60 60 59 56 51 49 48 48 49 50 48 44 42 41 43
98 103 106 107 106 104 104 105 105 104 103 101 102 103 105 106 106 106 105 105 103 101 100 99 97 96 95 95 95 94 92 92 92 90 88 84 82 79 76 71 67 67 68 70 72 72 71 70 68 67 66 66 65 62 56 53 54 56 54 51 49 49 50
97 99 102 105 106 105 105 104 105 106 107 105 103 103 103 104 105 106 106 105 105 104 103 102 100 99 98 97 97 96 95 95 94 93 91 89 87 85 84 81 77 73 71 70 72 73 73 72 72 73 72 72 73 74 69 63 60 61 60 57 55 55 56
98 100 102 103 104 103 104 105 103 104 106 107 107 106 105 104 104 104 104 105 105 106 105 105 104 103 102 100 99 98 97 97 96 94 93 91 90 89 88 88 87 85 81 76 74 74 73 73 73 74 74 73 74 76 76 74 70 68 66 63 60 59 60
99 99 100 103 105 104 104 105 105 104 103 105 106 108 108 107 105 104 103 103 103 105 105 105 106 105 105 104 103 102 101 99 98 97 95 93 92 93 93 93 93 94 92 87 83 80 78 78 78 77 77 77 76 76 77 78 78 75 72 69 65 62 63
105 101 98 99 103 105 106 106 106 105 104 104 105 107 108 107 107 106 106 105 105 106 106 106 106 107 107 107 106 106 105 104 102 100 98 96 94 95 97 98 98 97 96 94 91 88 87 85 83 81 81 81 81 80 80 80 80 80 79 75 69 63 62
109 107 104 101 100 103 106 107 107 106 106 105 105 105 106 106 106 106 107 108 108 108 108 108 109 110 109 109 108 108 108 108 107 104 102 100 98 99 101 103 102 100 98 97 95 94 93 92 89 86 84 83 84 84 84 83 82 82 83 82 77 71 67
111 111 109 106 103 102 104 106 108 108 107 107 106 106 106 106 106 106 107 107 107 108 109 110 112 114 113 111 110 110 110 110 109 108 106 105 104 104 105 106 105 102 100 99 98 97 97 96 95 94 92 90 88 87 87 87 86 86 87 87 86 83 80
110 111 112 112 109 106 104 105 106 107 108 108 108 107 107 106 106 106 107 108 108 108 108 109 111 114 115 115 114 113 112 111 110 109 108 109 109 109 109 109 108 105 103 102 100 100 99 99 99 99 98 97 96 94 91 90 89 89 91 92 93 93 92
110 109 111 114 114 112 110 108 107 106 107 107 108 108 107 107 107 107 107 107 108 110 111 110 110 112 116 117 116 116 115 114 112 111 111 110 111 111 111 111 110 109 108 106 104 103 102 102 101 101 101 101 101 100 98 97 95 95 95 97 98 99 98

ECMWFFLT1_250_spd_117.txt.gz
Wind_Speed
36 33 32 32 30 27 26 25 23 22 20 19 18 16 15 13 12 11 9 6 4 3 1 2 4 6 8 7 6 7 10 12 14 16 18 20 21 23 24 24 25 25 25 25 25 24 25 25 24 22 21 20 21 22 24 24 24 24 24 24 23 22 22
39 36 35 36 33 29 28 28 26 24 23 22 21 20 19 16 15 14 13 11 8 5 4 3 3 4 5 6 5 4 6 9 11 13 15 16 18 19 21 23 23 24 24 24 24 24 24 24 24 23 22 20 19 20 23 24 24 24 24 24 23 22 22
41 39 38 38 36 34 32 31 29 27 25 25 24 23 22 20 19 18 17 15 12 9 7 6 6 6 6 5 4 3 3 6 9 10 12 13 15 16 18 20 21 22 23 23 23 24 24 24 24 24 23 21 19 19 21 22 23 24 24 24 23 22 21
42 40 39 37 37 36 35 33 31 29 27 27 26 26 25 23 22 21 20 18 16 13 11 9 9 8 8 8 6 4 4 5 8 9 9 10 12 13 14 16 17 19 21 22 22 23 24 24 24 24 24 23 21 19 19 20 21 22 23 23 23 22 20
43 41 39 38 37 36 35 33 30 29 29 28 27 27 27 26 24 23 22 21 18 16 14 13 11 11 11 11 9 8 7 6 7 9 8 8 8 10 12 13 14 15 17 19 20 21 22 22 23 23 23 23 22 21 19 18 19 20 21 22 22 21 20
44 42 40 39 38 36 35 33 31 30 30 30 29 29 29 27 26 24 24 23 21 19 17 15 14 14 13 13 12 11 10 9 8 8 8 8 6 7 8 10 11 12 13 15 16 17 18 19 20 21 22 22 22 21 20 18 17 17 19 20 20 21 20
46 44 41 39 38 36 34 33 32 31 31 32 32 32 32 30 28 27 26 25 24 22 21 19 17 17 16 15 15 14 13 12 11 10 9 9 8 6 6 7 9 9 10 11 12 13 14 15 16 17 18 19 19 20 20 19 17 16 16 16 17 18 18
48 45 42 40 38 36 34 33 33 32 33 36 37 36 36 34 32 30 29 28 27 26 24 22 21 20 18 17 17 17 16 15 14 12 11 11 10 9 7 6 7 8 8 8 8 10 11 11 12 13 14 16 17 18 18 19 18 16 15 15 14 15 16
49 45 42 42 42 40 36 32 31 31 35 39 42 42 40 38 37 34 32 30 29 30 28 25 24 23 22 20 19 19 19 17 16 15 13 13 12 11 10 9 8 7 7 7 6 6 8 9 9 10 11 12 14 15 15 16 17 17 16 14 13 12 12
46 44 43 44 45 45 41 35 32 34 37 40 44 47 45 42 40 37 34 31 30 30 30 29 27 25 24 23 21 21 21 20 19 17 16 15 13 12 11 11 11 9 7 7 7 7 6 7 7 8 9 9 10 12 13 13 14 15 15 14 13 12 10
47 47 45 43 43 45 46 43 39 38 41 43 44 46 47 45 43 40 35 32 32 31 31 31 30 29 27 26 24 24 24 24 22 20 19 17 16 15 14 13 12 11 9 8 8 8 8 7 8 8 8 8 7 8 9 10 11 11 12 12 12 11 11
52 49 45 40 37 39 44 47 44 43 45 46 44 43 45 46 45 44 39 35 35 35 35 33 32 31 30 29 28 27 26 26 26 24 22 20 19 18 16 15 14 13 12 10 9 9 10 9 9 9 9 7 7 7 6 6 7 8 9 9 9 9 10
53 48 42 40 39 38 41 44 43 42 43 45 45 45 46 46 46 45 43 39 39 39 39 37 35 33 33 33 33 32 30 30 29 28 26 23 22 21 19 18 16 15 14 12 12 11 11 12 11 10 9 8 6 5 6 6 6 6 7 7 7 7 7
52 50 44 40 40 40 39 40 41 42 42 42 44 46 49 49 47 44 41 40 41 42 41 39 37 35 34 35 35 35 34 33 32 32 29 26 25 24 23 21 19 18 16 15 14 13 13 14 14 12 11 10 8 6 5 6 7 8 8 8 6 5 5
49 50 49 45 43 41 38 38 38 39 42 44 45 47 49 50 49 45 39 37 38 40 41 39 37 36 37 36 36 37 36 35 35 34 32 30 27 26 27 26 24 22 20 19 17 17 16 16 16 15 13 12 12 12 11 10 10 10 11 11 9 6 4
52 49 50 48 47 44 39 39 39 36 38 42 46 49 48 48 50 49 45 41 41 41 40 38 35 35 37 38 37 38 39 38 37 36 35 34 32 30 30 30 28 26 25 24 23 21 20 19 18 17 16 15 14 14 13 13 12 12 13 14 14 11 8
57 53 50 49 51 50 42 40 43 42 41 41 44 48 49 48 48 50 49 48 47 46 43 40 36 34 36 37 36 38 40 40 39 38 37 36 36 35 34 33 31 29 29 29 28 26 25 24 21 20 19 19 18 17 17 17 15 15 16 18 18 15 12
59 56 52 50 54 57 52 47 47 47 46 46 45 47 49 50 47 47 50 51 49 47 46 44 39 37 38 37 34 33 36 39 42 42 38 36 38 39 38 36 33 31 32 32 31 29 28 27 25 24 22 22 21 20 21 21 20 20 21 21 21 20 17
67 61 55 51 52 57 58 54 51 47 45 46 48 49 50 52 51 47 48 53 51 47 46 45 43 42 44 43 38 34 35 41 46 46 39 36 38 39 38 37 35 33 33 34 32 31 31 29 28 26 24 24 23 24 24 24 23 24 24 24 24 22 20
72 71 65 57 55 57 58 56 52 49 48 46 47 50 51 52 55 52 50 52 52 47 44 44 44 45 47 48 46 44 42 43 47 45 40 38 40 40 38 37 37 36 35 35 35 34 33 32 31 29 28 27 26 26 27 27 26 26 27 28 27 25 23
70 74 74 70 66 64 63 62 57 54 55 53 49 49 50 53 57 58 55 55 54 49 46 46 47 48 50 52 53 52 50 49 51 51 48 47 47 46 43 40 38 37 37 38 38 38 37 35 34 32 31 30 30 30 29 29 29 29 29 30 29 28 28
71 72 77 79 78 74 70 69 66 60 60 62 59 55 53 57 62 62 60 58 57 52 49 49 49 49 52 56 60 61 61 60 62 62 59 56 55 56 54 51 48 45 44 44 43 43 42 40 37 35 35 33 32 32 32 33 32 32 32 32 31 30 30
74 74 76 79 81 81 77 75 74 69 63 65 69 67 62 61 64 65 64 63 62 60 58 56 53 50 50 54 59 63 65 66 66 65 64 62 59 59 60 58 55 52 50 50 49 48 47 44 42 40 39 37 35 34 35 35 35 34 35 35 34 32 31
75 76 76 77 78 79 80 79 79 76 69 65 67 71 72 70 69 68 69 69 68 66 64 64 62 57 54 55 57 58 60 64 65 64 65 64 61 59 59 58 56 55 54 53 53 52 50 48 46 45 43 40 38 37 37 38 38 37 38 39 38 36 34
78 78 77 79 79 78 78 80 80 79 75 70 67 69 73 75 74 72 71 71 71 68 65 66 68 65 61 63 63 59 58 61 63 61 61 62 61 59 60 60 58 56 55 53 53 53 53 51 49 47 45 43 42 41 41 40 40 38 38 39 40 40 39
85 83 80 81 83 80 79 80 80 78 78 78 75 72 72 74 77 77 74 72 72 70 66 65 69 69 67 67 66 63 60 63 65 63 61 61 59 57 57 59 58 56 55 53 51 50 50 50 50 49 47 45 44 42 39 39 38 36 36 37 39 42 44
95 90 85 83 84 83 81 82 82 80 79 81 81 77 73 72 75 79 78 74 72 71 67 65 68 71 71 70 67 64 63 64 66 65 61 60 60 57 55 54 54 54 55 54 53 51 48 47 48 49 47 45 43 41 39 37 36 35 35 37 39 42 45
103 100 95 91 88 86 83 84 85 85 82 82 84 82 75 70 71 76 77 74 71 70 69 68 70 71 72 71 68 67 66 66 67 66 62 60 60 60 59 57 55 53 54 56 56 55 53 50 50 50 49 46 44 43 42 40 36 34 35 38 41 43 44
107 105 104 101 98 94 90 87 87 88 87 86 87 86 82 75 72 73 74 73 71 70 70 72 74 74 73 71 69 70 70 68 67 68 67 63 62 60 60 60 59 56 54 56 59 59 58 56 54 54 53 52 51 50 49 46 42 40 40 41 45 46 45
108 108 108 109 108 104 100 97 94 93 91 90 89 89 88 84 80 78 78 76 73 71 72 75 77 77 75 73 71 73 76 74 70 68 68 67 65 64 62 63 64 61 57 56 58 60 61 60 59 58 57 56 57 57 56 51 47 45 46 48 52 51 48
106 108 109 112 114 112 109 107 105 102 99 96 94 93 92 90 89 88 87 85 82 79 78 79 81 81 81 79 76 76 78 79 76 73 70 69 69 68 68 69 69 67 64 60 58 58 58 59 61 62 62 61 61 62 62 59 54 52 52 54 57 57 55
107 108 109 111 114 115 114 112 112 111 110 107 103 100 98 97 96 96 96 95 93 91 89 87 86 85 85 85 84 82 82 82 80 78 76 75 75 76 78 79 78 76 73 70 67 64 61 60 60 62 64 64 65 66 66 66 63 62 61 61 62 62 62
109 110 111 111 112 114 116 117 115 115 115 114 112 109 107 106 105 105 105 104 103 102 101 99 96 93 92 91 91 90 89 89 89 88 88 89 90 91 93 93 90 87 83 83 83 80 77 72 69 67 67 67 67 67 68 69 69 69 69 69 70 70 70
112 111 111 112 112 113 115 117 118 118 117 116 116 114 112 111 111 111 111 111 112 112 110 108 106 104 102 100 100 101 101 101 102 102 102 103 104 104 103 101 97 92 89 91 93 92 89 85 81 78 76 74 72 71 71 72 73 73 75 76 77 78 78
114 113 112 112 113 115 115 116 118 120 119 119 118 117 115 113 112 112 111 111 113 115 116 114 113 112 110 109 109 109 110 111 111 111 111 111 110 109 106 104 101 98 95 95 96 96 96 94 92 89 86 83 80 77 75 75 75 75 75 77 78 80 81
115 115 114 113 113 115 116 116 117 119 120 121 120 120 119 118 116 114 112 111 110 112 115 116 116 115 115 115 115 114 113 113 113 112 112 111 111 110 108 107 105 104 102 101 99 98 99 100 100 99 97 94 91 88 86 86 86 85 83 82 82 82 83
115 117 117 116 115 115 116 117 118 119 120 121 122 121 121 121 120 119 117 115 113 112 112 113 114 114 115 115 116 116 115 114 113 112 111 111 110 109 109 109 108 107 106 106 104 102 103 105 106 105 104 102 101 101 101 101 100 98 95 93 91 89 88
115 116 117 118 118 117 116 116 118 120 121 122 123 123 123 122 121 121 121 120 119 117 116 115 114 114 114 114 115 116 116 115 114 113 113 112 111 109 109 108 108 107 107 106 106 105 106 109 110 109 107 106 105 105 106 105 104 102 101 99 98 97 95

ECMWFFLT1_250_spd_120.txt.gz
Wind_Speed
37 36 34 32 30 26 24 24 24 24 22 20 18 15 13 11 9 7 5 3 2 2 2 3 5 7 8 9 9 10 12 15 16 17 18 20 22 23 25 26 26 26 27 28 28 28 28 28 28 28 28 29 28 28 28 27 27 26 25 24 24 25 26
38 39 38 36 34 31 27 25 26 27 25 23 21 18 16 14 11 9 8 7 6 5 3 3 3 5 6 7 8 8 9 11 13 14 16 17 18 20 21 23 24 24 24 26 26 27 27 26 26 26 27 27 28 28 27 27 26 26 25 24 24 24 25
41 41 41 39 36 34 30 26 28 30 27 25 23 21 19 17 15 13 11 10 9 9 7 5 4 4 5 6 7 7 8 9 10 11 13 14 15 16 18 19 20 21 22 22 24 25 25 25 25 25 25 25 26 26 26 26 25 25 24 24 23 22 22
45 44 42 40 37 35 33 29 29 31 29 27 26 24 22 20 18 16 14 12 12 12 11 9 6 5 5 6 7 7 7 8 9 9 10 10 11 13 14 15 16 17 18 19 21 22 23 23 23 23 23 23 23 24 24 24 24 23 23 22 22 21 20
46 46 44 42 39 37 35 31 31 32 30 28 27 26 25 23 21 19 17 15 14 14 13 12 10 8 7 7 7 8 8 8 8 9 9 9 9 10 11 12 13 14 15 16 17 18 19 21 21 21 21 21 21 21 22 22 22 22 21 20 20 19 19
47 47 46 43 41 39 35 33 32 31 30 29 28 27 26 24 22 21 20 17 16 15 15 14 13 12 10 9 9 9 9 9 9 9 10 9 8 8 8 9 10 11 12 13 14 15 16 17 19 19 19 19 19 19 20 20 20 20 20 19 18 18 17
48 47 46 43 42 41 37 35 35 34 31 30 30 29 27 26 24 23 21 20 18 17 16 16 15 14 12 11 11 11 10 11 11 10 10 10 10 9 8 7 8 8 9 10 11 12 13 14 15 16 17 17 17 17 18 18 18 18 17 17 17 16 16
48 47 46 43 42 42 41 38 38 37 34 32 31 31 29 27 26 25 23 22 21 20 19 19 18 17 16 14 13 13 12 12 12 12 11 11 11 11 9 8 7 6 6 7 8 9 9 10 12 13 14 15 15 15 15 16 16 16 16 15 15 14 14
47 46 46 44 43 44 43 40 37 36 33 31 31 31 30 29 28 28 26 24 24 24 23 23 21 21 20 17 15 15 15 15 14 14 13 13 12 12 12 10 8 6 5 4 5 6 7 7 8 9 10 11 12 13 13 13 13 14 14 14 13 12 12
46 44 44 43 42 43 42 40 37 35 31 29 29 30 31 31 29 28 28 27 27 28 28 28 26 24 23 21 20 19 18 17 17 16 16 15 14 14 13 13 11 9 7 5 4 4 5 5 6 6 6 7 8 9 10 11 11 11 11 12 11 11 10
45 42 42 42 42 42 42 41 38 34 31 29 28 29 32 33 31 30 31 31 31 31 32 32 31 29 26 24 23 22 21 20 20 19 18 18 17 16 16 15 14 12 10 8 7 5 4 4 4 4 4 4 4 5 6 7 8 8 8 8 9 9 9
44 42 41 41 41 41 41 40 36 32 31 30 31 31 33 34 34 34 34 34 34 35 36 36 35 33 31 29 27 26 25 24 23 22 21 21 20 19 18 18 17 15 13 12 11 9 7 6 5 4 5 5 4 3 3 3 4 5 5 6 6 6 6
45 45 44 42 41 41 40 37 35 33 32 33 34 34 33 34 36 37 37 36 36 37 39 39 38 37 35 33 31 29 29 27 27 26 24 24 23 22 21 21 20 18 16 14 14 13 11 9 7 7 7 7 7 6 5 3 2 3 4 4 4 4 4
48 49 51 49 45 44 44 40 38 37 36 37 38 36 36 36 36 36 38 38 38 39 40 40 40 39 39 38 36 35 33 30 30 29 28 27 26 25 24 24 23 21 20 17 16 17 16 14 11 10 10 10 10 10 10 8 5 5 6 5 3 3 2
57 54 53 53 51 49 48 45 42 40 40 41 42 40 39 38 35 34 36 38 38 39 40 42 41 39 39 42 43 42 39 34 32 32 31 30 29 28 27 27 26 24 23 22 20 19 19 18 15 13 12 12 13 13 14 13 9 7 7 6 5 4 3
62 60 56 56 56 55 51 45 42 41 40 42 45 45 43 41 38 37 37 37 38 38 39 41 41 39 38 40 43 44 42 39 36 34 33 32 31 30 29 29 28 26 25 25 24 23 22 21 19 17 16 15 15 15 15 15 13 11 10 10 10 9 8
62 60 58 58 59 59 52 44 42 42 40 40 43 46 45 45 44 43 42 41 40 40 39 38 38 38 38 41 44 44 42 40 38 36 35 33 32 32 32 31 31 29 27 27 27 27 27 26 25 23 21 20 19 17 16 16 17 17 15 14 14 14 13
70 61 56 59 63 61 53 45 42 42 40 39 43 46 46 46 48 48 47 47 46 45 45 43 41 40 41 44 46 45 42 40 39 37 35 34 34 35 34 34 35 34 30 29 29 30 30 30 29 28 27 25 23 21 19 19 20 20 20 20 19 18 17
82 71 61 61 67 65 57 49 44 42 41 41 43 48 48 47 49 52 52 50 51 51 50 47 44 43 43 45 46 46 44 41 39 36 34 33 34 36 36 35 36 37 34 32 32 31 32 33 32 31 30 29 27 24 21 21 22 23 22 22 22 21 20
88 84 73 67 69 68 63 56 50 46 45 43 43 45 48 48 50 53 52 51 52 52 50 49 48 47 45 45 46 48 48 44 39 36 35 35 34 36 37 36 37 38 37 35 35 35 35 35 35 34 33 32 30 28 26 24 25 25 25 24 24 24 24
89 89 84 77 72 69 64 61 57 52 49 47 44 43 45 48 50 49 46 47 52 55 54 53 54 53 52 49 48 48 50 48 42 38 39 40 38 37 38 38 39 41 41 37 35 34 35 35 35 36 35 35 33 31 30 29 29 29 28 27 27 27 27
91 90 91 87 81 74 67 63 61 58 54 52 49 46 45 47 49 50 49 51 55 57 58 59 59 59 60 60 57 53 51 49 46 43 43 45 43 40 40 40 40 40 40 39 36 32 32 33 35 36 36 36 36 35 34 34 33 32 31 29 29 29 29
94 92 92 93 90 84 76 70 66 63 61 59 56 52 47 44 45 50 54 58 59 57 60 63 62 61 64 65 65 61 56 53 50 48 47 47 46 43 41 42 41 38 40 44 42 35 33 35 36 37 37 37 37 37 36 37 37 36 34 33 33 33 32
96 95 95 95 94 91 85 79 73 68 66 66 63 58 54 50 49 49 51 56 60 59 59 62 63 63 65 66 66 65 61 57 54 53 51 49 49 47 45 45 44 42 43 48 46 41 40 39 39 39 40 40 40 40 39 39 40 41 40 38 37 37 37
98 97 97 97 97 95 90 86 82 76 72 72 70 66 64 62 61 59 56 55 58 58 58 61 64 65 66 66 65 64 62 59 56 56 56 54 53 52 52 51 50 48 48 50 51 50 49 47 45 44 43 44 45 45 44 41 41 43 44 44 42 41 40
100 99 100 99 99 98 95 91 89 85 80 78 77 75 74 73 71 69 66 62 60 60 61 63 65 66 67 66 64 62 62 62 60 60 61 59 55 54 56 57 57 57 56 55 55 55 54 53 52 51 52 54 55 54 52 49 46 45 45 45 44 43 42
100 101 102 101 100 100 99 96 93 90 85 83 83 83 82 81 78 75 73 71 68 66 66 67 68 68 70 70 66 63 63 64 63 63 63 61 57 56 57 60 62 64 63 57 50 47 49 52 53 52 53 57 59 59 59 57 55 53 51 49 48 45 42
100 100 101 102 102 101 100 98 96 93 89 87 87 89 88 87 85 81 78 77 76 74 73 72 71 71 72 73 69 65 65 65 65 65 64 63 60 59 60 64 65 66 66 61 51 45 45 47 49 50 53 55 56 58 60 60 59 56 54 53 51 48 44
99 100 100 102 102 101 101 100 97 94 92 90 90 92 93 92 90 87 83 80 79 78 76 74 73 73 74 75 72 69 67 67 67 67 65 64 63 62 64 67 69 68 67 64 60 57 55 54 52 55 59 61 60 60 60 61 60 56 53 53 52 51 48
97 97 98 100 102 102 101 101 98 96 95 94 93 93 94 95 94 92 88 84 83 82 79 77 76 75 76 77 77 74 71 70 70 69 67 66 65 65 65 67 70 71 70 68 66 65 64 63 63 63 65 66 66 64 60 59 59 56 53 52 53 52 50
97 96 95 97 100 102 102 102 101 99 98 98 98 97 96 96 97 96 94 90 87 86 84 83 81 79 78 79 79 78 75 74 74 73 71 69 68 67 67 67 69 72 73 72 71 70 68 67 67 68 69 70 70 69 66 63 60 58 56 54 53 52 50
101 100 97 96 96 98 101 102 103 103 102 102 102 102 101 99 98 98 98 96 93 91 89 88 87 85 83 81 81 81 80 79 79 78 77 76 74 73 72 71 71 72 75 76 76 75 74 72 70 69 69 69 68 68 69 68 64 62 60 58 56 56 53
104 104 104 101 98 97 99 101 103 105 106 105 105 105 105 105 103 101 100 100 99 97 95 94 93 92 89 87 85 85 85 84 84 83 82 82 81 80 80 79 76 74 76 79 79 78 79 79 77 75 73 70 66 65 66 68 66 65 64 62 61 62 61
106 106 107 107 104 101 101 101 103 106 107 108 107 107 107 108 108 107 105 103 102 101 100 99 99 98 96 94 92 90 90 89 88 87 87 86 85 84 83 83 81 78 78 80 81 81 82 83 82 81 80 77 72 69 68 67 66 64 64 64 64 66 67
108 108 108 110 110 108 105 104 105 107 108 108 109 109 109 109 110 110 109 108 106 104 102 102 103 103 101 100 98 97 96 95 94 93 92 91 90 88 86 85 85 83 82 81 82 83 85 85 85 84 84 82 79 77 75 73 70 67 65 64 64 66 69
110 110 110 111 112 113 112 109 108 108 109 110 110 110 111 111 112 112 112 112 111 109 105 103 103 104 104 102 101 100 100 100 100 99 98 97 95 94 92 90 89 89 87 86 86 86 87 88 88 87 87 86 84 81 78 76 75 74 71 69 68 68 69
112 112 113 113 114 115 117 116 114 112 111 112 112 112 112 113 113 114 114 115 115 114 111 107 104 104 104 103 101 100 99 100 101 102 102 101 100 98 97 95 94 93 91 90 90 90 90 90 90 90 90 90 89 86 82 79 79 79 77 76 75 74 74
114 114 115 115 116 117 118 120 121 120 118 116 115 114 114 114 115 116 116 116 116 117 116 113 109 106 104 103 101 99 98 99 99 100 101 101 101 101 99 98 96 96 95 95 95 95 93 92 92 92 92 93 93 92 90 87 86 85 84 83 82 82 84

ECMWFFLT1_250_spd_123.txt.gz
Wind_Speed
36 34 34 35 35 32 28 25 24 22 20 19 16 14 11 9 7 5 3 1 1 1 3 5 7 9 11 12 13 14 16 17 18 19 20 21 22 22 24 26 27 27 27 27 27 27 28 28 28 27 26 26 26 25 25 24 24 24 25 26 27 27 27
38 36 35 35 36 34 29 26 25 23 22 20 19 17 14 12 10 8 6 4 2 1 1 1 3 5 7 9 10 12 13 14 15 16 16 17 18 18 19 21 23 24 25 26 26 26 26 26 27 26 26 25 25 25 24 24 24 24 24 24 24 24 24
40 38 37 36 36 35 31 28 27 25 23 22 20 19 17 15 13 11 9 7 6 5 4 3 2 2 3 5 7 9 10 11 12 13 13 14 15 15 16 17 18 20 22 23 24 24 24 24 24 25 25 24 24 23 23 22 22 22 22 23 23 23 23
42 41 39 38 37 36 34 31 30 28 26 23 22 21 20 19 17 15 12 11 9 8 7 6 5 4 2 2 3 5 7 8 9 10 10 11 12 12 13 14 14 16 18 19 21 22 22 22 22 22 23 23 23 22 22 21 21 21 20 20 20 20 21
44 42 41 40 40 39 37 35 33 31 28 25 24 23 23 22 21 19 16 14 12 11 10 9 8 7 6 4 2 2 3 4 5 6 7 8 9 9 10 11 11 12 14 15 17 19 20 20 20 20 21 21 21 21 21 20 20 19 19 18 17 17 17
45 44 42 42 42 41 40 37 34 32 30 28 26 26 26 25 25 23 20 16 15 14 13 11 11 10 9 7 5 4 2 2 2 3 4 5 6 6 7 8 8 9 10 12 13 15 16 17 17 18 18 19 19 19 19 19 19 18 18 17 16 15 15
46 47 45 43 44 43 41 39 35 32 32 31 28 27 28 28 26 26 23 18 16 15 14 13 13 12 11 10 9 7 6 4 3 2 2 2 3 4 5 6 6 6 7 8 9 11 12 13 14 14 15 16 16 17 17 17 17 17 16 16 15 15 14
48 49 47 45 45 44 42 39 35 33 33 32 30 29 29 29 27 26 24 21 18 17 16 15 15 15 14 13 12 10 9 8 7 6 5 4 4 3 3 3 4 5 5 5 6 7 8 9 10 10 11 12 14 14 15 15 15 15 15 14 14 13 13
48 49 47 45 45 44 41 38 35 33 33 33 32 30 30 30 29 27 25 23 21 20 18 17 17 18 18 17 16 14 13 12 11 9 8 8 7 6 5 4 4 5 5 4 4 4 5 6 7 7 7 8 10 11 13 13 13 14 13 13 12 11 11
45 49 48 47 45 44 41 36 33 33 34 34 34 33 32 32 30 28 27 26 24 22 21 21 21 21 22 21 20 19 17 16 15 13 12 11 11 10 9 7 6 6 6 6 5 4 2 3 4 4 5 5 5 7 9 10 11 11 12 12 11 10 9
43 46 49 50 47 45 42 37 35 36 36 36 36 35 33 33 32 30 29 28 26 23 24 25 25 25 25 25 25 23 22 20 19 17 16 14 14 13 12 11 9 8 8 9 8 7 5 3 2 2 2 3 3 4 5 6 8 8 9 9 9 9 8
45 44 48 52 51 46 42 38 39 41 40 39 38 38 38 37 34 32 31 30 29 27 27 28 29 29 29 29 29 28 26 25 23 21 20 18 17 16 15 15 13 12 11 11 12 11 10 7 5 4 3 2 2 2 2 3 4 4 5 5 6 7 7
50 48 46 48 50 48 44 42 43 45 44 42 41 42 42 40 36 34 32 30 31 33 34 33 32 31 32 32 32 31 30 29 27 25 24 22 20 18 17 17 16 15 14 14 14 14 14 12 10 8 7 6 5 4 3 1 1 1 1 2 2 3 3
53 51 48 47 49 48 49 49 48 47 47 47 47 45 44 42 38 35 32 30 33 37 39 38 36 34 35 35 34 34 33 32 30 28 26 25 24 22 21 20 19 18 17 17 17 17 17 16 14 12 11 10 8 7 5 3 2 3 3 3 2 2 2
55 52 51 53 53 51 52 53 52 51 51 51 51 49 46 44 41 37 33 31 33 37 40 41 40 38 38 38 37 36 34 32 31 31 30 29 28 26 24 23 22 21 21 21 21 21 20 19 17 15 13 12 10 10 9 8 7 6 5 4 4 4 3
62 56 54 58 59 55 54 54 53 54 54 52 53 53 49 45 41 36 32 29 32 36 39 41 42 41 40 40 38 35 33 31 29 31 33 34 33 31 29 28 26 25 25 24 24 24 24 24 23 21 18 16 14 13 12 13 12 11 9 8 8 8 7
66 63 59 61 64 60 56 55 52 51 53 53 54 54 49 44 41 37 33 31 33 37 40 41 42 44 42 40 38 36 34 33 30 30 31 32 32 31 31 32 31 29 28 27 26 27 27 27 27 27 26 23 20 18 16 16 16 16 14 13 12 11 11
65 68 65 64 66 64 59 57 54 51 52 53 53 52 49 45 41 37 37 38 37 38 41 43 43 44 43 42 40 38 37 35 33 32 30 28 29 31 34 36 36 34 32 30 28 28 29 31 31 30 30 29 26 24 22 21 21 20 18 17 16 15 14
64 69 71 68 66 65 63 61 57 54 54 55 54 52 49 45 42 40 41 42 40 39 41 44 44 43 44 44 42 40 38 35 33 32 29 27 30 35 39 40 40 38 36 34 32 31 31 33 34 33 32 30 28 27 26 25 24 23 22 20 19 19 18
69 70 74 72 69 68 67 65 60 56 57 56 55 54 52 47 43 41 39 39 38 40 43 44 43 42 44 46 46 44 40 36 35 35 32 31 33 36 39 40 40 40 38 37 36 35 35 36 36 36 34 32 30 30 29 28 27 26 25 24 22 22 21
78 74 76 73 71 72 74 71 65 59 59 59 56 56 54 50 46 43 38 36 37 41 46 47 44 41 43 45 47 48 46 41 39 40 39 38 39 40 41 39 39 40 39 37 36 37 39 39 38 37 37 35 33 32 31 30 30 29 28 27 26 25 24
85 81 80 77 72 71 73 72 67 64 63 62 59 58 56 53 50 46 39 36 38 42 46 47 45 44 45 47 47 47 49 49 47 45 44 44 44 46 46 43 40 42 42 38 37 38 41 42 40 38 39 38 36 34 33 31 31 31 31 30 29 29 28
93 88 85 82 78 74 71 66 62 63 66 67 65 63 60 56 55 52 45 41 42 44 47 49 49 48 50 52 52 49 47 50 52 50 48 46 45 47 49 47 45 46 44 40 39 40 41 42 41 38 38 38 36 33 30 29 30 32 32 31 32 32 32
99 96 91 87 83 81 77 70 63 62 66 68 68 67 64 60 59 58 54 48 46 47 50 52 53 54 55 56 56 53 49 48 50 52 49 46 44 46 49 48 48 49 47 43 42 43 42 42 42 40 38 37 35 33 31 30 32 33 33 32 32 32 33
101 100 98 94 89 86 83 79 72 67 67 70 70 69 67 65 63 61 59 56 54 53 53 52 51 53 56 57 55 54 54 53 53 53 50 48 48 49 50 50 50 51 50 47 46 46 44 43 44 43 42 41 39 37 35 35 35 36 36 35 34 33 33
101 101 100 98 95 93 90 86 81 74 71 73 74 74 73 71 68 64 61 61 61 60 58 56 54 54 56 58 58 58 58 58 58 58 55 53 55 56 56 56 54 53 53 52 50 50 49 47 47 47 47 46 44 41 38 38 38 38 38 38 37 35 35
101 102 101 98 96 96 95 93 88 80 76 76 78 79 79 76 72 69 65 63 63 64 62 61 61 62 62 62 62 62 62 62 63 63 61 58 60 63 63 60 57 54 53 53 53 53 53 53 52 51 49 48 47 46 45 44 42 42 42 44 42 40 37
101 102 103 101 97 96 96 96 93 86 80 80 82 83 84 82 78 74 70 66 65 66 66 64 65 67 68 66 64 64 65 66 67 67 67 65 66 69 70 66 63 61 59 58 57 57 58 58 58 56 52 50 49 50 50 50 49 49 51 52 50 47 45
101 102 104 104 102 99 97 97 97 92 84 83 86 88 88 87 84 80 76 72 69 69 70 69 69 69 69 68 67 66 66 69 71 72 71 72 73 75 76 74 72 71 70 67 64 63 62 62 62 61 58 55 54 53 53 54 55 56 59 59 56 53 51
101 102 103 105 105 103 101 100 101 99 93 89 89 91 92 92 90 86 82 79 75 73 72 73 73 74 72 72 72 71 69 70 73 75 76 77 78 78 79 78 78 77 76 73 70 68 67 67 66 65 63 61 60 59 58 59 61 62 64 65 63 58 55
102 102 103 105 105 105 104 102 102 104 103 99 95 94 95 96 94 91 88 84 82 79 76 75 76 77 77 76 76 76 75 75 75 76 77 80 81 81 80 79 79 79 78 76 73 71 71 71 71 70 69 67 66 66 66 66 67 68 69 68 67 64 61
102 103 104 104 105 106 106 106 104 105 106 107 105 102 101 100 99 96 93 90 87 85 83 81 80 79 79 79 77 76 77 79 79 79 79 80 82 84 84 82 80 79 79 77 76 75 75 75 75 74 74 73 72 73 73 72 73 74 74 72 70 68 65
102 103 104 105 105 106 107 108 107 107 107 109 111 111 110 108 106 104 100 96 93 91 89 88 87 86 85 84 82 79 78 79 79 80 81 82 82 84 86 85 84 82 80 78 77 77 77 78 79 79 78 77 76 76 77 77 77 77 77 75 72 70 68
104 104 104 105 106 107 108 108 109 109 109 110 111 114 115 115 114 113 110 105 101 98 95 93 93 93 92 92 92 90 88 86 84 82 82 83 84 84 86 87 86 84 83 81 80 79 80 80 81 82 81 80 80 79 79 79 80 79 78 76 75 73 73
106 106 106 106 107 108 108 109 110 110 111 112 113 114 116 117 118 119 118 115 111 107 103 100 98 97 96 96 96 96 96 95 92 89 86 85 85 86 87 88 88 87 86 85 83 83 83 83 83 82 80 79 80 81 80 80 81 80 79 78 77 76 76
108 107 107 107 108 109 109 110 111 111 112 113 115 115 116 117 119 121 121 120 118 115 111 108 105 102 100 99 98 99 99 98 97 95 92 89 88 88 89 89 90 90 90 89 87 86 87 87 87 85 81 77 78 79 80 80 81 82 81 81 80 80 79
109 109 109 109 109 110 111 112 112 112 112 113 115 116 117 118 119 121 122 122 121 120 117 114 111 109 107 104 102 102 102 102 101 100 98 95 94 93 92 92 92 92 93 93 91 89 89 89 89 89 87 83 80 79 80 81 81 82 83 83 83 83 82
110 110 110 110 110 111 111 113 114 114 114 114 115 116 118 119 120 121 123 124 124 123 121 118 116 113 112 110 108 107 106 106 106 105 104 102 100 99 98 97 97 96 96 96 95 94 92 91 90 91 91 91 88 86 85 86 86 85 86 86 86 86 86

ECMWFFLT1_250_spd_129.txt.gz
Wind_Speed
44 43 41 40 38 36 33 30 28 27 25 23 21 18 15 13 11 11 11 11 10 11 10 10 11 12 12 13 14 15 17 19 20 21 22 22 23 23 23 24 24 25 26 26 26 27 27 27 26 27 28 29 30 29 28 27 26 24 23 22 22 22 22
47 45 44 42 41 38 35 33 32 30 28 26 24 21 18 16 14 13 12 11 11 11 10 10 10 10 11 12 13 13 14 16 17 18 19 20 21 21 22 22 22 22 23 24 24 25 25 26 26 25 26 27 27 27 26 25 23 23 22 21 21 21 21
49 47 46 44 43 41 38 36 35 33 31 29 26 23 21 18 17 15 13 13 12 12 11 9 9 8 9 10 11 12 13 13 15 15 16 17 18 19 20 20 20 20 20 21 22 23 23 24 24 24 24 24 23 23 23 22 21 21 21 21 20 20 20
50 49 47 46 46 44 41 39 38 36 34 32 29 26 23 21 20 18 16 14 14 13 12 10 9 8 7 7 9 10 11 11 12 13 14 14 15 16 18 18 19 19 18 19 19 20 21 22 22 23 23 22 21 20 20 20 19 19 19 19 19 19 19
52 51 50 49 48 47 44 42 40 39 38 35 32 29 26 25 23 21 18 17 16 15 13 12 10 9 8 7 7 8 9 10 10 10 11 12 13 13 14 16 16 17 17 17 17 17 18 19 20 21 21 21 20 19 18 18 17 17 17 17 17 17 17
54 54 53 52 51 50 48 45 43 41 40 38 35 32 30 28 26 24 22 20 18 17 15 13 12 11 10 9 7 7 7 8 9 9 9 10 10 11 11 12 13 14 14 14 15 15 15 15 16 18 18 19 19 18 17 17 16 16 16 16 15 15 15
57 56 56 56 54 53 51 48 46 44 42 40 38 35 33 32 30 28 26 24 21 20 18 16 14 13 12 11 10 9 8 8 8 8 8 8 9 9 9 9 10 11 11 12 12 13 13 13 13 14 15 15 16 16 16 16 15 15 15 14 14 13 13
60 58 58 59 57 55 54 51 49 47 45 43 41 39 37 36 34 32 30 27 26 24 22 20 17 15 14 13 12 11 10 9 8 7 7 7 7 8 8 7 8 8 8 9 9 10 10 11 11 11 11 12 12 13 14 14 13 13 12 12 11 11 10
63 61 60 59 57 56 55 52 50 49 47 45 44 42 40 39 37 35 33 31 30 28 26 25 22 19 17 16 15 14 13 12 10 9 7 7 7 7 7 7 6 6 6 6 6 7 7 8 8 9 9 9 9 10 10 11 11 11 11 10 10 9 8
63 63 61 59 56 56 56 54 52 50 49 47 46 45 44 42 40 38 36 34 32 30 29 27 25 22 19 18 17 16 15 14 13 11 9 8 7 6 6 6 6 6 6 5 5 4 4 5 5 6 7 7 7 7 8 8 9 9 9 9 9 9 8
63 64 63 59 55 55 57 56 53 51 51 50 49 48 47 46 43 40 38 36 34 31 30 29 27 25 23 21 20 18 17 16 15 13 12 10 8 7 6 6 6 6 7 6 5 5 4 4 4 4 5 5 6 6 6 6 6 7 7 8 8 8 8
65 66 64 62 58 54 55 56 55 53 52 51 50 50 50 49 46 43 40 39 37 34 33 32 30 29 27 24 22 20 19 17 16 14 13 12 11 9 8 8 7 7 8 8 8 7 7 6 5 5 5 6 6 6 5 5 4 4 5 5 5 5 6
68 68 66 65 62 57 56 56 55 52 50 51 52 52 52 51 49 46 44 42 40 37 36 34 33 32 29 26 24 23 21 20 18 17 15 14 13 12 11 11 10 10 9 9 10 10 10 10 9 8 8 7 8 7 7 6 5 5 4 4 4 4 4
70 69 68 67 64 60 58 59 57 53 50 51 54 55 54 54 53 50 48 45 43 40 39 37 35 34 32 29 28 25 24 23 21 19 17 15 15 14 14 14 13 13 13 13 13 12 12 12 12 11 11 10 10 10 9 9 9 8 7 7 6 6 6
71 70 69 67 66 63 61 61 61 58 55 53 55 57 58 57 56 54 51 49 45 43 41 39 37 35 33 31 30 28 27 25 23 22 19 17 17 16 16 16 16 16 17 17 17 16 15 15 15 14 14 13 12 12 12 12 12 11 10 10 10 10 9
72 72 71 68 67 66 64 64 65 63 61 59 58 59 60 59 58 57 55 52 48 46 44 41 38 36 34 33 32 30 29 27 25 24 22 20 20 20 19 20 19 19 20 20 20 20 19 18 17 16 16 17 16 16 15 15 15 14 13 12 11 11 11
72 71 72 70 67 68 67 67 67 67 67 66 64 62 62 61 60 59 57 54 51 48 46 43 41 38 37 35 34 32 30 29 28 27 25 23 22 22 23 24 24 23 23 22 22 22 23 23 22 20 19 20 20 19 19 18 18 17 16 14 14 13 13
76 71 72 73 70 70 71 71 70 70 70 70 68 67 65 63 62 60 58 56 54 52 49 46 44 42 40 38 36 34 33 32 31 30 29 27 26 26 27 26 26 26 25 23 23 24 25 25 25 24 23 23 23 23 22 22 22 21 19 18 17 17 17
83 77 73 74 74 72 73 74 73 73 73 72 70 70 68 65 63 62 60 58 57 56 52 49 47 45 42 40 38 37 36 35 33 31 30 29 29 30 29 29 28 27 27 26 25 26 26 26 25 26 26 26 27 27 26 26 26 26 25 23 22 22 22
88 85 78 76 77 75 73 74 76 76 75 73 71 71 69 66 64 63 62 61 60 59 56 53 49 47 44 42 39 39 38 37 34 33 32 32 32 32 32 33 32 30 30 30 30 29 29 28 27 28 28 29 30 30 30 29 30 31 31 30 28 27 27
92 92 86 81 81 79 75 74 76 78 78 75 72 71 69 68 67 65 64 62 61 61 59 56 52 48 46 43 42 41 41 39 37 35 35 35 35 34 34 36 37 35 33 32 33 34 34 33 32 31 32 33 34 34 34 33 33 33 35 35 34 33 32
95 97 95 88 86 83 79 77 76 78 79 77 75 72 70 69 69 68 65 64 63 63 61 58 54 50 46 44 44 44 44 42 40 38 37 37 37 37 37 38 39 38 36 35 36 37 37 38 37 36 35 36 37 37 36 36 36 36 37 38 38 38 36
97 100 99 95 92 89 85 81 79 78 79 79 78 75 72 69 70 69 67 65 64 63 63 61 56 51 48 46 45 47 48 47 44 41 39 40 40 40 40 42 41 39 40 41 40 39 39 40 41 41 40 38 38 39 39 39 40 39 39 39 39 40 40
97 100 101 99 97 94 90 86 82 80 79 79 79 78 75 71 70 70 69 68 65 64 63 62 58 54 51 49 49 49 50 48 45 44 43 44 46 45 44 46 45 42 43 46 44 41 40 42 43 44 44 43 41 40 40 41 42 40 38 38 40 41 42
97 99 102 102 100 99 95 90 86 82 80 79 80 80 78 74 71 70 71 70 69 67 65 63 62 59 56 55 55 53 51 48 47 48 48 49 51 48 45 46 47 46 48 49 46 43 42 43 46 47 46 46 46 44 42 43 43 41 38 38 39 41 42
97 99 102 103 101 101 99 94 89 85 82 81 81 82 81 79 75 73 72 72 71 70 68 66 66 65 62 60 60 57 53 51 51 50 50 51 52 48 42 42 45 48 51 51 50 48 44 44 49 50 47 47 48 48 46 47 47 45 42 40 40 40 41
99 99 101 103 102 101 100 98 93 88 85 84 83 82 83 82 79 75 74 74 73 72 72 71 70 69 66 64 63 60 58 56 55 53 51 52 54 49 42 40 43 47 51 51 51 52 49 48 52 55 52 50 51 50 49 50 51 50 47 45 43 41 41
101 100 100 102 102 101 100 99 95 89 85 85 85 83 83 84 83 79 76 74 74 74 75 75 73 71 69 67 66 65 63 62 61 58 54 53 55 52 47 45 47 48 51 53 54 55 55 55 58 60 58 55 54 54 53 53 54 55 53 50 48 46 44
102 101 100 100 101 101 100 99 97 93 87 85 85 85 84 85 86 83 80 77 75 75 77 78 76 74 72 70 69 69 69 68 67 64 59 56 58 57 52 50 52 53 54 56 58 60 61 61 62 64 64 61 59 58 57 56 56 57 57 54 53 51 50
103 102 101 100 100 101 101 100 100 99 95 89 86 86 85 85 86 86 85 83 80 78 79 79 79 78 76 73 71 72 72 72 71 70 65 61 61 61 58 54 54 56 56 57 59 63 66 66 65 65 66 65 63 62 62 61 60 61 61 60 58 56 55
103 103 102 101 100 101 101 101 102 103 102 98 92 89 86 85 85 86 87 86 84 82 81 81 80 80 78 76 74 74 73 73 74 74 71 67 64 65 64 60 57 57 58 58 58 59 62 66 68 69 70 68 67 66 67 66 65 65 66 66 65 62 60
104 104 103 103 102 101 102 103 103 104 105 104 100 96 92 89 87 86 87 87 87 86 85 83 81 81 81 80 78 77 75 75 76 77 76 74 71 69 69 69 65 63 62 62 61 60 60 62 65 69 72 73 73 73 72 71 70 70 70 69 68 67 66
105 105 105 104 103 103 102 103 104 105 106 106 106 103 101 98 94 91 88 88 89 89 88 86 85 84 85 84 82 81 79 77 78 80 81 80 78 75 73 74 74 72 71 70 69 68 67 66 66 67 69 72 74 76 76 76 76 75 74 72 71 71 71
106 106 106 105 104 104 103 103 104 105 106 108 108 107 106 104 102 99 95 91 89 90 91 90 89 88 88 88 87 86 83 80 80 83 85 86 84 81 78 77 77 78 77 76 74 74 73 72 72 72 71 71 72 74 74 75 76 76 76 75 75 75 75
106 106 107 106 106 105 104 104 104 105 106 107 109 109 109 108 106 105 103 99 94 92 92 93 92 92 91 91 91 91 90 87 85 85 87 89 89 87 84 82 80 80 80 78 77 76 76 75 76 76 76 75 73 73 72 72 74 75 76 76 76 77 77
103 105 107 107 107 107 106 105 105 105 106 107 108 110 110 110 108 107 107 106 102 98 95 95 96 95 95 95 95 95 95 94 91 89 90 91 92 92 89 86 83 82 82 82 80 78 77 77 78 78 79 79 78 77 76 75 75 77 79 79 78 78 78
100 103 106 108 108 108 108 107 106 106 106 107 108 109 110 111 110 109 109 110 109 106 102 99 99 99 99 99 99 99 99 98 96 95 94 93 93 94 92 89 85 83 84 85 84 82 80 79 79 80 81 81 82 81 80 80 80 81 82 82 82 82 81
100 101 103 106 108 109 109 109 108 108 107 107 107 108 109 110 111 111 111 111 111 111 109 105 103 102 102 102 102 102 102 101 100 99 98 98 97 96 96 93 88 85 85 87 88 87 85 83 82 82 83 84 84 85 84 84 84 84 85 85 85 86 86

ECMWFFLT1_250_spd_132.txt.gz
Wind_Speed
46 44 41 39 38 36 34 31 29 27 24 23 22 19 18 17 16 15 13 11 9 8 8 8 9 10 11 13 14 15 17 19 19 20 21 22 22 23 23 24 25 26 27 27 28 29 29 29 30 29 28 27 26 25 24 23 23 23 23 22 21 20 19
49 47 45 42 40 39 36 34 32 31 28 26 25 23 20 19 18 17 16 13 11 10 9 8 8 8 10 11 12 13 14 16 17 18 19 20 21 21 22 23 23 24 25 26 26 27 27 28 27 27 27 26 25 23 22 21 21 21 21 20 20 18 17
51 50 48 45 43 41 39 36 35 34 32 29 28 25 23 21 20 19 18 16 14 12 11 9 8 7 8 9 11 11 12 14 15 16 17 18 19 20 20 21 22 23 23 24 25 25 25 25 25 25 24 24 23 21 20 20 20 19 19 19 18 17 15
52 52 50 48 46 44 42 40 38 36 35 33 30 28 26 24 24 22 21 19 17 15 13 11 10 8 8 8 9 10 11 12 13 14 15 17 17 18 18 19 19 20 21 22 23 23 23 23 23 22 22 21 21 20 19 18 18 18 18 17 17 16 15
54 54 52 51 49 47 46 44 42 40 38 37 34 31 29 28 27 26 24 22 20 18 16 14 12 11 9 9 9 9 10 11 12 13 14 15 16 16 16 17 17 17 18 19 20 21 21 21 21 20 20 19 19 18 18 17 17 17 17 16 16 15 14
56 56 55 54 52 50 49 47 46 44 42 40 37 34 33 31 30 28 26 25 23 21 20 18 15 13 12 11 10 10 10 11 11 12 13 13 14 14 15 15 15 15 15 16 17 18 19 19 19 18 18 17 17 17 17 16 16 16 16 16 16 15 13
59 58 57 57 55 53 51 50 49 47 45 43 41 38 36 35 33 31 29 28 26 24 23 22 20 17 15 14 13 12 11 11 12 12 12 13 13 13 12 13 13 14 13 13 14 15 16 17 17 17 17 16 16 16 16 15 15 15 15 15 15 14 13
61 61 59 58 57 54 53 52 51 49 48 46 44 42 40 38 37 35 33 31 29 27 26 25 23 21 19 18 16 14 13 13 13 13 13 13 13 13 12 12 11 11 12 12 12 12 13 14 15 16 16 15 15 15 15 15 15 15 15 15 15 14 13
64 62 61 60 59 57 55 54 53 52 51 49 47 45 43 41 40 38 35 34 32 30 28 26 24 23 21 19 18 17 16 15 14 14 14 14 14 14 13 13 12 10 10 10 10 10 10 11 12 13 14 14 14 14 14 14 14 14 14 14 14 13 12
68 65 63 62 61 60 57 56 56 56 55 53 50 48 46 44 42 40 38 36 34 32 29 28 26 24 22 20 19 19 18 17 16 15 14 14 14 14 14 14 13 12 11 10 9 9 9 9 10 10 11 12 13 14 14 14 13 13 13 13 13 12 11
72 68 65 65 64 63 61 59 59 59 58 56 54 52 49 47 45 43 41 38 36 34 31 30 29 27 24 22 22 21 20 19 18 16 15 14 14 14 13 13 13 13 13 12 10 9 9 9 9 9 9 10 10 11 12 13 13 13 13 12 12 12 11
72 70 68 68 68 66 65 62 61 62 63 60 57 55 52 49 47 45 43 41 39 36 34 33 32 31 29 27 25 24 22 22 20 19 17 16 14 14 13 13 13 12 12 12 12 11 10 10 9 9 9 9 9 9 9 9 10 10 11 11 11 11 10
70 72 70 70 70 70 69 67 66 67 66 63 59 57 54 51 50 48 46 43 41 38 36 36 35 34 34 32 30 27 25 23 22 21 21 19 17 16 15 14 13 13 12 12 12 12 11 11 11 10 10 10 9 9 9 8 8 8 8 9 9 9 8
70 73 73 71 71 73 72 70 70 68 66 62 59 58 56 53 52 51 48 45 43 39 37 38 38 37 37 36 33 31 28 27 26 25 23 22 20 19 17 16 15 15 14 14 14 13 13 12 12 12 12 11 11 11 11 10 10 9 8 8 8 8 7
71 73 75 73 72 74 74 72 71 68 64 62 60 59 58 55 53 53 51 50 48 44 40 40 41 42 41 40 37 35 33 31 30 28 25 24 23 22 21 20 18 17 17 17 16 15 15 14 14 14 14 14 14 13 13 12 12 11 11 10 10 9 9
73 71 76 77 73 74 76 74 72 68 65 64 62 59 59 57 55 55 55 53 52 49 45 43 45 47 47 45 42 39 37 36 34 31 29 28 27 26 25 23 21 20 21 20 20 19 18 17 16 17 17 17 17 16 16 15 15 14 13 12 12 12 12
78 71 74 80 77 75 76 75 74 70 67 66 63 61 60 58 57 56 56 55 54 54 53 50 49 52 52 49 44 42 41 39 37 34 33 32 31 30 29 28 27 25 25 25 24 23 22 20 19 20 20 21 21 20 20 19 18 17 16 15 15 14 14
82 74 75 82 81 77 75 76 75 71 67 67 65 62 61 60 58 57 57 56 56 57 58 57 54 53 53 51 47 44 44 42 39 38 37 36 35 34 33 33 31 30 28 26 25 25 24 23 22 22 23 23 23 23 23 22 22 22 21 20 19 18 18
87 81 79 83 84 81 77 76 77 73 69 68 67 64 62 60 59 59 59 60 61 62 62 62 60 56 55 53 50 48 47 45 42 41 40 39 39 38 37 36 34 34 32 28 24 23 25 25 25 25 26 26 26 25 25 25 25 26 25 24 23 23 22
90 90 86 83 84 84 80 78 78 75 70 69 68 66 64 61 60 60 62 64 67 68 67 65 64 61 59 56 53 51 50 48 45 44 43 42 42 40 39 38 37 36 35 33 28 25 26 28 28 28 28 29 29 29 28 28 28 28 28 27 27 26 25
92 94 91 86 85 85 82 79 80 78 74 71 69 68 66 64 63 63 65 68 70 72 71 68 67 65 63 60 56 54 53 50 48 47 45 45 44 42 41 41 39 37 37 37 34 31 32 33 33 32 31 32 32 31 30 30 31 30 29 29 29 29 29
93 95 94 89 88 88 85 82 81 80 78 75 72 71 70 68 67 67 69 71 73 74 73 70 69 68 66 63 60 58 56 53 51 49 48 47 46 45 45 44 43 41 39 39 38 37 37 37 36 36 36 36 36 35 33 32 31 31 32 32 31 31 32
94 94 94 92 90 90 89 86 84 82 81 80 78 76 74 72 71 71 72 73 75 75 74 72 70 69 67 66 63 61 59 56 54 51 50 49 48 47 47 47 45 44 43 41 40 39 39 37 37 38 39 40 40 38 37 36 34 33 34 35 35 35 35
94 93 95 94 92 92 92 89 87 86 85 84 82 80 78 76 74 73 74 75 76 76 74 72 71 70 69 68 66 64 61 59 56 54 52 51 50 49 50 49 46 46 47 46 44 43 41 39 38 39 41 42 42 40 40 40 40 38 37 36 37 37 37
96 96 96 95 95 95 95 92 89 89 88 86 84 83 82 80 77 75 75 76 78 78 75 73 72 71 70 69 68 66 63 61 59 57 55 54 53 53 54 53 49 47 48 49 49 48 45 43 42 41 43 45 44 42 42 42 43 43 42 41 41 40 39
97 99 97 96 96 97 99 97 92 91 92 90 86 85 85 84 80 77 76 77 80 81 78 75 73 72 70 69 68 67 66 64 61 59 57 57 58 58 58 57 54 51 49 50 52 51 49 48 47 46 46 47 46 46 45 44 44 45 44 45 45 45 43
96 100 99 98 97 97 100 102 97 94 94 94 90 87 86 87 85 81 79 78 80 82 82 80 77 74 72 70 69 69 69 68 64 61 59 59 61 63 63 60 58 58 58 56 55 54 52 51 51 50 49 49 50 50 49 48 48 47 46 46 47 47 48
95 99 100 100 100 98 99 102 102 99 97 96 93 89 86 88 88 86 84 81 81 82 84 84 81 78 75 73 71 71 71 71 68 64 61 60 62 67 67 60 56 61 65 62 58 57 55 53 53 53 51 51 53 54 53 51 51 51 51 50 49 49 51
98 101 102 101 101 101 101 101 103 102 100 98 96 92 87 86 88 90 89 87 85 85 85 85 84 82 79 77 75 74 74 74 73 70 65 61 63 70 71 62 57 63 69 66 61 60 60 57 56 55 53 53 56 57 56 56 55 54 55 55 53 52 52
102 104 105 103 102 104 105 104 104 102 100 99 99 95 90 87 87 89 91 92 91 90 88 87 85 83 81 80 79 78 77 77 76 75 72 69 71 75 74 68 66 70 71 67 63 64 63 59 58 57 54 54 58 59 58 59 59 57 58 59 59 57 55
103 105 107 106 104 105 106 107 106 104 101 100 101 99 95 91 88 87 90 92 93 92 91 89 87 85 83 82 82 81 81 80 80 79 78 78 79 79 76 74 74 74 71 68 66 66 64 61 60 58 55 56 59 59 58 60 62 61 61 62 64 63 59
102 106 109 109 108 106 107 108 109 108 105 102 102 102 100 97 93 89 89 91 93 94 93 91 89 86 84 84 84 84 84 84 83 83 82 82 83 83 80 78 78 76 73 70 69 68 67 64 63 61 58 58 61 61 60 61 63 64 63 65 67 67 65
100 105 109 111 110 108 108 108 109 111 110 108 105 104 103 102 99 95 91 90 92 94 94 93 91 89 87 85 85 86 86 86 86 86 85 85 84 84 83 82 81 79 76 74 73 72 70 67 66 64 62 61 63 64 64 65 66 67 68 68 67 68 68
98 103 108 111 111 110 109 108 108 110 112 113 112 109 107 105 104 101 97 93 92 94 95 95 95 93 91 89 88 88 88 88 88 89 89 88 87 86 85 85 84 83 81 79 77 76 74 71 69 68 66 66 67 67 67 68 69 70 71 72 70 70 71
94 100 105 110 111 110 109 108 109 109 111 113 114 114 112 110 108 106 103 99 96 95 96 97 97 96 95 93 92 92 91 91 91 91 91 92 91 90 89 88 88 87 85 84 83 81 80 77 75 73 71 71 72 72 72 72 73 72 73 75 75 74 74
90 94 101 107 110 110 108 108 107 108 110 112 114 116 116 114 112 111 109 105 101 98 97 97 98 99 98 97 96 96 95 95 95 94 94 94 93 93 93 92 91 90 89 88 87 87 86 84 82 80 77 75 76 76 77 76 77 77 76 77 77 77 76
89 91 96 103 108 110 109 108 107 106 109 111 113 115 117 117 116 114 112 110 107 104 101 100 99 100 100 100 100 99 99 99 99 98 97 97 96 95 95 95 95 94 93 92 91 91 91 90 89 87 84 82 80 80 80 80 79 78 77 77 76 76 76
91 91 93 98 104 108 110 109 108 106 107 110 113 114 116 118 118 117 115 113 112 109 107 104 102 102 103 103 103 103 103 103 103 102 102 101 100 99 98 98 97 98 97 96 95 94 94 94 94 93 91 89 87 85 84 84 84 82 80 79 78 77 77